<?xml version="1.0" encoding="UTF-8" standalone="no" ?>
<gpx xmlns="http://www.topografix.com/GPX/1/1" xmlns:xsi="http://www.w3.org/2001/XMLSchema-instance" xsi:schemaLocation="http://www.topografix.com/GPX/1/1 http://www.topografix.com/GPX/1/1/gpx.xsd" version="1.1" creator="VisuGPX - https://www.visugpx.com">
  <metadata>
    <name>Vannes-Port Blanc par la côte et retour</name>
    <desc><![CDATA[Très jolie ballade, le long de la côte du golfe du Morbihan. Un peu de poussage et de portage.
Retour par une route très passante.]]></desc>
  </metadata>
  <trk>
    <name><![CDATA[Gravel Morbihan 2]]></name>
    <extensions>
      <line xmlns="http://www.topografix.com/GPX/gpx_style/0/2">
        <color>0000FF</color>
        <width>4</width>
      </line>
    </extensions>
    <trkseg>
      <trkpt lat="47.65589" lon="-2.75164">
        <ele>49.8</ele>
        <time>2021-11-12T11:29:10Z</time>
      </trkpt>
      <trkpt lat="47.65589" lon="-2.75164">
        <ele>49.8</ele>
        <time>2021-11-12T11:29:10Z</time>
      </trkpt>
      <trkpt lat="47.65587" lon="-2.75168">
        <ele>18</ele>
        <time>2021-11-12T11:29:11Z</time>
      </trkpt>
      <trkpt lat="47.65586" lon="-2.7517">
        <ele>19.6</ele>
        <time>2021-11-12T11:29:12Z</time>
      </trkpt>
      <trkpt lat="47.6558" lon="-2.75184">
        <ele>20.8</ele>
        <time>2021-11-12T11:29:16Z</time>
      </trkpt>
      <trkpt lat="47.65579" lon="-2.75188">
        <ele>21</ele>
        <time>2021-11-12T11:29:17Z</time>
      </trkpt>
      <trkpt lat="47.65565" lon="-2.75218">
        <ele>21.4</ele>
        <time>2021-11-12T11:29:26Z</time>
      </trkpt>
      <trkpt lat="47.65558" lon="-2.75234">
        <ele>21.8</ele>
        <time>2021-11-12T11:29:31Z</time>
      </trkpt>
      <trkpt lat="47.65554" lon="-2.75244">
        <ele>22</ele>
        <time>2021-11-12T11:29:34Z</time>
      </trkpt>
      <trkpt lat="47.65544" lon="-2.75265">
        <ele>22.8</ele>
        <time>2021-11-12T11:29:40Z</time>
      </trkpt>
      <trkpt lat="47.65541" lon="-2.75272">
        <ele>23</ele>
        <time>2021-11-12T11:29:42Z</time>
      </trkpt>
      <trkpt lat="47.65538" lon="-2.75279">
        <ele>23</ele>
        <time>2021-11-12T11:29:44Z</time>
      </trkpt>
      <trkpt lat="47.65526" lon="-2.75305">
        <ele>23.8</ele>
        <time>2021-11-12T11:29:52Z</time>
      </trkpt>
      <trkpt lat="47.65523" lon="-2.75312">
        <ele>23.8</ele>
        <time>2021-11-12T11:29:54Z</time>
      </trkpt>
      <trkpt lat="47.65513" lon="-2.75337">
        <ele>24.4</ele>
        <time>2021-11-12T11:30:02Z</time>
      </trkpt>
      <trkpt lat="47.65506" lon="-2.75361">
        <ele>24.8</ele>
        <time>2021-11-12T11:30:09Z</time>
      </trkpt>
      <trkpt lat="47.65506" lon="-2.75365">
        <ele>25</ele>
        <time>2021-11-12T11:30:12Z</time>
      </trkpt>
      <trkpt lat="47.65506" lon="-2.75365">
        <ele>25</ele>
        <time>2021-11-12T11:30:13Z</time>
      </trkpt>
      <trkpt lat="47.65505" lon="-2.75368">
        <ele>24.2</ele>
        <time>2021-11-12T11:30:29Z</time>
      </trkpt>
      <trkpt lat="47.65504" lon="-2.75376">
        <ele>23.8</ele>
        <time>2021-11-12T11:30:31Z</time>
      </trkpt>
      <trkpt lat="47.65504" lon="-2.7538">
        <ele>23.6</ele>
        <time>2021-11-12T11:30:32Z</time>
      </trkpt>
      <trkpt lat="47.65507" lon="-2.75405">
        <ele>22.8</ele>
        <time>2021-11-12T11:30:37Z</time>
      </trkpt>
      <trkpt lat="47.65509" lon="-2.75424">
        <ele>22.6</ele>
        <time>2021-11-12T11:30:40Z</time>
      </trkpt>
      <trkpt lat="47.6551" lon="-2.75436">
        <ele>22.4</ele>
        <time>2021-11-12T11:30:42Z</time>
      </trkpt>
      <trkpt lat="47.65515" lon="-2.75471">
        <ele>22</ele>
        <time>2021-11-12T11:30:48Z</time>
      </trkpt>
      <trkpt lat="47.65517" lon="-2.75498">
        <ele>21.4</ele>
        <time>2021-11-12T11:30:53Z</time>
      </trkpt>
      <trkpt lat="47.65518" lon="-2.75513">
        <ele>21.2</ele>
        <time>2021-11-12T11:30:56Z</time>
      </trkpt>
      <trkpt lat="47.65516" lon="-2.75535">
        <ele>20.8</ele>
        <time>2021-11-12T11:31:01Z</time>
      </trkpt>
      <trkpt lat="47.65515" lon="-2.75544">
        <ele>20.4</ele>
        <time>2021-11-12T11:31:05Z</time>
      </trkpt>
      <trkpt lat="47.65515" lon="-2.75544">
        <ele>20.2</ele>
        <time>2021-11-12T11:31:06Z</time>
      </trkpt>
      <trkpt lat="47.65515" lon="-2.75544">
        <ele>19.2</ele>
        <time>2021-11-12T11:31:14Z</time>
      </trkpt>
      <trkpt lat="47.65515" lon="-2.75544">
        <ele>19</ele>
        <time>2021-11-12T11:31:16Z</time>
      </trkpt>
      <trkpt lat="47.65515" lon="-2.75544">
        <ele>19</ele>
        <time>2021-11-12T11:31:18Z</time>
      </trkpt>
      <trkpt lat="47.65515" lon="-2.75544">
        <ele>18.4</ele>
        <time>2021-11-12T11:31:31Z</time>
      </trkpt>
      <trkpt lat="47.65512" lon="-2.75557">
        <ele>18.2</ele>
        <time>2021-11-12T11:31:34Z</time>
      </trkpt>
      <trkpt lat="47.6551" lon="-2.75563">
        <ele>18</ele>
        <time>2021-11-12T11:31:35Z</time>
      </trkpt>
      <trkpt lat="47.65506" lon="-2.75577">
        <ele>17.8</ele>
        <time>2021-11-12T11:31:37Z</time>
      </trkpt>
      <trkpt lat="47.65504" lon="-2.75586">
        <ele>17.8</ele>
        <time>2021-11-12T11:31:38Z</time>
      </trkpt>
      <trkpt lat="47.65501" lon="-2.75593">
        <ele>17.6</ele>
        <time>2021-11-12T11:31:39Z</time>
      </trkpt>
      <trkpt lat="47.65488" lon="-2.75622">
        <ele>17.4</ele>
        <time>2021-11-12T11:31:43Z</time>
      </trkpt>
      <trkpt lat="47.65463" lon="-2.75677">
        <ele>17.4</ele>
        <time>2021-11-12T11:31:50Z</time>
      </trkpt>
      <trkpt lat="47.65443" lon="-2.75725">
        <ele>17.4</ele>
        <time>2021-11-12T11:31:56Z</time>
      </trkpt>
      <trkpt lat="47.6544" lon="-2.75731">
        <ele>17.4</ele>
        <time>2021-11-12T11:31:57Z</time>
      </trkpt>
      <trkpt lat="47.6543" lon="-2.75756">
        <ele>17.4</ele>
        <time>2021-11-12T11:32:02Z</time>
      </trkpt>
      <trkpt lat="47.65429" lon="-2.75759">
        <ele>17.4</ele>
        <time>2021-11-12T11:32:03Z</time>
      </trkpt>
      <trkpt lat="47.65429" lon="-2.75761">
        <ele>17.4</ele>
        <time>2021-11-12T11:32:04Z</time>
      </trkpt>
      <trkpt lat="47.65429" lon="-2.75761">
        <ele>17.4</ele>
        <time>2021-11-12T11:32:05Z</time>
      </trkpt>
      <trkpt lat="47.65429" lon="-2.75761">
        <ele>17</ele>
        <time>2021-11-12T11:32:10Z</time>
      </trkpt>
      <trkpt lat="47.65429" lon="-2.75761">
        <ele>15.8</ele>
        <time>2021-11-12T11:32:18Z</time>
      </trkpt>
      <trkpt lat="47.65429" lon="-2.75761">
        <ele>14.8</ele>
        <time>2021-11-12T11:32:24Z</time>
      </trkpt>
      <trkpt lat="47.65429" lon="-2.75761">
        <ele>13.6</ele>
        <time>2021-11-12T11:32:31Z</time>
      </trkpt>
      <trkpt lat="47.65429" lon="-2.75761">
        <ele>12.6</ele>
        <time>2021-11-12T11:32:37Z</time>
      </trkpt>
      <trkpt lat="47.65429" lon="-2.75761">
        <ele>11.6</ele>
        <time>2021-11-12T11:32:42Z</time>
      </trkpt>
      <trkpt lat="47.65426" lon="-2.75769">
        <ele>11.2</ele>
        <time>2021-11-12T11:32:44Z</time>
      </trkpt>
      <trkpt lat="47.65425" lon="-2.75802">
        <ele>10.6</ele>
        <time>2021-11-12T11:32:49Z</time>
      </trkpt>
      <trkpt lat="47.65424" lon="-2.75818">
        <ele>10.4</ele>
        <time>2021-11-12T11:32:51Z</time>
      </trkpt>
      <trkpt lat="47.65422" lon="-2.75826">
        <ele>10.2</ele>
        <time>2021-11-12T11:32:52Z</time>
      </trkpt>
      <trkpt lat="47.65419" lon="-2.7584">
        <ele>10</ele>
        <time>2021-11-12T11:32:54Z</time>
      </trkpt>
      <trkpt lat="47.65411" lon="-2.75859">
        <ele>9.6</ele>
        <time>2021-11-12T11:32:57Z</time>
      </trkpt>
      <trkpt lat="47.65407" lon="-2.75864">
        <ele>9.6</ele>
        <time>2021-11-12T11:32:58Z</time>
      </trkpt>
      <trkpt lat="47.654" lon="-2.75874">
        <ele>9.4</ele>
        <time>2021-11-12T11:33:00Z</time>
      </trkpt>
      <trkpt lat="47.65396" lon="-2.75878">
        <ele>9.4</ele>
        <time>2021-11-12T11:33:01Z</time>
      </trkpt>
      <trkpt lat="47.65386" lon="-2.75892">
        <ele>9.4</ele>
        <time>2021-11-12T11:33:04Z</time>
      </trkpt>
      <trkpt lat="47.65383" lon="-2.75895">
        <ele>9.4</ele>
        <time>2021-11-12T11:33:05Z</time>
      </trkpt>
      <trkpt lat="47.65376" lon="-2.75901">
        <ele>9.6</ele>
        <time>2021-11-12T11:33:08Z</time>
      </trkpt>
      <trkpt lat="47.65374" lon="-2.75904">
        <ele>9.6</ele>
        <time>2021-11-12T11:33:11Z</time>
      </trkpt>
      <trkpt lat="47.65371" lon="-2.75903">
        <ele>9.8</ele>
        <time>2021-11-12T11:33:13Z</time>
      </trkpt>
      <trkpt lat="47.65363" lon="-2.75895">
        <ele>9.8</ele>
        <time>2021-11-12T11:33:18Z</time>
      </trkpt>
      <trkpt lat="47.65357" lon="-2.75891">
        <ele>9.8</ele>
        <time>2021-11-12T11:33:20Z</time>
      </trkpt>
      <trkpt lat="47.65346" lon="-2.75885">
        <ele>9.6</ele>
        <time>2021-11-12T11:33:23Z</time>
      </trkpt>
      <trkpt lat="47.65327" lon="-2.75874">
        <ele>9.4</ele>
        <time>2021-11-12T11:33:28Z</time>
      </trkpt>
      <trkpt lat="47.65299" lon="-2.7586">
        <ele>9.4</ele>
        <time>2021-11-12T11:33:35Z</time>
      </trkpt>
      <trkpt lat="47.65278" lon="-2.75857">
        <ele>9.4</ele>
        <time>2021-11-12T11:33:40Z</time>
      </trkpt>
      <trkpt lat="47.6527" lon="-2.7586">
        <ele>9.4</ele>
        <time>2021-11-12T11:33:42Z</time>
      </trkpt>
      <trkpt lat="47.65262" lon="-2.7586">
        <ele>9.4</ele>
        <time>2021-11-12T11:33:44Z</time>
      </trkpt>
      <trkpt lat="47.65254" lon="-2.7586">
        <ele>9.6</ele>
        <time>2021-11-12T11:33:46Z</time>
      </trkpt>
      <trkpt lat="47.6525" lon="-2.7586">
        <ele>9.6</ele>
        <time>2021-11-12T11:33:47Z</time>
      </trkpt>
      <trkpt lat="47.65246" lon="-2.7586">
        <ele>9.6</ele>
        <time>2021-11-12T11:33:48Z</time>
      </trkpt>
      <trkpt lat="47.65226" lon="-2.75857">
        <ele>10</ele>
        <time>2021-11-12T11:33:53Z</time>
      </trkpt>
      <trkpt lat="47.65218" lon="-2.75855">
        <ele>10</ele>
        <time>2021-11-12T11:33:55Z</time>
      </trkpt>
      <trkpt lat="47.65202" lon="-2.75854">
        <ele>10</ele>
        <time>2021-11-12T11:33:59Z</time>
      </trkpt>
      <trkpt lat="47.65193" lon="-2.75855">
        <ele>10</ele>
        <time>2021-11-12T11:34:01Z</time>
      </trkpt>
      <trkpt lat="47.65185" lon="-2.75858">
        <ele>10</ele>
        <time>2021-11-12T11:34:03Z</time>
      </trkpt>
      <trkpt lat="47.65181" lon="-2.75859">
        <ele>10</ele>
        <time>2021-11-12T11:34:04Z</time>
      </trkpt>
      <trkpt lat="47.65176" lon="-2.7586">
        <ele>10.2</ele>
        <time>2021-11-12T11:34:05Z</time>
      </trkpt>
      <trkpt lat="47.65159" lon="-2.75857">
        <ele>10.4</ele>
        <time>2021-11-12T11:34:09Z</time>
      </trkpt>
      <trkpt lat="47.65152" lon="-2.75856">
        <ele>10.2</ele>
        <time>2021-11-12T11:34:11Z</time>
      </trkpt>
      <trkpt lat="47.6514" lon="-2.75851">
        <ele>10.2</ele>
        <time>2021-11-12T11:34:14Z</time>
      </trkpt>
      <trkpt lat="47.65136" lon="-2.75849">
        <ele>10</ele>
        <time>2021-11-12T11:34:15Z</time>
      </trkpt>
      <trkpt lat="47.65124" lon="-2.75842">
        <ele>9.8</ele>
        <time>2021-11-12T11:34:18Z</time>
      </trkpt>
      <trkpt lat="47.65115" lon="-2.75839">
        <ele>9.6</ele>
        <time>2021-11-12T11:34:20Z</time>
      </trkpt>
      <trkpt lat="47.65111" lon="-2.75838">
        <ele>9.6</ele>
        <time>2021-11-12T11:34:21Z</time>
      </trkpt>
      <trkpt lat="47.65106" lon="-2.75837">
        <ele>9.4</ele>
        <time>2021-11-12T11:34:22Z</time>
      </trkpt>
      <trkpt lat="47.65082" lon="-2.75835">
        <ele>9</ele>
        <time>2021-11-12T11:34:27Z</time>
      </trkpt>
      <trkpt lat="47.6504" lon="-2.75831">
        <ele>8.4</ele>
        <time>2021-11-12T11:34:36Z</time>
      </trkpt>
      <trkpt lat="47.6501" lon="-2.75828">
        <ele>7.6</ele>
        <time>2021-11-12T11:34:43Z</time>
      </trkpt>
      <trkpt lat="47.65006" lon="-2.75828">
        <ele>7.6</ele>
        <time>2021-11-12T11:34:44Z</time>
      </trkpt>
      <trkpt lat="47.64999" lon="-2.75826">
        <ele>7.2</ele>
        <time>2021-11-12T11:34:46Z</time>
      </trkpt>
      <trkpt lat="47.64992" lon="-2.75826">
        <ele>7.2</ele>
        <time>2021-11-12T11:34:48Z</time>
      </trkpt>
      <trkpt lat="47.64973" lon="-2.75824">
        <ele>6.8</ele>
        <time>2021-11-12T11:34:53Z</time>
      </trkpt>
      <trkpt lat="47.64945" lon="-2.75821">
        <ele>6.2</ele>
        <time>2021-11-12T11:35:00Z</time>
      </trkpt>
      <trkpt lat="47.64941" lon="-2.7582">
        <ele>6.2</ele>
        <time>2021-11-12T11:35:01Z</time>
      </trkpt>
      <trkpt lat="47.64937" lon="-2.75819">
        <ele>6.2</ele>
        <time>2021-11-12T11:35:02Z</time>
      </trkpt>
      <trkpt lat="47.64932" lon="-2.75818">
        <ele>6</ele>
        <time>2021-11-12T11:35:03Z</time>
      </trkpt>
      <trkpt lat="47.64924" lon="-2.75817">
        <ele>6</ele>
        <time>2021-11-12T11:35:05Z</time>
      </trkpt>
      <trkpt lat="47.6491" lon="-2.75815">
        <ele>6</ele>
        <time>2021-11-12T11:35:08Z</time>
      </trkpt>
      <trkpt lat="47.64874" lon="-2.75811">
        <ele>5</ele>
        <time>2021-11-12T11:35:16Z</time>
      </trkpt>
      <trkpt lat="47.64852" lon="-2.75809">
        <ele>3.8</ele>
        <time>2021-11-12T11:35:21Z</time>
      </trkpt>
      <trkpt lat="47.64846" lon="-2.75808">
        <ele>3.6</ele>
        <time>2021-11-12T11:35:22Z</time>
      </trkpt>
      <trkpt lat="47.64829" lon="-2.75807">
        <ele>3</ele>
        <time>2021-11-12T11:35:26Z</time>
      </trkpt>
      <trkpt lat="47.64816" lon="-2.75805">
        <ele>2.8</ele>
        <time>2021-11-12T11:35:29Z</time>
      </trkpt>
      <trkpt lat="47.64812" lon="-2.75804">
        <ele>2.6</ele>
        <time>2021-11-12T11:35:30Z</time>
      </trkpt>
      <trkpt lat="47.64808" lon="-2.75804">
        <ele>2.2</ele>
        <time>2021-11-12T11:35:31Z</time>
      </trkpt>
      <trkpt lat="47.64799" lon="-2.75804">
        <ele>1.8</ele>
        <time>2021-11-12T11:35:33Z</time>
      </trkpt>
      <trkpt lat="47.64792" lon="-2.75803">
        <ele>1.6</ele>
        <time>2021-11-12T11:35:35Z</time>
      </trkpt>
      <trkpt lat="47.6479" lon="-2.75804">
        <ele>1.6</ele>
        <time>2021-11-12T11:35:36Z</time>
      </trkpt>
      <trkpt lat="47.64788" lon="-2.7581">
        <ele>1.2</ele>
        <time>2021-11-12T11:35:38Z</time>
      </trkpt>
      <trkpt lat="47.64788" lon="-2.7583">
        <ele>0.8</ele>
        <time>2021-11-12T11:35:43Z</time>
      </trkpt>
      <trkpt lat="47.64788" lon="-2.75836">
        <ele>0.4</ele>
        <time>2021-11-12T11:35:45Z</time>
      </trkpt>
      <trkpt lat="47.64786" lon="-2.75838">
        <ele>0.4</ele>
        <time>2021-11-12T11:35:46Z</time>
      </trkpt>
      <trkpt lat="47.64783" lon="-2.75838">
        <ele>0.2</ele>
        <time>2021-11-12T11:35:47Z</time>
      </trkpt>
      <trkpt lat="47.64771" lon="-2.75838">
        <ele>-0.4</ele>
        <time>2021-11-12T11:35:51Z</time>
      </trkpt>
      <trkpt lat="47.64759" lon="-2.7584">
        <ele>-1</ele>
        <time>2021-11-12T11:35:54Z</time>
      </trkpt>
      <trkpt lat="47.64743" lon="-2.75843">
        <ele>-1.4</ele>
        <time>2021-11-12T11:35:58Z</time>
      </trkpt>
      <trkpt lat="47.64734" lon="-2.75846">
        <ele>-1.6</ele>
        <time>2021-11-12T11:36:00Z</time>
      </trkpt>
      <trkpt lat="47.64726" lon="-2.7585">
        <ele>-1.8</ele>
        <time>2021-11-12T11:36:02Z</time>
      </trkpt>
      <trkpt lat="47.64722" lon="-2.75852">
        <ele>-2</ele>
        <time>2021-11-12T11:36:03Z</time>
      </trkpt>
      <trkpt lat="47.64718" lon="-2.75854">
        <ele>-2</ele>
        <time>2021-11-12T11:36:04Z</time>
      </trkpt>
      <trkpt lat="47.64686" lon="-2.7587">
        <ele>-3</ele>
        <time>2021-11-12T11:36:12Z</time>
      </trkpt>
      <trkpt lat="47.64678" lon="-2.75875">
        <ele>-3.2</ele>
        <time>2021-11-12T11:36:14Z</time>
      </trkpt>
      <trkpt lat="47.6467" lon="-2.75879">
        <ele>-3.4</ele>
        <time>2021-11-12T11:36:16Z</time>
      </trkpt>
      <trkpt lat="47.64659" lon="-2.75884">
        <ele>-3.8</ele>
        <time>2021-11-12T11:36:19Z</time>
      </trkpt>
      <trkpt lat="47.64637" lon="-2.75895">
        <ele>-4</ele>
        <time>2021-11-12T11:36:25Z</time>
      </trkpt>
      <trkpt lat="47.6463" lon="-2.759">
        <ele>-4.2</ele>
        <time>2021-11-12T11:36:27Z</time>
      </trkpt>
      <trkpt lat="47.64612" lon="-2.7591">
        <ele>-4.6</ele>
        <time>2021-11-12T11:36:32Z</time>
      </trkpt>
      <trkpt lat="47.64579" lon="-2.75926">
        <ele>-5.6</ele>
        <time>2021-11-12T11:36:40Z</time>
      </trkpt>
      <trkpt lat="47.64571" lon="-2.7593">
        <ele>-6.2</ele>
        <time>2021-11-12T11:36:42Z</time>
      </trkpt>
      <trkpt lat="47.64548" lon="-2.7594">
        <ele>-6.4</ele>
        <time>2021-11-12T11:36:47Z</time>
      </trkpt>
      <trkpt lat="47.64544" lon="-2.7594">
        <ele>-6.6</ele>
        <time>2021-11-12T11:36:48Z</time>
      </trkpt>
      <trkpt lat="47.6454" lon="-2.75939">
        <ele>-6.8</ele>
        <time>2021-11-12T11:36:49Z</time>
      </trkpt>
      <trkpt lat="47.6453" lon="-2.75939">
        <ele>-7</ele>
        <time>2021-11-12T11:36:51Z</time>
      </trkpt>
      <trkpt lat="47.64521" lon="-2.75942">
        <ele>-7.2</ele>
        <time>2021-11-12T11:36:53Z</time>
      </trkpt>
      <trkpt lat="47.64516" lon="-2.75945">
        <ele>-7.6</ele>
        <time>2021-11-12T11:36:54Z</time>
      </trkpt>
      <trkpt lat="47.64487" lon="-2.7596">
        <ele>-8.8</ele>
        <time>2021-11-12T11:37:00Z</time>
      </trkpt>
      <trkpt lat="47.64472" lon="-2.75968">
        <ele>-9</ele>
        <time>2021-11-12T11:37:03Z</time>
      </trkpt>
      <trkpt lat="47.64448" lon="-2.75979">
        <ele>-9.4</ele>
        <time>2021-11-12T11:37:08Z</time>
      </trkpt>
      <trkpt lat="47.64439" lon="-2.75985">
        <ele>-9.6</ele>
        <time>2021-11-12T11:37:10Z</time>
      </trkpt>
      <trkpt lat="47.64429" lon="-2.75992">
        <ele>-10</ele>
        <time>2021-11-12T11:37:12Z</time>
      </trkpt>
      <trkpt lat="47.6442" lon="-2.75997">
        <ele>-10.2</ele>
        <time>2021-11-12T11:37:14Z</time>
      </trkpt>
      <trkpt lat="47.64405" lon="-2.76004">
        <ele>-10.4</ele>
        <time>2021-11-12T11:37:17Z</time>
      </trkpt>
      <trkpt lat="47.64392" lon="-2.7601">
        <ele>-10.8</ele>
        <time>2021-11-12T11:37:20Z</time>
      </trkpt>
      <trkpt lat="47.64384" lon="-2.76012">
        <ele>-11</ele>
        <time>2021-11-12T11:37:22Z</time>
      </trkpt>
      <trkpt lat="47.64373" lon="-2.76004">
        <ele>-11.2</ele>
        <time>2021-11-12T11:37:26Z</time>
      </trkpt>
      <trkpt lat="47.64368" lon="-2.76001">
        <ele>-11.2</ele>
        <time>2021-11-12T11:37:28Z</time>
      </trkpt>
      <trkpt lat="47.64366" lon="-2.76002">
        <ele>-11.4</ele>
        <time>2021-11-12T11:37:29Z</time>
      </trkpt>
      <trkpt lat="47.64346" lon="-2.76015">
        <ele>-12.2</ele>
        <time>2021-11-12T11:37:35Z</time>
      </trkpt>
      <trkpt lat="47.64342" lon="-2.76016">
        <ele>-12.2</ele>
        <time>2021-11-12T11:37:36Z</time>
      </trkpt>
      <trkpt lat="47.64324" lon="-2.76029">
        <ele>-13</ele>
        <time>2021-11-12T11:37:41Z</time>
      </trkpt>
      <trkpt lat="47.64305" lon="-2.76048">
        <ele>-13.4</ele>
        <time>2021-11-12T11:37:47Z</time>
      </trkpt>
      <trkpt lat="47.64301" lon="-2.76052">
        <ele>-13.4</ele>
        <time>2021-11-12T11:37:48Z</time>
      </trkpt>
      <trkpt lat="47.64288" lon="-2.76063">
        <ele>-13.6</ele>
        <time>2021-11-12T11:37:52Z</time>
      </trkpt>
      <trkpt lat="47.64263" lon="-2.7608">
        <ele>-14.4</ele>
        <time>2021-11-12T11:37:59Z</time>
      </trkpt>
      <trkpt lat="47.64236" lon="-2.76089">
        <ele>-14.4</ele>
        <time>2021-11-12T11:38:06Z</time>
      </trkpt>
      <trkpt lat="47.64209" lon="-2.761">
        <ele>-14.8</ele>
        <time>2021-11-12T11:38:13Z</time>
      </trkpt>
      <trkpt lat="47.64185" lon="-2.7611">
        <ele>-14.8</ele>
        <time>2021-11-12T11:38:19Z</time>
      </trkpt>
      <trkpt lat="47.64177" lon="-2.76113">
        <ele>-15</ele>
        <time>2021-11-12T11:38:21Z</time>
      </trkpt>
      <trkpt lat="47.64158" lon="-2.7612">
        <ele>-15.4</ele>
        <time>2021-11-12T11:38:26Z</time>
      </trkpt>
      <trkpt lat="47.64128" lon="-2.76131">
        <ele>-15.4</ele>
        <time>2021-11-12T11:38:33Z</time>
      </trkpt>
      <trkpt lat="47.64124" lon="-2.76134">
        <ele>-15.4</ele>
        <time>2021-11-12T11:38:34Z</time>
      </trkpt>
      <trkpt lat="47.64112" lon="-2.76139">
        <ele>-15.8</ele>
        <time>2021-11-12T11:38:37Z</time>
      </trkpt>
      <trkpt lat="47.64107" lon="-2.76141">
        <ele>-16.2</ele>
        <time>2021-11-12T11:38:38Z</time>
      </trkpt>
      <trkpt lat="47.641" lon="-2.76146">
        <ele>-16.4</ele>
        <time>2021-11-12T11:38:40Z</time>
      </trkpt>
      <trkpt lat="47.64094" lon="-2.76151">
        <ele>-16.6</ele>
        <time>2021-11-12T11:38:42Z</time>
      </trkpt>
      <trkpt lat="47.64076" lon="-2.76159">
        <ele>-17</ele>
        <time>2021-11-12T11:38:47Z</time>
      </trkpt>
      <trkpt lat="47.64055" lon="-2.76161">
        <ele>-17.8</ele>
        <time>2021-11-12T11:38:52Z</time>
      </trkpt>
      <trkpt lat="47.64023" lon="-2.76173">
        <ele>-18.4</ele>
        <time>2021-11-12T11:38:59Z</time>
      </trkpt>
      <trkpt lat="47.64014" lon="-2.76177">
        <ele>-18.6</ele>
        <time>2021-11-12T11:39:01Z</time>
      </trkpt>
      <trkpt lat="47.64008" lon="-2.76185">
        <ele>-18.8</ele>
        <time>2021-11-12T11:39:03Z</time>
      </trkpt>
      <trkpt lat="47.64001" lon="-2.762">
        <ele>-19.2</ele>
        <time>2021-11-12T11:39:06Z</time>
      </trkpt>
      <trkpt lat="47.63997" lon="-2.76217">
        <ele>-19.6</ele>
        <time>2021-11-12T11:39:09Z</time>
      </trkpt>
      <trkpt lat="47.63995" lon="-2.76234">
        <ele>-19.8</ele>
        <time>2021-11-12T11:39:13Z</time>
      </trkpt>
      <trkpt lat="47.63994" lon="-2.76248">
        <ele>-20</ele>
        <time>2021-11-12T11:39:16Z</time>
      </trkpt>
      <trkpt lat="47.63991" lon="-2.7625">
        <ele>-20</ele>
        <time>2021-11-12T11:39:17Z</time>
      </trkpt>
      <trkpt lat="47.63959" lon="-2.76251">
        <ele>-20.8</ele>
        <time>2021-11-12T11:39:26Z</time>
      </trkpt>
      <trkpt lat="47.63945" lon="-2.76253">
        <ele>-21.2</ele>
        <time>2021-11-12T11:39:30Z</time>
      </trkpt>
      <trkpt lat="47.6393" lon="-2.76253">
        <ele>-21.4</ele>
        <time>2021-11-12T11:39:34Z</time>
      </trkpt>
      <trkpt lat="47.63898" lon="-2.76255">
        <ele>-21.8</ele>
        <time>2021-11-12T11:39:42Z</time>
      </trkpt>
      <trkpt lat="47.63863" lon="-2.7626">
        <ele>-22.4</ele>
        <time>2021-11-12T11:39:51Z</time>
      </trkpt>
      <trkpt lat="47.63822" lon="-2.76262">
        <ele>-22.8</ele>
        <time>2021-11-12T11:40:01Z</time>
      </trkpt>
      <trkpt lat="47.63809" lon="-2.76262">
        <ele>-22.8</ele>
        <time>2021-11-12T11:40:05Z</time>
      </trkpt>
      <trkpt lat="47.63807" lon="-2.76259">
        <ele>-22.8</ele>
        <time>2021-11-12T11:40:06Z</time>
      </trkpt>
      <trkpt lat="47.63804" lon="-2.76254">
        <ele>-22.8</ele>
        <time>2021-11-12T11:40:08Z</time>
      </trkpt>
      <trkpt lat="47.63798" lon="-2.76253">
        <ele>-22.8</ele>
        <time>2021-11-12T11:40:10Z</time>
      </trkpt>
      <trkpt lat="47.63775" lon="-2.76255">
        <ele>-23.2</ele>
        <time>2021-11-12T11:40:16Z</time>
      </trkpt>
      <trkpt lat="47.63742" lon="-2.76258">
        <ele>-23.6</ele>
        <time>2021-11-12T11:40:24Z</time>
      </trkpt>
      <trkpt lat="47.63722" lon="-2.76259">
        <ele>-23.6</ele>
        <time>2021-11-12T11:40:28Z</time>
      </trkpt>
      <trkpt lat="47.63713" lon="-2.76258">
        <ele>-23.6</ele>
        <time>2021-11-12T11:40:30Z</time>
      </trkpt>
      <trkpt lat="47.63708" lon="-2.76257">
        <ele>-23.4</ele>
        <time>2021-11-12T11:40:31Z</time>
      </trkpt>
      <trkpt lat="47.63703" lon="-2.76256">
        <ele>-23.4</ele>
        <time>2021-11-12T11:40:32Z</time>
      </trkpt>
      <trkpt lat="47.63676" lon="-2.76244">
        <ele>-22.6</ele>
        <time>2021-11-12T11:40:38Z</time>
      </trkpt>
      <trkpt lat="47.63639" lon="-2.76227">
        <ele>-22.4</ele>
        <time>2021-11-12T11:40:46Z</time>
      </trkpt>
      <trkpt lat="47.6363" lon="-2.76223">
        <ele>-22.2</ele>
        <time>2021-11-12T11:40:48Z</time>
      </trkpt>
      <trkpt lat="47.6362" lon="-2.7622">
        <ele>-22</ele>
        <time>2021-11-12T11:40:50Z</time>
      </trkpt>
      <trkpt lat="47.63615" lon="-2.7622">
        <ele>-22</ele>
        <time>2021-11-12T11:40:51Z</time>
      </trkpt>
      <trkpt lat="47.63601" lon="-2.76221">
        <ele>-22</ele>
        <time>2021-11-12T11:40:54Z</time>
      </trkpt>
      <trkpt lat="47.63592" lon="-2.76222">
        <ele>-21.8</ele>
        <time>2021-11-12T11:40:56Z</time>
      </trkpt>
      <trkpt lat="47.63583" lon="-2.76223">
        <ele>-21.8</ele>
        <time>2021-11-12T11:40:58Z</time>
      </trkpt>
      <trkpt lat="47.63579" lon="-2.76223">
        <ele>-21.8</ele>
        <time>2021-11-12T11:40:59Z</time>
      </trkpt>
      <trkpt lat="47.63565" lon="-2.76223">
        <ele>-21.8</ele>
        <time>2021-11-12T11:41:02Z</time>
      </trkpt>
      <trkpt lat="47.63556" lon="-2.76225">
        <ele>-21.8</ele>
        <time>2021-11-12T11:41:04Z</time>
      </trkpt>
      <trkpt lat="47.6353" lon="-2.76225">
        <ele>-21.8</ele>
        <time>2021-11-12T11:41:10Z</time>
      </trkpt>
      <trkpt lat="47.63524" lon="-2.76225">
        <ele>-21.6</ele>
        <time>2021-11-12T11:41:12Z</time>
      </trkpt>
      <trkpt lat="47.63505" lon="-2.76229">
        <ele>-21.6</ele>
        <time>2021-11-12T11:41:18Z</time>
      </trkpt>
      <trkpt lat="47.63475" lon="-2.76233">
        <ele>-21.4</ele>
        <time>2021-11-12T11:41:26Z</time>
      </trkpt>
      <trkpt lat="47.63451" lon="-2.76236">
        <ele>-21.2</ele>
        <time>2021-11-12T11:41:32Z</time>
      </trkpt>
      <trkpt lat="47.63438" lon="-2.76237">
        <ele>-21.2</ele>
        <time>2021-11-12T11:41:35Z</time>
      </trkpt>
      <trkpt lat="47.63433" lon="-2.76237">
        <ele>-21.2</ele>
        <time>2021-11-12T11:41:36Z</time>
      </trkpt>
      <trkpt lat="47.6342" lon="-2.7624">
        <ele>-21.2</ele>
        <time>2021-11-12T11:41:39Z</time>
      </trkpt>
      <trkpt lat="47.63415" lon="-2.7624">
        <ele>-21</ele>
        <time>2021-11-12T11:41:40Z</time>
      </trkpt>
      <trkpt lat="47.63411" lon="-2.7624">
        <ele>-21</ele>
        <time>2021-11-12T11:41:41Z</time>
      </trkpt>
      <trkpt lat="47.63398" lon="-2.76241">
        <ele>-21.2</ele>
        <time>2021-11-12T11:41:44Z</time>
      </trkpt>
      <trkpt lat="47.63376" lon="-2.76246">
        <ele>-21.2</ele>
        <time>2021-11-12T11:41:49Z</time>
      </trkpt>
      <trkpt lat="47.63362" lon="-2.7625">
        <ele>-21</ele>
        <time>2021-11-12T11:41:52Z</time>
      </trkpt>
      <trkpt lat="47.63348" lon="-2.76251">
        <ele>-20.8</ele>
        <time>2021-11-12T11:41:55Z</time>
      </trkpt>
      <trkpt lat="47.6334" lon="-2.76252">
        <ele>-21</ele>
        <time>2021-11-12T11:41:57Z</time>
      </trkpt>
      <trkpt lat="47.63322" lon="-2.76259">
        <ele>-20.8</ele>
        <time>2021-11-12T11:42:01Z</time>
      </trkpt>
      <trkpt lat="47.63301" lon="-2.76272">
        <ele>-20.6</ele>
        <time>2021-11-12T11:42:06Z</time>
      </trkpt>
      <trkpt lat="47.63297" lon="-2.76276">
        <ele>-20.4</ele>
        <time>2021-11-12T11:42:07Z</time>
      </trkpt>
      <trkpt lat="47.63263" lon="-2.76302">
        <ele>-20.4</ele>
        <time>2021-11-12T11:42:15Z</time>
      </trkpt>
      <trkpt lat="47.63247" lon="-2.76318">
        <ele>-20.6</ele>
        <time>2021-11-12T11:42:19Z</time>
      </trkpt>
      <trkpt lat="47.63238" lon="-2.76332">
        <ele>-20.6</ele>
        <time>2021-11-12T11:42:22Z</time>
      </trkpt>
      <trkpt lat="47.63231" lon="-2.76341">
        <ele>-20.8</ele>
        <time>2021-11-12T11:42:24Z</time>
      </trkpt>
      <trkpt lat="47.63223" lon="-2.76355">
        <ele>-20.8</ele>
        <time>2021-11-12T11:42:27Z</time>
      </trkpt>
      <trkpt lat="47.6322" lon="-2.76359">
        <ele>-20.8</ele>
        <time>2021-11-12T11:42:28Z</time>
      </trkpt>
      <trkpt lat="47.63215" lon="-2.76369">
        <ele>-20.8</ele>
        <time>2021-11-12T11:42:30Z</time>
      </trkpt>
      <trkpt lat="47.6321" lon="-2.76379">
        <ele>-20.8</ele>
        <time>2021-11-12T11:42:32Z</time>
      </trkpt>
      <trkpt lat="47.63208" lon="-2.76384">
        <ele>-20.6</ele>
        <time>2021-11-12T11:42:33Z</time>
      </trkpt>
      <trkpt lat="47.63202" lon="-2.76393">
        <ele>-20.4</ele>
        <time>2021-11-12T11:42:35Z</time>
      </trkpt>
      <trkpt lat="47.63196" lon="-2.76401">
        <ele>-20.4</ele>
        <time>2021-11-12T11:42:37Z</time>
      </trkpt>
      <trkpt lat="47.63192" lon="-2.76404">
        <ele>-20.4</ele>
        <time>2021-11-12T11:42:38Z</time>
      </trkpt>
      <trkpt lat="47.63178" lon="-2.76416">
        <ele>-20.4</ele>
        <time>2021-11-12T11:42:43Z</time>
      </trkpt>
      <trkpt lat="47.63168" lon="-2.76433">
        <ele>-20.4</ele>
        <time>2021-11-12T11:42:48Z</time>
      </trkpt>
      <trkpt lat="47.63161" lon="-2.76455">
        <ele>-20</ele>
        <time>2021-11-12T11:42:53Z</time>
      </trkpt>
      <trkpt lat="47.6316" lon="-2.76459">
        <ele>-19.8</ele>
        <time>2021-11-12T11:42:54Z</time>
      </trkpt>
      <trkpt lat="47.63153" lon="-2.76487">
        <ele>-19.4</ele>
        <time>2021-11-12T11:43:00Z</time>
      </trkpt>
      <trkpt lat="47.6315" lon="-2.76514">
        <ele>-19</ele>
        <time>2021-11-12T11:43:05Z</time>
      </trkpt>
      <trkpt lat="47.63145" lon="-2.76544">
        <ele>-19</ele>
        <time>2021-11-12T11:43:10Z</time>
      </trkpt>
      <trkpt lat="47.63143" lon="-2.76551">
        <ele>-19</ele>
        <time>2021-11-12T11:43:11Z</time>
      </trkpt>
      <trkpt lat="47.63142" lon="-2.76569">
        <ele>-18.8</ele>
        <time>2021-11-12T11:43:14Z</time>
      </trkpt>
      <trkpt lat="47.63138" lon="-2.76579">
        <ele>-19</ele>
        <time>2021-11-12T11:43:16Z</time>
      </trkpt>
      <trkpt lat="47.63135" lon="-2.76586">
        <ele>-19</ele>
        <time>2021-11-12T11:43:17Z</time>
      </trkpt>
      <trkpt lat="47.63134" lon="-2.76591">
        <ele>-19</ele>
        <time>2021-11-12T11:43:18Z</time>
      </trkpt>
      <trkpt lat="47.6313" lon="-2.76603">
        <ele>-19.2</ele>
        <time>2021-11-12T11:43:20Z</time>
      </trkpt>
      <trkpt lat="47.63129" lon="-2.76613">
        <ele>-19.6</ele>
        <time>2021-11-12T11:43:22Z</time>
      </trkpt>
      <trkpt lat="47.63121" lon="-2.7664">
        <ele>-19.8</ele>
        <time>2021-11-12T11:43:27Z</time>
      </trkpt>
      <trkpt lat="47.63114" lon="-2.76668">
        <ele>-20</ele>
        <time>2021-11-12T11:43:32Z</time>
      </trkpt>
      <trkpt lat="47.63103" lon="-2.76686">
        <ele>-20</ele>
        <time>2021-11-12T11:43:36Z</time>
      </trkpt>
      <trkpt lat="47.63093" lon="-2.76706">
        <ele>-20</ele>
        <time>2021-11-12T11:43:39Z</time>
      </trkpt>
      <trkpt lat="47.63091" lon="-2.76712">
        <ele>-20</ele>
        <time>2021-11-12T11:43:40Z</time>
      </trkpt>
      <trkpt lat="47.63076" lon="-2.76756">
        <ele>-20</ele>
        <time>2021-11-12T11:43:47Z</time>
      </trkpt>
      <trkpt lat="47.63073" lon="-2.76762">
        <ele>-20</ele>
        <time>2021-11-12T11:43:48Z</time>
      </trkpt>
      <trkpt lat="47.6307" lon="-2.76773">
        <ele>-20.2</ele>
        <time>2021-11-12T11:43:50Z</time>
      </trkpt>
      <trkpt lat="47.63065" lon="-2.76784">
        <ele>-20.2</ele>
        <time>2021-11-12T11:43:52Z</time>
      </trkpt>
      <trkpt lat="47.63064" lon="-2.7679">
        <ele>-20.2</ele>
        <time>2021-11-12T11:43:53Z</time>
      </trkpt>
      <trkpt lat="47.63061" lon="-2.76803">
        <ele>-20.2</ele>
        <time>2021-11-12T11:43:55Z</time>
      </trkpt>
      <trkpt lat="47.6306" lon="-2.76817">
        <ele>-20.4</ele>
        <time>2021-11-12T11:43:57Z</time>
      </trkpt>
      <trkpt lat="47.63061" lon="-2.76824">
        <ele>-20.4</ele>
        <time>2021-11-12T11:43:58Z</time>
      </trkpt>
      <trkpt lat="47.63061" lon="-2.76838">
        <ele>-20.4</ele>
        <time>2021-11-12T11:44:00Z</time>
      </trkpt>
      <trkpt lat="47.63059" lon="-2.76858">
        <ele>-20.4</ele>
        <time>2021-11-12T11:44:03Z</time>
      </trkpt>
      <trkpt lat="47.63057" lon="-2.76872">
        <ele>-20.4</ele>
        <time>2021-11-12T11:44:05Z</time>
      </trkpt>
      <trkpt lat="47.63055" lon="-2.76885">
        <ele>-20.4</ele>
        <time>2021-11-12T11:44:07Z</time>
      </trkpt>
      <trkpt lat="47.63052" lon="-2.769">
        <ele>-20</ele>
        <time>2021-11-12T11:44:09Z</time>
      </trkpt>
      <trkpt lat="47.63049" lon="-2.76921">
        <ele>-19.6</ele>
        <time>2021-11-12T11:44:12Z</time>
      </trkpt>
      <trkpt lat="47.63042" lon="-2.7695">
        <ele>-19.4</ele>
        <time>2021-11-12T11:44:16Z</time>
      </trkpt>
      <trkpt lat="47.6304" lon="-2.76965">
        <ele>-19.4</ele>
        <time>2021-11-12T11:44:18Z</time>
      </trkpt>
      <trkpt lat="47.63039" lon="-2.76988">
        <ele>-19</ele>
        <time>2021-11-12T11:44:21Z</time>
      </trkpt>
      <trkpt lat="47.63039" lon="-2.76995">
        <ele>-19</ele>
        <time>2021-11-12T11:44:22Z</time>
      </trkpt>
      <trkpt lat="47.63043" lon="-2.7704">
        <ele>-18.8</ele>
        <time>2021-11-12T11:44:28Z</time>
      </trkpt>
      <trkpt lat="47.63055" lon="-2.77095">
        <ele>-18.4</ele>
        <time>2021-11-12T11:44:36Z</time>
      </trkpt>
      <trkpt lat="47.63057" lon="-2.77102">
        <ele>-18.2</ele>
        <time>2021-11-12T11:44:37Z</time>
      </trkpt>
      <trkpt lat="47.63067" lon="-2.7714">
        <ele>-17.4</ele>
        <time>2021-11-12T11:44:43Z</time>
      </trkpt>
      <trkpt lat="47.63069" lon="-2.77146">
        <ele>-17.4</ele>
        <time>2021-11-12T11:44:44Z</time>
      </trkpt>
      <trkpt lat="47.63074" lon="-2.77173">
        <ele>-17.4</ele>
        <time>2021-11-12T11:44:48Z</time>
      </trkpt>
      <trkpt lat="47.63076" lon="-2.77187">
        <ele>-17.2</ele>
        <time>2021-11-12T11:44:50Z</time>
      </trkpt>
      <trkpt lat="47.63082" lon="-2.77245">
        <ele>-17</ele>
        <time>2021-11-12T11:44:58Z</time>
      </trkpt>
      <trkpt lat="47.63087" lon="-2.77273">
        <ele>-16.8</ele>
        <time>2021-11-12T11:45:02Z</time>
      </trkpt>
      <trkpt lat="47.63091" lon="-2.77286">
        <ele>-17</ele>
        <time>2021-11-12T11:45:04Z</time>
      </trkpt>
      <trkpt lat="47.63093" lon="-2.77292">
        <ele>-17</ele>
        <time>2021-11-12T11:45:05Z</time>
      </trkpt>
      <trkpt lat="47.63103" lon="-2.77318">
        <ele>-17</ele>
        <time>2021-11-12T11:45:09Z</time>
      </trkpt>
      <trkpt lat="47.63109" lon="-2.7733">
        <ele>-16.8</ele>
        <time>2021-11-12T11:45:11Z</time>
      </trkpt>
      <trkpt lat="47.63119" lon="-2.77348">
        <ele>-17</ele>
        <time>2021-11-12T11:45:14Z</time>
      </trkpt>
      <trkpt lat="47.63133" lon="-2.77371">
        <ele>-17</ele>
        <time>2021-11-12T11:45:18Z</time>
      </trkpt>
      <trkpt lat="47.63139" lon="-2.77381">
        <ele>-17.2</ele>
        <time>2021-11-12T11:45:20Z</time>
      </trkpt>
      <trkpt lat="47.63156" lon="-2.77407">
        <ele>-17.8</ele>
        <time>2021-11-12T11:45:26Z</time>
      </trkpt>
      <trkpt lat="47.63162" lon="-2.77416">
        <ele>-17.8</ele>
        <time>2021-11-12T11:45:28Z</time>
      </trkpt>
      <trkpt lat="47.63169" lon="-2.77424">
        <ele>-17.8</ele>
        <time>2021-11-12T11:45:31Z</time>
      </trkpt>
      <trkpt lat="47.63184" lon="-2.77446">
        <ele>-17.8</ele>
        <time>2021-11-12T11:45:35Z</time>
      </trkpt>
      <trkpt lat="47.63189" lon="-2.77455">
        <ele>-17.8</ele>
        <time>2021-11-12T11:45:37Z</time>
      </trkpt>
      <trkpt lat="47.63194" lon="-2.77465">
        <ele>-17.8</ele>
        <time>2021-11-12T11:45:39Z</time>
      </trkpt>
      <trkpt lat="47.63201" lon="-2.77483">
        <ele>-17.8</ele>
        <time>2021-11-12T11:45:42Z</time>
      </trkpt>
      <trkpt lat="47.63211" lon="-2.77512">
        <ele>-17.8</ele>
        <time>2021-11-12T11:45:46Z</time>
      </trkpt>
      <trkpt lat="47.63217" lon="-2.77526">
        <ele>-17.8</ele>
        <time>2021-11-12T11:45:48Z</time>
      </trkpt>
      <trkpt lat="47.63235" lon="-2.77572">
        <ele>-17.8</ele>
        <time>2021-11-12T11:45:55Z</time>
      </trkpt>
      <trkpt lat="47.63237" lon="-2.77578">
        <ele>-18</ele>
        <time>2021-11-12T11:45:56Z</time>
      </trkpt>
      <trkpt lat="47.6324" lon="-2.77584">
        <ele>-18</ele>
        <time>2021-11-12T11:45:57Z</time>
      </trkpt>
      <trkpt lat="47.63247" lon="-2.77601">
        <ele>-18.2</ele>
        <time>2021-11-12T11:46:00Z</time>
      </trkpt>
      <trkpt lat="47.63249" lon="-2.77607">
        <ele>-18.4</ele>
        <time>2021-11-12T11:46:01Z</time>
      </trkpt>
      <trkpt lat="47.63252" lon="-2.77613">
        <ele>-18.4</ele>
        <time>2021-11-12T11:46:02Z</time>
      </trkpt>
      <trkpt lat="47.63256" lon="-2.77627">
        <ele>-18.6</ele>
        <time>2021-11-12T11:46:04Z</time>
      </trkpt>
      <trkpt lat="47.63261" lon="-2.7765">
        <ele>-18.8</ele>
        <time>2021-11-12T11:46:07Z</time>
      </trkpt>
      <trkpt lat="47.6327" lon="-2.77675">
        <ele>-18.8</ele>
        <time>2021-11-12T11:46:10Z</time>
      </trkpt>
      <trkpt lat="47.63272" lon="-2.77684">
        <ele>-18.8</ele>
        <time>2021-11-12T11:46:11Z</time>
      </trkpt>
      <trkpt lat="47.63286" lon="-2.77736">
        <ele>-19.2</ele>
        <time>2021-11-12T11:46:18Z</time>
      </trkpt>
      <trkpt lat="47.63287" lon="-2.77743">
        <ele>-19.2</ele>
        <time>2021-11-12T11:46:19Z</time>
      </trkpt>
      <trkpt lat="47.63289" lon="-2.77749">
        <ele>-19.4</ele>
        <time>2021-11-12T11:46:20Z</time>
      </trkpt>
      <trkpt lat="47.6329" lon="-2.77756">
        <ele>-19.4</ele>
        <time>2021-11-12T11:46:21Z</time>
      </trkpt>
      <trkpt lat="47.63291" lon="-2.77763">
        <ele>-19.4</ele>
        <time>2021-11-12T11:46:22Z</time>
      </trkpt>
      <trkpt lat="47.63295" lon="-2.77817">
        <ele>-19.6</ele>
        <time>2021-11-12T11:46:29Z</time>
      </trkpt>
      <trkpt lat="47.63295" lon="-2.77826">
        <ele>-19.6</ele>
        <time>2021-11-12T11:46:30Z</time>
      </trkpt>
      <trkpt lat="47.63295" lon="-2.77848">
        <ele>-19.6</ele>
        <time>2021-11-12T11:46:33Z</time>
      </trkpt>
      <trkpt lat="47.63294" lon="-2.77856">
        <ele>-19.8</ele>
        <time>2021-11-12T11:46:34Z</time>
      </trkpt>
      <trkpt lat="47.63294" lon="-2.77862">
        <ele>-19.8</ele>
        <time>2021-11-12T11:46:35Z</time>
      </trkpt>
      <trkpt lat="47.63294" lon="-2.77883">
        <ele>-20.2</ele>
        <time>2021-11-12T11:46:38Z</time>
      </trkpt>
      <trkpt lat="47.6329" lon="-2.77925">
        <ele>-20.6</ele>
        <time>2021-11-12T11:46:43Z</time>
      </trkpt>
      <trkpt lat="47.63286" lon="-2.77958">
        <ele>-21</ele>
        <time>2021-11-12T11:46:47Z</time>
      </trkpt>
      <trkpt lat="47.63283" lon="-2.7797">
        <ele>-21</ele>
        <time>2021-11-12T11:46:49Z</time>
      </trkpt>
      <trkpt lat="47.63281" lon="-2.77975">
        <ele>-21.2</ele>
        <time>2021-11-12T11:46:50Z</time>
      </trkpt>
      <trkpt lat="47.63271" lon="-2.77992">
        <ele>-21.4</ele>
        <time>2021-11-12T11:46:53Z</time>
      </trkpt>
      <trkpt lat="47.63251" lon="-2.78016">
        <ele>-21.4</ele>
        <time>2021-11-12T11:46:59Z</time>
      </trkpt>
      <trkpt lat="47.63247" lon="-2.78019">
        <ele>-21.4</ele>
        <time>2021-11-12T11:47:00Z</time>
      </trkpt>
      <trkpt lat="47.63236" lon="-2.78036">
        <ele>-21.2</ele>
        <time>2021-11-12T11:47:04Z</time>
      </trkpt>
      <trkpt lat="47.63229" lon="-2.78044">
        <ele>-21</ele>
        <time>2021-11-12T11:47:06Z</time>
      </trkpt>
      <trkpt lat="47.63218" lon="-2.78052">
        <ele>-20.8</ele>
        <time>2021-11-12T11:47:09Z</time>
      </trkpt>
      <trkpt lat="47.63214" lon="-2.78054">
        <ele>-20.8</ele>
        <time>2021-11-12T11:47:10Z</time>
      </trkpt>
      <trkpt lat="47.63196" lon="-2.78056">
        <ele>-20.8</ele>
        <time>2021-11-12T11:47:14Z</time>
      </trkpt>
      <trkpt lat="47.63188" lon="-2.78055">
        <ele>-20.8</ele>
        <time>2021-11-12T11:47:16Z</time>
      </trkpt>
      <trkpt lat="47.6318" lon="-2.78053">
        <ele>-20.8</ele>
        <time>2021-11-12T11:47:18Z</time>
      </trkpt>
      <trkpt lat="47.63168" lon="-2.78051">
        <ele>-20.6</ele>
        <time>2021-11-12T11:47:21Z</time>
      </trkpt>
      <trkpt lat="47.63165" lon="-2.7805">
        <ele>-20.6</ele>
        <time>2021-11-12T11:47:22Z</time>
      </trkpt>
      <trkpt lat="47.63162" lon="-2.7805">
        <ele>-20.6</ele>
        <time>2021-11-12T11:47:23Z</time>
      </trkpt>
      <trkpt lat="47.63156" lon="-2.78055">
        <ele>-20.6</ele>
        <time>2021-11-12T11:47:25Z</time>
      </trkpt>
      <trkpt lat="47.6314" lon="-2.78057">
        <ele>-20.8</ele>
        <time>2021-11-12T11:47:29Z</time>
      </trkpt>
      <trkpt lat="47.6312" lon="-2.78052">
        <ele>-20.8</ele>
        <time>2021-11-12T11:47:34Z</time>
      </trkpt>
      <trkpt lat="47.63109" lon="-2.78054">
        <ele>-20.6</ele>
        <time>2021-11-12T11:47:38Z</time>
      </trkpt>
      <trkpt lat="47.63104" lon="-2.78055">
        <ele>-20.6</ele>
        <time>2021-11-12T11:47:40Z</time>
      </trkpt>
      <trkpt lat="47.63098" lon="-2.78058">
        <ele>-20.6</ele>
        <time>2021-11-12T11:47:42Z</time>
      </trkpt>
      <trkpt lat="47.63082" lon="-2.78058">
        <ele>-20.6</ele>
        <time>2021-11-12T11:47:46Z</time>
      </trkpt>
      <trkpt lat="47.63055" lon="-2.78055">
        <ele>-20.8</ele>
        <time>2021-11-12T11:47:53Z</time>
      </trkpt>
      <trkpt lat="47.63035" lon="-2.78051">
        <ele>-20.6</ele>
        <time>2021-11-12T11:47:59Z</time>
      </trkpt>
      <trkpt lat="47.63022" lon="-2.78049">
        <ele>-20.6</ele>
        <time>2021-11-12T11:48:03Z</time>
      </trkpt>
      <trkpt lat="47.63" lon="-2.78044">
        <ele>-21</ele>
        <time>2021-11-12T11:48:09Z</time>
      </trkpt>
      <trkpt lat="47.62981" lon="-2.78035">
        <ele>-21</ele>
        <time>2021-11-12T11:48:13Z</time>
      </trkpt>
      <trkpt lat="47.62976" lon="-2.78031">
        <ele>-21</ele>
        <time>2021-11-12T11:48:14Z</time>
      </trkpt>
      <trkpt lat="47.62966" lon="-2.78019">
        <ele>-21.2</ele>
        <time>2021-11-12T11:48:16Z</time>
      </trkpt>
      <trkpt lat="47.62962" lon="-2.78013">
        <ele>-21.2</ele>
        <time>2021-11-12T11:48:17Z</time>
      </trkpt>
      <trkpt lat="47.62933" lon="-2.77966">
        <ele>-21.8</ele>
        <time>2021-11-12T11:48:24Z</time>
      </trkpt>
      <trkpt lat="47.62924" lon="-2.77957">
        <ele>-22</ele>
        <time>2021-11-12T11:48:26Z</time>
      </trkpt>
      <trkpt lat="47.62914" lon="-2.77951">
        <ele>-22.2</ele>
        <time>2021-11-12T11:48:28Z</time>
      </trkpt>
      <trkpt lat="47.62884" lon="-2.77929">
        <ele>-22.8</ele>
        <time>2021-11-12T11:48:35Z</time>
      </trkpt>
      <trkpt lat="47.62875" lon="-2.77918">
        <ele>-22.8</ele>
        <time>2021-11-12T11:48:38Z</time>
      </trkpt>
      <trkpt lat="47.62872" lon="-2.77919">
        <ele>-22.8</ele>
        <time>2021-11-12T11:48:39Z</time>
      </trkpt>
      <trkpt lat="47.62864" lon="-2.77926">
        <ele>-23</ele>
        <time>2021-11-12T11:48:41Z</time>
      </trkpt>
      <trkpt lat="47.62856" lon="-2.7793">
        <ele>-23.4</ele>
        <time>2021-11-12T11:48:43Z</time>
      </trkpt>
      <trkpt lat="47.62853" lon="-2.77932">
        <ele>-23.4</ele>
        <time>2021-11-12T11:48:44Z</time>
      </trkpt>
      <trkpt lat="47.62844" lon="-2.77938">
        <ele>-23.6</ele>
        <time>2021-11-12T11:48:46Z</time>
      </trkpt>
      <trkpt lat="47.62841" lon="-2.77941">
        <ele>-23.6</ele>
        <time>2021-11-12T11:48:47Z</time>
      </trkpt>
      <trkpt lat="47.62833" lon="-2.77945">
        <ele>-23.8</ele>
        <time>2021-11-12T11:48:49Z</time>
      </trkpt>
      <trkpt lat="47.62823" lon="-2.77948">
        <ele>-23.6</ele>
        <time>2021-11-12T11:48:52Z</time>
      </trkpt>
      <trkpt lat="47.62818" lon="-2.77951">
        <ele>-23.6</ele>
        <time>2021-11-12T11:48:54Z</time>
      </trkpt>
      <trkpt lat="47.62813" lon="-2.77949">
        <ele>-23.6</ele>
        <time>2021-11-12T11:48:56Z</time>
      </trkpt>
      <trkpt lat="47.62807" lon="-2.77941">
        <ele>-23.8</ele>
        <time>2021-11-12T11:49:01Z</time>
      </trkpt>
      <trkpt lat="47.628" lon="-2.77923">
        <ele>-23.6</ele>
        <time>2021-11-12T11:49:07Z</time>
      </trkpt>
      <trkpt lat="47.62794" lon="-2.77893">
        <ele>-23.8</ele>
        <time>2021-11-12T11:49:13Z</time>
      </trkpt>
      <trkpt lat="47.6279" lon="-2.77867">
        <ele>-23.8</ele>
        <time>2021-11-12T11:49:18Z</time>
      </trkpt>
      <trkpt lat="47.62788" lon="-2.77833">
        <ele>-24</ele>
        <time>2021-11-12T11:49:25Z</time>
      </trkpt>
      <trkpt lat="47.6279" lon="-2.77802">
        <ele>-24</ele>
        <time>2021-11-12T11:49:31Z</time>
      </trkpt>
      <trkpt lat="47.62783" lon="-2.77771">
        <ele>-24</ele>
        <time>2021-11-12T11:49:37Z</time>
      </trkpt>
      <trkpt lat="47.62769" lon="-2.77734">
        <ele>-24.2</ele>
        <time>2021-11-12T11:49:45Z</time>
      </trkpt>
      <trkpt lat="47.62753" lon="-2.77718">
        <ele>-24.2</ele>
        <time>2021-11-12T11:49:50Z</time>
      </trkpt>
      <trkpt lat="47.62742" lon="-2.77711">
        <ele>-24.2</ele>
        <time>2021-11-12T11:49:55Z</time>
      </trkpt>
      <trkpt lat="47.6274" lon="-2.77712">
        <ele>-24.2</ele>
        <time>2021-11-12T11:49:59Z</time>
      </trkpt>
      <trkpt lat="47.6274" lon="-2.77712">
        <ele>-25.4</ele>
        <time>2021-11-12T11:50:27Z</time>
      </trkpt>
      <trkpt lat="47.62743" lon="-2.77709">
        <ele>-24</ele>
        <time>2021-11-12T11:51:27Z</time>
      </trkpt>
      <trkpt lat="47.62744" lon="-2.7771">
        <ele>-24.2</ele>
        <time>2021-11-12T11:51:40Z</time>
      </trkpt>
      <trkpt lat="47.62749" lon="-2.77714">
        <ele>-24.2</ele>
        <time>2021-11-12T11:51:43Z</time>
      </trkpt>
      <trkpt lat="47.62764" lon="-2.77727">
        <ele>-24.6</ele>
        <time>2021-11-12T11:51:48Z</time>
      </trkpt>
      <trkpt lat="47.62775" lon="-2.77745">
        <ele>-24.8</ele>
        <time>2021-11-12T11:51:53Z</time>
      </trkpt>
      <trkpt lat="47.62783" lon="-2.7777">
        <ele>-24.8</ele>
        <time>2021-11-12T11:51:59Z</time>
      </trkpt>
      <trkpt lat="47.62784" lon="-2.77774">
        <ele>-24.8</ele>
        <time>2021-11-12T11:52:00Z</time>
      </trkpt>
      <trkpt lat="47.6279" lon="-2.77778">
        <ele>-24.6</ele>
        <time>2021-11-12T11:52:02Z</time>
      </trkpt>
      <trkpt lat="47.62811" lon="-2.77785">
        <ele>-24.6</ele>
        <time>2021-11-12T11:52:08Z</time>
      </trkpt>
      <trkpt lat="47.62831" lon="-2.77796">
        <ele>-24.2</ele>
        <time>2021-11-12T11:52:14Z</time>
      </trkpt>
      <trkpt lat="47.62841" lon="-2.77806">
        <ele>-24</ele>
        <time>2021-11-12T11:52:17Z</time>
      </trkpt>
      <trkpt lat="47.62853" lon="-2.7782">
        <ele>-24</ele>
        <time>2021-11-12T11:52:21Z</time>
      </trkpt>
      <trkpt lat="47.62868" lon="-2.77845">
        <ele>-23.8</ele>
        <time>2021-11-12T11:52:27Z</time>
      </trkpt>
      <trkpt lat="47.62884" lon="-2.77872">
        <ele>-23.6</ele>
        <time>2021-11-12T11:52:33Z</time>
      </trkpt>
      <trkpt lat="47.62906" lon="-2.77913">
        <ele>-23.2</ele>
        <time>2021-11-12T11:52:41Z</time>
      </trkpt>
      <trkpt lat="47.6292" lon="-2.7794">
        <ele>-23</ele>
        <time>2021-11-12T11:52:46Z</time>
      </trkpt>
      <trkpt lat="47.62929" lon="-2.77956">
        <ele>-23</ele>
        <time>2021-11-12T11:52:49Z</time>
      </trkpt>
      <trkpt lat="47.62932" lon="-2.77962">
        <ele>-23</ele>
        <time>2021-11-12T11:52:50Z</time>
      </trkpt>
      <trkpt lat="47.62941" lon="-2.77986">
        <ele>-22.8</ele>
        <time>2021-11-12T11:52:54Z</time>
      </trkpt>
      <trkpt lat="47.62948" lon="-2.77995">
        <ele>-23</ele>
        <time>2021-11-12T11:52:56Z</time>
      </trkpt>
      <trkpt lat="47.62964" lon="-2.78023">
        <ele>-22.4</ele>
        <time>2021-11-12T11:53:02Z</time>
      </trkpt>
      <trkpt lat="47.62964" lon="-2.78039">
        <ele>-22.4</ele>
        <time>2021-11-12T11:53:06Z</time>
      </trkpt>
      <trkpt lat="47.62962" lon="-2.78048">
        <ele>-22.4</ele>
        <time>2021-11-12T11:53:08Z</time>
      </trkpt>
      <trkpt lat="47.62962" lon="-2.78057">
        <ele>-22.4</ele>
        <time>2021-11-12T11:53:10Z</time>
      </trkpt>
      <trkpt lat="47.62969" lon="-2.78084">
        <ele>-22.2</ele>
        <time>2021-11-12T11:53:16Z</time>
      </trkpt>
      <trkpt lat="47.62979" lon="-2.78095">
        <ele>-22.6</ele>
        <time>2021-11-12T11:53:21Z</time>
      </trkpt>
      <trkpt lat="47.63003" lon="-2.78109">
        <ele>-22.8</ele>
        <time>2021-11-12T11:53:29Z</time>
      </trkpt>
      <trkpt lat="47.63018" lon="-2.78099">
        <ele>-23</ele>
        <time>2021-11-12T11:53:35Z</time>
      </trkpt>
      <trkpt lat="47.6302" lon="-2.78097">
        <ele>-23.2</ele>
        <time>2021-11-12T11:53:36Z</time>
      </trkpt>
      <trkpt lat="47.63027" lon="-2.78092">
        <ele>-23.2</ele>
        <time>2021-11-12T11:53:39Z</time>
      </trkpt>
      <trkpt lat="47.63043" lon="-2.78081">
        <ele>-23</ele>
        <time>2021-11-12T11:53:45Z</time>
      </trkpt>
      <trkpt lat="47.6306" lon="-2.78069">
        <ele>-22.6</ele>
        <time>2021-11-12T11:53:51Z</time>
      </trkpt>
      <trkpt lat="47.63072" lon="-2.78068">
        <ele>-22.2</ele>
        <time>2021-11-12T11:53:55Z</time>
      </trkpt>
      <trkpt lat="47.63076" lon="-2.78065">
        <ele>-22.2</ele>
        <time>2021-11-12T11:53:56Z</time>
      </trkpt>
      <trkpt lat="47.63078" lon="-2.78063">
        <ele>-22.4</ele>
        <time>2021-11-12T11:53:58Z</time>
      </trkpt>
      <trkpt lat="47.63081" lon="-2.78061">
        <ele>-22.2</ele>
        <time>2021-11-12T11:54:02Z</time>
      </trkpt>
      <trkpt lat="47.63083" lon="-2.78058">
        <ele>-22.2</ele>
        <time>2021-11-12T11:54:03Z</time>
      </trkpt>
      <trkpt lat="47.63085" lon="-2.78056">
        <ele>-22.2</ele>
        <time>2021-11-12T11:54:04Z</time>
      </trkpt>
      <trkpt lat="47.63097" lon="-2.78057">
        <ele>-22.2</ele>
        <time>2021-11-12T11:54:07Z</time>
      </trkpt>
      <trkpt lat="47.63123" lon="-2.78061">
        <ele>-22.2</ele>
        <time>2021-11-12T11:54:13Z</time>
      </trkpt>
      <trkpt lat="47.63132" lon="-2.78063">
        <ele>-22.2</ele>
        <time>2021-11-12T11:54:15Z</time>
      </trkpt>
      <trkpt lat="47.63157" lon="-2.78066">
        <ele>-21.8</ele>
        <time>2021-11-12T11:54:20Z</time>
      </trkpt>
      <trkpt lat="47.63199" lon="-2.78072">
        <ele>-21.4</ele>
        <time>2021-11-12T11:54:28Z</time>
      </trkpt>
      <trkpt lat="47.63219" lon="-2.78074">
        <ele>-21.2</ele>
        <time>2021-11-12T11:54:32Z</time>
      </trkpt>
      <trkpt lat="47.63228" lon="-2.78072">
        <ele>-21.2</ele>
        <time>2021-11-12T11:54:34Z</time>
      </trkpt>
      <trkpt lat="47.63233" lon="-2.78072">
        <ele>-21</ele>
        <time>2021-11-12T11:54:35Z</time>
      </trkpt>
      <trkpt lat="47.63245" lon="-2.78079">
        <ele>-20.6</ele>
        <time>2021-11-12T11:54:39Z</time>
      </trkpt>
      <trkpt lat="47.63246" lon="-2.78082">
        <ele>-20.4</ele>
        <time>2021-11-12T11:54:40Z</time>
      </trkpt>
      <trkpt lat="47.63247" lon="-2.78086">
        <ele>-20.4</ele>
        <time>2021-11-12T11:54:42Z</time>
      </trkpt>
      <trkpt lat="47.63255" lon="-2.78101">
        <ele>-20.4</ele>
        <time>2021-11-12T11:54:47Z</time>
      </trkpt>
      <trkpt lat="47.63269" lon="-2.78129">
        <ele>-20.4</ele>
        <time>2021-11-12T11:54:53Z</time>
      </trkpt>
      <trkpt lat="47.63271" lon="-2.78134">
        <ele>-20.2</ele>
        <time>2021-11-12T11:54:54Z</time>
      </trkpt>
      <trkpt lat="47.63284" lon="-2.78154">
        <ele>-20</ele>
        <time>2021-11-12T11:54:59Z</time>
      </trkpt>
      <trkpt lat="47.63295" lon="-2.78183">
        <ele>-19.4</ele>
        <time>2021-11-12T11:55:05Z</time>
      </trkpt>
      <trkpt lat="47.63303" lon="-2.78219">
        <ele>-19.2</ele>
        <time>2021-11-12T11:55:12Z</time>
      </trkpt>
      <trkpt lat="47.633" lon="-2.7825">
        <ele>-18.8</ele>
        <time>2021-11-12T11:55:18Z</time>
      </trkpt>
      <trkpt lat="47.633" lon="-2.78288">
        <ele>-18.4</ele>
        <time>2021-11-12T11:55:25Z</time>
      </trkpt>
      <trkpt lat="47.633" lon="-2.78295">
        <ele>-18.4</ele>
        <time>2021-11-12T11:55:26Z</time>
      </trkpt>
      <trkpt lat="47.633" lon="-2.78301">
        <ele>-18.4</ele>
        <time>2021-11-12T11:55:27Z</time>
      </trkpt>
      <trkpt lat="47.63305" lon="-2.78316">
        <ele>-18.2</ele>
        <time>2021-11-12T11:55:30Z</time>
      </trkpt>
      <trkpt lat="47.63317" lon="-2.78328">
        <ele>-18.2</ele>
        <time>2021-11-12T11:55:34Z</time>
      </trkpt>
      <trkpt lat="47.63322" lon="-2.78352">
        <ele>-18.4</ele>
        <time>2021-11-12T11:55:38Z</time>
      </trkpt>
      <trkpt lat="47.63325" lon="-2.78374">
        <ele>-18.4</ele>
        <time>2021-11-12T11:55:41Z</time>
      </trkpt>
      <trkpt lat="47.63325" lon="-2.7839">
        <ele>-18.6</ele>
        <time>2021-11-12T11:55:43Z</time>
      </trkpt>
      <trkpt lat="47.6333" lon="-2.7843">
        <ele>-18.8</ele>
        <time>2021-11-12T11:55:49Z</time>
      </trkpt>
      <trkpt lat="47.63334" lon="-2.78461">
        <ele>-19</ele>
        <time>2021-11-12T11:55:54Z</time>
      </trkpt>
      <trkpt lat="47.63335" lon="-2.78466">
        <ele>-18.8</ele>
        <time>2021-11-12T11:55:55Z</time>
      </trkpt>
      <trkpt lat="47.63337" lon="-2.78502">
        <ele>-18.4</ele>
        <time>2021-11-12T11:56:01Z</time>
      </trkpt>
      <trkpt lat="47.6334" lon="-2.78541">
        <ele>-18</ele>
        <time>2021-11-12T11:56:07Z</time>
      </trkpt>
      <trkpt lat="47.63341" lon="-2.78548">
        <ele>-18</ele>
        <time>2021-11-12T11:56:08Z</time>
      </trkpt>
      <trkpt lat="47.63338" lon="-2.78567">
        <ele>-18.2</ele>
        <time>2021-11-12T11:56:11Z</time>
      </trkpt>
      <trkpt lat="47.63336" lon="-2.78573">
        <ele>-18.2</ele>
        <time>2021-11-12T11:56:12Z</time>
      </trkpt>
      <trkpt lat="47.63331" lon="-2.78586">
        <ele>-18</ele>
        <time>2021-11-12T11:56:14Z</time>
      </trkpt>
      <trkpt lat="47.63329" lon="-2.78602">
        <ele>-18.2</ele>
        <time>2021-11-12T11:56:16Z</time>
      </trkpt>
      <trkpt lat="47.6333" lon="-2.78628">
        <ele>-18.2</ele>
        <time>2021-11-12T11:56:19Z</time>
      </trkpt>
      <trkpt lat="47.6333" lon="-2.78642">
        <ele>-18.2</ele>
        <time>2021-11-12T11:56:21Z</time>
      </trkpt>
      <trkpt lat="47.63329" lon="-2.78648">
        <ele>-18.2</ele>
        <time>2021-11-12T11:56:22Z</time>
      </trkpt>
      <trkpt lat="47.63329" lon="-2.78663">
        <ele>-18</ele>
        <time>2021-11-12T11:56:24Z</time>
      </trkpt>
      <trkpt lat="47.6333" lon="-2.78669">
        <ele>-18</ele>
        <time>2021-11-12T11:56:25Z</time>
      </trkpt>
      <trkpt lat="47.63332" lon="-2.78675">
        <ele>-18.2</ele>
        <time>2021-11-12T11:56:26Z</time>
      </trkpt>
      <trkpt lat="47.63338" lon="-2.78686">
        <ele>-18.2</ele>
        <time>2021-11-12T11:56:28Z</time>
      </trkpt>
      <trkpt lat="47.63341" lon="-2.78691">
        <ele>-18.2</ele>
        <time>2021-11-12T11:56:29Z</time>
      </trkpt>
      <trkpt lat="47.63346" lon="-2.78702">
        <ele>-18.2</ele>
        <time>2021-11-12T11:56:31Z</time>
      </trkpt>
      <trkpt lat="47.63355" lon="-2.78718">
        <ele>-18.2</ele>
        <time>2021-11-12T11:56:34Z</time>
      </trkpt>
      <trkpt lat="47.63362" lon="-2.78725">
        <ele>-18.2</ele>
        <time>2021-11-12T11:56:36Z</time>
      </trkpt>
      <trkpt lat="47.63372" lon="-2.78729">
        <ele>-18.2</ele>
        <time>2021-11-12T11:56:38Z</time>
      </trkpt>
      <trkpt lat="47.63396" lon="-2.78737">
        <ele>-18.2</ele>
        <time>2021-11-12T11:56:43Z</time>
      </trkpt>
      <trkpt lat="47.63401" lon="-2.78737">
        <ele>-18.2</ele>
        <time>2021-11-12T11:56:44Z</time>
      </trkpt>
      <trkpt lat="47.63421" lon="-2.7874">
        <ele>-18.2</ele>
        <time>2021-11-12T11:56:48Z</time>
      </trkpt>
      <trkpt lat="47.63431" lon="-2.78738">
        <ele>-18.4</ele>
        <time>2021-11-12T11:56:50Z</time>
      </trkpt>
      <trkpt lat="47.63441" lon="-2.78734">
        <ele>-18.2</ele>
        <time>2021-11-12T11:56:52Z</time>
      </trkpt>
      <trkpt lat="47.63459" lon="-2.78727">
        <ele>-17.8</ele>
        <time>2021-11-12T11:56:56Z</time>
      </trkpt>
      <trkpt lat="47.63464" lon="-2.78725">
        <ele>-18</ele>
        <time>2021-11-12T11:56:57Z</time>
      </trkpt>
      <trkpt lat="47.63503" lon="-2.78724">
        <ele>-17.8</ele>
        <time>2021-11-12T11:57:05Z</time>
      </trkpt>
      <trkpt lat="47.63512" lon="-2.78725">
        <ele>-17.6</ele>
        <time>2021-11-12T11:57:07Z</time>
      </trkpt>
      <trkpt lat="47.63521" lon="-2.78725">
        <ele>-17.4</ele>
        <time>2021-11-12T11:57:09Z</time>
      </trkpt>
      <trkpt lat="47.63531" lon="-2.7873">
        <ele>-17.2</ele>
        <time>2021-11-12T11:57:11Z</time>
      </trkpt>
      <trkpt lat="47.6354" lon="-2.7874">
        <ele>-17.2</ele>
        <time>2021-11-12T11:57:13Z</time>
      </trkpt>
      <trkpt lat="47.63548" lon="-2.78753">
        <ele>-17</ele>
        <time>2021-11-12T11:57:15Z</time>
      </trkpt>
      <trkpt lat="47.6357" lon="-2.78789">
        <ele>-17.2</ele>
        <time>2021-11-12T11:57:21Z</time>
      </trkpt>
      <trkpt lat="47.63574" lon="-2.78794">
        <ele>-17.2</ele>
        <time>2021-11-12T11:57:22Z</time>
      </trkpt>
      <trkpt lat="47.63591" lon="-2.78808">
        <ele>-17.2</ele>
        <time>2021-11-12T11:57:26Z</time>
      </trkpt>
      <trkpt lat="47.63611" lon="-2.78818">
        <ele>-16.6</ele>
        <time>2021-11-12T11:57:30Z</time>
      </trkpt>
      <trkpt lat="47.63622" lon="-2.78824">
        <ele>-16.4</ele>
        <time>2021-11-12T11:57:32Z</time>
      </trkpt>
      <trkpt lat="47.63626" lon="-2.78829">
        <ele>-16.2</ele>
        <time>2021-11-12T11:57:33Z</time>
      </trkpt>
      <trkpt lat="47.6366" lon="-2.7886">
        <ele>-15.8</ele>
        <time>2021-11-12T11:57:40Z</time>
      </trkpt>
      <trkpt lat="47.63663" lon="-2.78864">
        <ele>-15.6</ele>
        <time>2021-11-12T11:57:41Z</time>
      </trkpt>
      <trkpt lat="47.63673" lon="-2.7888">
        <ele>-15.6</ele>
        <time>2021-11-12T11:57:44Z</time>
      </trkpt>
      <trkpt lat="47.63676" lon="-2.78884">
        <ele>-15.6</ele>
        <time>2021-11-12T11:57:45Z</time>
      </trkpt>
      <trkpt lat="47.63683" lon="-2.78889">
        <ele>-15.4</ele>
        <time>2021-11-12T11:57:47Z</time>
      </trkpt>
      <trkpt lat="47.63701" lon="-2.78897">
        <ele>-15</ele>
        <time>2021-11-12T11:57:51Z</time>
      </trkpt>
      <trkpt lat="47.63714" lon="-2.78902">
        <ele>-14.8</ele>
        <time>2021-11-12T11:57:54Z</time>
      </trkpt>
      <trkpt lat="47.63718" lon="-2.78904">
        <ele>-14.6</ele>
        <time>2021-11-12T11:57:55Z</time>
      </trkpt>
      <trkpt lat="47.63722" lon="-2.78906">
        <ele>-14.6</ele>
        <time>2021-11-12T11:57:56Z</time>
      </trkpt>
      <trkpt lat="47.63745" lon="-2.78915">
        <ele>-14.6</ele>
        <time>2021-11-12T11:58:01Z</time>
      </trkpt>
      <trkpt lat="47.63755" lon="-2.78915">
        <ele>-14.6</ele>
        <time>2021-11-12T11:58:03Z</time>
      </trkpt>
      <trkpt lat="47.63764" lon="-2.78911">
        <ele>-14.6</ele>
        <time>2021-11-12T11:58:05Z</time>
      </trkpt>
      <trkpt lat="47.63785" lon="-2.78899">
        <ele>-14.6</ele>
        <time>2021-11-12T11:58:10Z</time>
      </trkpt>
      <trkpt lat="47.63789" lon="-2.78898">
        <ele>-14.6</ele>
        <time>2021-11-12T11:58:11Z</time>
      </trkpt>
      <trkpt lat="47.63793" lon="-2.78897">
        <ele>-14.6</ele>
        <time>2021-11-12T11:58:12Z</time>
      </trkpt>
      <trkpt lat="47.63801" lon="-2.789">
        <ele>-14.6</ele>
        <time>2021-11-12T11:58:14Z</time>
      </trkpt>
      <trkpt lat="47.63806" lon="-2.78902">
        <ele>-14.8</ele>
        <time>2021-11-12T11:58:15Z</time>
      </trkpt>
      <trkpt lat="47.63815" lon="-2.78904">
        <ele>-14.8</ele>
        <time>2021-11-12T11:58:17Z</time>
      </trkpt>
      <trkpt lat="47.63824" lon="-2.78902">
        <ele>-14.8</ele>
        <time>2021-11-12T11:58:19Z</time>
      </trkpt>
      <trkpt lat="47.63829" lon="-2.789">
        <ele>-15</ele>
        <time>2021-11-12T11:58:20Z</time>
      </trkpt>
      <trkpt lat="47.63841" lon="-2.7889">
        <ele>-15.2</ele>
        <time>2021-11-12T11:58:23Z</time>
      </trkpt>
      <trkpt lat="47.63848" lon="-2.78881">
        <ele>-15.2</ele>
        <time>2021-11-12T11:58:25Z</time>
      </trkpt>
      <trkpt lat="47.63849" lon="-2.78875">
        <ele>-15.2</ele>
        <time>2021-11-12T11:58:26Z</time>
      </trkpt>
      <trkpt lat="47.63852" lon="-2.78863">
        <ele>-15.2</ele>
        <time>2021-11-12T11:58:28Z</time>
      </trkpt>
      <trkpt lat="47.63854" lon="-2.7884">
        <ele>-15.2</ele>
        <time>2021-11-12T11:58:32Z</time>
      </trkpt>
      <trkpt lat="47.63852" lon="-2.78834">
        <ele>-15.4</ele>
        <time>2021-11-12T11:58:33Z</time>
      </trkpt>
      <trkpt lat="47.63843" lon="-2.78809">
        <ele>-15.6</ele>
        <time>2021-11-12T11:58:37Z</time>
      </trkpt>
      <trkpt lat="47.63839" lon="-2.78797">
        <ele>-15.8</ele>
        <time>2021-11-12T11:58:39Z</time>
      </trkpt>
      <trkpt lat="47.63829" lon="-2.78762">
        <ele>-16.2</ele>
        <time>2021-11-12T11:58:45Z</time>
      </trkpt>
      <trkpt lat="47.63822" lon="-2.78718">
        <ele>-16.2</ele>
        <time>2021-11-12T11:58:51Z</time>
      </trkpt>
      <trkpt lat="47.63821" lon="-2.78711">
        <ele>-16.2</ele>
        <time>2021-11-12T11:58:52Z</time>
      </trkpt>
      <trkpt lat="47.63816" lon="-2.78673">
        <ele>-16</ele>
        <time>2021-11-12T11:58:57Z</time>
      </trkpt>
      <trkpt lat="47.63814" lon="-2.78659">
        <ele>-16</ele>
        <time>2021-11-12T11:58:59Z</time>
      </trkpt>
      <trkpt lat="47.63811" lon="-2.78644">
        <ele>-16</ele>
        <time>2021-11-12T11:59:01Z</time>
      </trkpt>
      <trkpt lat="47.63808" lon="-2.78629">
        <ele>-16.2</ele>
        <time>2021-11-12T11:59:04Z</time>
      </trkpt>
      <trkpt lat="47.63808" lon="-2.78622">
        <ele>-16.2</ele>
        <time>2021-11-12T11:59:05Z</time>
      </trkpt>
      <trkpt lat="47.63809" lon="-2.78615">
        <ele>-16.2</ele>
        <time>2021-11-12T11:59:06Z</time>
      </trkpt>
      <trkpt lat="47.63811" lon="-2.78599">
        <ele>-16.2</ele>
        <time>2021-11-12T11:59:08Z</time>
      </trkpt>
      <trkpt lat="47.63813" lon="-2.78583">
        <ele>-16.4</ele>
        <time>2021-11-12T11:59:10Z</time>
      </trkpt>
      <trkpt lat="47.63815" lon="-2.78567">
        <ele>-16.4</ele>
        <time>2021-11-12T11:59:12Z</time>
      </trkpt>
      <trkpt lat="47.63819" lon="-2.78553">
        <ele>-16.6</ele>
        <time>2021-11-12T11:59:14Z</time>
      </trkpt>
      <trkpt lat="47.63825" lon="-2.78547">
        <ele>-16.6</ele>
        <time>2021-11-12T11:59:15Z</time>
      </trkpt>
      <trkpt lat="47.6383" lon="-2.78546">
        <ele>-16.6</ele>
        <time>2021-11-12T11:59:16Z</time>
      </trkpt>
      <trkpt lat="47.63844" lon="-2.78549">
        <ele>-16.8</ele>
        <time>2021-11-12T11:59:19Z</time>
      </trkpt>
      <trkpt lat="47.63855" lon="-2.78554">
        <ele>-17</ele>
        <time>2021-11-12T11:59:21Z</time>
      </trkpt>
      <trkpt lat="47.63871" lon="-2.78565">
        <ele>-17.4</ele>
        <time>2021-11-12T11:59:25Z</time>
      </trkpt>
      <trkpt lat="47.63873" lon="-2.78565">
        <ele>-17.4</ele>
        <time>2021-11-12T11:59:26Z</time>
      </trkpt>
      <trkpt lat="47.63876" lon="-2.7856">
        <ele>-17.6</ele>
        <time>2021-11-12T11:59:28Z</time>
      </trkpt>
      <trkpt lat="47.63873" lon="-2.78541">
        <ele>-17.6</ele>
        <time>2021-11-12T11:59:32Z</time>
      </trkpt>
      <trkpt lat="47.6387" lon="-2.78518">
        <ele>-18</ele>
        <time>2021-11-12T11:59:36Z</time>
      </trkpt>
      <trkpt lat="47.6387" lon="-2.78471">
        <ele>-18.6</ele>
        <time>2021-11-12T11:59:43Z</time>
      </trkpt>
      <trkpt lat="47.63873" lon="-2.7844">
        <ele>-18.6</ele>
        <time>2021-11-12T11:59:48Z</time>
      </trkpt>
      <trkpt lat="47.63874" lon="-2.78424">
        <ele>-18.4</ele>
        <time>2021-11-12T11:59:50Z</time>
      </trkpt>
      <trkpt lat="47.63871" lon="-2.7841">
        <ele>-18.4</ele>
        <time>2021-11-12T11:59:52Z</time>
      </trkpt>
      <trkpt lat="47.63872" lon="-2.78387">
        <ele>-18.2</ele>
        <time>2021-11-12T11:59:55Z</time>
      </trkpt>
      <trkpt lat="47.63873" lon="-2.78377">
        <ele>-18</ele>
        <time>2021-11-12T11:59:56Z</time>
      </trkpt>
      <trkpt lat="47.63877" lon="-2.78345">
        <ele>-17.8</ele>
        <time>2021-11-12T12:00:00Z</time>
      </trkpt>
      <trkpt lat="47.63877" lon="-2.78338">
        <ele>-17.8</ele>
        <time>2021-11-12T12:00:01Z</time>
      </trkpt>
      <trkpt lat="47.6388" lon="-2.78327">
        <ele>-17.8</ele>
        <time>2021-11-12T12:00:03Z</time>
      </trkpt>
      <trkpt lat="47.63882" lon="-2.78326">
        <ele>-17.8</ele>
        <time>2021-11-12T12:00:04Z</time>
      </trkpt>
      <trkpt lat="47.6389" lon="-2.78332">
        <ele>-18</ele>
        <time>2021-11-12T12:00:08Z</time>
      </trkpt>
      <trkpt lat="47.63891" lon="-2.78336">
        <ele>-18</ele>
        <time>2021-11-12T12:00:09Z</time>
      </trkpt>
      <trkpt lat="47.6389" lon="-2.78346">
        <ele>-17.8</ele>
        <time>2021-11-12T12:00:11Z</time>
      </trkpt>
      <trkpt lat="47.63891" lon="-2.78357">
        <ele>-18.4</ele>
        <time>2021-11-12T12:00:13Z</time>
      </trkpt>
      <trkpt lat="47.63897" lon="-2.78385">
        <ele>-18.6</ele>
        <time>2021-11-12T12:00:18Z</time>
      </trkpt>
      <trkpt lat="47.63907" lon="-2.78405">
        <ele>-19</ele>
        <time>2021-11-12T12:00:22Z</time>
      </trkpt>
      <trkpt lat="47.63911" lon="-2.7841">
        <ele>-19</ele>
        <time>2021-11-12T12:00:23Z</time>
      </trkpt>
      <trkpt lat="47.63914" lon="-2.78414">
        <ele>-19.2</ele>
        <time>2021-11-12T12:00:24Z</time>
      </trkpt>
      <trkpt lat="47.63926" lon="-2.78424">
        <ele>-19.2</ele>
        <time>2021-11-12T12:00:27Z</time>
      </trkpt>
      <trkpt lat="47.63935" lon="-2.78429">
        <ele>-19.2</ele>
        <time>2021-11-12T12:00:29Z</time>
      </trkpt>
      <trkpt lat="47.63967" lon="-2.78435">
        <ele>-19</ele>
        <time>2021-11-12T12:00:36Z</time>
      </trkpt>
      <trkpt lat="47.63972" lon="-2.78435">
        <ele>-19</ele>
        <time>2021-11-12T12:00:37Z</time>
      </trkpt>
      <trkpt lat="47.64001" lon="-2.78429">
        <ele>-18.8</ele>
        <time>2021-11-12T12:00:43Z</time>
      </trkpt>
      <trkpt lat="47.64005" lon="-2.78427">
        <ele>-18.8</ele>
        <time>2021-11-12T12:00:44Z</time>
      </trkpt>
      <trkpt lat="47.64013" lon="-2.78419">
        <ele>-18.8</ele>
        <time>2021-11-12T12:00:46Z</time>
      </trkpt>
      <trkpt lat="47.64017" lon="-2.78414">
        <ele>-18.8</ele>
        <time>2021-11-12T12:00:47Z</time>
      </trkpt>
      <trkpt lat="47.64027" lon="-2.784">
        <ele>-18.8</ele>
        <time>2021-11-12T12:00:50Z</time>
      </trkpt>
      <trkpt lat="47.64035" lon="-2.78394">
        <ele>-18.8</ele>
        <time>2021-11-12T12:00:52Z</time>
      </trkpt>
      <trkpt lat="47.64039" lon="-2.7839">
        <ele>-18.8</ele>
        <time>2021-11-12T12:00:53Z</time>
      </trkpt>
      <trkpt lat="47.64047" lon="-2.78382">
        <ele>-18.8</ele>
        <time>2021-11-12T12:00:55Z</time>
      </trkpt>
      <trkpt lat="47.64054" lon="-2.78375">
        <ele>-18.8</ele>
        <time>2021-11-12T12:00:57Z</time>
      </trkpt>
      <trkpt lat="47.64063" lon="-2.78371">
        <ele>-18.8</ele>
        <time>2021-11-12T12:00:59Z</time>
      </trkpt>
      <trkpt lat="47.64072" lon="-2.78371">
        <ele>-19</ele>
        <time>2021-11-12T12:01:01Z</time>
      </trkpt>
      <trkpt lat="47.64076" lon="-2.78372">
        <ele>-19</ele>
        <time>2021-11-12T12:01:02Z</time>
      </trkpt>
      <trkpt lat="47.64103" lon="-2.78382">
        <ele>-19.4</ele>
        <time>2021-11-12T12:01:09Z</time>
      </trkpt>
      <trkpt lat="47.64132" lon="-2.784">
        <ele>-19.4</ele>
        <time>2021-11-12T12:01:16Z</time>
      </trkpt>
      <trkpt lat="47.64156" lon="-2.784">
        <ele>-19.4</ele>
        <time>2021-11-12T12:01:22Z</time>
      </trkpt>
      <trkpt lat="47.64167" lon="-2.78399">
        <ele>-19.6</ele>
        <time>2021-11-12T12:01:24Z</time>
      </trkpt>
      <trkpt lat="47.64181" lon="-2.78398">
        <ele>-19.4</ele>
        <time>2021-11-12T12:01:27Z</time>
      </trkpt>
      <trkpt lat="47.64199" lon="-2.78391">
        <ele>-19</ele>
        <time>2021-11-12T12:01:31Z</time>
      </trkpt>
      <trkpt lat="47.64208" lon="-2.78388">
        <ele>-18.8</ele>
        <time>2021-11-12T12:01:33Z</time>
      </trkpt>
      <trkpt lat="47.64211" lon="-2.78386">
        <ele>-18.8</ele>
        <time>2021-11-12T12:01:34Z</time>
      </trkpt>
      <trkpt lat="47.64218" lon="-2.78385">
        <ele>-18.6</ele>
        <time>2021-11-12T12:01:36Z</time>
      </trkpt>
      <trkpt lat="47.64222" lon="-2.78385">
        <ele>-18.4</ele>
        <time>2021-11-12T12:01:37Z</time>
      </trkpt>
      <trkpt lat="47.64243" lon="-2.78389">
        <ele>-18.2</ele>
        <time>2021-11-12T12:01:43Z</time>
      </trkpt>
      <trkpt lat="47.64258" lon="-2.7839">
        <ele>-18</ele>
        <time>2021-11-12T12:01:46Z</time>
      </trkpt>
      <trkpt lat="47.64267" lon="-2.78391">
        <ele>-18</ele>
        <time>2021-11-12T12:01:48Z</time>
      </trkpt>
      <trkpt lat="47.64272" lon="-2.78392">
        <ele>-18</ele>
        <time>2021-11-12T12:01:49Z</time>
      </trkpt>
      <trkpt lat="47.64287" lon="-2.78393">
        <ele>-17.8</ele>
        <time>2021-11-12T12:01:52Z</time>
      </trkpt>
      <trkpt lat="47.64292" lon="-2.78394">
        <ele>-17.8</ele>
        <time>2021-11-12T12:01:53Z</time>
      </trkpt>
      <trkpt lat="47.643" lon="-2.78393">
        <ele>-17.6</ele>
        <time>2021-11-12T12:01:55Z</time>
      </trkpt>
      <trkpt lat="47.64314" lon="-2.78387">
        <ele>-17.6</ele>
        <time>2021-11-12T12:01:58Z</time>
      </trkpt>
      <trkpt lat="47.6432" lon="-2.78386">
        <ele>-17.6</ele>
        <time>2021-11-12T12:01:59Z</time>
      </trkpt>
      <trkpt lat="47.64345" lon="-2.78378">
        <ele>-17.2</ele>
        <time>2021-11-12T12:02:05Z</time>
      </trkpt>
      <trkpt lat="47.64375" lon="-2.78361">
        <ele>-16.8</ele>
        <time>2021-11-12T12:02:12Z</time>
      </trkpt>
      <trkpt lat="47.64379" lon="-2.78358">
        <ele>-16.6</ele>
        <time>2021-11-12T12:02:13Z</time>
      </trkpt>
      <trkpt lat="47.64397" lon="-2.78346">
        <ele>-16.4</ele>
        <time>2021-11-12T12:02:18Z</time>
      </trkpt>
      <trkpt lat="47.64418" lon="-2.78331">
        <ele>-15.8</ele>
        <time>2021-11-12T12:02:24Z</time>
      </trkpt>
      <trkpt lat="47.64423" lon="-2.78325">
        <ele>-15.8</ele>
        <time>2021-11-12T12:02:26Z</time>
      </trkpt>
      <trkpt lat="47.64428" lon="-2.78319">
        <ele>-15.6</ele>
        <time>2021-11-12T12:02:29Z</time>
      </trkpt>
      <trkpt lat="47.64444" lon="-2.7831">
        <ele>-16</ele>
        <time>2021-11-12T12:02:36Z</time>
      </trkpt>
      <trkpt lat="47.64447" lon="-2.78307">
        <ele>-16</ele>
        <time>2021-11-12T12:02:38Z</time>
      </trkpt>
      <trkpt lat="47.64451" lon="-2.78297">
        <ele>-16.2</ele>
        <time>2021-11-12T12:02:41Z</time>
      </trkpt>
      <trkpt lat="47.64454" lon="-2.7829">
        <ele>-16.4</ele>
        <time>2021-11-12T12:02:43Z</time>
      </trkpt>
      <trkpt lat="47.64461" lon="-2.7829">
        <ele>-16.4</ele>
        <time>2021-11-12T12:02:45Z</time>
      </trkpt>
      <trkpt lat="47.64472" lon="-2.78307">
        <ele>-16.6</ele>
        <time>2021-11-12T12:02:49Z</time>
      </trkpt>
      <trkpt lat="47.64484" lon="-2.78325">
        <ele>-17.2</ele>
        <time>2021-11-12T12:02:53Z</time>
      </trkpt>
      <trkpt lat="47.64488" lon="-2.78334">
        <ele>-17.2</ele>
        <time>2021-11-12T12:02:55Z</time>
      </trkpt>
      <trkpt lat="47.64496" lon="-2.78357">
        <ele>-17.4</ele>
        <time>2021-11-12T12:03:00Z</time>
      </trkpt>
      <trkpt lat="47.645" lon="-2.78373">
        <ele>-17.4</ele>
        <time>2021-11-12T12:03:05Z</time>
      </trkpt>
      <trkpt lat="47.64512" lon="-2.78404">
        <ele>-16.8</ele>
        <time>2021-11-12T12:03:13Z</time>
      </trkpt>
      <trkpt lat="47.64523" lon="-2.78419">
        <ele>-16.2</ele>
        <time>2021-11-12T12:03:18Z</time>
      </trkpt>
      <trkpt lat="47.64526" lon="-2.78421">
        <ele>-16</ele>
        <time>2021-11-12T12:03:19Z</time>
      </trkpt>
      <trkpt lat="47.64558" lon="-2.78429">
        <ele>-15.4</ele>
        <time>2021-11-12T12:03:28Z</time>
      </trkpt>
      <trkpt lat="47.6457" lon="-2.78429">
        <ele>-15.4</ele>
        <time>2021-11-12T12:03:31Z</time>
      </trkpt>
      <trkpt lat="47.64576" lon="-2.78433">
        <ele>-15.2</ele>
        <time>2021-11-12T12:03:33Z</time>
      </trkpt>
      <trkpt lat="47.64578" lon="-2.78437">
        <ele>-15</ele>
        <time>2021-11-12T12:03:34Z</time>
      </trkpt>
      <trkpt lat="47.64583" lon="-2.78468">
        <ele>-14.4</ele>
        <time>2021-11-12T12:03:40Z</time>
      </trkpt>
      <trkpt lat="47.64583" lon="-2.78473">
        <ele>-14.4</ele>
        <time>2021-11-12T12:03:41Z</time>
      </trkpt>
      <trkpt lat="47.6459" lon="-2.78499">
        <ele>-13.8</ele>
        <time>2021-11-12T12:03:46Z</time>
      </trkpt>
      <trkpt lat="47.64596" lon="-2.78521">
        <ele>-13.2</ele>
        <time>2021-11-12T12:03:50Z</time>
      </trkpt>
      <trkpt lat="47.64601" lon="-2.78543">
        <ele>-12.8</ele>
        <time>2021-11-12T12:03:54Z</time>
      </trkpt>
      <trkpt lat="47.64605" lon="-2.78564">
        <ele>-12.4</ele>
        <time>2021-11-12T12:03:58Z</time>
      </trkpt>
      <trkpt lat="47.64608" lon="-2.78579">
        <ele>-12</ele>
        <time>2021-11-12T12:04:01Z</time>
      </trkpt>
      <trkpt lat="47.64614" lon="-2.78604">
        <ele>-11.6</ele>
        <time>2021-11-12T12:04:06Z</time>
      </trkpt>
      <trkpt lat="47.64617" lon="-2.78624">
        <ele>-11.4</ele>
        <time>2021-11-12T12:04:10Z</time>
      </trkpt>
      <trkpt lat="47.64618" lon="-2.78633">
        <ele>-11.2</ele>
        <time>2021-11-12T12:04:12Z</time>
      </trkpt>
      <trkpt lat="47.6462" lon="-2.78652">
        <ele>-11.2</ele>
        <time>2021-11-12T12:04:16Z</time>
      </trkpt>
      <trkpt lat="47.64621" lon="-2.78686">
        <ele>-11.2</ele>
        <time>2021-11-12T12:04:22Z</time>
      </trkpt>
      <trkpt lat="47.64623" lon="-2.78715">
        <ele>-10.8</ele>
        <time>2021-11-12T12:04:28Z</time>
      </trkpt>
      <trkpt lat="47.64624" lon="-2.78731">
        <ele>-10.4</ele>
        <time>2021-11-12T12:04:31Z</time>
      </trkpt>
      <trkpt lat="47.64624" lon="-2.78751">
        <ele>-10</ele>
        <time>2021-11-12T12:04:36Z</time>
      </trkpt>
      <trkpt lat="47.64624" lon="-2.78751">
        <ele>-10</ele>
        <time>2021-11-12T12:04:39Z</time>
      </trkpt>
      <trkpt lat="47.64624" lon="-2.78751">
        <ele>-9.6</ele>
        <time>2021-11-12T12:04:43Z</time>
      </trkpt>
      <trkpt lat="47.64624" lon="-2.78752">
        <ele>-9.2</ele>
        <time>2021-11-12T12:04:54Z</time>
      </trkpt>
      <trkpt lat="47.64624" lon="-2.78755">
        <ele>-9.4</ele>
        <time>2021-11-12T12:04:55Z</time>
      </trkpt>
      <trkpt lat="47.64625" lon="-2.78785">
        <ele>-9</ele>
        <time>2021-11-12T12:05:00Z</time>
      </trkpt>
      <trkpt lat="47.64625" lon="-2.78801">
        <ele>-9</ele>
        <time>2021-11-12T12:05:02Z</time>
      </trkpt>
      <trkpt lat="47.64626" lon="-2.78818">
        <ele>-8.8</ele>
        <time>2021-11-12T12:05:04Z</time>
      </trkpt>
      <trkpt lat="47.64627" lon="-2.78826">
        <ele>-8.8</ele>
        <time>2021-11-12T12:05:05Z</time>
      </trkpt>
      <trkpt lat="47.64628" lon="-2.78845">
        <ele>-8.6</ele>
        <time>2021-11-12T12:05:07Z</time>
      </trkpt>
      <trkpt lat="47.64628" lon="-2.78871">
        <ele>-8.6</ele>
        <time>2021-11-12T12:05:10Z</time>
      </trkpt>
      <trkpt lat="47.64629" lon="-2.78924">
        <ele>-8.6</ele>
        <time>2021-11-12T12:05:16Z</time>
      </trkpt>
      <trkpt lat="47.64629" lon="-2.78944">
        <ele>-8.6</ele>
        <time>2021-11-12T12:05:18Z</time>
      </trkpt>
      <trkpt lat="47.64634" lon="-2.7896">
        <ele>-8.6</ele>
        <time>2021-11-12T12:05:20Z</time>
      </trkpt>
      <trkpt lat="47.64638" lon="-2.78975">
        <ele>-8.6</ele>
        <time>2021-11-12T12:05:22Z</time>
      </trkpt>
      <trkpt lat="47.6464" lon="-2.78982">
        <ele>-8.6</ele>
        <time>2021-11-12T12:05:23Z</time>
      </trkpt>
      <trkpt lat="47.64651" lon="-2.78996">
        <ele>-8.4</ele>
        <time>2021-11-12T12:05:26Z</time>
      </trkpt>
      <trkpt lat="47.64654" lon="-2.78999">
        <ele>-8.4</ele>
        <time>2021-11-12T12:05:27Z</time>
      </trkpt>
      <trkpt lat="47.64661" lon="-2.7901">
        <ele>-8.2</ele>
        <time>2021-11-12T12:05:30Z</time>
      </trkpt>
      <trkpt lat="47.64671" lon="-2.79036">
        <ele>-8</ele>
        <time>2021-11-12T12:05:35Z</time>
      </trkpt>
      <trkpt lat="47.64674" lon="-2.79049">
        <ele>-8</ele>
        <time>2021-11-12T12:05:37Z</time>
      </trkpt>
      <trkpt lat="47.64679" lon="-2.7907">
        <ele>-8</ele>
        <time>2021-11-12T12:05:41Z</time>
      </trkpt>
      <trkpt lat="47.64682" lon="-2.79094">
        <ele>-8</ele>
        <time>2021-11-12T12:05:47Z</time>
      </trkpt>
      <trkpt lat="47.64691" lon="-2.7912">
        <ele>-7.8</ele>
        <time>2021-11-12T12:05:54Z</time>
      </trkpt>
      <trkpt lat="47.647" lon="-2.79153">
        <ele>-7.2</ele>
        <time>2021-11-12T12:06:01Z</time>
      </trkpt>
      <trkpt lat="47.64701" lon="-2.79158">
        <ele>-7.2</ele>
        <time>2021-11-12T12:06:02Z</time>
      </trkpt>
      <trkpt lat="47.64711" lon="-2.79195">
        <ele>-7.2</ele>
        <time>2021-11-12T12:06:09Z</time>
      </trkpt>
      <trkpt lat="47.64728" lon="-2.79212">
        <ele>-6.8</ele>
        <time>2021-11-12T12:06:14Z</time>
      </trkpt>
      <trkpt lat="47.64748" lon="-2.79231">
        <ele>-6.6</ele>
        <time>2021-11-12T12:06:20Z</time>
      </trkpt>
      <trkpt lat="47.64764" lon="-2.79244">
        <ele>-6.6</ele>
        <time>2021-11-12T12:06:25Z</time>
      </trkpt>
      <trkpt lat="47.64789" lon="-2.79255">
        <ele>-6.4</ele>
        <time>2021-11-12T12:06:32Z</time>
      </trkpt>
      <trkpt lat="47.64801" lon="-2.79262">
        <ele>-6.4</ele>
        <time>2021-11-12T12:06:35Z</time>
      </trkpt>
      <trkpt lat="47.64813" lon="-2.79272">
        <ele>-6.2</ele>
        <time>2021-11-12T12:06:39Z</time>
      </trkpt>
      <trkpt lat="47.64833" lon="-2.79288">
        <ele>-6.2</ele>
        <time>2021-11-12T12:06:46Z</time>
      </trkpt>
      <trkpt lat="47.64849" lon="-2.79303">
        <ele>-6</ele>
        <time>2021-11-12T12:06:52Z</time>
      </trkpt>
      <trkpt lat="47.64866" lon="-2.7932">
        <ele>-5.6</ele>
        <time>2021-11-12T12:06:57Z</time>
      </trkpt>
      <trkpt lat="47.64869" lon="-2.79324">
        <ele>-5.6</ele>
        <time>2021-11-12T12:06:58Z</time>
      </trkpt>
      <trkpt lat="47.64873" lon="-2.79329">
        <ele>-5.4</ele>
        <time>2021-11-12T12:06:59Z</time>
      </trkpt>
      <trkpt lat="47.64877" lon="-2.79334">
        <ele>-5.2</ele>
        <time>2021-11-12T12:07:00Z</time>
      </trkpt>
      <trkpt lat="47.64887" lon="-2.79347">
        <ele>-5</ele>
        <time>2021-11-12T12:07:03Z</time>
      </trkpt>
      <trkpt lat="47.64893" lon="-2.79355">
        <ele>-5</ele>
        <time>2021-11-12T12:07:05Z</time>
      </trkpt>
      <trkpt lat="47.64901" lon="-2.79368">
        <ele>-4.8</ele>
        <time>2021-11-12T12:07:08Z</time>
      </trkpt>
      <trkpt lat="47.64903" lon="-2.79372">
        <ele>-4.6</ele>
        <time>2021-11-12T12:07:09Z</time>
      </trkpt>
      <trkpt lat="47.64906" lon="-2.79376">
        <ele>-4.4</ele>
        <time>2021-11-12T12:07:10Z</time>
      </trkpt>
      <trkpt lat="47.64918" lon="-2.79397">
        <ele>-3.8</ele>
        <time>2021-11-12T12:07:15Z</time>
      </trkpt>
      <trkpt lat="47.64925" lon="-2.79416">
        <ele>-3.6</ele>
        <time>2021-11-12T12:07:20Z</time>
      </trkpt>
      <trkpt lat="47.64925" lon="-2.79419">
        <ele>-3.6</ele>
        <time>2021-11-12T12:07:21Z</time>
      </trkpt>
      <trkpt lat="47.64923" lon="-2.79421">
        <ele>-3.4</ele>
        <time>2021-11-12T12:07:22Z</time>
      </trkpt>
      <trkpt lat="47.64916" lon="-2.79428">
        <ele>-3.2</ele>
        <time>2021-11-12T12:07:25Z</time>
      </trkpt>
      <trkpt lat="47.6491" lon="-2.79434">
        <ele>-3.2</ele>
        <time>2021-11-12T12:07:30Z</time>
      </trkpt>
      <trkpt lat="47.6491" lon="-2.79434">
        <ele>-3.4</ele>
        <time>2021-11-12T12:07:40Z</time>
      </trkpt>
      <trkpt lat="47.6491" lon="-2.79434">
        <ele>-2.4</ele>
        <time>2021-11-12T12:07:52Z</time>
      </trkpt>
      <trkpt lat="47.64909" lon="-2.79435">
        <ele>-1.4</ele>
        <time>2021-11-12T12:08:15Z</time>
      </trkpt>
      <trkpt lat="47.64909" lon="-2.79435">
        <ele>-0.6</ele>
        <time>2021-11-12T12:08:54Z</time>
      </trkpt>
      <trkpt lat="47.64909" lon="-2.79435">
        <ele>0.2</ele>
        <time>2021-11-12T12:09:59Z</time>
      </trkpt>
      <trkpt lat="47.64909" lon="-2.79435">
        <ele>-1</ele>
        <time>2021-11-12T12:10:55Z</time>
      </trkpt>
      <trkpt lat="47.64909" lon="-2.79435">
        <ele>-2</ele>
        <time>2021-11-12T12:11:01Z</time>
      </trkpt>
      <trkpt lat="47.64909" lon="-2.79435">
        <ele>-3.2</ele>
        <time>2021-11-12T12:11:58Z</time>
      </trkpt>
      <trkpt lat="47.64907" lon="-2.79437">
        <ele>-2.6</ele>
        <time>2021-11-12T12:12:57Z</time>
      </trkpt>
      <trkpt lat="47.64903" lon="-2.79442">
        <ele>-2.8</ele>
        <time>2021-11-12T12:13:00Z</time>
      </trkpt>
      <trkpt lat="47.64892" lon="-2.79458">
        <ele>-3.2</ele>
        <time>2021-11-12T12:13:04Z</time>
      </trkpt>
      <trkpt lat="47.6488" lon="-2.79488">
        <ele>-4</ele>
        <time>2021-11-12T12:13:09Z</time>
      </trkpt>
      <trkpt lat="47.64879" lon="-2.79494">
        <ele>-4</ele>
        <time>2021-11-12T12:13:10Z</time>
      </trkpt>
      <trkpt lat="47.6487" lon="-2.79524">
        <ele>-4.4</ele>
        <time>2021-11-12T12:13:14Z</time>
      </trkpt>
      <trkpt lat="47.64867" lon="-2.7954">
        <ele>-5</ele>
        <time>2021-11-12T12:13:16Z</time>
      </trkpt>
      <trkpt lat="47.64863" lon="-2.79595">
        <ele>-5.2</ele>
        <time>2021-11-12T12:13:22Z</time>
      </trkpt>
      <trkpt lat="47.64866" lon="-2.79615">
        <ele>-5.2</ele>
        <time>2021-11-12T12:13:25Z</time>
      </trkpt>
      <trkpt lat="47.64876" lon="-2.7964">
        <ele>-5.2</ele>
        <time>2021-11-12T12:13:27Z</time>
      </trkpt>
      <trkpt lat="47.6488" lon="-2.79648">
        <ele>-5.4</ele>
        <time>2021-11-12T12:13:28Z</time>
      </trkpt>
      <trkpt lat="47.6489" lon="-2.79658">
        <ele>-6</ele>
        <time>2021-11-12T12:13:30Z</time>
      </trkpt>
      <trkpt lat="47.64902" lon="-2.79661">
        <ele>-6.2</ele>
        <time>2021-11-12T12:13:32Z</time>
      </trkpt>
      <trkpt lat="47.64908" lon="-2.7966">
        <ele>-6.4</ele>
        <time>2021-11-12T12:13:33Z</time>
      </trkpt>
      <trkpt lat="47.64923" lon="-2.79657">
        <ele>-6.6</ele>
        <time>2021-11-12T12:13:36Z</time>
      </trkpt>
      <trkpt lat="47.64926" lon="-2.79657">
        <ele>-6.8</ele>
        <time>2021-11-12T12:13:37Z</time>
      </trkpt>
      <trkpt lat="47.64932" lon="-2.79657">
        <ele>-7</ele>
        <time>2021-11-12T12:13:39Z</time>
      </trkpt>
      <trkpt lat="47.64941" lon="-2.79653">
        <ele>-7.2</ele>
        <time>2021-11-12T12:13:42Z</time>
      </trkpt>
      <trkpt lat="47.64958" lon="-2.79653">
        <ele>-7.4</ele>
        <time>2021-11-12T12:13:47Z</time>
      </trkpt>
      <trkpt lat="47.64964" lon="-2.79667">
        <ele>-7.6</ele>
        <time>2021-11-12T12:13:50Z</time>
      </trkpt>
      <trkpt lat="47.64957" lon="-2.79688">
        <ele>-7.6</ele>
        <time>2021-11-12T12:13:54Z</time>
      </trkpt>
      <trkpt lat="47.64939" lon="-2.79711">
        <ele>-7.8</ele>
        <time>2021-11-12T12:13:59Z</time>
      </trkpt>
      <trkpt lat="47.64936" lon="-2.79717">
        <ele>-7.8</ele>
        <time>2021-11-12T12:14:00Z</time>
      </trkpt>
      <trkpt lat="47.64933" lon="-2.79724">
        <ele>-8</ele>
        <time>2021-11-12T12:14:01Z</time>
      </trkpt>
      <trkpt lat="47.64925" lon="-2.79754">
        <ele>-8.4</ele>
        <time>2021-11-12T12:14:05Z</time>
      </trkpt>
      <trkpt lat="47.64919" lon="-2.79791">
        <ele>-9</ele>
        <time>2021-11-12T12:14:09Z</time>
      </trkpt>
      <trkpt lat="47.64916" lon="-2.79808">
        <ele>-9.4</ele>
        <time>2021-11-12T12:14:11Z</time>
      </trkpt>
      <trkpt lat="47.64908" lon="-2.79847">
        <ele>-9.8</ele>
        <time>2021-11-12T12:14:16Z</time>
      </trkpt>
      <trkpt lat="47.64907" lon="-2.79854">
        <ele>-9.8</ele>
        <time>2021-11-12T12:14:17Z</time>
      </trkpt>
      <trkpt lat="47.64905" lon="-2.7986">
        <ele>-9.8</ele>
        <time>2021-11-12T12:14:18Z</time>
      </trkpt>
      <trkpt lat="47.649" lon="-2.79869">
        <ele>-10</ele>
        <time>2021-11-12T12:14:20Z</time>
      </trkpt>
      <trkpt lat="47.64888" lon="-2.79867">
        <ele>-10.4</ele>
        <time>2021-11-12T12:14:23Z</time>
      </trkpt>
      <trkpt lat="47.64879" lon="-2.79861">
        <ele>-10.6</ele>
        <time>2021-11-12T12:14:25Z</time>
      </trkpt>
      <trkpt lat="47.64865" lon="-2.79856">
        <ele>-10.8</ele>
        <time>2021-11-12T12:14:28Z</time>
      </trkpt>
      <trkpt lat="47.64846" lon="-2.7985">
        <ele>-11</ele>
        <time>2021-11-12T12:14:32Z</time>
      </trkpt>
      <trkpt lat="47.64835" lon="-2.79848">
        <ele>-11</ele>
        <time>2021-11-12T12:14:35Z</time>
      </trkpt>
      <trkpt lat="47.64819" lon="-2.79849">
        <ele>-11.2</ele>
        <time>2021-11-12T12:14:39Z</time>
      </trkpt>
      <trkpt lat="47.64809" lon="-2.79849">
        <ele>-11.2</ele>
        <time>2021-11-12T12:14:42Z</time>
      </trkpt>
      <trkpt lat="47.64793" lon="-2.79849">
        <ele>-11.4</ele>
        <time>2021-11-12T12:14:47Z</time>
      </trkpt>
      <trkpt lat="47.64776" lon="-2.79845">
        <ele>-11.8</ele>
        <time>2021-11-12T12:14:52Z</time>
      </trkpt>
      <trkpt lat="47.64751" lon="-2.79829">
        <ele>-11.6</ele>
        <time>2021-11-12T12:14:58Z</time>
      </trkpt>
      <trkpt lat="47.64735" lon="-2.79818">
        <ele>-11.4</ele>
        <time>2021-11-12T12:15:03Z</time>
      </trkpt>
      <trkpt lat="47.64715" lon="-2.79795">
        <ele>-11.4</ele>
        <time>2021-11-12T12:15:09Z</time>
      </trkpt>
      <trkpt lat="47.64694" lon="-2.79771">
        <ele>-10.8</ele>
        <time>2021-11-12T12:15:16Z</time>
      </trkpt>
      <trkpt lat="47.64677" lon="-2.79753">
        <ele>-10.6</ele>
        <time>2021-11-12T12:15:22Z</time>
      </trkpt>
      <trkpt lat="47.64675" lon="-2.79749">
        <ele>-10.4</ele>
        <time>2021-11-12T12:15:23Z</time>
      </trkpt>
      <trkpt lat="47.64657" lon="-2.79733">
        <ele>-10</ele>
        <time>2021-11-12T12:15:29Z</time>
      </trkpt>
      <trkpt lat="47.64642" lon="-2.79717">
        <ele>-9.8</ele>
        <time>2021-11-12T12:15:35Z</time>
      </trkpt>
      <trkpt lat="47.64636" lon="-2.79711">
        <ele>-9.4</ele>
        <time>2021-11-12T12:15:37Z</time>
      </trkpt>
      <trkpt lat="47.64619" lon="-2.79693">
        <ele>-9</ele>
        <time>2021-11-12T12:15:43Z</time>
      </trkpt>
      <trkpt lat="47.64607" lon="-2.79682">
        <ele>-8.6</ele>
        <time>2021-11-12T12:15:47Z</time>
      </trkpt>
      <trkpt lat="47.64601" lon="-2.79676">
        <ele>-8.4</ele>
        <time>2021-11-12T12:15:49Z</time>
      </trkpt>
      <trkpt lat="47.64578" lon="-2.79654">
        <ele>-7.6</ele>
        <time>2021-11-12T12:15:56Z</time>
      </trkpt>
      <trkpt lat="47.64575" lon="-2.79651">
        <ele>-7.4</ele>
        <time>2021-11-12T12:15:57Z</time>
      </trkpt>
      <trkpt lat="47.64559" lon="-2.79636">
        <ele>-6.8</ele>
        <time>2021-11-12T12:16:02Z</time>
      </trkpt>
      <trkpt lat="47.64543" lon="-2.79623">
        <ele>-6.4</ele>
        <time>2021-11-12T12:16:07Z</time>
      </trkpt>
      <trkpt lat="47.64533" lon="-2.79615">
        <ele>-6</ele>
        <time>2021-11-12T12:16:10Z</time>
      </trkpt>
      <trkpt lat="47.6451" lon="-2.79597">
        <ele>-5.8</ele>
        <time>2021-11-12T12:16:17Z</time>
      </trkpt>
      <trkpt lat="47.6448" lon="-2.79571">
        <ele>-5.6</ele>
        <time>2021-11-12T12:16:25Z</time>
      </trkpt>
      <trkpt lat="47.64472" lon="-2.79564">
        <ele>-5.6</ele>
        <time>2021-11-12T12:16:27Z</time>
      </trkpt>
      <trkpt lat="47.6445" lon="-2.79547">
        <ele>-5.6</ele>
        <time>2021-11-12T12:16:32Z</time>
      </trkpt>
      <trkpt lat="47.64441" lon="-2.7954">
        <ele>-5.8</ele>
        <time>2021-11-12T12:16:34Z</time>
      </trkpt>
      <trkpt lat="47.64427" lon="-2.79528">
        <ele>-6</ele>
        <time>2021-11-12T12:16:37Z</time>
      </trkpt>
      <trkpt lat="47.64399" lon="-2.79505">
        <ele>-6</ele>
        <time>2021-11-12T12:16:44Z</time>
      </trkpt>
      <trkpt lat="47.64388" lon="-2.79496">
        <ele>-6</ele>
        <time>2021-11-12T12:16:47Z</time>
      </trkpt>
      <trkpt lat="47.6437" lon="-2.79487">
        <ele>-5.8</ele>
        <time>2021-11-12T12:16:51Z</time>
      </trkpt>
      <trkpt lat="47.64365" lon="-2.79485">
        <ele>-5.8</ele>
        <time>2021-11-12T12:16:52Z</time>
      </trkpt>
      <trkpt lat="47.64356" lon="-2.79482">
        <ele>-5.8</ele>
        <time>2021-11-12T12:16:54Z</time>
      </trkpt>
      <trkpt lat="47.64348" lon="-2.79482">
        <ele>-5.8</ele>
        <time>2021-11-12T12:16:56Z</time>
      </trkpt>
      <trkpt lat="47.6432" lon="-2.79485">
        <ele>-6</ele>
        <time>2021-11-12T12:17:02Z</time>
      </trkpt>
      <trkpt lat="47.64306" lon="-2.79492">
        <ele>-6.2</ele>
        <time>2021-11-12T12:17:05Z</time>
      </trkpt>
      <trkpt lat="47.64288" lon="-2.79508">
        <ele>-6.4</ele>
        <time>2021-11-12T12:17:09Z</time>
      </trkpt>
      <trkpt lat="47.64284" lon="-2.79512">
        <ele>-6.4</ele>
        <time>2021-11-12T12:17:10Z</time>
      </trkpt>
      <trkpt lat="47.6427" lon="-2.79531">
        <ele>-6.6</ele>
        <time>2021-11-12T12:17:14Z</time>
      </trkpt>
      <trkpt lat="47.64245" lon="-2.79583">
        <ele>-7.2</ele>
        <time>2021-11-12T12:17:22Z</time>
      </trkpt>
      <trkpt lat="47.64228" lon="-2.7962">
        <ele>-7.6</ele>
        <time>2021-11-12T12:17:27Z</time>
      </trkpt>
      <trkpt lat="47.6422" lon="-2.79634">
        <ele>-7.8</ele>
        <time>2021-11-12T12:17:29Z</time>
      </trkpt>
      <trkpt lat="47.64202" lon="-2.79656">
        <ele>-8.2</ele>
        <time>2021-11-12T12:17:33Z</time>
      </trkpt>
      <trkpt lat="47.6418" lon="-2.79676">
        <ele>-8.8</ele>
        <time>2021-11-12T12:17:38Z</time>
      </trkpt>
      <trkpt lat="47.64175" lon="-2.79679">
        <ele>-8.8</ele>
        <time>2021-11-12T12:17:39Z</time>
      </trkpt>
      <trkpt lat="47.64162" lon="-2.79688">
        <ele>-9</ele>
        <time>2021-11-12T12:17:42Z</time>
      </trkpt>
      <trkpt lat="47.64153" lon="-2.79691">
        <ele>-9</ele>
        <time>2021-11-12T12:17:44Z</time>
      </trkpt>
      <trkpt lat="47.64138" lon="-2.79695">
        <ele>-9.2</ele>
        <time>2021-11-12T12:17:48Z</time>
      </trkpt>
      <trkpt lat="47.64119" lon="-2.79697">
        <ele>-9.4</ele>
        <time>2021-11-12T12:17:53Z</time>
      </trkpt>
      <trkpt lat="47.64095" lon="-2.79696">
        <ele>-9.6</ele>
        <time>2021-11-12T12:17:59Z</time>
      </trkpt>
      <trkpt lat="47.64071" lon="-2.79693">
        <ele>-9.8</ele>
        <time>2021-11-12T12:18:05Z</time>
      </trkpt>
      <trkpt lat="47.64067" lon="-2.79693">
        <ele>-9.8</ele>
        <time>2021-11-12T12:18:06Z</time>
      </trkpt>
      <trkpt lat="47.64039" lon="-2.79691">
        <ele>-10.2</ele>
        <time>2021-11-12T12:18:13Z</time>
      </trkpt>
      <trkpt lat="47.64007" lon="-2.79692">
        <ele>-9.6</ele>
        <time>2021-11-12T12:18:21Z</time>
      </trkpt>
      <trkpt lat="47.63983" lon="-2.79689">
        <ele>-10</ele>
        <time>2021-11-12T12:18:27Z</time>
      </trkpt>
      <trkpt lat="47.63964" lon="-2.79669">
        <ele>-10.2</ele>
        <time>2021-11-12T12:18:34Z</time>
      </trkpt>
      <trkpt lat="47.63948" lon="-2.79653">
        <ele>-9.8</ele>
        <time>2021-11-12T12:18:40Z</time>
      </trkpt>
      <trkpt lat="47.63933" lon="-2.79637">
        <ele>-9.6</ele>
        <time>2021-11-12T12:18:45Z</time>
      </trkpt>
      <trkpt lat="47.63916" lon="-2.79619">
        <ele>-9.6</ele>
        <time>2021-11-12T12:18:49Z</time>
      </trkpt>
      <trkpt lat="47.63895" lon="-2.79597">
        <ele>-9.6</ele>
        <time>2021-11-12T12:18:53Z</time>
      </trkpt>
      <trkpt lat="47.63863" lon="-2.79575">
        <ele>-9.6</ele>
        <time>2021-11-12T12:18:58Z</time>
      </trkpt>
      <trkpt lat="47.6385" lon="-2.79567">
        <ele>-9.6</ele>
        <time>2021-11-12T12:19:00Z</time>
      </trkpt>
      <trkpt lat="47.6383" lon="-2.79552">
        <ele>-10</ele>
        <time>2021-11-12T12:19:03Z</time>
      </trkpt>
      <trkpt lat="47.63823" lon="-2.79547">
        <ele>-10</ele>
        <time>2021-11-12T12:19:04Z</time>
      </trkpt>
      <trkpt lat="47.6378" lon="-2.79518">
        <ele>-10.4</ele>
        <time>2021-11-12T12:19:10Z</time>
      </trkpt>
      <trkpt lat="47.63738" lon="-2.79491">
        <ele>-10.8</ele>
        <time>2021-11-12T12:19:16Z</time>
      </trkpt>
      <trkpt lat="47.63699" lon="-2.79468">
        <ele>-11</ele>
        <time>2021-11-12T12:19:22Z</time>
      </trkpt>
      <trkpt lat="47.6367" lon="-2.79452">
        <ele>-11.4</ele>
        <time>2021-11-12T12:19:26Z</time>
      </trkpt>
      <trkpt lat="47.63651" lon="-2.79441">
        <ele>-11.4</ele>
        <time>2021-11-12T12:19:29Z</time>
      </trkpt>
      <trkpt lat="47.63646" lon="-2.79439">
        <ele>-11.6</ele>
        <time>2021-11-12T12:19:30Z</time>
      </trkpt>
      <trkpt lat="47.63634" lon="-2.79434">
        <ele>-11.6</ele>
        <time>2021-11-12T12:19:32Z</time>
      </trkpt>
      <trkpt lat="47.63614" lon="-2.79427">
        <ele>-11.8</ele>
        <time>2021-11-12T12:19:35Z</time>
      </trkpt>
      <trkpt lat="47.63609" lon="-2.79425">
        <ele>-12</ele>
        <time>2021-11-12T12:19:36Z</time>
      </trkpt>
      <trkpt lat="47.63606" lon="-2.79423">
        <ele>-12</ele>
        <time>2021-11-12T12:19:37Z</time>
      </trkpt>
      <trkpt lat="47.63604" lon="-2.79421">
        <ele>-12.2</ele>
        <time>2021-11-12T12:19:38Z</time>
      </trkpt>
      <trkpt lat="47.63603" lon="-2.79417">
        <ele>-12.2</ele>
        <time>2021-11-12T12:19:40Z</time>
      </trkpt>
      <trkpt lat="47.63602" lon="-2.79414">
        <ele>-12.2</ele>
        <time>2021-11-12T12:19:41Z</time>
      </trkpt>
      <trkpt lat="47.63601" lon="-2.79409">
        <ele>-12.4</ele>
        <time>2021-11-12T12:19:44Z</time>
      </trkpt>
      <trkpt lat="47.63601" lon="-2.79409">
        <ele>-12.4</ele>
        <time>2021-11-12T12:19:45Z</time>
      </trkpt>
      <trkpt lat="47.636" lon="-2.79409">
        <ele>-12.8</ele>
        <time>2021-11-12T12:19:51Z</time>
      </trkpt>
      <trkpt lat="47.636" lon="-2.79409">
        <ele>-13.4</ele>
        <time>2021-11-12T12:19:58Z</time>
      </trkpt>
      <trkpt lat="47.636" lon="-2.79409">
        <ele>-14</ele>
        <time>2021-11-12T12:20:07Z</time>
      </trkpt>
      <trkpt lat="47.63601" lon="-2.79409">
        <ele>-14.2</ele>
        <time>2021-11-12T12:20:09Z</time>
      </trkpt>
      <trkpt lat="47.63602" lon="-2.79411">
        <ele>-14.4</ele>
        <time>2021-11-12T12:20:13Z</time>
      </trkpt>
      <trkpt lat="47.63602" lon="-2.79411">
        <ele>-14.6</ele>
        <time>2021-11-12T12:20:14Z</time>
      </trkpt>
      <trkpt lat="47.63602" lon="-2.79412">
        <ele>-15</ele>
        <time>2021-11-12T12:20:20Z</time>
      </trkpt>
      <trkpt lat="47.63594" lon="-2.79414">
        <ele>-15.6</ele>
        <time>2021-11-12T12:20:25Z</time>
      </trkpt>
      <trkpt lat="47.63575" lon="-2.79409">
        <ele>-16.6</ele>
        <time>2021-11-12T12:20:32Z</time>
      </trkpt>
      <trkpt lat="47.63565" lon="-2.79406">
        <ele>-16.6</ele>
        <time>2021-11-12T12:20:35Z</time>
      </trkpt>
      <trkpt lat="47.6356" lon="-2.79403">
        <ele>-16.6</ele>
        <time>2021-11-12T12:20:36Z</time>
      </trkpt>
      <trkpt lat="47.63531" lon="-2.79389">
        <ele>-16.4</ele>
        <time>2021-11-12T12:20:44Z</time>
      </trkpt>
      <trkpt lat="47.63503" lon="-2.79374">
        <ele>-16.4</ele>
        <time>2021-11-12T12:20:50Z</time>
      </trkpt>
      <trkpt lat="47.63497" lon="-2.7937">
        <ele>-16.4</ele>
        <time>2021-11-12T12:20:51Z</time>
      </trkpt>
      <trkpt lat="47.63487" lon="-2.79364">
        <ele>-16.2</ele>
        <time>2021-11-12T12:20:53Z</time>
      </trkpt>
      <trkpt lat="47.63477" lon="-2.79358">
        <ele>-16.2</ele>
        <time>2021-11-12T12:20:55Z</time>
      </trkpt>
      <trkpt lat="47.63442" lon="-2.79349">
        <ele>-16</ele>
        <time>2021-11-12T12:21:03Z</time>
      </trkpt>
      <trkpt lat="47.63429" lon="-2.79344">
        <ele>-16</ele>
        <time>2021-11-12T12:21:06Z</time>
      </trkpt>
      <trkpt lat="47.63412" lon="-2.79337">
        <ele>-16</ele>
        <time>2021-11-12T12:21:10Z</time>
      </trkpt>
      <trkpt lat="47.63404" lon="-2.79334">
        <ele>-15.8</ele>
        <time>2021-11-12T12:21:12Z</time>
      </trkpt>
      <trkpt lat="47.63388" lon="-2.79327">
        <ele>-15.8</ele>
        <time>2021-11-12T12:21:16Z</time>
      </trkpt>
      <trkpt lat="47.63364" lon="-2.79318">
        <ele>-15.4</ele>
        <time>2021-11-12T12:21:23Z</time>
      </trkpt>
      <trkpt lat="47.6334" lon="-2.79308">
        <ele>-15.6</ele>
        <time>2021-11-12T12:21:31Z</time>
      </trkpt>
      <trkpt lat="47.63318" lon="-2.79295">
        <ele>-15.2</ele>
        <time>2021-11-12T12:21:38Z</time>
      </trkpt>
      <trkpt lat="47.63312" lon="-2.79291">
        <ele>-15.2</ele>
        <time>2021-11-12T12:21:40Z</time>
      </trkpt>
      <trkpt lat="47.63291" lon="-2.79275">
        <ele>-14.6</ele>
        <time>2021-11-12T12:21:47Z</time>
      </trkpt>
      <trkpt lat="47.63266" lon="-2.79246">
        <ele>-14.2</ele>
        <time>2021-11-12T12:21:55Z</time>
      </trkpt>
      <trkpt lat="47.63243" lon="-2.79216">
        <ele>-14</ele>
        <time>2021-11-12T12:22:02Z</time>
      </trkpt>
      <trkpt lat="47.6324" lon="-2.79211">
        <ele>-14</ele>
        <time>2021-11-12T12:22:03Z</time>
      </trkpt>
      <trkpt lat="47.63225" lon="-2.79194">
        <ele>-14</ele>
        <time>2021-11-12T12:22:07Z</time>
      </trkpt>
      <trkpt lat="47.63213" lon="-2.79184">
        <ele>-14</ele>
        <time>2021-11-12T12:22:10Z</time>
      </trkpt>
      <trkpt lat="47.6319" lon="-2.79172">
        <ele>-14</ele>
        <time>2021-11-12T12:22:16Z</time>
      </trkpt>
      <trkpt lat="47.63179" lon="-2.79168">
        <ele>-13.4</ele>
        <time>2021-11-12T12:22:19Z</time>
      </trkpt>
      <trkpt lat="47.63164" lon="-2.79175">
        <ele>-11.8</ele>
        <time>2021-11-12T12:23:52Z</time>
      </trkpt>
      <trkpt lat="47.63162" lon="-2.79176">
        <ele>-11.6</ele>
        <time>2021-11-12T12:23:53Z</time>
      </trkpt>
      <trkpt lat="47.63147" lon="-2.79184">
        <ele>-11</ele>
        <time>2021-11-12T12:23:58Z</time>
      </trkpt>
      <trkpt lat="47.63133" lon="-2.79195">
        <ele>-10.6</ele>
        <time>2021-11-12T12:24:04Z</time>
      </trkpt>
      <trkpt lat="47.63122" lon="-2.79201">
        <ele>17.6</ele>
      </trkpt>
      <trkpt lat="47.63063" lon="-2.79097">
        <ele>14</ele>
      </trkpt>
      <trkpt lat="47.62903" lon="-2.78733">
        <ele>26.2</ele>
      </trkpt>
      <trkpt lat="47.62831" lon="-2.78642">
        <ele>24.1</ele>
      </trkpt>
      <trkpt lat="47.62773" lon="-2.78572">
        <ele>22.6</ele>
      </trkpt>
      <trkpt lat="47.62728" lon="-2.78474">
        <ele>18.8</ele>
      </trkpt>
      <trkpt lat="47.62695" lon="-2.78375">
        <ele>14.5</ele>
      </trkpt>
      <trkpt lat="47.62621" lon="-2.78245">
        <ele>7.1</ele>
      </trkpt>
      <trkpt lat="47.62621" lon="-2.78245">
        <ele>7.1</ele>
      </trkpt>
      <trkpt lat="47.62621" lon="-2.78245">
        <ele>7.1</ele>
      </trkpt>
      <trkpt lat="47.62621" lon="-2.78245">
        <ele>7.1</ele>
      </trkpt>
      <trkpt lat="47.62621" lon="-2.78245">
        <ele>7.1</ele>
      </trkpt>
      <trkpt lat="47.62621" lon="-2.78245">
        <ele>7.1</ele>
      </trkpt>
      <trkpt lat="47.62621" lon="-2.78245">
        <ele>7.1</ele>
      </trkpt>
      <trkpt lat="47.62621" lon="-2.78245">
        <ele>7.1</ele>
      </trkpt>
      <trkpt lat="47.62621" lon="-2.78245">
        <ele>7.1</ele>
      </trkpt>
      <trkpt lat="47.62621" lon="-2.78245">
        <ele>7.1</ele>
      </trkpt>
      <trkpt lat="47.62587" lon="-2.78236">
        <ele>3.7</ele>
      </trkpt>
      <trkpt lat="47.62579" lon="-2.78217">
        <ele>3.1</ele>
      </trkpt>
      <trkpt lat="47.62541" lon="-2.78192">
        <ele>6.8</ele>
      </trkpt>
      <trkpt lat="47.62531" lon="-2.78181">
        <ele>6.4</ele>
      </trkpt>
      <trkpt lat="47.62481" lon="-2.78168">
        <ele>10.9</ele>
      </trkpt>
      <trkpt lat="47.62446" lon="-2.78134">
        <ele>11.1</ele>
      </trkpt>
      <trkpt lat="47.62435" lon="-2.78145">
        <ele>13.4</ele>
      </trkpt>
      <trkpt lat="47.62444" lon="-2.78263">
        <ele>17.4</ele>
      </trkpt>
      <trkpt lat="47.62551" lon="-2.78609">
        <ele>24.4</ele>
      </trkpt>
      <trkpt lat="47.62364" lon="-2.7875">
        <ele>14.1</ele>
      </trkpt>
      <trkpt lat="47.62358" lon="-2.78774">
        <ele>13.1</ele>
      </trkpt>
      <trkpt lat="47.62403" lon="-2.78933">
        <ele>15.2</ele>
      </trkpt>
      <trkpt lat="47.62394" lon="-2.78977">
        <ele>-16.6</ele>
        <time>2021-11-12T12:51:22Z</time>
      </trkpt>
      <trkpt lat="47.62386" lon="-2.78976">
        <ele>-16.6</ele>
        <time>2021-11-12T12:51:24Z</time>
      </trkpt>
      <trkpt lat="47.62369" lon="-2.78966">
        <ele>-16.6</ele>
        <time>2021-11-12T12:51:28Z</time>
      </trkpt>
      <trkpt lat="47.62355" lon="-2.78961">
        <ele>-16.6</ele>
        <time>2021-11-12T12:51:31Z</time>
      </trkpt>
      <trkpt lat="47.62351" lon="-2.7896">
        <ele>-16.6</ele>
        <time>2021-11-12T12:51:32Z</time>
      </trkpt>
      <trkpt lat="47.62341" lon="-2.78961">
        <ele>-16.6</ele>
        <time>2021-11-12T12:51:34Z</time>
      </trkpt>
      <trkpt lat="47.62331" lon="-2.78964">
        <ele>-16.6</ele>
        <time>2021-11-12T12:51:36Z</time>
      </trkpt>
      <trkpt lat="47.62322" lon="-2.78968">
        <ele>-16.4</ele>
        <time>2021-11-12T12:51:38Z</time>
      </trkpt>
      <trkpt lat="47.62309" lon="-2.78975">
        <ele>-16.2</ele>
        <time>2021-11-12T12:51:41Z</time>
      </trkpt>
      <trkpt lat="47.62294" lon="-2.78988">
        <ele>-16</ele>
        <time>2021-11-12T12:51:46Z</time>
      </trkpt>
      <trkpt lat="47.62287" lon="-2.78994">
        <ele>-16</ele>
        <time>2021-11-12T12:51:48Z</time>
      </trkpt>
      <trkpt lat="47.62272" lon="-2.79006">
        <ele>-15.6</ele>
        <time>2021-11-12T12:51:53Z</time>
      </trkpt>
      <trkpt lat="47.62248" lon="-2.79024">
        <ele>-15</ele>
        <time>2021-11-12T12:52:01Z</time>
      </trkpt>
      <trkpt lat="47.6222" lon="-2.79047">
        <ele>-14</ele>
        <time>2021-11-12T12:52:10Z</time>
      </trkpt>
      <trkpt lat="47.62217" lon="-2.79049">
        <ele>-13.8</ele>
        <time>2021-11-12T12:52:11Z</time>
      </trkpt>
      <trkpt lat="47.62191" lon="-2.79068">
        <ele>-13</ele>
        <time>2021-11-12T12:52:19Z</time>
      </trkpt>
      <trkpt lat="47.62185" lon="-2.79073">
        <ele>-12.8</ele>
        <time>2021-11-12T12:52:21Z</time>
      </trkpt>
      <trkpt lat="47.62176" lon="-2.79082">
        <ele>-12.4</ele>
        <time>2021-11-12T12:52:24Z</time>
      </trkpt>
      <trkpt lat="47.62169" lon="-2.79087">
        <ele>-12.2</ele>
        <time>2021-11-12T12:52:26Z</time>
      </trkpt>
      <trkpt lat="47.62162" lon="-2.79093">
        <ele>-11.6</ele>
        <time>2021-11-12T12:52:28Z</time>
      </trkpt>
      <trkpt lat="47.62151" lon="-2.79101">
        <ele>-11</ele>
        <time>2021-11-12T12:52:31Z</time>
      </trkpt>
      <trkpt lat="47.62143" lon="-2.79108">
        <ele>-10.6</ele>
        <time>2021-11-12T12:52:33Z</time>
      </trkpt>
      <trkpt lat="47.62139" lon="-2.79111">
        <ele>-10.6</ele>
        <time>2021-11-12T12:52:34Z</time>
      </trkpt>
      <trkpt lat="47.62127" lon="-2.7912">
        <ele>-10.2</ele>
        <time>2021-11-12T12:52:37Z</time>
      </trkpt>
      <trkpt lat="47.62107" lon="-2.7914">
        <ele>-9.4</ele>
        <time>2021-11-12T12:52:42Z</time>
      </trkpt>
      <trkpt lat="47.621" lon="-2.79151">
        <ele>-9.2</ele>
        <time>2021-11-12T12:52:44Z</time>
      </trkpt>
      <trkpt lat="47.62097" lon="-2.79157">
        <ele>-9.2</ele>
        <time>2021-11-12T12:52:45Z</time>
      </trkpt>
      <trkpt lat="47.62093" lon="-2.79169">
        <ele>-8.8</ele>
        <time>2021-11-12T12:52:47Z</time>
      </trkpt>
      <trkpt lat="47.6209" lon="-2.79183">
        <ele>-8.4</ele>
        <time>2021-11-12T12:52:49Z</time>
      </trkpt>
      <trkpt lat="47.62089" lon="-2.7919">
        <ele>-8.4</ele>
        <time>2021-11-12T12:52:50Z</time>
      </trkpt>
      <trkpt lat="47.62088" lon="-2.7922">
        <ele>-8.2</ele>
        <time>2021-11-12T12:52:54Z</time>
      </trkpt>
      <trkpt lat="47.62093" lon="-2.79245">
        <ele>-7.8</ele>
        <time>2021-11-12T12:52:58Z</time>
      </trkpt>
      <trkpt lat="47.62098" lon="-2.79261">
        <ele>-7.4</ele>
        <time>2021-11-12T12:53:01Z</time>
      </trkpt>
      <trkpt lat="47.62105" lon="-2.79286">
        <ele>-6.8</ele>
        <time>2021-11-12T12:53:06Z</time>
      </trkpt>
      <trkpt lat="47.62111" lon="-2.79307">
        <ele>-6.2</ele>
        <time>2021-11-12T12:53:10Z</time>
      </trkpt>
      <trkpt lat="47.62116" lon="-2.79328">
        <ele>-5.8</ele>
        <time>2021-11-12T12:53:14Z</time>
      </trkpt>
      <trkpt lat="47.62127" lon="-2.79368">
        <ele>-5.2</ele>
        <time>2021-11-12T12:53:20Z</time>
      </trkpt>
      <trkpt lat="47.62137" lon="-2.79397">
        <ele>-5.2</ele>
        <time>2021-11-12T12:53:24Z</time>
      </trkpt>
      <trkpt lat="47.62145" lon="-2.79409">
        <ele>-5</ele>
        <time>2021-11-12T12:53:26Z</time>
      </trkpt>
      <trkpt lat="47.62154" lon="-2.7942">
        <ele>-5</ele>
        <time>2021-11-12T12:53:28Z</time>
      </trkpt>
      <trkpt lat="47.62162" lon="-2.79428">
        <ele>-5</ele>
        <time>2021-11-12T12:53:30Z</time>
      </trkpt>
      <trkpt lat="47.62169" lon="-2.79436">
        <ele>-5</ele>
        <time>2021-11-12T12:53:32Z</time>
      </trkpt>
      <trkpt lat="47.62171" lon="-2.79439">
        <ele>-5</ele>
        <time>2021-11-12T12:53:33Z</time>
      </trkpt>
      <trkpt lat="47.62171" lon="-2.79446">
        <ele>-5</ele>
        <time>2021-11-12T12:53:35Z</time>
      </trkpt>
      <trkpt lat="47.6216" lon="-2.79458">
        <ele>-5</ele>
        <time>2021-11-12T12:53:39Z</time>
      </trkpt>
      <trkpt lat="47.62146" lon="-2.79467">
        <ele>-5.2</ele>
        <time>2021-11-12T12:53:43Z</time>
      </trkpt>
      <trkpt lat="47.62138" lon="-2.7947">
        <ele>-5.4</ele>
        <time>2021-11-12T12:53:45Z</time>
      </trkpt>
      <trkpt lat="47.6213" lon="-2.79473">
        <ele>-5.6</ele>
        <time>2021-11-12T12:53:47Z</time>
      </trkpt>
      <trkpt lat="47.62125" lon="-2.79474">
        <ele>-5.8</ele>
        <time>2021-11-12T12:53:48Z</time>
      </trkpt>
      <trkpt lat="47.62111" lon="-2.79476">
        <ele>-6.2</ele>
        <time>2021-11-12T12:53:51Z</time>
      </trkpt>
      <trkpt lat="47.62103" lon="-2.79478">
        <ele>-6.4</ele>
        <time>2021-11-12T12:53:53Z</time>
      </trkpt>
      <trkpt lat="47.62099" lon="-2.79479">
        <ele>-6.4</ele>
        <time>2021-11-12T12:53:54Z</time>
      </trkpt>
      <trkpt lat="47.62091" lon="-2.7948">
        <ele>-6.6</ele>
        <time>2021-11-12T12:53:56Z</time>
      </trkpt>
      <trkpt lat="47.62078" lon="-2.79482">
        <ele>-6.8</ele>
        <time>2021-11-12T12:53:59Z</time>
      </trkpt>
      <trkpt lat="47.62067" lon="-2.79488">
        <ele>-7.4</ele>
        <time>2021-11-12T12:54:02Z</time>
      </trkpt>
      <trkpt lat="47.62059" lon="-2.79493">
        <ele>-7.8</ele>
        <time>2021-11-12T12:54:05Z</time>
      </trkpt>
      <trkpt lat="47.62051" lon="-2.79495">
        <ele>-8.4</ele>
        <time>2021-11-12T12:54:09Z</time>
      </trkpt>
      <trkpt lat="47.6205" lon="-2.79495">
        <ele>-8.6</ele>
        <time>2021-11-12T12:54:10Z</time>
      </trkpt>
      <trkpt lat="47.62046" lon="-2.79495">
        <ele>-9.4</ele>
        <time>2021-11-12T12:54:15Z</time>
      </trkpt>
      <trkpt lat="47.62045" lon="-2.79495">
        <ele>-10</ele>
        <time>2021-11-12T12:54:17Z</time>
      </trkpt>
      <trkpt lat="47.62044" lon="-2.79495">
        <ele>-10.6</ele>
        <time>2021-11-12T12:54:21Z</time>
      </trkpt>
      <trkpt lat="47.62044" lon="-2.79494">
        <ele>-11.2</ele>
        <time>2021-11-12T12:54:24Z</time>
      </trkpt>
      <trkpt lat="47.62044" lon="-2.79494">
        <ele>-11.8</ele>
        <time>2021-11-12T12:54:28Z</time>
      </trkpt>
      <trkpt lat="47.62044" lon="-2.79494">
        <ele>-13</ele>
        <time>2021-11-12T12:54:36Z</time>
      </trkpt>
      <trkpt lat="47.62044" lon="-2.79494">
        <ele>-13.6</ele>
        <time>2021-11-12T12:54:41Z</time>
      </trkpt>
      <trkpt lat="47.62044" lon="-2.79494">
        <ele>-14</ele>
        <time>2021-11-12T12:54:45Z</time>
      </trkpt>
      <trkpt lat="47.62044" lon="-2.79494">
        <ele>-15</ele>
        <time>2021-11-12T12:55:25Z</time>
      </trkpt>
      <trkpt lat="47.62044" lon="-2.79494">
        <ele>-16</ele>
        <time>2021-11-12T12:55:51Z</time>
      </trkpt>
      <trkpt lat="47.62044" lon="-2.79494">
        <ele>-17</ele>
        <time>2021-11-12T12:56:03Z</time>
      </trkpt>
      <trkpt lat="47.62044" lon="-2.79494">
        <ele>-18.6</ele>
        <time>2021-11-12T12:58:18Z</time>
      </trkpt>
      <trkpt lat="47.62044" lon="-2.79494">
        <ele>-19.8</ele>
        <time>2021-11-12T12:58:46Z</time>
      </trkpt>
      <trkpt lat="47.62044" lon="-2.79494">
        <ele>-20</ele>
        <time>2021-11-12T12:58:53Z</time>
      </trkpt>
      <trkpt lat="47.62048" lon="-2.79494">
        <ele>-20.4</ele>
        <time>2021-11-12T12:59:21Z</time>
      </trkpt>
      <trkpt lat="47.6205" lon="-2.79493">
        <ele>-20.4</ele>
        <time>2021-11-12T12:59:23Z</time>
      </trkpt>
      <trkpt lat="47.62056" lon="-2.79491">
        <ele>-20.4</ele>
        <time>2021-11-12T12:59:29Z</time>
      </trkpt>
      <trkpt lat="47.62058" lon="-2.79491">
        <ele>-20.4</ele>
        <time>2021-11-12T12:59:33Z</time>
      </trkpt>
      <trkpt lat="47.6206" lon="-2.79491">
        <ele>-20.4</ele>
        <time>2021-11-12T12:59:35Z</time>
      </trkpt>
      <trkpt lat="47.62067" lon="-2.79488">
        <ele>-20.8</ele>
        <time>2021-11-12T12:59:40Z</time>
      </trkpt>
      <trkpt lat="47.62069" lon="-2.79488">
        <ele>-20.8</ele>
        <time>2021-11-12T12:59:41Z</time>
      </trkpt>
      <trkpt lat="47.62083" lon="-2.79485">
        <ele>-21</ele>
        <time>2021-11-12T12:59:48Z</time>
      </trkpt>
      <trkpt lat="47.62099" lon="-2.79482">
        <ele>-21.2</ele>
        <time>2021-11-12T12:59:55Z</time>
      </trkpt>
      <trkpt lat="47.62111" lon="-2.79478">
        <ele>-21.2</ele>
        <time>2021-11-12T13:00:01Z</time>
      </trkpt>
      <trkpt lat="47.62135" lon="-2.79473">
        <ele>-21</ele>
        <time>2021-11-12T13:00:10Z</time>
      </trkpt>
      <trkpt lat="47.62149" lon="-2.79469">
        <ele>-20.6</ele>
        <time>2021-11-12T13:00:18Z</time>
      </trkpt>
      <trkpt lat="47.6216" lon="-2.79463">
        <ele>-20.2</ele>
        <time>2021-11-12T13:00:23Z</time>
      </trkpt>
      <trkpt lat="47.62165" lon="-2.79458">
        <ele>-20</ele>
        <time>2021-11-12T13:00:26Z</time>
      </trkpt>
      <trkpt lat="47.62177" lon="-2.79446">
        <ele>-19.4</ele>
        <time>2021-11-12T13:00:34Z</time>
      </trkpt>
      <trkpt lat="47.62179" lon="-2.79446">
        <ele>-19.2</ele>
        <time>2021-11-12T13:00:35Z</time>
      </trkpt>
      <trkpt lat="47.62181" lon="-2.79447">
        <ele>-19.2</ele>
        <time>2021-11-12T13:00:36Z</time>
      </trkpt>
      <trkpt lat="47.62182" lon="-2.79451">
        <ele>-19</ele>
        <time>2021-11-12T13:00:38Z</time>
      </trkpt>
      <trkpt lat="47.62193" lon="-2.79471">
        <ele>-18.6</ele>
        <time>2021-11-12T13:00:46Z</time>
      </trkpt>
      <trkpt lat="47.62196" lon="-2.7948">
        <ele>-18.2</ele>
        <time>2021-11-12T13:00:49Z</time>
      </trkpt>
      <trkpt lat="47.622" lon="-2.79487">
        <ele>-18</ele>
        <time>2021-11-12T13:00:52Z</time>
      </trkpt>
      <trkpt lat="47.62206" lon="-2.79499">
        <ele>-17.4</ele>
        <time>2021-11-12T13:00:57Z</time>
      </trkpt>
      <trkpt lat="47.62207" lon="-2.79502">
        <ele>-17.4</ele>
        <time>2021-11-12T13:00:58Z</time>
      </trkpt>
      <trkpt lat="47.62208" lon="-2.79506">
        <ele>-17.2</ele>
        <time>2021-11-12T13:01:00Z</time>
      </trkpt>
      <trkpt lat="47.62213" lon="-2.79517">
        <ele>-16.6</ele>
        <time>2021-11-12T13:01:05Z</time>
      </trkpt>
      <trkpt lat="47.62215" lon="-2.7952">
        <ele>-16.4</ele>
        <time>2021-11-12T13:01:06Z</time>
      </trkpt>
      <trkpt lat="47.62225" lon="-2.79534">
        <ele>-15.4</ele>
        <time>2021-11-12T13:01:12Z</time>
      </trkpt>
      <trkpt lat="47.62231" lon="-2.79553">
        <ele>-14.8</ele>
        <time>2021-11-12T13:01:18Z</time>
      </trkpt>
      <trkpt lat="47.62234" lon="-2.79557">
        <ele>-14.8</ele>
        <time>2021-11-12T13:01:20Z</time>
      </trkpt>
      <trkpt lat="47.62239" lon="-2.79567">
        <ele>-14.4</ele>
        <time>2021-11-12T13:01:24Z</time>
      </trkpt>
      <trkpt lat="47.62245" lon="-2.79579">
        <ele>-13.8</ele>
        <time>2021-11-12T13:01:28Z</time>
      </trkpt>
      <trkpt lat="47.62248" lon="-2.79588">
        <ele>-13.2</ele>
        <time>2021-11-12T13:01:31Z</time>
      </trkpt>
      <trkpt lat="47.62252" lon="-2.79593">
        <ele>-12.8</ele>
        <time>2021-11-12T13:01:34Z</time>
      </trkpt>
      <trkpt lat="47.6225" lon="-2.79595">
        <ele>-12.4</ele>
        <time>2021-11-12T13:01:37Z</time>
      </trkpt>
      <trkpt lat="47.62249" lon="-2.79593">
        <ele>-12.4</ele>
        <time>2021-11-12T13:01:38Z</time>
      </trkpt>
      <trkpt lat="47.62248" lon="-2.79586">
        <ele>-11.4</ele>
        <time>2021-11-12T13:01:44Z</time>
      </trkpt>
      <trkpt lat="47.6225" lon="-2.79587">
        <ele>-11.2</ele>
        <time>2021-11-12T13:01:45Z</time>
      </trkpt>
      <trkpt lat="47.62252" lon="-2.79592">
        <ele>-10.6</ele>
        <time>2021-11-12T13:01:48Z</time>
      </trkpt>
      <trkpt lat="47.62253" lon="-2.79594">
        <ele>-10.6</ele>
        <time>2021-11-12T13:01:49Z</time>
      </trkpt>
      <trkpt lat="47.62256" lon="-2.79598">
        <ele>-10.2</ele>
        <time>2021-11-12T13:01:51Z</time>
      </trkpt>
      <trkpt lat="47.62258" lon="-2.79602">
        <ele>-9.8</ele>
        <time>2021-11-12T13:01:53Z</time>
      </trkpt>
      <trkpt lat="47.62268" lon="-2.79622">
        <ele>-9.2</ele>
        <time>2021-11-12T13:01:59Z</time>
      </trkpt>
      <trkpt lat="47.6227" lon="-2.79626">
        <ele>-9.2</ele>
        <time>2021-11-12T13:02:00Z</time>
      </trkpt>
      <trkpt lat="47.62279" lon="-2.79648">
        <ele>-8.6</ele>
        <time>2021-11-12T13:02:05Z</time>
      </trkpt>
      <trkpt lat="47.62289" lon="-2.79666">
        <ele>-8.2</ele>
        <time>2021-11-12T13:02:09Z</time>
      </trkpt>
      <trkpt lat="47.62292" lon="-2.79672">
        <ele>-8</ele>
        <time>2021-11-12T13:02:10Z</time>
      </trkpt>
      <trkpt lat="47.62294" lon="-2.79678">
        <ele>-8</ele>
        <time>2021-11-12T13:02:11Z</time>
      </trkpt>
      <trkpt lat="47.62298" lon="-2.7969">
        <ele>-7.8</ele>
        <time>2021-11-12T13:02:13Z</time>
      </trkpt>
      <trkpt lat="47.62308" lon="-2.79714">
        <ele>-7</ele>
        <time>2021-11-12T13:02:17Z</time>
      </trkpt>
      <trkpt lat="47.62311" lon="-2.7972">
        <ele>-7</ele>
        <time>2021-11-12T13:02:18Z</time>
      </trkpt>
      <trkpt lat="47.62319" lon="-2.79734">
        <ele>-6.8</ele>
        <time>2021-11-12T13:02:20Z</time>
      </trkpt>
      <trkpt lat="47.62323" lon="-2.79741">
        <ele>-6.6</ele>
        <time>2021-11-12T13:02:21Z</time>
      </trkpt>
      <trkpt lat="47.62326" lon="-2.79748">
        <ele>-6.6</ele>
        <time>2021-11-12T13:02:22Z</time>
      </trkpt>
      <trkpt lat="47.62341" lon="-2.7978">
        <ele>-6</ele>
        <time>2021-11-12T13:02:26Z</time>
      </trkpt>
      <trkpt lat="47.62345" lon="-2.79789">
        <ele>-6</ele>
        <time>2021-11-12T13:02:27Z</time>
      </trkpt>
      <trkpt lat="47.62366" lon="-2.7983">
        <ele>-5.8</ele>
        <time>2021-11-12T13:02:32Z</time>
      </trkpt>
      <trkpt lat="47.62377" lon="-2.79853">
        <ele>-5.4</ele>
        <time>2021-11-12T13:02:36Z</time>
      </trkpt>
      <trkpt lat="47.62385" lon="-2.79874">
        <ele>-5.2</ele>
        <time>2021-11-12T13:02:40Z</time>
      </trkpt>
      <trkpt lat="47.62391" lon="-2.79885">
        <ele>-5</ele>
        <time>2021-11-12T13:02:42Z</time>
      </trkpt>
      <trkpt lat="47.62393" lon="-2.79891">
        <ele>-5</ele>
        <time>2021-11-12T13:02:43Z</time>
      </trkpt>
      <trkpt lat="47.624" lon="-2.79907">
        <ele>-4.6</ele>
        <time>2021-11-12T13:02:46Z</time>
      </trkpt>
      <trkpt lat="47.62407" lon="-2.79927">
        <ele>-4</ele>
        <time>2021-11-12T13:02:50Z</time>
      </trkpt>
      <trkpt lat="47.6241" lon="-2.79935">
        <ele>-4</ele>
        <time>2021-11-12T13:02:52Z</time>
      </trkpt>
      <trkpt lat="47.62412" lon="-2.79949">
        <ele>-3.8</ele>
        <time>2021-11-12T13:02:55Z</time>
      </trkpt>
      <trkpt lat="47.62418" lon="-2.79977">
        <ele>-3.2</ele>
        <time>2021-11-12T13:03:01Z</time>
      </trkpt>
      <trkpt lat="47.6242" lon="-2.79989">
        <ele>-2.8</ele>
        <time>2021-11-12T13:03:04Z</time>
      </trkpt>
      <trkpt lat="47.62421" lon="-2.79996">
        <ele>-2.6</ele>
        <time>2021-11-12T13:03:06Z</time>
      </trkpt>
      <trkpt lat="47.62418" lon="-2.80003">
        <ele>-2.4</ele>
        <time>2021-11-12T13:03:08Z</time>
      </trkpt>
      <trkpt lat="47.62408" lon="-2.80011">
        <ele>-2.2</ele>
        <time>2021-11-12T13:03:11Z</time>
      </trkpt>
      <trkpt lat="47.62404" lon="-2.80012">
        <ele>-2.2</ele>
        <time>2021-11-12T13:03:12Z</time>
      </trkpt>
      <trkpt lat="47.624" lon="-2.80014">
        <ele>-2.2</ele>
        <time>2021-11-12T13:03:13Z</time>
      </trkpt>
      <trkpt lat="47.62384" lon="-2.80023">
        <ele>-2.2</ele>
        <time>2021-11-12T13:03:16Z</time>
      </trkpt>
      <trkpt lat="47.62358" lon="-2.80036">
        <ele>-2.2</ele>
        <time>2021-11-12T13:03:20Z</time>
      </trkpt>
      <trkpt lat="47.62351" lon="-2.8004">
        <ele>-2.2</ele>
        <time>2021-11-12T13:03:21Z</time>
      </trkpt>
      <trkpt lat="47.62308" lon="-2.80071">
        <ele>-2.4</ele>
        <time>2021-11-12T13:03:27Z</time>
      </trkpt>
      <trkpt lat="47.62276" lon="-2.80093">
        <ele>-2.2</ele>
        <time>2021-11-12T13:03:32Z</time>
      </trkpt>
      <trkpt lat="47.62256" lon="-2.8011">
        <ele>-2.2</ele>
        <time>2021-11-12T13:03:36Z</time>
      </trkpt>
      <trkpt lat="47.62248" lon="-2.80119">
        <ele>-2.2</ele>
        <time>2021-11-12T13:03:38Z</time>
      </trkpt>
      <trkpt lat="47.62238" lon="-2.80126">
        <ele>-2</ele>
        <time>2021-11-12T13:03:40Z</time>
      </trkpt>
      <trkpt lat="47.62233" lon="-2.80129">
        <ele>-2</ele>
        <time>2021-11-12T13:03:41Z</time>
      </trkpt>
      <trkpt lat="47.62222" lon="-2.80129">
        <ele>-1.8</ele>
        <time>2021-11-12T13:03:43Z</time>
      </trkpt>
      <trkpt lat="47.62201" lon="-2.80129">
        <ele>-1.4</ele>
        <time>2021-11-12T13:03:47Z</time>
      </trkpt>
      <trkpt lat="47.62181" lon="-2.80131">
        <ele>-1.4</ele>
        <time>2021-11-12T13:03:50Z</time>
      </trkpt>
      <trkpt lat="47.6217" lon="-2.80135">
        <ele>-1.6</ele>
        <time>2021-11-12T13:03:52Z</time>
      </trkpt>
      <trkpt lat="47.62148" lon="-2.80152">
        <ele>-2</ele>
        <time>2021-11-12T13:03:57Z</time>
      </trkpt>
      <trkpt lat="47.62145" lon="-2.80153">
        <ele>-2</ele>
        <time>2021-11-12T13:03:58Z</time>
      </trkpt>
      <trkpt lat="47.62139" lon="-2.80153">
        <ele>-2.2</ele>
        <time>2021-11-12T13:04:00Z</time>
      </trkpt>
      <trkpt lat="47.62132" lon="-2.80144">
        <ele>-2.2</ele>
        <time>2021-11-12T13:04:04Z</time>
      </trkpt>
      <trkpt lat="47.62124" lon="-2.80134">
        <ele>-2.6</ele>
        <time>2021-11-12T13:04:08Z</time>
      </trkpt>
      <trkpt lat="47.62122" lon="-2.80132">
        <ele>-2.6</ele>
        <time>2021-11-12T13:04:09Z</time>
      </trkpt>
      <trkpt lat="47.62112" lon="-2.8012">
        <ele>-2.8</ele>
        <time>2021-11-12T13:04:14Z</time>
      </trkpt>
      <trkpt lat="47.621" lon="-2.80102">
        <ele>-2.8</ele>
        <time>2021-11-12T13:04:19Z</time>
      </trkpt>
      <trkpt lat="47.62089" lon="-2.80089">
        <ele>-3</ele>
        <time>2021-11-12T13:04:23Z</time>
      </trkpt>
      <trkpt lat="47.6208" lon="-2.80075">
        <ele>-3</ele>
        <time>2021-11-12T13:04:27Z</time>
      </trkpt>
      <trkpt lat="47.6208" lon="-2.80072">
        <ele>-3</ele>
        <time>2021-11-12T13:04:28Z</time>
      </trkpt>
      <trkpt lat="47.62077" lon="-2.80069">
        <ele>-3</ele>
        <time>2021-11-12T13:04:29Z</time>
      </trkpt>
      <trkpt lat="47.62076" lon="-2.80064">
        <ele>-3</ele>
        <time>2021-11-12T13:04:32Z</time>
      </trkpt>
      <trkpt lat="47.62076" lon="-2.80062">
        <ele>-3</ele>
        <time>2021-11-12T13:04:33Z</time>
      </trkpt>
      <trkpt lat="47.62076" lon="-2.80056">
        <ele>-3.4</ele>
        <time>2021-11-12T13:04:38Z</time>
      </trkpt>
      <trkpt lat="47.62076" lon="-2.80056">
        <ele>-3.4</ele>
        <time>2021-11-12T13:04:39Z</time>
      </trkpt>
      <trkpt lat="47.62072" lon="-2.80055">
        <ele>-3.8</ele>
        <time>2021-11-12T13:04:46Z</time>
      </trkpt>
      <trkpt lat="47.6207" lon="-2.80052">
        <ele>-3.8</ele>
        <time>2021-11-12T13:04:50Z</time>
      </trkpt>
      <trkpt lat="47.62069" lon="-2.8005">
        <ele>-3.8</ele>
        <time>2021-11-12T13:04:52Z</time>
      </trkpt>
      <trkpt lat="47.62063" lon="-2.80039">
        <ele>-3.6</ele>
        <time>2021-11-12T13:04:57Z</time>
      </trkpt>
      <trkpt lat="47.62056" lon="-2.80027">
        <ele>-3.6</ele>
        <time>2021-11-12T13:05:03Z</time>
      </trkpt>
      <trkpt lat="47.62041" lon="-2.80003">
        <ele>-3.6</ele>
        <time>2021-11-12T13:05:11Z</time>
      </trkpt>
      <trkpt lat="47.62028" lon="-2.79979">
        <ele>-3.8</ele>
        <time>2021-11-12T13:05:17Z</time>
      </trkpt>
      <trkpt lat="47.62015" lon="-2.79957">
        <ele>-4</ele>
        <time>2021-11-12T13:05:22Z</time>
      </trkpt>
      <trkpt lat="47.62006" lon="-2.79941">
        <ele>-4</ele>
        <time>2021-11-12T13:05:26Z</time>
      </trkpt>
      <trkpt lat="47.61997" lon="-2.79925">
        <ele>-4.4</ele>
        <time>2021-11-12T13:05:30Z</time>
      </trkpt>
      <trkpt lat="47.61993" lon="-2.79918">
        <ele>-4.4</ele>
        <time>2021-11-12T13:05:32Z</time>
      </trkpt>
      <trkpt lat="47.61983" lon="-2.79897">
        <ele>-4.6</ele>
        <time>2021-11-12T13:05:38Z</time>
      </trkpt>
      <trkpt lat="47.61976" lon="-2.79875">
        <ele>-4.6</ele>
        <time>2021-11-12T13:05:44Z</time>
      </trkpt>
      <trkpt lat="47.61972" lon="-2.79865">
        <ele>-4.6</ele>
        <time>2021-11-12T13:05:47Z</time>
      </trkpt>
      <trkpt lat="47.6197" lon="-2.79861">
        <ele>-4.4</ele>
        <time>2021-11-12T13:05:48Z</time>
      </trkpt>
      <trkpt lat="47.61964" lon="-2.79847">
        <ele>-4.4</ele>
        <time>2021-11-12T13:05:52Z</time>
      </trkpt>
      <trkpt lat="47.61964" lon="-2.79845">
        <ele>-4.4</ele>
        <time>2021-11-12T13:05:53Z</time>
      </trkpt>
      <trkpt lat="47.61963" lon="-2.79842">
        <ele>-4.6</ele>
        <time>2021-11-12T13:05:54Z</time>
      </trkpt>
      <trkpt lat="47.61959" lon="-2.79833">
        <ele>-4.6</ele>
        <time>2021-11-12T13:05:56Z</time>
      </trkpt>
      <trkpt lat="47.61958" lon="-2.79831">
        <ele>-4.8</ele>
        <time>2021-11-12T13:05:57Z</time>
      </trkpt>
      <trkpt lat="47.61956" lon="-2.79825">
        <ele>-5</ele>
        <time>2021-11-12T13:05:59Z</time>
      </trkpt>
      <trkpt lat="47.61952" lon="-2.79818">
        <ele>-5</ele>
        <time>2021-11-12T13:06:02Z</time>
      </trkpt>
      <trkpt lat="47.61949" lon="-2.79816">
        <ele>-5</ele>
        <time>2021-11-12T13:06:07Z</time>
      </trkpt>
      <trkpt lat="47.61948" lon="-2.79815">
        <ele>-5.2</ele>
        <time>2021-11-12T13:06:09Z</time>
      </trkpt>
      <trkpt lat="47.61948" lon="-2.79815">
        <ele>-5.6</ele>
        <time>2021-11-12T13:06:14Z</time>
      </trkpt>
      <trkpt lat="47.61948" lon="-2.79815">
        <ele>-6.2</ele>
        <time>2021-11-12T13:06:22Z</time>
      </trkpt>
      <trkpt lat="47.61947" lon="-2.79816">
        <ele>-6.2</ele>
        <time>2021-11-12T13:06:29Z</time>
      </trkpt>
      <trkpt lat="47.61941" lon="-2.79817">
        <ele>-6.2</ele>
        <time>2021-11-12T13:06:35Z</time>
      </trkpt>
      <trkpt lat="47.6194" lon="-2.79818">
        <ele>-6.4</ele>
        <time>2021-11-12T13:06:36Z</time>
      </trkpt>
      <trkpt lat="47.61927" lon="-2.79824">
        <ele>-6.8</ele>
        <time>2021-11-12T13:06:41Z</time>
      </trkpt>
      <trkpt lat="47.61922" lon="-2.79826">
        <ele>-7</ele>
        <time>2021-11-12T13:06:43Z</time>
      </trkpt>
      <trkpt lat="47.6191" lon="-2.79833">
        <ele>-7.8</ele>
        <time>2021-11-12T13:06:48Z</time>
      </trkpt>
      <trkpt lat="47.61902" lon="-2.79834">
        <ele>-8.2</ele>
        <time>2021-11-12T13:06:52Z</time>
      </trkpt>
      <trkpt lat="47.619" lon="-2.79834">
        <ele>-8</ele>
        <time>2021-11-12T13:06:53Z</time>
      </trkpt>
      <trkpt lat="47.61884" lon="-2.79823">
        <ele>-8.6</ele>
        <time>2021-11-12T13:07:00Z</time>
      </trkpt>
      <trkpt lat="47.61875" lon="-2.79816">
        <ele>-9</ele>
        <time>2021-11-12T13:07:05Z</time>
      </trkpt>
      <trkpt lat="47.61869" lon="-2.79813">
        <ele>-9</ele>
        <time>2021-11-12T13:07:08Z</time>
      </trkpt>
      <trkpt lat="47.61867" lon="-2.79813">
        <ele>-9</ele>
        <time>2021-11-12T13:07:09Z</time>
      </trkpt>
      <trkpt lat="47.61862" lon="-2.79812">
        <ele>-9.2</ele>
        <time>2021-11-12T13:07:12Z</time>
      </trkpt>
      <trkpt lat="47.6185" lon="-2.79817">
        <ele>-9.2</ele>
        <time>2021-11-12T13:07:19Z</time>
      </trkpt>
      <trkpt lat="47.61848" lon="-2.79819">
        <ele>-9.2</ele>
        <time>2021-11-12T13:07:20Z</time>
      </trkpt>
      <trkpt lat="47.61844" lon="-2.79827">
        <ele>-9.2</ele>
        <time>2021-11-12T13:07:23Z</time>
      </trkpt>
      <trkpt lat="47.61843" lon="-2.7983">
        <ele>-9.4</ele>
        <time>2021-11-12T13:07:24Z</time>
      </trkpt>
      <trkpt lat="47.6184" lon="-2.79838">
        <ele>-9.4</ele>
        <time>2021-11-12T13:07:27Z</time>
      </trkpt>
      <trkpt lat="47.61839" lon="-2.79841">
        <ele>-9.4</ele>
        <time>2021-11-12T13:07:28Z</time>
      </trkpt>
      <trkpt lat="47.61839" lon="-2.79844">
        <ele>-9.6</ele>
        <time>2021-11-12T13:07:29Z</time>
      </trkpt>
      <trkpt lat="47.6184" lon="-2.79849">
        <ele>-9.6</ele>
        <time>2021-11-12T13:07:31Z</time>
      </trkpt>
      <trkpt lat="47.61842" lon="-2.79872">
        <ele>-9.4</ele>
        <time>2021-11-12T13:07:39Z</time>
      </trkpt>
      <trkpt lat="47.61845" lon="-2.79903">
        <ele>-9.2</ele>
        <time>2021-11-12T13:07:47Z</time>
      </trkpt>
      <trkpt lat="47.61848" lon="-2.79932">
        <ele>-9.2</ele>
        <time>2021-11-12T13:07:55Z</time>
      </trkpt>
      <trkpt lat="47.61847" lon="-2.79942">
        <ele>-9.4</ele>
        <time>2021-11-12T13:07:58Z</time>
      </trkpt>
      <trkpt lat="47.61848" lon="-2.79949">
        <ele>-9.4</ele>
        <time>2021-11-12T13:08:00Z</time>
      </trkpt>
      <trkpt lat="47.61848" lon="-2.79952">
        <ele>-9.2</ele>
        <time>2021-11-12T13:08:01Z</time>
      </trkpt>
      <trkpt lat="47.61848" lon="-2.79958">
        <ele>-9.4</ele>
        <time>2021-11-12T13:08:04Z</time>
      </trkpt>
      <trkpt lat="47.61846" lon="-2.79968">
        <ele>-9.6</ele>
        <time>2021-11-12T13:08:08Z</time>
      </trkpt>
      <trkpt lat="47.61845" lon="-2.7997">
        <ele>-9.6</ele>
        <time>2021-11-12T13:08:09Z</time>
      </trkpt>
      <trkpt lat="47.61843" lon="-2.79972">
        <ele>-9.6</ele>
        <time>2021-11-12T13:08:10Z</time>
      </trkpt>
      <trkpt lat="47.61841" lon="-2.79979">
        <ele>-9.6</ele>
        <time>2021-11-12T13:08:12Z</time>
      </trkpt>
      <trkpt lat="47.61841" lon="-2.79986">
        <ele>-9.6</ele>
        <time>2021-11-12T13:08:14Z</time>
      </trkpt>
      <trkpt lat="47.61837" lon="-2.79999">
        <ele>-9.8</ele>
        <time>2021-11-12T13:08:20Z</time>
      </trkpt>
      <trkpt lat="47.61833" lon="-2.80022">
        <ele>-10</ele>
        <time>2021-11-12T13:08:27Z</time>
      </trkpt>
      <trkpt lat="47.61828" lon="-2.80044">
        <ele>-9.8</ele>
        <time>2021-11-12T13:08:32Z</time>
      </trkpt>
      <trkpt lat="47.61821" lon="-2.80064">
        <ele>-9.8</ele>
        <time>2021-11-12T13:08:37Z</time>
      </trkpt>
      <trkpt lat="47.61816" lon="-2.80077">
        <ele>-9.8</ele>
        <time>2021-11-12T13:08:41Z</time>
      </trkpt>
      <trkpt lat="47.61815" lon="-2.8008">
        <ele>-9.8</ele>
        <time>2021-11-12T13:08:42Z</time>
      </trkpt>
      <trkpt lat="47.61813" lon="-2.80087">
        <ele>-10</ele>
        <time>2021-11-12T13:08:45Z</time>
      </trkpt>
      <trkpt lat="47.61813" lon="-2.80092">
        <ele>-10</ele>
        <time>2021-11-12T13:08:47Z</time>
      </trkpt>
      <trkpt lat="47.61817" lon="-2.80106">
        <ele>-10.4</ele>
        <time>2021-11-12T13:08:51Z</time>
      </trkpt>
      <trkpt lat="47.61819" lon="-2.8011">
        <ele>-10.6</ele>
        <time>2021-11-12T13:08:52Z</time>
      </trkpt>
      <trkpt lat="47.6183" lon="-2.80121">
        <ele>-11.2</ele>
        <time>2021-11-12T13:08:57Z</time>
      </trkpt>
      <trkpt lat="47.61837" lon="-2.80127">
        <ele>-11.6</ele>
        <time>2021-11-12T13:09:00Z</time>
      </trkpt>
      <trkpt lat="47.61843" lon="-2.80133">
        <ele>-11.8</ele>
        <time>2021-11-12T13:09:03Z</time>
      </trkpt>
      <trkpt lat="47.61863" lon="-2.80149">
        <ele>-11.6</ele>
        <time>2021-11-12T13:09:12Z</time>
      </trkpt>
      <trkpt lat="47.61883" lon="-2.80165">
        <ele>-11.4</ele>
        <time>2021-11-12T13:09:21Z</time>
      </trkpt>
      <trkpt lat="47.61897" lon="-2.80179">
        <ele>-11.2</ele>
        <time>2021-11-12T13:09:28Z</time>
      </trkpt>
      <trkpt lat="47.61915" lon="-2.802">
        <ele>-11</ele>
        <time>2021-11-12T13:09:36Z</time>
      </trkpt>
      <trkpt lat="47.61919" lon="-2.80206">
        <ele>-11.2</ele>
        <time>2021-11-12T13:09:38Z</time>
      </trkpt>
      <trkpt lat="47.61923" lon="-2.80215">
        <ele>-11.4</ele>
        <time>2021-11-12T13:09:41Z</time>
      </trkpt>
      <trkpt lat="47.61933" lon="-2.80228">
        <ele>-11.6</ele>
        <time>2021-11-12T13:09:47Z</time>
      </trkpt>
      <trkpt lat="47.61942" lon="-2.80241">
        <ele>-11.8</ele>
        <time>2021-11-12T13:09:53Z</time>
      </trkpt>
      <trkpt lat="47.61946" lon="-2.80247">
        <ele>-12.2</ele>
        <time>2021-11-12T13:09:58Z</time>
      </trkpt>
      <trkpt lat="47.61946" lon="-2.80247">
        <ele>-12.2</ele>
        <time>2021-11-12T13:10:09Z</time>
      </trkpt>
      <trkpt lat="47.61946" lon="-2.80247">
        <ele>-12.2</ele>
        <time>2021-11-12T13:10:11Z</time>
      </trkpt>
      <trkpt lat="47.61948" lon="-2.80248">
        <ele>-11.2</ele>
        <time>2021-11-12T13:10:56Z</time>
      </trkpt>
      <trkpt lat="47.61948" lon="-2.80248">
        <ele>-11</ele>
        <time>2021-11-12T13:10:59Z</time>
      </trkpt>
      <trkpt lat="47.61952" lon="-2.80255">
        <ele>-11</ele>
        <time>2021-11-12T13:11:03Z</time>
      </trkpt>
      <trkpt lat="47.61954" lon="-2.80258">
        <ele>-10.8</ele>
        <time>2021-11-12T13:11:05Z</time>
      </trkpt>
      <trkpt lat="47.61955" lon="-2.80262">
        <ele>-10.8</ele>
        <time>2021-11-12T13:11:10Z</time>
      </trkpt>
      <trkpt lat="47.61959" lon="-2.80268">
        <ele>-11</ele>
        <time>2021-11-12T13:11:18Z</time>
      </trkpt>
      <trkpt lat="47.61963" lon="-2.80273">
        <ele>-11.2</ele>
        <time>2021-11-12T13:11:27Z</time>
      </trkpt>
      <trkpt lat="47.61968" lon="-2.80282">
        <ele>-11.6</ele>
        <time>2021-11-12T13:11:33Z</time>
      </trkpt>
      <trkpt lat="47.61971" lon="-2.80287">
        <ele>-12.2</ele>
        <time>2021-11-12T13:11:36Z</time>
      </trkpt>
      <trkpt lat="47.61973" lon="-2.8029">
        <ele>-12.6</ele>
        <time>2021-11-12T13:11:39Z</time>
      </trkpt>
      <trkpt lat="47.61975" lon="-2.80293">
        <ele>-13</ele>
        <time>2021-11-12T13:11:42Z</time>
      </trkpt>
      <trkpt lat="47.61982" lon="-2.80304">
        <ele>-13.6</ele>
        <time>2021-11-12T13:11:53Z</time>
      </trkpt>
      <trkpt lat="47.6199" lon="-2.80316">
        <ele>-13.4</ele>
        <time>2021-11-12T13:12:05Z</time>
      </trkpt>
      <trkpt lat="47.61996" lon="-2.80326">
        <ele>-13.8</ele>
        <time>2021-11-12T13:12:14Z</time>
      </trkpt>
      <trkpt lat="47.61999" lon="-2.80329">
        <ele>-14.2</ele>
        <time>2021-11-12T13:12:18Z</time>
      </trkpt>
      <trkpt lat="47.62005" lon="-2.80339">
        <ele>-14.4</ele>
        <time>2021-11-12T13:12:27Z</time>
      </trkpt>
      <trkpt lat="47.62009" lon="-2.80346">
        <ele>-14.4</ele>
        <time>2021-11-12T13:12:34Z</time>
      </trkpt>
      <trkpt lat="47.62016" lon="-2.80359">
        <ele>-14.6</ele>
        <time>2021-11-12T13:12:45Z</time>
      </trkpt>
      <trkpt lat="47.62026" lon="-2.80372">
        <ele>-14.4</ele>
        <time>2021-11-12T13:12:58Z</time>
      </trkpt>
      <trkpt lat="47.6203" lon="-2.80379">
        <ele>-14.6</ele>
        <time>2021-11-12T13:13:05Z</time>
      </trkpt>
      <trkpt lat="47.62036" lon="-2.80387">
        <ele>-15</ele>
        <time>2021-11-12T13:13:14Z</time>
      </trkpt>
      <trkpt lat="47.62038" lon="-2.80391">
        <ele>-15</ele>
        <time>2021-11-12T13:13:16Z</time>
      </trkpt>
      <trkpt lat="47.6204" lon="-2.80393">
        <ele>-15.2</ele>
        <time>2021-11-12T13:13:18Z</time>
      </trkpt>
      <trkpt lat="47.62041" lon="-2.80396">
        <ele>-15.2</ele>
        <time>2021-11-12T13:13:20Z</time>
      </trkpt>
      <trkpt lat="47.62042" lon="-2.80397">
        <ele>-15.2</ele>
        <time>2021-11-12T13:13:22Z</time>
      </trkpt>
      <trkpt lat="47.62042" lon="-2.80398">
        <ele>-15.2</ele>
        <time>2021-11-12T13:13:23Z</time>
      </trkpt>
      <trkpt lat="47.62044" lon="-2.80402">
        <ele>-15.2</ele>
        <time>2021-11-12T13:13:26Z</time>
      </trkpt>
      <trkpt lat="47.62044" lon="-2.80402">
        <ele>-15.4</ele>
        <time>2021-11-12T13:13:27Z</time>
      </trkpt>
      <trkpt lat="47.62046" lon="-2.80406">
        <ele>-16</ele>
        <time>2021-11-12T13:13:30Z</time>
      </trkpt>
      <trkpt lat="47.6205" lon="-2.80412">
        <ele>-16.6</ele>
        <time>2021-11-12T13:13:35Z</time>
      </trkpt>
      <trkpt lat="47.62052" lon="-2.80415">
        <ele>-17</ele>
        <time>2021-11-12T13:13:40Z</time>
      </trkpt>
      <trkpt lat="47.62054" lon="-2.80417">
        <ele>-17</ele>
        <time>2021-11-12T13:13:44Z</time>
      </trkpt>
      <trkpt lat="47.62057" lon="-2.8042">
        <ele>-17</ele>
        <time>2021-11-12T13:13:46Z</time>
      </trkpt>
      <trkpt lat="47.62059" lon="-2.80423">
        <ele>-17</ele>
        <time>2021-11-12T13:13:49Z</time>
      </trkpt>
      <trkpt lat="47.62063" lon="-2.8043">
        <ele>-17</ele>
        <time>2021-11-12T13:13:55Z</time>
      </trkpt>
      <trkpt lat="47.62065" lon="-2.80435">
        <ele>-17.2</ele>
        <time>2021-11-12T13:13:58Z</time>
      </trkpt>
      <trkpt lat="47.62067" lon="-2.80438">
        <ele>-17.2</ele>
        <time>2021-11-12T13:14:00Z</time>
      </trkpt>
      <trkpt lat="47.62069" lon="-2.80442">
        <ele>-17.2</ele>
        <time>2021-11-12T13:14:04Z</time>
      </trkpt>
      <trkpt lat="47.6208" lon="-2.80457">
        <ele>-17.8</ele>
        <time>2021-11-12T13:14:19Z</time>
      </trkpt>
      <trkpt lat="47.62081" lon="-2.80459">
        <ele>-17.8</ele>
        <time>2021-11-12T13:14:21Z</time>
      </trkpt>
      <trkpt lat="47.62086" lon="-2.80465">
        <ele>-17.8</ele>
        <time>2021-11-12T13:14:26Z</time>
      </trkpt>
      <trkpt lat="47.62096" lon="-2.80482">
        <ele>-17.4</ele>
        <time>2021-11-12T13:14:38Z</time>
      </trkpt>
      <trkpt lat="47.62103" lon="-2.80491">
        <ele>-17</ele>
        <time>2021-11-12T13:14:49Z</time>
      </trkpt>
      <trkpt lat="47.62103" lon="-2.80492">
        <ele>-17</ele>
        <time>2021-11-12T13:14:50Z</time>
      </trkpt>
      <trkpt lat="47.62104" lon="-2.80492">
        <ele>-17.4</ele>
        <time>2021-11-12T13:14:57Z</time>
      </trkpt>
      <trkpt lat="47.62104" lon="-2.80494">
        <ele>-16.4</ele>
        <time>2021-11-12T13:15:17Z</time>
      </trkpt>
      <trkpt lat="47.62104" lon="-2.80495">
        <ele>-16.2</ele>
        <time>2021-11-12T13:15:20Z</time>
      </trkpt>
      <trkpt lat="47.62104" lon="-2.80495">
        <ele>-16.2</ele>
        <time>2021-11-12T13:15:21Z</time>
      </trkpt>
      <trkpt lat="47.62104" lon="-2.80496">
        <ele>-16.2</ele>
        <time>2021-11-12T13:15:24Z</time>
      </trkpt>
      <trkpt lat="47.62106" lon="-2.80504">
        <ele>-16.2</ele>
        <time>2021-11-12T13:15:27Z</time>
      </trkpt>
      <trkpt lat="47.62109" lon="-2.80516">
        <ele>-16.8</ele>
        <time>2021-11-12T13:15:34Z</time>
      </trkpt>
      <trkpt lat="47.62111" lon="-2.80522">
        <ele>-17.4</ele>
        <time>2021-11-12T13:15:39Z</time>
      </trkpt>
      <trkpt lat="47.62112" lon="-2.80524">
        <ele>-17.4</ele>
        <time>2021-11-12T13:15:41Z</time>
      </trkpt>
      <trkpt lat="47.62112" lon="-2.80525">
        <ele>-17.4</ele>
        <time>2021-11-12T13:15:42Z</time>
      </trkpt>
      <trkpt lat="47.62115" lon="-2.80539">
        <ele>-17.8</ele>
        <time>2021-11-12T13:15:47Z</time>
      </trkpt>
      <trkpt lat="47.62122" lon="-2.80563">
        <ele>-17.6</ele>
        <time>2021-11-12T13:15:55Z</time>
      </trkpt>
      <trkpt lat="47.62131" lon="-2.80595">
        <ele>-17</ele>
        <time>2021-11-12T13:16:04Z</time>
      </trkpt>
      <trkpt lat="47.62137" lon="-2.80609">
        <ele>-16.4</ele>
        <time>2021-11-12T13:16:10Z</time>
      </trkpt>
      <trkpt lat="47.62139" lon="-2.80614">
        <ele>-16.2</ele>
        <time>2021-11-12T13:16:11Z</time>
      </trkpt>
      <trkpt lat="47.62144" lon="-2.80629">
        <ele>-15.6</ele>
        <time>2021-11-12T13:16:17Z</time>
      </trkpt>
      <trkpt lat="47.62148" lon="-2.80644">
        <ele>-15.4</ele>
        <time>2021-11-12T13:16:23Z</time>
      </trkpt>
      <trkpt lat="47.62147" lon="-2.80653">
        <ele>-15.2</ele>
        <time>2021-11-12T13:16:26Z</time>
      </trkpt>
      <trkpt lat="47.62146" lon="-2.80669">
        <ele>-14.2</ele>
        <time>2021-11-12T13:16:32Z</time>
      </trkpt>
      <trkpt lat="47.62145" lon="-2.80672">
        <ele>-14</ele>
        <time>2021-11-12T13:16:33Z</time>
      </trkpt>
      <trkpt lat="47.62144" lon="-2.80685">
        <ele>-13.8</ele>
        <time>2021-11-12T13:16:38Z</time>
      </trkpt>
      <trkpt lat="47.62146" lon="-2.80707">
        <ele>-13.6</ele>
        <time>2021-11-12T13:16:45Z</time>
      </trkpt>
      <trkpt lat="47.62145" lon="-2.80721">
        <ele>-13.4</ele>
        <time>2021-11-12T13:16:50Z</time>
      </trkpt>
      <trkpt lat="47.62148" lon="-2.8073">
        <ele>-13</ele>
        <time>2021-11-12T13:16:55Z</time>
      </trkpt>
      <trkpt lat="47.6215" lon="-2.80728">
        <ele>-12.8</ele>
        <time>2021-11-12T13:16:57Z</time>
      </trkpt>
      <trkpt lat="47.62152" lon="-2.80727">
        <ele>-12.6</ele>
        <time>2021-11-12T13:17:02Z</time>
      </trkpt>
      <trkpt lat="47.62154" lon="-2.80725">
        <ele>-12.4</ele>
        <time>2021-11-12T13:17:04Z</time>
      </trkpt>
      <trkpt lat="47.62156" lon="-2.80724">
        <ele>-12.4</ele>
        <time>2021-11-12T13:17:07Z</time>
      </trkpt>
      <trkpt lat="47.62158" lon="-2.80722">
        <ele>-12.6</ele>
        <time>2021-11-12T13:17:10Z</time>
      </trkpt>
      <trkpt lat="47.6216" lon="-2.80721">
        <ele>-12.8</ele>
        <time>2021-11-12T13:17:12Z</time>
      </trkpt>
      <trkpt lat="47.62162" lon="-2.80719">
        <ele>-13.4</ele>
        <time>2021-11-12T13:17:18Z</time>
      </trkpt>
      <trkpt lat="47.62164" lon="-2.80718">
        <ele>-14</ele>
        <time>2021-11-12T13:17:27Z</time>
      </trkpt>
      <trkpt lat="47.62167" lon="-2.80716">
        <ele>-13.8</ele>
        <time>2021-11-12T13:17:30Z</time>
      </trkpt>
      <trkpt lat="47.62169" lon="-2.80715">
        <ele>-13.8</ele>
        <time>2021-11-12T13:17:33Z</time>
      </trkpt>
      <trkpt lat="47.62171" lon="-2.80713">
        <ele>-13.8</ele>
        <time>2021-11-12T13:17:36Z</time>
      </trkpt>
      <trkpt lat="47.62173" lon="-2.80712">
        <ele>-13.8</ele>
        <time>2021-11-12T13:17:38Z</time>
      </trkpt>
      <trkpt lat="47.62175" lon="-2.8071">
        <ele>-14</ele>
        <time>2021-11-12T13:17:43Z</time>
      </trkpt>
      <trkpt lat="47.62177" lon="-2.80709">
        <ele>-14</ele>
        <time>2021-11-12T13:17:44Z</time>
      </trkpt>
      <trkpt lat="47.62179" lon="-2.80707">
        <ele>-14</ele>
        <time>2021-11-12T13:17:46Z</time>
      </trkpt>
      <trkpt lat="47.62181" lon="-2.80706">
        <ele>-14.2</ele>
        <time>2021-11-12T13:17:54Z</time>
      </trkpt>
      <trkpt lat="47.62183" lon="-2.80704">
        <ele>-14.2</ele>
        <time>2021-11-12T13:17:56Z</time>
      </trkpt>
      <trkpt lat="47.62186" lon="-2.80703">
        <ele>-14.4</ele>
        <time>2021-11-12T13:18:02Z</time>
      </trkpt>
      <trkpt lat="47.62188" lon="-2.80701">
        <ele>-14.2</ele>
        <time>2021-11-12T13:18:10Z</time>
      </trkpt>
      <trkpt lat="47.6219" lon="-2.807">
        <ele>-14</ele>
        <time>2021-11-12T13:18:19Z</time>
      </trkpt>
      <trkpt lat="47.62192" lon="-2.80698">
        <ele>-14.6</ele>
        <time>2021-11-12T13:18:26Z</time>
      </trkpt>
      <trkpt lat="47.62194" lon="-2.80697">
        <ele>-14.6</ele>
        <time>2021-11-12T13:18:33Z</time>
      </trkpt>
      <trkpt lat="47.62196" lon="-2.80695">
        <ele>-14.6</ele>
        <time>2021-11-12T13:18:36Z</time>
      </trkpt>
      <trkpt lat="47.62198" lon="-2.80694">
        <ele>-14.6</ele>
        <time>2021-11-12T13:18:37Z</time>
      </trkpt>
      <trkpt lat="47.622" lon="-2.80692">
        <ele>-14.6</ele>
        <time>2021-11-12T13:18:44Z</time>
      </trkpt>
      <trkpt lat="47.62202" lon="-2.80691">
        <ele>-14.4</ele>
        <time>2021-11-12T13:18:49Z</time>
      </trkpt>
      <trkpt lat="47.62204" lon="-2.80689">
        <ele>-14</ele>
        <time>2021-11-12T13:18:55Z</time>
      </trkpt>
      <trkpt lat="47.62207" lon="-2.80688">
        <ele>-14</ele>
        <time>2021-11-12T13:18:56Z</time>
      </trkpt>
      <trkpt lat="47.6222" lon="-2.80684">
        <ele>-13.8</ele>
        <time>2021-11-12T13:19:02Z</time>
      </trkpt>
      <trkpt lat="47.62238" lon="-2.80676">
        <ele>-13.8</ele>
        <time>2021-11-12T13:19:09Z</time>
      </trkpt>
      <trkpt lat="47.62253" lon="-2.80669">
        <ele>-13.6</ele>
        <time>2021-11-12T13:19:16Z</time>
      </trkpt>
      <trkpt lat="47.62268" lon="-2.80661">
        <ele>-13.6</ele>
        <time>2021-11-12T13:19:23Z</time>
      </trkpt>
      <trkpt lat="47.62285" lon="-2.80645">
        <ele>-13.4</ele>
        <time>2021-11-12T13:19:30Z</time>
      </trkpt>
      <trkpt lat="47.62294" lon="-2.80626">
        <ele>-13</ele>
        <time>2021-11-12T13:19:36Z</time>
      </trkpt>
      <trkpt lat="47.62297" lon="-2.80623">
        <ele>-12.8</ele>
        <time>2021-11-12T13:19:37Z</time>
      </trkpt>
      <trkpt lat="47.62308" lon="-2.80606">
        <ele>-12.4</ele>
        <time>2021-11-12T13:19:44Z</time>
      </trkpt>
      <trkpt lat="47.62321" lon="-2.80592">
        <ele>-12</ele>
        <time>2021-11-12T13:19:49Z</time>
      </trkpt>
      <trkpt lat="47.62327" lon="-2.80585">
        <ele>-11.6</ele>
        <time>2021-11-12T13:19:52Z</time>
      </trkpt>
      <trkpt lat="47.62338" lon="-2.80576">
        <ele>-11.2</ele>
        <time>2021-11-12T13:19:57Z</time>
      </trkpt>
      <trkpt lat="47.62348" lon="-2.80577">
        <ele>-11.2</ele>
        <time>2021-11-12T13:20:01Z</time>
      </trkpt>
      <trkpt lat="47.62354" lon="-2.80584">
        <ele>-11</ele>
        <time>2021-11-12T13:20:04Z</time>
      </trkpt>
      <trkpt lat="47.62357" lon="-2.8059">
        <ele>-11</ele>
        <time>2021-11-12T13:20:06Z</time>
      </trkpt>
      <trkpt lat="47.62367" lon="-2.80615">
        <ele>-9.8</ele>
        <time>2021-11-12T13:20:14Z</time>
      </trkpt>
      <trkpt lat="47.62378" lon="-2.8063">
        <ele>-9.2</ele>
        <time>2021-11-12T13:20:20Z</time>
      </trkpt>
      <trkpt lat="47.6238" lon="-2.8063">
        <ele>-9</ele>
        <time>2021-11-12T13:20:21Z</time>
      </trkpt>
      <trkpt lat="47.62387" lon="-2.80632">
        <ele>-8.8</ele>
        <time>2021-11-12T13:20:24Z</time>
      </trkpt>
      <trkpt lat="47.62401" lon="-2.8063">
        <ele>-8</ele>
        <time>2021-11-12T13:20:30Z</time>
      </trkpt>
      <trkpt lat="47.62404" lon="-2.8063">
        <ele>-7.8</ele>
        <time>2021-11-12T13:20:31Z</time>
      </trkpt>
      <trkpt lat="47.62414" lon="-2.80628">
        <ele>-7.2</ele>
        <time>2021-11-12T13:20:36Z</time>
      </trkpt>
      <trkpt lat="47.62426" lon="-2.80625">
        <ele>-6.8</ele>
        <time>2021-11-12T13:20:42Z</time>
      </trkpt>
      <trkpt lat="47.62432" lon="-2.80624">
        <ele>-6.8</ele>
        <time>2021-11-12T13:20:43Z</time>
      </trkpt>
      <trkpt lat="47.62447" lon="-2.80615">
        <ele>-6.4</ele>
        <time>2021-11-12T13:20:48Z</time>
      </trkpt>
      <trkpt lat="47.62462" lon="-2.80613">
        <ele>-6</ele>
        <time>2021-11-12T13:20:53Z</time>
      </trkpt>
      <trkpt lat="47.62465" lon="-2.80614">
        <ele>-5.8</ele>
        <time>2021-11-12T13:20:54Z</time>
      </trkpt>
      <trkpt lat="47.62482" lon="-2.80614">
        <ele>-5</ele>
        <time>2021-11-12T13:21:00Z</time>
      </trkpt>
      <trkpt lat="47.62492" lon="-2.80609">
        <ele>-4.8</ele>
        <time>2021-11-12T13:21:03Z</time>
      </trkpt>
      <trkpt lat="47.62503" lon="-2.80605">
        <ele>-4.4</ele>
        <time>2021-11-12T13:21:06Z</time>
      </trkpt>
      <trkpt lat="47.62525" lon="-2.80588">
        <ele>-4</ele>
        <time>2021-11-12T13:21:13Z</time>
      </trkpt>
      <trkpt lat="47.6253" lon="-2.80583">
        <ele>-3.6</ele>
        <time>2021-11-12T13:21:15Z</time>
      </trkpt>
      <trkpt lat="47.62549" lon="-2.80563">
        <ele>-2.6</ele>
        <time>2021-11-12T13:21:22Z</time>
      </trkpt>
      <trkpt lat="47.62552" lon="-2.8056">
        <ele>-2.6</ele>
        <time>2021-11-12T13:21:23Z</time>
      </trkpt>
      <trkpt lat="47.62565" lon="-2.80548">
        <ele>-2</ele>
        <time>2021-11-12T13:21:29Z</time>
      </trkpt>
      <trkpt lat="47.62569" lon="-2.80546">
        <ele>-1.8</ele>
        <time>2021-11-12T13:21:31Z</time>
      </trkpt>
      <trkpt lat="47.6257" lon="-2.80546">
        <ele>-1.4</ele>
        <time>2021-11-12T13:21:32Z</time>
      </trkpt>
      <trkpt lat="47.62572" lon="-2.80547">
        <ele>-1.4</ele>
        <time>2021-11-12T13:21:33Z</time>
      </trkpt>
      <trkpt lat="47.62574" lon="-2.80548">
        <ele>-1.2</ele>
        <time>2021-11-12T13:21:34Z</time>
      </trkpt>
      <trkpt lat="47.62575" lon="-2.80552">
        <ele>-0.8</ele>
        <time>2021-11-12T13:21:36Z</time>
      </trkpt>
      <trkpt lat="47.62575" lon="-2.80554">
        <ele>-0.6</ele>
        <time>2021-11-12T13:21:37Z</time>
      </trkpt>
      <trkpt lat="47.62574" lon="-2.80557">
        <ele>-0.6</ele>
        <time>2021-11-12T13:21:38Z</time>
      </trkpt>
      <trkpt lat="47.62572" lon="-2.80557">
        <ele>-0.6</ele>
        <time>2021-11-12T13:21:40Z</time>
      </trkpt>
      <trkpt lat="47.6257" lon="-2.80551">
        <ele>-0.4</ele>
        <time>2021-11-12T13:21:43Z</time>
      </trkpt>
      <trkpt lat="47.62571" lon="-2.80546">
        <ele>-0.4</ele>
        <time>2021-11-12T13:21:45Z</time>
      </trkpt>
      <trkpt lat="47.62576" lon="-2.8055">
        <ele>0.2</ele>
        <time>2021-11-12T13:21:48Z</time>
      </trkpt>
      <trkpt lat="47.62575" lon="-2.8056">
        <ele>0.4</ele>
        <time>2021-11-12T13:21:51Z</time>
      </trkpt>
      <trkpt lat="47.62576" lon="-2.80569">
        <ele>0.6</ele>
        <time>2021-11-12T13:21:54Z</time>
      </trkpt>
      <trkpt lat="47.62578" lon="-2.80594">
        <ele>1</ele>
        <time>2021-11-12T13:22:00Z</time>
      </trkpt>
      <trkpt lat="47.62578" lon="-2.80621">
        <ele>1.4</ele>
        <time>2021-11-12T13:22:06Z</time>
      </trkpt>
      <trkpt lat="47.62578" lon="-2.80626">
        <ele>1.6</ele>
        <time>2021-11-12T13:22:07Z</time>
      </trkpt>
      <trkpt lat="47.62581" lon="-2.80654">
        <ele>1.8</ele>
        <time>2021-11-12T13:22:12Z</time>
      </trkpt>
      <trkpt lat="47.62591" lon="-2.807">
        <ele>2</ele>
        <time>2021-11-12T13:22:21Z</time>
      </trkpt>
      <trkpt lat="47.62601" lon="-2.8074">
        <ele>2</ele>
        <time>2021-11-12T13:22:28Z</time>
      </trkpt>
      <trkpt lat="47.6261" lon="-2.80777">
        <ele>2.4</ele>
        <time>2021-11-12T13:22:35Z</time>
      </trkpt>
      <trkpt lat="47.62612" lon="-2.80782">
        <ele>2.6</ele>
        <time>2021-11-12T13:22:36Z</time>
      </trkpt>
      <trkpt lat="47.62622" lon="-2.80824">
        <ele>3</ele>
        <time>2021-11-12T13:22:43Z</time>
      </trkpt>
      <trkpt lat="47.6263" lon="-2.80857">
        <ele>3.2</ele>
        <time>2021-11-12T13:22:48Z</time>
      </trkpt>
      <trkpt lat="47.62631" lon="-2.80861">
        <ele>3.2</ele>
        <time>2021-11-12T13:22:49Z</time>
      </trkpt>
      <trkpt lat="47.62632" lon="-2.80866">
        <ele>3.4</ele>
        <time>2021-11-12T13:22:50Z</time>
      </trkpt>
      <trkpt lat="47.62635" lon="-2.80877">
        <ele>3.6</ele>
        <time>2021-11-12T13:22:52Z</time>
      </trkpt>
      <trkpt lat="47.62636" lon="-2.8088">
        <ele>3.6</ele>
        <time>2021-11-12T13:22:53Z</time>
      </trkpt>
      <trkpt lat="47.62642" lon="-2.80906">
        <ele>4.2</ele>
        <time>2021-11-12T13:22:59Z</time>
      </trkpt>
      <trkpt lat="47.62646" lon="-2.80923">
        <ele>4.6</ele>
        <time>2021-11-12T13:23:03Z</time>
      </trkpt>
      <trkpt lat="47.62649" lon="-2.80936">
        <ele>4.8</ele>
        <time>2021-11-12T13:23:06Z</time>
      </trkpt>
      <trkpt lat="47.62655" lon="-2.80971">
        <ele>5.2</ele>
        <time>2021-11-12T13:23:14Z</time>
      </trkpt>
      <trkpt lat="47.62662" lon="-2.81006">
        <ele>5.4</ele>
        <time>2021-11-12T13:23:22Z</time>
      </trkpt>
      <trkpt lat="47.62663" lon="-2.81011">
        <ele>5.4</ele>
        <time>2021-11-12T13:23:23Z</time>
      </trkpt>
      <trkpt lat="47.62667" lon="-2.8103">
        <ele>5.6</ele>
        <time>2021-11-12T13:23:28Z</time>
      </trkpt>
      <trkpt lat="47.62671" lon="-2.81049">
        <ele>6</ele>
        <time>2021-11-12T13:23:33Z</time>
      </trkpt>
      <trkpt lat="47.62674" lon="-2.81063">
        <ele>6.4</ele>
        <time>2021-11-12T13:23:37Z</time>
      </trkpt>
      <trkpt lat="47.62676" lon="-2.81072">
        <ele>6.6</ele>
        <time>2021-11-12T13:23:39Z</time>
      </trkpt>
      <trkpt lat="47.62681" lon="-2.81099">
        <ele>7</ele>
        <time>2021-11-12T13:23:46Z</time>
      </trkpt>
      <trkpt lat="47.62684" lon="-2.81117">
        <ele>7.6</ele>
        <time>2021-11-12T13:23:50Z</time>
      </trkpt>
      <trkpt lat="47.62687" lon="-2.81133">
        <ele>8</ele>
        <time>2021-11-12T13:23:53Z</time>
      </trkpt>
      <trkpt lat="47.62692" lon="-2.81167">
        <ele>8.4</ele>
        <time>2021-11-12T13:24:00Z</time>
      </trkpt>
      <trkpt lat="47.62693" lon="-2.81198">
        <ele>8.6</ele>
        <time>2021-11-12T13:24:07Z</time>
      </trkpt>
      <trkpt lat="47.6269" lon="-2.81217">
        <ele>8.8</ele>
        <time>2021-11-12T13:24:12Z</time>
      </trkpt>
      <trkpt lat="47.62687" lon="-2.81255">
        <ele>9</ele>
        <time>2021-11-12T13:24:21Z</time>
      </trkpt>
      <trkpt lat="47.62685" lon="-2.81287">
        <ele>9.4</ele>
        <time>2021-11-12T13:24:28Z</time>
      </trkpt>
      <trkpt lat="47.62685" lon="-2.81292">
        <ele>9.4</ele>
        <time>2021-11-12T13:24:29Z</time>
      </trkpt>
      <trkpt lat="47.62687" lon="-2.81317">
        <ele>9.8</ele>
        <time>2021-11-12T13:24:35Z</time>
      </trkpt>
      <trkpt lat="47.62693" lon="-2.81355">
        <ele>10.4</ele>
        <time>2021-11-12T13:24:43Z</time>
      </trkpt>
      <trkpt lat="47.62702" lon="-2.81396">
        <ele>10.8</ele>
        <time>2021-11-12T13:24:51Z</time>
      </trkpt>
      <trkpt lat="47.62711" lon="-2.81427">
        <ele>11.4</ele>
        <time>2021-11-12T13:24:57Z</time>
      </trkpt>
      <trkpt lat="47.62713" lon="-2.81435">
        <ele>11.4</ele>
        <time>2021-11-12T13:24:59Z</time>
      </trkpt>
      <trkpt lat="47.62726" lon="-2.8147">
        <ele>12.2</ele>
        <time>2021-11-12T13:25:06Z</time>
      </trkpt>
      <trkpt lat="47.6273" lon="-2.81481">
        <ele>12.4</ele>
        <time>2021-11-12T13:25:08Z</time>
      </trkpt>
      <trkpt lat="47.6274" lon="-2.81507">
        <ele>12.8</ele>
        <time>2021-11-12T13:25:13Z</time>
      </trkpt>
      <trkpt lat="47.62752" lon="-2.81538">
        <ele>13</ele>
        <time>2021-11-12T13:25:20Z</time>
      </trkpt>
      <trkpt lat="47.62755" lon="-2.81557">
        <ele>12.8</ele>
        <time>2021-11-12T13:25:25Z</time>
      </trkpt>
      <trkpt lat="47.62747" lon="-2.81572">
        <ele>13</ele>
        <time>2021-11-12T13:25:30Z</time>
      </trkpt>
      <trkpt lat="47.62744" lon="-2.81578">
        <ele>13</ele>
        <time>2021-11-12T13:25:33Z</time>
      </trkpt>
      <trkpt lat="47.62739" lon="-2.81578">
        <ele>13.2</ele>
        <time>2021-11-12T13:25:35Z</time>
      </trkpt>
      <trkpt lat="47.62738" lon="-2.81578">
        <ele>13.2</ele>
        <time>2021-11-12T13:25:38Z</time>
      </trkpt>
      <trkpt lat="47.62738" lon="-2.81578">
        <ele>13.2</ele>
        <time>2021-11-12T13:25:39Z</time>
      </trkpt>
      <trkpt lat="47.62731" lon="-2.81579">
        <ele>13</ele>
        <time>2021-11-12T13:25:56Z</time>
      </trkpt>
      <trkpt lat="47.62717" lon="-2.81586">
        <ele>12.6</ele>
        <time>2021-11-12T13:26:00Z</time>
      </trkpt>
      <trkpt lat="47.62708" lon="-2.81591">
        <ele>12.6</ele>
        <time>2021-11-12T13:26:02Z</time>
      </trkpt>
      <trkpt lat="47.62695" lon="-2.81596">
        <ele>12.4</ele>
        <time>2021-11-12T13:26:05Z</time>
      </trkpt>
      <trkpt lat="47.62693" lon="-2.81598">
        <ele>12.6</ele>
        <time>2021-11-12T13:26:06Z</time>
      </trkpt>
      <trkpt lat="47.62689" lon="-2.81602">
        <ele>12.2</ele>
        <time>2021-11-12T13:26:08Z</time>
      </trkpt>
      <trkpt lat="47.62684" lon="-2.81607">
        <ele>12.2</ele>
        <time>2021-11-12T13:26:10Z</time>
      </trkpt>
      <trkpt lat="47.62682" lon="-2.81611">
        <ele>12.2</ele>
        <time>2021-11-12T13:26:12Z</time>
      </trkpt>
      <trkpt lat="47.62683" lon="-2.81634">
        <ele>12</ele>
        <time>2021-11-12T13:26:16Z</time>
      </trkpt>
      <trkpt lat="47.62688" lon="-2.81647">
        <ele>12</ele>
        <time>2021-11-12T13:26:19Z</time>
      </trkpt>
      <trkpt lat="47.6269" lon="-2.81656">
        <ele>11.8</ele>
        <time>2021-11-12T13:26:21Z</time>
      </trkpt>
      <trkpt lat="47.62696" lon="-2.81682">
        <ele>11.4</ele>
        <time>2021-11-12T13:26:26Z</time>
      </trkpt>
      <trkpt lat="47.62703" lon="-2.81719">
        <ele>11</ele>
        <time>2021-11-12T13:26:33Z</time>
      </trkpt>
      <trkpt lat="47.6271" lon="-2.81738">
        <ele>10.8</ele>
        <time>2021-11-12T13:26:38Z</time>
      </trkpt>
      <trkpt lat="47.62711" lon="-2.81759">
        <ele>10.4</ele>
        <time>2021-11-12T13:26:42Z</time>
      </trkpt>
      <trkpt lat="47.62708" lon="-2.81779">
        <ele>10.2</ele>
        <time>2021-11-12T13:26:46Z</time>
      </trkpt>
      <trkpt lat="47.62706" lon="-2.81807">
        <ele>10</ele>
        <time>2021-11-12T13:26:51Z</time>
      </trkpt>
      <trkpt lat="47.62702" lon="-2.81836">
        <ele>10</ele>
        <time>2021-11-12T13:26:55Z</time>
      </trkpt>
      <trkpt lat="47.62699" lon="-2.81848">
        <ele>9.8</ele>
        <time>2021-11-12T13:26:57Z</time>
      </trkpt>
      <trkpt lat="47.62693" lon="-2.81851">
        <ele>9.8</ele>
        <time>2021-11-12T13:26:59Z</time>
      </trkpt>
      <trkpt lat="47.62685" lon="-2.81849">
        <ele>9.6</ele>
        <time>2021-11-12T13:27:01Z</time>
      </trkpt>
      <trkpt lat="47.62673" lon="-2.81851">
        <ele>9.4</ele>
        <time>2021-11-12T13:27:04Z</time>
      </trkpt>
      <trkpt lat="47.6267" lon="-2.81852">
        <ele>9.2</ele>
        <time>2021-11-12T13:27:05Z</time>
      </trkpt>
      <trkpt lat="47.62654" lon="-2.81855">
        <ele>9</ele>
        <time>2021-11-12T13:27:10Z</time>
      </trkpt>
      <trkpt lat="47.62641" lon="-2.81851">
        <ele>9</ele>
        <time>2021-11-12T13:27:14Z</time>
      </trkpt>
      <trkpt lat="47.62637" lon="-2.81847">
        <ele>9.2</ele>
        <time>2021-11-12T13:27:16Z</time>
      </trkpt>
      <trkpt lat="47.6262" lon="-2.81824">
        <ele>8.8</ele>
        <time>2021-11-12T13:27:23Z</time>
      </trkpt>
      <trkpt lat="47.62611" lon="-2.81796">
        <ele>8.6</ele>
        <time>2021-11-12T13:27:29Z</time>
      </trkpt>
      <trkpt lat="47.62602" lon="-2.81767">
        <ele>8.4</ele>
        <time>2021-11-12T13:27:35Z</time>
      </trkpt>
      <trkpt lat="47.62596" lon="-2.81751">
        <ele>8.4</ele>
        <time>2021-11-12T13:27:38Z</time>
      </trkpt>
      <trkpt lat="47.62584" lon="-2.81719">
        <ele>8.2</ele>
        <time>2021-11-12T13:27:44Z</time>
      </trkpt>
      <trkpt lat="47.62574" lon="-2.81689">
        <ele>8.2</ele>
        <time>2021-11-12T13:27:49Z</time>
      </trkpt>
      <trkpt lat="47.6257" lon="-2.81677">
        <ele>8.2</ele>
        <time>2021-11-12T13:27:51Z</time>
      </trkpt>
      <trkpt lat="47.62559" lon="-2.81647">
        <ele>8</ele>
        <time>2021-11-12T13:27:56Z</time>
      </trkpt>
      <trkpt lat="47.62556" lon="-2.81635">
        <ele>8</ele>
        <time>2021-11-12T13:27:58Z</time>
      </trkpt>
      <trkpt lat="47.62554" lon="-2.8163">
        <ele>8</ele>
        <time>2021-11-12T13:27:59Z</time>
      </trkpt>
      <trkpt lat="47.62544" lon="-2.81608">
        <ele>8</ele>
        <time>2021-11-12T13:28:03Z</time>
      </trkpt>
      <trkpt lat="47.6254" lon="-2.81604">
        <ele>7.8</ele>
        <time>2021-11-12T13:28:04Z</time>
      </trkpt>
      <trkpt lat="47.62537" lon="-2.81601">
        <ele>7.8</ele>
        <time>2021-11-12T13:28:05Z</time>
      </trkpt>
      <trkpt lat="47.62529" lon="-2.81597">
        <ele>7.8</ele>
        <time>2021-11-12T13:28:07Z</time>
      </trkpt>
      <trkpt lat="47.62519" lon="-2.81596">
        <ele>7.8</ele>
        <time>2021-11-12T13:28:09Z</time>
      </trkpt>
      <trkpt lat="47.62486" lon="-2.81596">
        <ele>7.6</ele>
        <time>2021-11-12T13:28:15Z</time>
      </trkpt>
      <trkpt lat="47.62479" lon="-2.81596">
        <ele>7.6</ele>
        <time>2021-11-12T13:28:16Z</time>
      </trkpt>
      <trkpt lat="47.62459" lon="-2.81597">
        <ele>7.2</ele>
        <time>2021-11-12T13:28:19Z</time>
      </trkpt>
      <trkpt lat="47.62453" lon="-2.81596">
        <ele>7</ele>
        <time>2021-11-12T13:28:20Z</time>
      </trkpt>
      <trkpt lat="47.62422" lon="-2.81593">
        <ele>6.4</ele>
        <time>2021-11-12T13:28:25Z</time>
      </trkpt>
      <trkpt lat="47.62415" lon="-2.81591">
        <ele>6.2</ele>
        <time>2021-11-12T13:28:26Z</time>
      </trkpt>
      <trkpt lat="47.62409" lon="-2.81588">
        <ele>6</ele>
        <time>2021-11-12T13:28:27Z</time>
      </trkpt>
      <trkpt lat="47.62391" lon="-2.81569">
        <ele>5.8</ele>
        <time>2021-11-12T13:28:30Z</time>
      </trkpt>
      <trkpt lat="47.62384" lon="-2.8155">
        <ele>5.4</ele>
        <time>2021-11-12T13:28:32Z</time>
      </trkpt>
      <trkpt lat="47.62382" lon="-2.81539">
        <ele>5.4</ele>
        <time>2021-11-12T13:28:33Z</time>
      </trkpt>
      <trkpt lat="47.62372" lon="-2.8147">
        <ele>4.8</ele>
        <time>2021-11-12T13:28:40Z</time>
      </trkpt>
      <trkpt lat="47.62363" lon="-2.81417">
        <ele>4.4</ele>
        <time>2021-11-12T13:28:46Z</time>
      </trkpt>
      <trkpt lat="47.62354" lon="-2.81387">
        <ele>4.4</ele>
        <time>2021-11-12T13:28:50Z</time>
      </trkpt>
      <trkpt lat="47.62348" lon="-2.81373">
        <ele>4.2</ele>
        <time>2021-11-12T13:28:52Z</time>
      </trkpt>
      <trkpt lat="47.62338" lon="-2.81351">
        <ele>3.8</ele>
        <time>2021-11-12T13:28:55Z</time>
      </trkpt>
      <trkpt lat="47.62327" lon="-2.81332">
        <ele>3.6</ele>
        <time>2021-11-12T13:28:58Z</time>
      </trkpt>
      <trkpt lat="47.62324" lon="-2.81325">
        <ele>3.6</ele>
        <time>2021-11-12T13:28:59Z</time>
      </trkpt>
      <trkpt lat="47.62322" lon="-2.81321">
        <ele>3.4</ele>
        <time>2021-11-12T13:29:00Z</time>
      </trkpt>
      <trkpt lat="47.62317" lon="-2.81312">
        <ele>3.2</ele>
        <time>2021-11-12T13:29:02Z</time>
      </trkpt>
      <trkpt lat="47.62308" lon="-2.81302">
        <ele>2.4</ele>
        <time>2021-11-12T13:29:05Z</time>
      </trkpt>
      <trkpt lat="47.62304" lon="-2.81299">
        <ele>2.4</ele>
        <time>2021-11-12T13:29:06Z</time>
      </trkpt>
      <trkpt lat="47.62299" lon="-2.81297">
        <ele>2.2</ele>
        <time>2021-11-12T13:29:07Z</time>
      </trkpt>
      <trkpt lat="47.62289" lon="-2.81295">
        <ele>2</ele>
        <time>2021-11-12T13:29:09Z</time>
      </trkpt>
      <trkpt lat="47.62283" lon="-2.81296">
        <ele>1.8</ele>
        <time>2021-11-12T13:29:10Z</time>
      </trkpt>
      <trkpt lat="47.62268" lon="-2.81302">
        <ele>1.4</ele>
        <time>2021-11-12T13:29:13Z</time>
      </trkpt>
      <trkpt lat="47.62263" lon="-2.81304">
        <ele>1.2</ele>
        <time>2021-11-12T13:29:14Z</time>
      </trkpt>
      <trkpt lat="47.62259" lon="-2.81306">
        <ele>1</ele>
        <time>2021-11-12T13:29:15Z</time>
      </trkpt>
      <trkpt lat="47.6225" lon="-2.81311">
        <ele>0.6</ele>
        <time>2021-11-12T13:29:17Z</time>
      </trkpt>
      <trkpt lat="47.62242" lon="-2.81314">
        <ele>0.2</ele>
        <time>2021-11-12T13:29:19Z</time>
      </trkpt>
      <trkpt lat="47.62226" lon="-2.81319">
        <ele>-0.2</ele>
        <time>2021-11-12T13:29:23Z</time>
      </trkpt>
      <trkpt lat="47.62217" lon="-2.81324">
        <ele>-0.6</ele>
        <time>2021-11-12T13:29:26Z</time>
      </trkpt>
      <trkpt lat="47.62203" lon="-2.81344">
        <ele>-1.6</ele>
        <time>2021-11-12T13:29:32Z</time>
      </trkpt>
      <trkpt lat="47.62201" lon="-2.81348">
        <ele>-1.8</ele>
        <time>2021-11-12T13:29:33Z</time>
      </trkpt>
      <trkpt lat="47.62195" lon="-2.81362">
        <ele>-2.4</ele>
        <time>2021-11-12T13:29:37Z</time>
      </trkpt>
      <trkpt lat="47.6219" lon="-2.81371">
        <ele>-2.8</ele>
        <time>2021-11-12T13:29:40Z</time>
      </trkpt>
      <trkpt lat="47.62186" lon="-2.81376">
        <ele>-2.8</ele>
        <time>2021-11-12T13:29:42Z</time>
      </trkpt>
      <trkpt lat="47.62185" lon="-2.81379">
        <ele>-3.2</ele>
        <time>2021-11-12T13:29:43Z</time>
      </trkpt>
      <trkpt lat="47.62185" lon="-2.81387">
        <ele>-3.6</ele>
        <time>2021-11-12T13:29:45Z</time>
      </trkpt>
      <trkpt lat="47.62185" lon="-2.81396">
        <ele>-3.8</ele>
        <time>2021-11-12T13:29:47Z</time>
      </trkpt>
      <trkpt lat="47.62186" lon="-2.81418">
        <ele>-4.2</ele>
        <time>2021-11-12T13:29:52Z</time>
      </trkpt>
      <trkpt lat="47.62189" lon="-2.81448">
        <ele>-4.4</ele>
        <time>2021-11-12T13:29:58Z</time>
      </trkpt>
      <trkpt lat="47.62193" lon="-2.81479">
        <ele>-4.4</ele>
        <time>2021-11-12T13:30:04Z</time>
      </trkpt>
      <trkpt lat="47.62194" lon="-2.81484">
        <ele>-4.6</ele>
        <time>2021-11-12T13:30:05Z</time>
      </trkpt>
      <trkpt lat="47.62198" lon="-2.81518">
        <ele>-4.8</ele>
        <time>2021-11-12T13:30:12Z</time>
      </trkpt>
      <trkpt lat="47.62196" lon="-2.81537">
        <ele>-4.8</ele>
        <time>2021-11-12T13:30:16Z</time>
      </trkpt>
      <trkpt lat="47.62183" lon="-2.8157">
        <ele>-5.2</ele>
        <time>2021-11-12T13:30:23Z</time>
      </trkpt>
      <trkpt lat="47.62165" lon="-2.81599">
        <ele>-5.2</ele>
        <time>2021-11-12T13:30:31Z</time>
      </trkpt>
      <trkpt lat="47.6216" lon="-2.81607">
        <ele>-5.4</ele>
        <time>2021-11-12T13:30:33Z</time>
      </trkpt>
      <trkpt lat="47.62143" lon="-2.81631">
        <ele>-5.6</ele>
        <time>2021-11-12T13:30:39Z</time>
      </trkpt>
      <trkpt lat="47.62128" lon="-2.81661">
        <ele>-5.6</ele>
        <time>2021-11-12T13:30:46Z</time>
      </trkpt>
      <trkpt lat="47.62123" lon="-2.81705">
        <ele>-6</ele>
        <time>2021-11-12T13:30:54Z</time>
      </trkpt>
      <trkpt lat="47.62122" lon="-2.81715">
        <ele>-6.2</ele>
        <time>2021-11-12T13:30:56Z</time>
      </trkpt>
      <trkpt lat="47.62121" lon="-2.81742">
        <ele>-6.2</ele>
        <time>2021-11-12T13:31:02Z</time>
      </trkpt>
      <trkpt lat="47.62119" lon="-2.8177">
        <ele>-6.4</ele>
        <time>2021-11-12T13:31:08Z</time>
      </trkpt>
      <trkpt lat="47.62119" lon="-2.818">
        <ele>-7</ele>
        <time>2021-11-12T13:31:15Z</time>
      </trkpt>
      <trkpt lat="47.62118" lon="-2.81813">
        <ele>-7.2</ele>
        <time>2021-11-12T13:31:18Z</time>
      </trkpt>
      <trkpt lat="47.62117" lon="-2.81825">
        <ele>-7.4</ele>
        <time>2021-11-12T13:31:21Z</time>
      </trkpt>
      <trkpt lat="47.62113" lon="-2.81855">
        <ele>-8.2</ele>
        <time>2021-11-12T13:31:28Z</time>
      </trkpt>
      <trkpt lat="47.62112" lon="-2.81864">
        <ele>-8.2</ele>
        <time>2021-11-12T13:31:30Z</time>
      </trkpt>
      <trkpt lat="47.62107" lon="-2.81898">
        <ele>-8.4</ele>
        <time>2021-11-12T13:31:38Z</time>
      </trkpt>
      <trkpt lat="47.62102" lon="-2.8193">
        <ele>-8.8</ele>
        <time>2021-11-12T13:31:45Z</time>
      </trkpt>
      <trkpt lat="47.62096" lon="-2.8197">
        <ele>-8.8</ele>
        <time>2021-11-12T13:31:54Z</time>
      </trkpt>
      <trkpt lat="47.62094" lon="-2.81996">
        <ele>-8.8</ele>
        <time>2021-11-12T13:32:00Z</time>
      </trkpt>
      <trkpt lat="47.62088" lon="-2.82028">
        <ele>-8.8</ele>
        <time>2021-11-12T13:32:07Z</time>
      </trkpt>
      <trkpt lat="47.62082" lon="-2.82062">
        <ele>-9</ele>
        <time>2021-11-12T13:32:15Z</time>
      </trkpt>
      <trkpt lat="47.62076" lon="-2.82107">
        <ele>-8.8</ele>
        <time>2021-11-12T13:32:25Z</time>
      </trkpt>
      <trkpt lat="47.62079" lon="-2.82136">
        <ele>-8.4</ele>
        <time>2021-11-12T13:32:32Z</time>
      </trkpt>
      <trkpt lat="47.62089" lon="-2.82158">
        <ele>-8.2</ele>
        <time>2021-11-12T13:32:38Z</time>
      </trkpt>
      <trkpt lat="47.62106" lon="-2.82188">
        <ele>-8</ele>
        <time>2021-11-12T13:32:47Z</time>
      </trkpt>
      <trkpt lat="47.62113" lon="-2.82197">
        <ele>-8</ele>
        <time>2021-11-12T13:32:50Z</time>
      </trkpt>
      <trkpt lat="47.62113" lon="-2.822">
        <ele>-8</ele>
        <time>2021-11-12T13:32:51Z</time>
      </trkpt>
      <trkpt lat="47.62111" lon="-2.82207">
        <ele>-7.8</ele>
        <time>2021-11-12T13:32:53Z</time>
      </trkpt>
      <trkpt lat="47.62106" lon="-2.82212">
        <ele>-7.8</ele>
        <time>2021-11-12T13:32:55Z</time>
      </trkpt>
      <trkpt lat="47.6209" lon="-2.82233">
        <ele>-7.2</ele>
        <time>2021-11-12T13:33:03Z</time>
      </trkpt>
      <trkpt lat="47.62078" lon="-2.82253">
        <ele>-7</ele>
        <time>2021-11-12T13:33:10Z</time>
      </trkpt>
      <trkpt lat="47.62064" lon="-2.82276">
        <ele>-6.8</ele>
        <time>2021-11-12T13:33:16Z</time>
      </trkpt>
      <trkpt lat="47.62052" lon="-2.82294">
        <ele>-6.6</ele>
        <time>2021-11-12T13:33:20Z</time>
      </trkpt>
      <trkpt lat="47.62049" lon="-2.82299">
        <ele>-6.8</ele>
        <time>2021-11-12T13:33:21Z</time>
      </trkpt>
      <trkpt lat="47.62036" lon="-2.82322">
        <ele>-7</ele>
        <time>2021-11-12T13:33:25Z</time>
      </trkpt>
      <trkpt lat="47.62028" lon="-2.82332">
        <ele>-7</ele>
        <time>2021-11-12T13:33:27Z</time>
      </trkpt>
      <trkpt lat="47.62016" lon="-2.82352">
        <ele>-7.2</ele>
        <time>2021-11-12T13:33:30Z</time>
      </trkpt>
      <trkpt lat="47.62007" lon="-2.82365">
        <ele>-7.4</ele>
        <time>2021-11-12T13:33:32Z</time>
      </trkpt>
      <trkpt lat="47.61991" lon="-2.82386">
        <ele>-7.6</ele>
        <time>2021-11-12T13:33:36Z</time>
      </trkpt>
      <trkpt lat="47.61976" lon="-2.82406">
        <ele>-7.8</ele>
        <time>2021-11-12T13:33:41Z</time>
      </trkpt>
      <trkpt lat="47.6197" lon="-2.82415">
        <ele>-8.2</ele>
        <time>2021-11-12T13:33:43Z</time>
      </trkpt>
      <trkpt lat="47.61963" lon="-2.82429">
        <ele>-8.4</ele>
        <time>2021-11-12T13:33:45Z</time>
      </trkpt>
      <trkpt lat="47.61959" lon="-2.82441">
        <ele>-8.4</ele>
        <time>2021-11-12T13:33:47Z</time>
      </trkpt>
      <trkpt lat="47.61944" lon="-2.82472">
        <ele>-8.8</ele>
        <time>2021-11-12T13:33:52Z</time>
      </trkpt>
      <trkpt lat="47.61943" lon="-2.8248">
        <ele>-9</ele>
        <time>2021-11-12T13:33:53Z</time>
      </trkpt>
      <trkpt lat="47.61943" lon="-2.82485">
        <ele>-9</ele>
        <time>2021-11-12T13:33:54Z</time>
      </trkpt>
      <trkpt lat="47.61943" lon="-2.82498">
        <ele>-9.2</ele>
        <time>2021-11-12T13:33:56Z</time>
      </trkpt>
      <trkpt lat="47.6194" lon="-2.82503">
        <ele>-9.2</ele>
        <time>2021-11-12T13:33:57Z</time>
      </trkpt>
      <trkpt lat="47.61936" lon="-2.82507">
        <ele>-9.2</ele>
        <time>2021-11-12T13:33:58Z</time>
      </trkpt>
      <trkpt lat="47.61928" lon="-2.8251">
        <ele>-9.4</ele>
        <time>2021-11-12T13:34:00Z</time>
      </trkpt>
      <trkpt lat="47.61915" lon="-2.82517">
        <ele>-9.8</ele>
        <time>2021-11-12T13:34:04Z</time>
      </trkpt>
      <trkpt lat="47.61903" lon="-2.82537">
        <ele>-10</ele>
        <time>2021-11-12T13:34:10Z</time>
      </trkpt>
      <trkpt lat="47.61895" lon="-2.82555">
        <ele>-10</ele>
        <time>2021-11-12T13:34:15Z</time>
      </trkpt>
      <trkpt lat="47.61889" lon="-2.8258">
        <ele>-10</ele>
        <time>2021-11-12T13:34:21Z</time>
      </trkpt>
      <trkpt lat="47.61879" lon="-2.82604">
        <ele>-10</ele>
        <time>2021-11-12T13:34:27Z</time>
      </trkpt>
      <trkpt lat="47.6186" lon="-2.82626">
        <ele>-9</ele>
        <time>2021-11-12T13:34:34Z</time>
      </trkpt>
      <trkpt lat="47.61841" lon="-2.82641">
        <ele>-8.4</ele>
        <time>2021-11-12T13:34:39Z</time>
      </trkpt>
      <trkpt lat="47.61831" lon="-2.82646">
        <ele>-8</ele>
        <time>2021-11-12T13:34:41Z</time>
      </trkpt>
      <trkpt lat="47.61814" lon="-2.82655">
        <ele>-7.8</ele>
        <time>2021-11-12T13:34:45Z</time>
      </trkpt>
      <trkpt lat="47.61797" lon="-2.82663">
        <ele>-7.6</ele>
        <time>2021-11-12T13:34:49Z</time>
      </trkpt>
      <trkpt lat="47.61784" lon="-2.82669">
        <ele>-7.4</ele>
        <time>2021-11-12T13:34:52Z</time>
      </trkpt>
      <trkpt lat="47.61742" lon="-2.8269">
        <ele>-7.2</ele>
        <time>2021-11-12T13:35:01Z</time>
      </trkpt>
      <trkpt lat="47.61734" lon="-2.82695">
        <ele>-7.2</ele>
        <time>2021-11-12T13:35:03Z</time>
      </trkpt>
      <trkpt lat="47.61726" lon="-2.827">
        <ele>-7.2</ele>
        <time>2021-11-12T13:35:05Z</time>
      </trkpt>
      <trkpt lat="47.61718" lon="-2.8271">
        <ele>-7.2</ele>
        <time>2021-11-12T13:35:07Z</time>
      </trkpt>
      <trkpt lat="47.61714" lon="-2.82723">
        <ele>-7.2</ele>
        <time>2021-11-12T13:35:09Z</time>
      </trkpt>
      <trkpt lat="47.61712" lon="-2.82737">
        <ele>-7.2</ele>
        <time>2021-11-12T13:35:11Z</time>
      </trkpt>
      <trkpt lat="47.61711" lon="-2.82781">
        <ele>-7.2</ele>
        <time>2021-11-12T13:35:17Z</time>
      </trkpt>
      <trkpt lat="47.61708" lon="-2.828">
        <ele>-7</ele>
        <time>2021-11-12T13:35:21Z</time>
      </trkpt>
      <trkpt lat="47.61706" lon="-2.82803">
        <ele>-7</ele>
        <time>2021-11-12T13:35:22Z</time>
      </trkpt>
      <trkpt lat="47.61694" lon="-2.82808">
        <ele>-7</ele>
        <time>2021-11-12T13:35:26Z</time>
      </trkpt>
      <trkpt lat="47.61675" lon="-2.82811">
        <ele>-7.4</ele>
        <time>2021-11-12T13:35:32Z</time>
      </trkpt>
      <trkpt lat="47.61671" lon="-2.82811">
        <ele>-7.4</ele>
        <time>2021-11-12T13:35:33Z</time>
      </trkpt>
      <trkpt lat="47.61656" lon="-2.82817">
        <ele>-7.8</ele>
        <time>2021-11-12T13:35:36Z</time>
      </trkpt>
      <trkpt lat="47.61643" lon="-2.82821">
        <ele>-8</ele>
        <time>2021-11-12T13:35:39Z</time>
      </trkpt>
      <trkpt lat="47.61638" lon="-2.82823">
        <ele>-8.2</ele>
        <time>2021-11-12T13:35:40Z</time>
      </trkpt>
      <trkpt lat="47.61632" lon="-2.82824">
        <ele>-8.2</ele>
        <time>2021-11-12T13:35:41Z</time>
      </trkpt>
      <trkpt lat="47.61627" lon="-2.82825">
        <ele>-8.2</ele>
        <time>2021-11-12T13:35:42Z</time>
      </trkpt>
      <trkpt lat="47.61616" lon="-2.82834">
        <ele>-8.8</ele>
        <time>2021-11-12T13:35:44Z</time>
      </trkpt>
      <trkpt lat="47.61612" lon="-2.8284">
        <ele>-8.8</ele>
        <time>2021-11-12T13:35:45Z</time>
      </trkpt>
      <trkpt lat="47.61604" lon="-2.82852">
        <ele>-9.2</ele>
        <time>2021-11-12T13:35:47Z</time>
      </trkpt>
      <trkpt lat="47.61593" lon="-2.82866">
        <ele>-9.4</ele>
        <time>2021-11-12T13:35:49Z</time>
      </trkpt>
      <trkpt lat="47.61589" lon="-2.82874">
        <ele>-9.6</ele>
        <time>2021-11-12T13:35:50Z</time>
      </trkpt>
      <trkpt lat="47.61579" lon="-2.82892">
        <ele>-10.2</ele>
        <time>2021-11-12T13:35:54Z</time>
      </trkpt>
      <trkpt lat="47.61566" lon="-2.8291">
        <ele>-10.6</ele>
        <time>2021-11-12T13:35:58Z</time>
      </trkpt>
      <trkpt lat="47.61561" lon="-2.82919">
        <ele>-10.8</ele>
        <time>2021-11-12T13:36:00Z</time>
      </trkpt>
      <trkpt lat="47.61542" lon="-2.82946">
        <ele>-11.2</ele>
        <time>2021-11-12T13:36:06Z</time>
      </trkpt>
      <trkpt lat="47.61538" lon="-2.8295">
        <ele>-11.2</ele>
        <time>2021-11-12T13:36:07Z</time>
      </trkpt>
      <trkpt lat="47.61525" lon="-2.82964">
        <ele>-11.2</ele>
        <time>2021-11-12T13:36:11Z</time>
      </trkpt>
      <trkpt lat="47.61515" lon="-2.82975">
        <ele>-11.6</ele>
        <time>2021-11-12T13:36:14Z</time>
      </trkpt>
      <trkpt lat="47.61495" lon="-2.82999">
        <ele>-12.2</ele>
        <time>2021-11-12T13:36:21Z</time>
      </trkpt>
      <trkpt lat="47.61492" lon="-2.83002">
        <ele>-12.2</ele>
        <time>2021-11-12T13:36:22Z</time>
      </trkpt>
      <trkpt lat="47.61477" lon="-2.83017">
        <ele>-12.4</ele>
        <time>2021-11-12T13:36:28Z</time>
      </trkpt>
      <trkpt lat="47.61462" lon="-2.83031">
        <ele>-12.4</ele>
        <time>2021-11-12T13:36:35Z</time>
      </trkpt>
      <trkpt lat="47.61454" lon="-2.83036">
        <ele>-12.6</ele>
        <time>2021-11-12T13:36:39Z</time>
      </trkpt>
      <trkpt lat="47.61451" lon="-2.83035">
        <ele>-12.6</ele>
        <time>2021-11-12T13:36:41Z</time>
      </trkpt>
      <trkpt lat="47.6145" lon="-2.83037">
        <ele>-12.6</ele>
        <time>2021-11-12T13:36:46Z</time>
      </trkpt>
      <trkpt lat="47.61449" lon="-2.83038">
        <ele>-12.6</ele>
        <time>2021-11-12T13:36:52Z</time>
      </trkpt>
      <trkpt lat="47.61449" lon="-2.83038">
        <ele>-13.2</ele>
        <time>2021-11-12T13:37:11Z</time>
      </trkpt>
      <trkpt lat="47.61449" lon="-2.83039">
        <ele>-14.4</ele>
        <time>2021-11-12T13:37:33Z</time>
      </trkpt>
      <trkpt lat="47.61449" lon="-2.83039">
        <ele>-14.6</ele>
        <time>2021-11-12T13:37:59Z</time>
      </trkpt>
      <trkpt lat="47.61449" lon="-2.83039">
        <ele>-15.4</ele>
        <time>2021-11-12T13:38:08Z</time>
      </trkpt>
      <trkpt lat="47.61449" lon="-2.83039">
        <ele>-16.4</ele>
        <time>2021-11-12T13:38:31Z</time>
      </trkpt>
      <trkpt lat="47.61449" lon="-2.83039">
        <ele>-17.4</ele>
        <time>2021-11-12T13:39:09Z</time>
      </trkpt>
      <trkpt lat="47.61449" lon="-2.83039">
        <ele>-18.2</ele>
        <time>2021-11-12T13:39:42Z</time>
      </trkpt>
      <trkpt lat="47.61449" lon="-2.83039">
        <ele>-18.4</ele>
        <time>2021-11-12T13:45:02Z</time>
      </trkpt>
      <trkpt lat="47.6145" lon="-2.83039">
        <ele>-18.2</ele>
        <time>2021-11-12T13:47:08Z</time>
      </trkpt>
      <trkpt lat="47.61453" lon="-2.83034">
        <ele>-18.6</ele>
        <time>2021-11-12T13:47:11Z</time>
      </trkpt>
      <trkpt lat="47.6146" lon="-2.83016">
        <ele>-18.8</ele>
        <time>2021-11-12T13:47:17Z</time>
      </trkpt>
      <trkpt lat="47.61469" lon="-2.82999">
        <ele>-18.8</ele>
        <time>2021-11-12T13:47:23Z</time>
      </trkpt>
      <trkpt lat="47.61488" lon="-2.82995">
        <ele>-18.6</ele>
        <time>2021-11-12T13:47:29Z</time>
      </trkpt>
      <trkpt lat="47.61508" lon="-2.82978">
        <ele>-18.4</ele>
        <time>2021-11-12T13:47:36Z</time>
      </trkpt>
      <trkpt lat="47.61524" lon="-2.82965">
        <ele>-18.2</ele>
        <time>2021-11-12T13:47:43Z</time>
      </trkpt>
      <trkpt lat="47.61539" lon="-2.82945">
        <ele>-18.2</ele>
        <time>2021-11-12T13:47:50Z</time>
      </trkpt>
      <trkpt lat="47.61555" lon="-2.82923">
        <ele>-18.2</ele>
        <time>2021-11-12T13:47:56Z</time>
      </trkpt>
      <trkpt lat="47.61576" lon="-2.82894">
        <ele>-18.2</ele>
        <time>2021-11-12T13:48:03Z</time>
      </trkpt>
      <trkpt lat="47.61593" lon="-2.82863">
        <ele>-18</ele>
        <time>2021-11-12T13:48:10Z</time>
      </trkpt>
      <trkpt lat="47.61613" lon="-2.82835">
        <ele>-17.2</ele>
        <time>2021-11-12T13:48:18Z</time>
      </trkpt>
      <trkpt lat="47.61615" lon="-2.82832">
        <ele>-17</ele>
        <time>2021-11-12T13:48:19Z</time>
      </trkpt>
      <trkpt lat="47.61628" lon="-2.82824">
        <ele>-16.8</ele>
        <time>2021-11-12T13:48:24Z</time>
      </trkpt>
      <trkpt lat="47.61652" lon="-2.82817">
        <ele>-16.4</ele>
        <time>2021-11-12T13:48:32Z</time>
      </trkpt>
      <trkpt lat="47.61675" lon="-2.8281">
        <ele>-16.2</ele>
        <time>2021-11-12T13:48:40Z</time>
      </trkpt>
      <trkpt lat="47.61683" lon="-2.82807">
        <ele>-16</ele>
        <time>2021-11-12T13:48:43Z</time>
      </trkpt>
      <trkpt lat="47.61697" lon="-2.82803">
        <ele>-15.6</ele>
        <time>2021-11-12T13:48:48Z</time>
      </trkpt>
      <trkpt lat="47.61706" lon="-2.82802">
        <ele>-15.4</ele>
        <time>2021-11-12T13:48:52Z</time>
      </trkpt>
      <trkpt lat="47.61708" lon="-2.82807">
        <ele>-15.6</ele>
        <time>2021-11-12T13:48:54Z</time>
      </trkpt>
      <trkpt lat="47.61709" lon="-2.82829">
        <ele>-15.4</ele>
        <time>2021-11-12T13:49:00Z</time>
      </trkpt>
      <trkpt lat="47.61707" lon="-2.82851">
        <ele>-15.4</ele>
        <time>2021-11-12T13:49:06Z</time>
      </trkpt>
      <trkpt lat="47.61706" lon="-2.82862">
        <ele>-15.2</ele>
        <time>2021-11-12T13:49:09Z</time>
      </trkpt>
      <trkpt lat="47.61703" lon="-2.82872">
        <ele>-14.8</ele>
        <time>2021-11-12T13:49:12Z</time>
      </trkpt>
      <trkpt lat="47.61701" lon="-2.82882">
        <ele>-14</ele>
        <time>2021-11-12T13:49:16Z</time>
      </trkpt>
      <trkpt lat="47.61698" lon="-2.82888">
        <ele>-13.8</ele>
        <time>2021-11-12T13:49:18Z</time>
      </trkpt>
      <trkpt lat="47.61695" lon="-2.82897">
        <ele>-13</ele>
        <time>2021-11-12T13:49:21Z</time>
      </trkpt>
      <trkpt lat="47.61689" lon="-2.82909">
        <ele>-12.6</ele>
        <time>2021-11-12T13:49:26Z</time>
      </trkpt>
      <trkpt lat="47.61677" lon="-2.82929">
        <ele>-12.2</ele>
        <time>2021-11-12T13:49:33Z</time>
      </trkpt>
      <trkpt lat="47.61663" lon="-2.82951">
        <ele>-11.2</ele>
        <time>2021-11-12T13:49:40Z</time>
      </trkpt>
      <trkpt lat="47.61648" lon="-2.82973">
        <ele>-10.6</ele>
        <time>2021-11-12T13:49:47Z</time>
      </trkpt>
      <trkpt lat="47.61639" lon="-2.82988">
        <ele>-10.2</ele>
        <time>2021-11-12T13:49:52Z</time>
      </trkpt>
      <trkpt lat="47.61628" lon="-2.83003">
        <ele>-9.6</ele>
        <time>2021-11-12T13:49:57Z</time>
      </trkpt>
      <trkpt lat="47.61622" lon="-2.83013">
        <ele>-9</ele>
        <time>2021-11-12T13:50:00Z</time>
      </trkpt>
      <trkpt lat="47.61614" lon="-2.83027">
        <ele>-8.4</ele>
        <time>2021-11-12T13:50:04Z</time>
      </trkpt>
      <trkpt lat="47.61607" lon="-2.83037">
        <ele>-8</ele>
        <time>2021-11-12T13:50:07Z</time>
      </trkpt>
      <trkpt lat="47.61599" lon="-2.8305">
        <ele>-7.4</ele>
        <time>2021-11-12T13:50:11Z</time>
      </trkpt>
      <trkpt lat="47.61595" lon="-2.83057">
        <ele>-6.8</ele>
        <time>2021-11-12T13:50:13Z</time>
      </trkpt>
      <trkpt lat="47.6158" lon="-2.83079">
        <ele>-5.6</ele>
        <time>2021-11-12T13:50:19Z</time>
      </trkpt>
      <trkpt lat="47.61563" lon="-2.83106">
        <ele>-4.6</ele>
        <time>2021-11-12T13:50:26Z</time>
      </trkpt>
      <trkpt lat="47.61557" lon="-2.83118">
        <ele>-4.6</ele>
        <time>2021-11-12T13:50:29Z</time>
      </trkpt>
      <trkpt lat="47.61549" lon="-2.83129">
        <ele>-4.2</ele>
        <time>2021-11-12T13:50:32Z</time>
      </trkpt>
      <trkpt lat="47.61541" lon="-2.83143">
        <ele>-3.6</ele>
        <time>2021-11-12T13:50:36Z</time>
      </trkpt>
      <trkpt lat="47.61533" lon="-2.83156">
        <ele>-2.6</ele>
        <time>2021-11-12T13:50:40Z</time>
      </trkpt>
      <trkpt lat="47.61521" lon="-2.8317">
        <ele>-1.4</ele>
        <time>2021-11-12T13:50:45Z</time>
      </trkpt>
      <trkpt lat="47.61517" lon="-2.83176">
        <ele>-0.8</ele>
        <time>2021-11-12T13:50:47Z</time>
      </trkpt>
      <trkpt lat="47.61512" lon="-2.83184">
        <ele>-0.2</ele>
        <time>2021-11-12T13:50:50Z</time>
      </trkpt>
      <trkpt lat="47.61508" lon="-2.83189">
        <ele>24.8</ele>
        <time>2021-11-12T13:50:52Z</time>
      </trkpt>
      <trkpt lat="47.61499" lon="-2.83204">
        <ele>0.8</ele>
        <time>2021-11-12T13:50:57Z</time>
      </trkpt>
      <trkpt lat="47.61497" lon="-2.83208">
        <ele>0.8</ele>
        <time>2021-11-12T13:50:58Z</time>
      </trkpt>
      <trkpt lat="47.61484" lon="-2.83227">
        <ele>1.2</ele>
        <time>2021-11-12T13:51:03Z</time>
      </trkpt>
      <trkpt lat="47.61474" lon="-2.83241">
        <ele>1.8</ele>
        <time>2021-11-12T13:51:07Z</time>
      </trkpt>
      <trkpt lat="47.61472" lon="-2.83246">
        <ele>1.8</ele>
        <time>2021-11-12T13:51:08Z</time>
      </trkpt>
      <trkpt lat="47.61464" lon="-2.8326">
        <ele>2</ele>
        <time>2021-11-12T13:51:11Z</time>
      </trkpt>
      <trkpt lat="47.61453" lon="-2.83276">
        <ele>2.4</ele>
        <time>2021-11-12T13:51:15Z</time>
      </trkpt>
      <trkpt lat="47.61434" lon="-2.83305">
        <ele>2.6</ele>
        <time>2021-11-12T13:51:21Z</time>
      </trkpt>
      <trkpt lat="47.61426" lon="-2.83317">
        <ele>2.8</ele>
        <time>2021-11-12T13:51:24Z</time>
      </trkpt>
      <trkpt lat="47.61418" lon="-2.83331">
        <ele>3</ele>
        <time>2021-11-12T13:51:27Z</time>
      </trkpt>
      <trkpt lat="47.61406" lon="-2.83349">
        <ele>3</ele>
        <time>2021-11-12T13:51:32Z</time>
      </trkpt>
      <trkpt lat="47.61391" lon="-2.8337">
        <ele>3.2</ele>
        <time>2021-11-12T13:51:38Z</time>
      </trkpt>
      <trkpt lat="47.61387" lon="-2.83378">
        <ele>3.2</ele>
        <time>2021-11-12T13:51:40Z</time>
      </trkpt>
      <trkpt lat="47.61369" lon="-2.83404">
        <ele>3.2</ele>
        <time>2021-11-12T13:51:47Z</time>
      </trkpt>
      <trkpt lat="47.6135" lon="-2.83433">
        <ele>3.2</ele>
        <time>2021-11-12T13:51:54Z</time>
      </trkpt>
      <trkpt lat="47.61342" lon="-2.83444">
        <ele>3.2</ele>
        <time>2021-11-12T13:51:56Z</time>
      </trkpt>
      <trkpt lat="47.61332" lon="-2.8346">
        <ele>3.2</ele>
        <time>2021-11-12T13:51:59Z</time>
      </trkpt>
      <trkpt lat="47.61317" lon="-2.83486">
        <ele>3</ele>
        <time>2021-11-12T13:52:05Z</time>
      </trkpt>
      <trkpt lat="47.61314" lon="-2.83495">
        <ele>3</ele>
        <time>2021-11-12T13:52:08Z</time>
      </trkpt>
      <trkpt lat="47.61314" lon="-2.83496">
        <ele>3</ele>
        <time>2021-11-12T13:52:09Z</time>
      </trkpt>
      <trkpt lat="47.61318" lon="-2.83497">
        <ele>2.2</ele>
        <time>2021-11-12T13:52:14Z</time>
      </trkpt>
      <trkpt lat="47.61318" lon="-2.83497">
        <ele>2</ele>
        <time>2021-11-12T13:52:16Z</time>
      </trkpt>
      <trkpt lat="47.61318" lon="-2.83497">
        <ele>1</ele>
        <time>2021-11-12T13:52:22Z</time>
      </trkpt>
      <trkpt lat="47.61318" lon="-2.83497">
        <ele>0.2</ele>
        <time>2021-11-12T13:52:28Z</time>
      </trkpt>
      <trkpt lat="47.61318" lon="-2.83497">
        <ele>-0.8</ele>
        <time>2021-11-12T13:52:37Z</time>
      </trkpt>
      <trkpt lat="47.61318" lon="-2.83497">
        <ele>-2</ele>
        <time>2021-11-12T13:52:46Z</time>
      </trkpt>
      <trkpt lat="47.61318" lon="-2.83497">
        <ele>-2.8</ele>
        <time>2021-11-12T13:52:52Z</time>
      </trkpt>
      <trkpt lat="47.61317" lon="-2.83497">
        <ele>-3.8</ele>
        <time>2021-11-12T13:52:58Z</time>
      </trkpt>
      <trkpt lat="47.61317" lon="-2.83496">
        <ele>-4.4</ele>
        <time>2021-11-12T13:53:03Z</time>
      </trkpt>
      <trkpt lat="47.61317" lon="-2.83496">
        <ele>-5</ele>
        <time>2021-11-12T13:53:05Z</time>
      </trkpt>
      <trkpt lat="47.61316" lon="-2.83495">
        <ele>-6</ele>
        <time>2021-11-12T13:53:14Z</time>
      </trkpt>
      <trkpt lat="47.61316" lon="-2.83495">
        <ele>-7</ele>
        <time>2021-11-12T13:53:47Z</time>
      </trkpt>
      <trkpt lat="47.61315" lon="-2.83495">
        <ele>-7.6</ele>
        <time>2021-11-12T13:53:56Z</time>
      </trkpt>
      <trkpt lat="47.61314" lon="-2.83491">
        <ele>-7.8</ele>
        <time>2021-11-12T13:53:59Z</time>
      </trkpt>
      <trkpt lat="47.61315" lon="-2.83489">
        <ele>-7.8</ele>
        <time>2021-11-12T13:54:01Z</time>
      </trkpt>
      <trkpt lat="47.6132" lon="-2.83481">
        <ele>-8.2</ele>
        <time>2021-11-12T13:54:05Z</time>
      </trkpt>
      <trkpt lat="47.61331" lon="-2.83463">
        <ele>-8.2</ele>
        <time>2021-11-12T13:54:11Z</time>
      </trkpt>
      <trkpt lat="47.61341" lon="-2.83449">
        <ele>-8</ele>
        <time>2021-11-12T13:54:16Z</time>
      </trkpt>
      <trkpt lat="47.61349" lon="-2.83435">
        <ele>-7.4</ele>
        <time>2021-11-12T13:54:21Z</time>
      </trkpt>
      <trkpt lat="47.61357" lon="-2.83424">
        <ele>-6.8</ele>
        <time>2021-11-12T13:54:25Z</time>
      </trkpt>
      <trkpt lat="47.61362" lon="-2.83418">
        <ele>-6.6</ele>
        <time>2021-11-12T13:54:28Z</time>
      </trkpt>
      <trkpt lat="47.61376" lon="-2.83398">
        <ele>-5.8</ele>
        <time>2021-11-12T13:54:34Z</time>
      </trkpt>
      <trkpt lat="47.61389" lon="-2.83376">
        <ele>-5</ele>
        <time>2021-11-12T13:54:40Z</time>
      </trkpt>
      <trkpt lat="47.61398" lon="-2.8336">
        <ele>-4.6</ele>
        <time>2021-11-12T13:54:44Z</time>
      </trkpt>
      <trkpt lat="47.61406" lon="-2.83346">
        <ele>-4.4</ele>
        <time>2021-11-12T13:54:47Z</time>
      </trkpt>
      <trkpt lat="47.61418" lon="-2.83327">
        <ele>-3.8</ele>
        <time>2021-11-12T13:54:52Z</time>
      </trkpt>
      <trkpt lat="47.61423" lon="-2.83318">
        <ele>-3.4</ele>
        <time>2021-11-12T13:54:54Z</time>
      </trkpt>
      <trkpt lat="47.61442" lon="-2.83288">
        <ele>-2.4</ele>
        <time>2021-11-12T13:55:02Z</time>
      </trkpt>
      <trkpt lat="47.61458" lon="-2.83262">
        <ele>-1.2</ele>
        <time>2021-11-12T13:55:09Z</time>
      </trkpt>
      <trkpt lat="47.61463" lon="-2.83255">
        <ele>-0.8</ele>
        <time>2021-11-12T13:55:11Z</time>
      </trkpt>
      <trkpt lat="47.61469" lon="-2.83244">
        <ele>-0.2</ele>
        <time>2021-11-12T13:55:14Z</time>
      </trkpt>
      <trkpt lat="47.61481" lon="-2.83228">
        <ele>1</ele>
        <time>2021-11-12T13:55:19Z</time>
      </trkpt>
      <trkpt lat="47.61483" lon="-2.83224">
        <ele>1.2</ele>
        <time>2021-11-12T13:55:20Z</time>
      </trkpt>
      <trkpt lat="47.61493" lon="-2.83205">
        <ele>2</ele>
        <time>2021-11-12T13:55:25Z</time>
      </trkpt>
      <trkpt lat="47.61512" lon="-2.83181">
        <ele>3</ele>
        <time>2021-11-12T13:55:32Z</time>
      </trkpt>
      <trkpt lat="47.61514" lon="-2.83177">
        <ele>3.2</ele>
        <time>2021-11-12T13:55:33Z</time>
      </trkpt>
      <trkpt lat="47.61527" lon="-2.83158">
        <ele>3.8</ele>
        <time>2021-11-12T13:55:38Z</time>
      </trkpt>
      <trkpt lat="47.61544" lon="-2.83132">
        <ele>4.2</ele>
        <time>2021-11-12T13:55:43Z</time>
      </trkpt>
      <trkpt lat="47.6157" lon="-2.83096">
        <ele>4.8</ele>
        <time>2021-11-12T13:55:49Z</time>
      </trkpt>
      <trkpt lat="47.61594" lon="-2.83058">
        <ele>5</ele>
        <time>2021-11-12T13:55:56Z</time>
      </trkpt>
      <trkpt lat="47.61601" lon="-2.83049">
        <ele>5.2</ele>
        <time>2021-11-12T13:55:58Z</time>
      </trkpt>
      <trkpt lat="47.61615" lon="-2.83028">
        <ele>5.6</ele>
        <time>2021-11-12T13:56:02Z</time>
      </trkpt>
      <trkpt lat="47.61618" lon="-2.83022">
        <ele>5.6</ele>
        <time>2021-11-12T13:56:03Z</time>
      </trkpt>
      <trkpt lat="47.61632" lon="-2.82999">
        <ele>5.8</ele>
        <time>2021-11-12T13:56:07Z</time>
      </trkpt>
      <trkpt lat="47.61636" lon="-2.82994">
        <ele>5.8</ele>
        <time>2021-11-12T13:56:08Z</time>
      </trkpt>
      <trkpt lat="47.61639" lon="-2.82988">
        <ele>5.8</ele>
        <time>2021-11-12T13:56:09Z</time>
      </trkpt>
      <trkpt lat="47.61653" lon="-2.82967">
        <ele>5.8</ele>
        <time>2021-11-12T13:56:13Z</time>
      </trkpt>
      <trkpt lat="47.61681" lon="-2.82921">
        <ele>6</ele>
        <time>2021-11-12T13:56:21Z</time>
      </trkpt>
      <trkpt lat="47.61687" lon="-2.82907">
        <ele>6</ele>
        <time>2021-11-12T13:56:23Z</time>
      </trkpt>
      <trkpt lat="47.61692" lon="-2.82893">
        <ele>6</ele>
        <time>2021-11-12T13:56:25Z</time>
      </trkpt>
      <trkpt lat="47.61701" lon="-2.82868">
        <ele>5.8</ele>
        <time>2021-11-12T13:56:28Z</time>
      </trkpt>
      <trkpt lat="47.61702" lon="-2.8286">
        <ele>5.8</ele>
        <time>2021-11-12T13:56:29Z</time>
      </trkpt>
      <trkpt lat="47.61705" lon="-2.82846">
        <ele>5.6</ele>
        <time>2021-11-12T13:56:31Z</time>
      </trkpt>
      <trkpt lat="47.61706" lon="-2.82832">
        <ele>5.2</ele>
        <time>2021-11-12T13:56:33Z</time>
      </trkpt>
      <trkpt lat="47.61705" lon="-2.82823">
        <ele>5</ele>
        <time>2021-11-12T13:56:34Z</time>
      </trkpt>
      <trkpt lat="47.61708" lon="-2.82777">
        <ele>4.6</ele>
        <time>2021-11-12T13:56:39Z</time>
      </trkpt>
      <trkpt lat="47.61708" lon="-2.82765">
        <ele>4.6</ele>
        <time>2021-11-12T13:56:40Z</time>
      </trkpt>
      <trkpt lat="47.61709" lon="-2.82738">
        <ele>4.2</ele>
        <time>2021-11-12T13:56:43Z</time>
      </trkpt>
      <trkpt lat="47.6171" lon="-2.82732">
        <ele>4.2</ele>
        <time>2021-11-12T13:56:44Z</time>
      </trkpt>
      <trkpt lat="47.61714" lon="-2.82716">
        <ele>3.8</ele>
        <time>2021-11-12T13:56:46Z</time>
      </trkpt>
      <trkpt lat="47.61716" lon="-2.8271">
        <ele>3.8</ele>
        <time>2021-11-12T13:56:47Z</time>
      </trkpt>
      <trkpt lat="47.6172" lon="-2.82705">
        <ele>3.6</ele>
        <time>2021-11-12T13:56:48Z</time>
      </trkpt>
      <trkpt lat="47.61729" lon="-2.82694">
        <ele>3.4</ele>
        <time>2021-11-12T13:56:51Z</time>
      </trkpt>
      <trkpt lat="47.61742" lon="-2.82687">
        <ele>3.4</ele>
        <time>2021-11-12T13:56:55Z</time>
      </trkpt>
      <trkpt lat="47.6175" lon="-2.82683">
        <ele>3.4</ele>
        <time>2021-11-12T13:56:57Z</time>
      </trkpt>
      <trkpt lat="47.61767" lon="-2.82677">
        <ele>3.4</ele>
        <time>2021-11-12T13:57:01Z</time>
      </trkpt>
      <trkpt lat="47.61779" lon="-2.82671">
        <ele>3.2</ele>
        <time>2021-11-12T13:57:04Z</time>
      </trkpt>
      <trkpt lat="47.61787" lon="-2.82667">
        <ele>3</ele>
        <time>2021-11-12T13:57:06Z</time>
      </trkpt>
      <trkpt lat="47.61815" lon="-2.82655">
        <ele>2.4</ele>
        <time>2021-11-12T13:57:13Z</time>
      </trkpt>
      <trkpt lat="47.6182" lon="-2.82654">
        <ele>2.4</ele>
        <time>2021-11-12T13:57:14Z</time>
      </trkpt>
      <trkpt lat="47.61828" lon="-2.82651">
        <ele>2.4</ele>
        <time>2021-11-12T13:57:16Z</time>
      </trkpt>
      <trkpt lat="47.61841" lon="-2.82644">
        <ele>2</ele>
        <time>2021-11-12T13:57:20Z</time>
      </trkpt>
      <trkpt lat="47.61844" lon="-2.82643">
        <ele>1.8</ele>
        <time>2021-11-12T13:57:22Z</time>
      </trkpt>
      <trkpt lat="47.61845" lon="-2.82645">
        <ele>1.6</ele>
        <time>2021-11-12T13:57:24Z</time>
      </trkpt>
      <trkpt lat="47.61844" lon="-2.82648">
        <ele>1.2</ele>
        <time>2021-11-12T13:57:26Z</time>
      </trkpt>
      <trkpt lat="47.61837" lon="-2.82654">
        <ele>1</ele>
        <time>2021-11-12T13:57:29Z</time>
      </trkpt>
      <trkpt lat="47.61833" lon="-2.82654">
        <ele>0.6</ele>
        <time>2021-11-12T13:57:31Z</time>
      </trkpt>
      <trkpt lat="47.61832" lon="-2.8265">
        <ele>0.2</ele>
        <time>2021-11-12T13:57:33Z</time>
      </trkpt>
      <trkpt lat="47.61836" lon="-2.82644">
        <ele>-0.4</ele>
        <time>2021-11-12T13:57:38Z</time>
      </trkpt>
      <trkpt lat="47.61841" lon="-2.82639">
        <ele>-1</ele>
        <time>2021-11-12T13:57:42Z</time>
      </trkpt>
      <trkpt lat="47.61844" lon="-2.82637">
        <ele>-1.2</ele>
        <time>2021-11-12T13:57:44Z</time>
      </trkpt>
      <trkpt lat="47.61854" lon="-2.82625">
        <ele>-1.6</ele>
        <time>2021-11-12T13:57:51Z</time>
      </trkpt>
      <trkpt lat="47.6186" lon="-2.82617">
        <ele>-2.2</ele>
        <time>2021-11-12T13:57:54Z</time>
      </trkpt>
      <trkpt lat="47.61862" lon="-2.82615">
        <ele>-2.2</ele>
        <time>2021-11-12T13:57:55Z</time>
      </trkpt>
      <trkpt lat="47.61864" lon="-2.82615">
        <ele>-2.4</ele>
        <time>2021-11-12T13:57:59Z</time>
      </trkpt>
      <trkpt lat="47.61864" lon="-2.82617">
        <ele>-2.6</ele>
        <time>2021-11-12T13:58:02Z</time>
      </trkpt>
      <trkpt lat="47.61861" lon="-2.82621">
        <ele>-2.8</ele>
        <time>2021-11-12T13:58:04Z</time>
      </trkpt>
      <trkpt lat="47.6186" lon="-2.82624">
        <ele>-3</ele>
        <time>2021-11-12T13:58:05Z</time>
      </trkpt>
      <trkpt lat="47.61847" lon="-2.82644">
        <ele>-3.6</ele>
        <time>2021-11-12T13:58:12Z</time>
      </trkpt>
      <trkpt lat="47.61837" lon="-2.82663">
        <ele>-3.8</ele>
        <time>2021-11-12T13:58:18Z</time>
      </trkpt>
      <trkpt lat="47.61832" lon="-2.8268">
        <ele>-3.8</ele>
        <time>2021-11-12T13:58:21Z</time>
      </trkpt>
      <trkpt lat="47.61829" lon="-2.82686">
        <ele>-3.8</ele>
        <time>2021-11-12T13:58:22Z</time>
      </trkpt>
      <trkpt lat="47.6182" lon="-2.82711">
        <ele>-4</ele>
        <time>2021-11-12T13:58:25Z</time>
      </trkpt>
      <trkpt lat="47.61818" lon="-2.8272">
        <ele>-4.2</ele>
        <time>2021-11-12T13:58:26Z</time>
      </trkpt>
      <trkpt lat="47.61816" lon="-2.82729">
        <ele>-4.4</ele>
        <time>2021-11-12T13:58:27Z</time>
      </trkpt>
      <trkpt lat="47.61812" lon="-2.82758">
        <ele>-4.6</ele>
        <time>2021-11-12T13:58:30Z</time>
      </trkpt>
      <trkpt lat="47.61808" lon="-2.82782">
        <ele>-5</ele>
        <time>2021-11-12T13:58:33Z</time>
      </trkpt>
      <trkpt lat="47.61806" lon="-2.82788">
        <ele>-5.2</ele>
        <time>2021-11-12T13:58:34Z</time>
      </trkpt>
      <trkpt lat="47.61805" lon="-2.82793">
        <ele>-5.4</ele>
        <time>2021-11-12T13:58:35Z</time>
      </trkpt>
      <trkpt lat="47.61803" lon="-2.82805">
        <ele>-5.8</ele>
        <time>2021-11-12T13:58:39Z</time>
      </trkpt>
      <trkpt lat="47.61807" lon="-2.82808">
        <ele>-5.8</ele>
        <time>2021-11-12T13:58:45Z</time>
      </trkpt>
      <trkpt lat="47.61809" lon="-2.82809">
        <ele>-6</ele>
        <time>2021-11-12T13:58:46Z</time>
      </trkpt>
      <trkpt lat="47.61816" lon="-2.82814">
        <ele>-6</ele>
        <time>2021-11-12T13:58:50Z</time>
      </trkpt>
      <trkpt lat="47.61828" lon="-2.82819">
        <ele>-6.4</ele>
        <time>2021-11-12T13:58:56Z</time>
      </trkpt>
      <trkpt lat="47.6183" lon="-2.82819">
        <ele>-6.4</ele>
        <time>2021-11-12T13:58:57Z</time>
      </trkpt>
      <trkpt lat="47.61837" lon="-2.82819">
        <ele>-6.8</ele>
        <time>2021-11-12T13:59:00Z</time>
      </trkpt>
      <trkpt lat="47.61846" lon="-2.82823">
        <ele>-7</ele>
        <time>2021-11-12T13:59:03Z</time>
      </trkpt>
      <trkpt lat="47.61856" lon="-2.82837">
        <ele>-7.6</ele>
        <time>2021-11-12T13:59:07Z</time>
      </trkpt>
      <trkpt lat="47.61871" lon="-2.82854">
        <ele>-8</ele>
        <time>2021-11-12T13:59:12Z</time>
      </trkpt>
      <trkpt lat="47.61878" lon="-2.82861">
        <ele>-8.4</ele>
        <time>2021-11-12T13:59:14Z</time>
      </trkpt>
      <trkpt lat="47.61898" lon="-2.82882">
        <ele>-9</ele>
        <time>2021-11-12T13:59:20Z</time>
      </trkpt>
      <trkpt lat="47.61901" lon="-2.82886">
        <ele>-9</ele>
        <time>2021-11-12T13:59:21Z</time>
      </trkpt>
      <trkpt lat="47.61906" lon="-2.82895">
        <ele>-9</ele>
        <time>2021-11-12T13:59:23Z</time>
      </trkpt>
      <trkpt lat="47.61912" lon="-2.82904">
        <ele>-9.2</ele>
        <time>2021-11-12T13:59:25Z</time>
      </trkpt>
      <trkpt lat="47.6192" lon="-2.82916">
        <ele>-9.2</ele>
        <time>2021-11-12T13:59:28Z</time>
      </trkpt>
      <trkpt lat="47.61926" lon="-2.82928">
        <ele>-9.2</ele>
        <time>2021-11-12T13:59:32Z</time>
      </trkpt>
      <trkpt lat="47.61927" lon="-2.8293">
        <ele>-9.2</ele>
        <time>2021-11-12T13:59:33Z</time>
      </trkpt>
      <trkpt lat="47.61926" lon="-2.82948">
        <ele>-9.2</ele>
        <time>2021-11-12T13:59:38Z</time>
      </trkpt>
      <trkpt lat="47.6192" lon="-2.82964">
        <ele>-9.4</ele>
        <time>2021-11-12T13:59:43Z</time>
      </trkpt>
      <trkpt lat="47.61917" lon="-2.82974">
        <ele>-9.6</ele>
        <time>2021-11-12T13:59:48Z</time>
      </trkpt>
      <trkpt lat="47.61916" lon="-2.82978">
        <ele>-9.8</ele>
        <time>2021-11-12T13:59:56Z</time>
      </trkpt>
      <trkpt lat="47.61915" lon="-2.82982">
        <ele>-9.8</ele>
        <time>2021-11-12T14:00:02Z</time>
      </trkpt>
      <trkpt lat="47.61915" lon="-2.82982">
        <ele>-10</ele>
        <time>2021-11-12T14:00:04Z</time>
      </trkpt>
      <trkpt lat="47.61915" lon="-2.82982">
        <ele>-10.2</ele>
        <time>2021-11-12T14:00:07Z</time>
      </trkpt>
      <trkpt lat="47.61917" lon="-2.82989">
        <ele>-10.4</ele>
        <time>2021-11-12T14:00:10Z</time>
      </trkpt>
      <trkpt lat="47.61919" lon="-2.82997">
        <ele>-11</ele>
        <time>2021-11-12T14:00:15Z</time>
      </trkpt>
      <trkpt lat="47.6192" lon="-2.83001">
        <ele>-11.2</ele>
        <time>2021-11-12T14:00:17Z</time>
      </trkpt>
      <trkpt lat="47.61928" lon="-2.83013">
        <ele>-11.6</ele>
        <time>2021-11-12T14:00:25Z</time>
      </trkpt>
      <trkpt lat="47.61929" lon="-2.83016">
        <ele>-11.8</ele>
        <time>2021-11-12T14:00:27Z</time>
      </trkpt>
      <trkpt lat="47.6193" lon="-2.83017">
        <ele>-11.8</ele>
        <time>2021-11-12T14:00:28Z</time>
      </trkpt>
      <trkpt lat="47.61933" lon="-2.83021">
        <ele>-12</ele>
        <time>2021-11-12T14:00:32Z</time>
      </trkpt>
      <trkpt lat="47.61934" lon="-2.83024">
        <ele>-12</ele>
        <time>2021-11-12T14:00:37Z</time>
      </trkpt>
      <trkpt lat="47.61935" lon="-2.83025">
        <ele>-12</ele>
        <time>2021-11-12T14:00:38Z</time>
      </trkpt>
      <trkpt lat="47.61937" lon="-2.83028">
        <ele>-12.4</ele>
        <time>2021-11-12T14:00:43Z</time>
      </trkpt>
      <trkpt lat="47.61938" lon="-2.8303">
        <ele>-12.4</ele>
        <time>2021-11-12T14:00:44Z</time>
      </trkpt>
      <trkpt lat="47.61943" lon="-2.83038">
        <ele>-12.6</ele>
        <time>2021-11-12T14:00:48Z</time>
      </trkpt>
      <trkpt lat="47.61946" lon="-2.83042">
        <ele>-12.8</ele>
        <time>2021-11-12T14:00:50Z</time>
      </trkpt>
      <trkpt lat="47.61954" lon="-2.83054">
        <ele>-13.2</ele>
        <time>2021-11-12T14:00:56Z</time>
      </trkpt>
      <trkpt lat="47.61956" lon="-2.83058">
        <ele>-13.2</ele>
        <time>2021-11-12T14:00:58Z</time>
      </trkpt>
      <trkpt lat="47.61958" lon="-2.83064">
        <ele>-13</ele>
        <time>2021-11-12T14:01:01Z</time>
      </trkpt>
      <trkpt lat="47.61959" lon="-2.83071">
        <ele>-12.8</ele>
        <time>2021-11-12T14:01:04Z</time>
      </trkpt>
      <trkpt lat="47.61958" lon="-2.83073">
        <ele>-12.8</ele>
        <time>2021-11-12T14:01:06Z</time>
      </trkpt>
      <trkpt lat="47.61958" lon="-2.83075">
        <ele>-12.8</ele>
        <time>2021-11-12T14:01:07Z</time>
      </trkpt>
      <trkpt lat="47.61958" lon="-2.83082">
        <ele>-13</ele>
        <time>2021-11-12T14:01:10Z</time>
      </trkpt>
      <trkpt lat="47.6196" lon="-2.83083">
        <ele>-13</ele>
        <time>2021-11-12T14:01:11Z</time>
      </trkpt>
      <trkpt lat="47.6196" lon="-2.83085">
        <ele>-13</ele>
        <time>2021-11-12T14:01:12Z</time>
      </trkpt>
      <trkpt lat="47.61966" lon="-2.83097">
        <ele>-13</ele>
        <time>2021-11-12T14:01:16Z</time>
      </trkpt>
      <trkpt lat="47.61975" lon="-2.83115">
        <ele>-13</ele>
        <time>2021-11-12T14:01:22Z</time>
      </trkpt>
      <trkpt lat="47.61986" lon="-2.83139">
        <ele>-13.2</ele>
        <time>2021-11-12T14:01:29Z</time>
      </trkpt>
      <trkpt lat="47.62001" lon="-2.83167">
        <ele>-13</ele>
        <time>2021-11-12T14:01:37Z</time>
      </trkpt>
      <trkpt lat="47.62015" lon="-2.8319">
        <ele>-12.8</ele>
        <time>2021-11-12T14:01:44Z</time>
      </trkpt>
      <trkpt lat="47.62023" lon="-2.83208">
        <ele>-12.6</ele>
        <time>2021-11-12T14:01:50Z</time>
      </trkpt>
      <trkpt lat="47.62025" lon="-2.83213">
        <ele>-12.6</ele>
        <time>2021-11-12T14:01:52Z</time>
      </trkpt>
      <trkpt lat="47.62026" lon="-2.83219">
        <ele>-12.6</ele>
        <time>2021-11-12T14:01:55Z</time>
      </trkpt>
      <trkpt lat="47.62031" lon="-2.83235">
        <ele>-12.6</ele>
        <time>2021-11-12T14:02:00Z</time>
      </trkpt>
      <trkpt lat="47.62033" lon="-2.83237">
        <ele>-12.6</ele>
        <time>2021-11-12T14:02:01Z</time>
      </trkpt>
      <trkpt lat="47.62035" lon="-2.8324">
        <ele>-12.4</ele>
        <time>2021-11-12T14:02:03Z</time>
      </trkpt>
      <trkpt lat="47.62036" lon="-2.83242">
        <ele>-12.4</ele>
        <time>2021-11-12T14:02:04Z</time>
      </trkpt>
      <trkpt lat="47.6204" lon="-2.83262">
        <ele>-12.6</ele>
        <time>2021-11-12T14:02:10Z</time>
      </trkpt>
      <trkpt lat="47.62044" lon="-2.83283">
        <ele>-12.8</ele>
        <time>2021-11-12T14:02:16Z</time>
      </trkpt>
      <trkpt lat="47.62046" lon="-2.83303">
        <ele>-12.6</ele>
        <time>2021-11-12T14:02:22Z</time>
      </trkpt>
      <trkpt lat="47.62046" lon="-2.83317">
        <ele>-12.8</ele>
        <time>2021-11-12T14:02:27Z</time>
      </trkpt>
      <trkpt lat="47.62046" lon="-2.83318">
        <ele>-12.8</ele>
        <time>2021-11-12T14:02:28Z</time>
      </trkpt>
      <trkpt lat="47.62046" lon="-2.83319">
        <ele>-13</ele>
        <time>2021-11-12T14:02:34Z</time>
      </trkpt>
      <trkpt lat="47.62047" lon="-2.83327">
        <ele>-13.2</ele>
        <time>2021-11-12T14:02:41Z</time>
      </trkpt>
      <trkpt lat="47.62048" lon="-2.83331">
        <ele>-13.2</ele>
        <time>2021-11-12T14:02:49Z</time>
      </trkpt>
      <trkpt lat="47.6205" lon="-2.83333">
        <ele>-13.2</ele>
        <time>2021-11-12T14:02:57Z</time>
      </trkpt>
      <trkpt lat="47.62052" lon="-2.83336">
        <ele>-13.2</ele>
        <time>2021-11-12T14:02:59Z</time>
      </trkpt>
      <trkpt lat="47.62053" lon="-2.83337">
        <ele>-13.2</ele>
        <time>2021-11-12T14:03:00Z</time>
      </trkpt>
      <trkpt lat="47.62053" lon="-2.8334">
        <ele>-13.2</ele>
        <time>2021-11-12T14:03:04Z</time>
      </trkpt>
      <trkpt lat="47.62053" lon="-2.83345">
        <ele>-13.2</ele>
        <time>2021-11-12T14:03:08Z</time>
      </trkpt>
      <trkpt lat="47.62053" lon="-2.83351">
        <ele>-13.4</ele>
        <time>2021-11-12T14:03:10Z</time>
      </trkpt>
      <trkpt lat="47.62054" lon="-2.83358">
        <ele>-13.8</ele>
        <time>2021-11-12T14:03:12Z</time>
      </trkpt>
      <trkpt lat="47.62056" lon="-2.83378">
        <ele>-14.2</ele>
        <time>2021-11-12T14:03:18Z</time>
      </trkpt>
      <trkpt lat="47.6206" lon="-2.83411">
        <ele>-14.2</ele>
        <time>2021-11-12T14:03:27Z</time>
      </trkpt>
      <trkpt lat="47.62062" lon="-2.83422">
        <ele>-14.4</ele>
        <time>2021-11-12T14:03:30Z</time>
      </trkpt>
      <trkpt lat="47.62065" lon="-2.83433">
        <ele>-14.6</ele>
        <time>2021-11-12T14:03:33Z</time>
      </trkpt>
      <trkpt lat="47.6207" lon="-2.83466">
        <ele>-14.6</ele>
        <time>2021-11-12T14:03:41Z</time>
      </trkpt>
      <trkpt lat="47.62074" lon="-2.8349">
        <ele>-14.8</ele>
        <time>2021-11-12T14:03:47Z</time>
      </trkpt>
      <trkpt lat="47.62077" lon="-2.83502">
        <ele>-15</ele>
        <time>2021-11-12T14:03:50Z</time>
      </trkpt>
      <trkpt lat="47.6208" lon="-2.83509">
        <ele>-14.8</ele>
        <time>2021-11-12T14:03:52Z</time>
      </trkpt>
      <trkpt lat="47.62086" lon="-2.83537">
        <ele>-14.6</ele>
        <time>2021-11-12T14:03:59Z</time>
      </trkpt>
      <trkpt lat="47.62098" lon="-2.83562">
        <ele>-13.8</ele>
        <time>2021-11-12T14:04:06Z</time>
      </trkpt>
      <trkpt lat="47.621" lon="-2.83566">
        <ele>-13.8</ele>
        <time>2021-11-12T14:04:07Z</time>
      </trkpt>
      <trkpt lat="47.62116" lon="-2.83592">
        <ele>-13</ele>
        <time>2021-11-12T14:04:15Z</time>
      </trkpt>
      <trkpt lat="47.62126" lon="-2.83607">
        <ele>-13</ele>
        <time>2021-11-12T14:04:20Z</time>
      </trkpt>
      <trkpt lat="47.6214" lon="-2.83622">
        <ele>-12.8</ele>
        <time>2021-11-12T14:04:26Z</time>
      </trkpt>
      <trkpt lat="47.62157" lon="-2.83633">
        <ele>-12.8</ele>
        <time>2021-11-12T14:04:31Z</time>
      </trkpt>
      <trkpt lat="47.62187" lon="-2.83644">
        <ele>-12.8</ele>
        <time>2021-11-12T14:04:37Z</time>
      </trkpt>
      <trkpt lat="47.62204" lon="-2.83651">
        <ele>-12.8</ele>
        <time>2021-11-12T14:04:40Z</time>
      </trkpt>
      <trkpt lat="47.62221" lon="-2.83656">
        <ele>-12.4</ele>
        <time>2021-11-12T14:04:43Z</time>
      </trkpt>
      <trkpt lat="47.62246" lon="-2.83662">
        <ele>-12.2</ele>
        <time>2021-11-12T14:04:48Z</time>
      </trkpt>
      <trkpt lat="47.62259" lon="-2.83665">
        <ele>-12.2</ele>
        <time>2021-11-12T14:04:52Z</time>
      </trkpt>
      <trkpt lat="47.62272" lon="-2.8367">
        <ele>-12</ele>
        <time>2021-11-12T14:04:58Z</time>
      </trkpt>
      <trkpt lat="47.62268" lon="-2.83681">
        <ele>-12</ele>
        <time>2021-11-12T14:05:02Z</time>
      </trkpt>
      <trkpt lat="47.62254" lon="-2.83698">
        <ele>-11.8</ele>
        <time>2021-11-12T14:05:07Z</time>
      </trkpt>
      <trkpt lat="47.62236" lon="-2.83721">
        <ele>-11.8</ele>
        <time>2021-11-12T14:05:13Z</time>
      </trkpt>
      <trkpt lat="47.62223" lon="-2.83736">
        <ele>-11.6</ele>
        <time>2021-11-12T14:05:18Z</time>
      </trkpt>
      <trkpt lat="47.62207" lon="-2.83756">
        <ele>-11.2</ele>
        <time>2021-11-12T14:05:25Z</time>
      </trkpt>
      <trkpt lat="47.62195" lon="-2.83768">
        <ele>-10.6</ele>
        <time>2021-11-12T14:05:31Z</time>
      </trkpt>
      <trkpt lat="47.62184" lon="-2.83783">
        <ele>-10.6</ele>
        <time>2021-11-12T14:05:37Z</time>
      </trkpt>
      <trkpt lat="47.62167" lon="-2.83801">
        <ele>-10</ele>
        <time>2021-11-12T14:05:43Z</time>
      </trkpt>
      <trkpt lat="47.62161" lon="-2.83808">
        <ele>-9.8</ele>
        <time>2021-11-12T14:05:45Z</time>
      </trkpt>
      <trkpt lat="47.62153" lon="-2.8382">
        <ele>-9.6</ele>
        <time>2021-11-12T14:05:48Z</time>
      </trkpt>
      <trkpt lat="47.62126" lon="-2.83851">
        <ele>-9</ele>
        <time>2021-11-12T14:05:56Z</time>
      </trkpt>
      <trkpt lat="47.62116" lon="-2.83864">
        <ele>-8.6</ele>
        <time>2021-11-12T14:05:59Z</time>
      </trkpt>
      <trkpt lat="47.621" lon="-2.83883">
        <ele>-8.2</ele>
        <time>2021-11-12T14:06:04Z</time>
      </trkpt>
      <trkpt lat="47.62075" lon="-2.83915">
        <ele>-7.8</ele>
        <time>2021-11-12T14:06:12Z</time>
      </trkpt>
      <trkpt lat="47.62072" lon="-2.83918">
        <ele>-7.6</ele>
        <time>2021-11-12T14:06:13Z</time>
      </trkpt>
      <trkpt lat="47.62056" lon="-2.83936">
        <ele>-7.4</ele>
        <time>2021-11-12T14:06:18Z</time>
      </trkpt>
      <trkpt lat="47.62035" lon="-2.83957">
        <ele>-7</ele>
        <time>2021-11-12T14:06:24Z</time>
      </trkpt>
      <trkpt lat="47.62027" lon="-2.83968">
        <ele>-6.8</ele>
        <time>2021-11-12T14:06:27Z</time>
      </trkpt>
      <trkpt lat="47.62024" lon="-2.83973">
        <ele>-6.8</ele>
        <time>2021-11-12T14:06:28Z</time>
      </trkpt>
      <trkpt lat="47.62017" lon="-2.83981">
        <ele>-6.6</ele>
        <time>2021-11-12T14:06:30Z</time>
      </trkpt>
      <trkpt lat="47.62009" lon="-2.83988">
        <ele>-6.6</ele>
        <time>2021-11-12T14:06:32Z</time>
      </trkpt>
      <trkpt lat="47.61996" lon="-2.83995">
        <ele>-6.4</ele>
        <time>2021-11-12T14:06:35Z</time>
      </trkpt>
      <trkpt lat="47.61976" lon="-2.84013">
        <ele>-6</ele>
        <time>2021-11-12T14:06:40Z</time>
      </trkpt>
      <trkpt lat="47.61967" lon="-2.84027">
        <ele>-5.8</ele>
        <time>2021-11-12T14:06:43Z</time>
      </trkpt>
      <trkpt lat="47.61962" lon="-2.84037">
        <ele>-5.8</ele>
        <time>2021-11-12T14:06:45Z</time>
      </trkpt>
      <trkpt lat="47.6196" lon="-2.84042">
        <ele>-5.8</ele>
        <time>2021-11-12T14:06:46Z</time>
      </trkpt>
      <trkpt lat="47.61956" lon="-2.84047">
        <ele>-5.8</ele>
        <time>2021-11-12T14:06:47Z</time>
      </trkpt>
      <trkpt lat="47.61949" lon="-2.84057">
        <ele>-5.6</ele>
        <time>2021-11-12T14:06:49Z</time>
      </trkpt>
      <trkpt lat="47.61942" lon="-2.84065">
        <ele>-5.6</ele>
        <time>2021-11-12T14:06:51Z</time>
      </trkpt>
      <trkpt lat="47.61918" lon="-2.84088">
        <ele>-5.6</ele>
        <time>2021-11-12T14:06:56Z</time>
      </trkpt>
      <trkpt lat="47.61901" lon="-2.8411">
        <ele>-5.4</ele>
        <time>2021-11-12T14:07:00Z</time>
      </trkpt>
      <trkpt lat="47.61898" lon="-2.84115">
        <ele>-5.4</ele>
        <time>2021-11-12T14:07:01Z</time>
      </trkpt>
      <trkpt lat="47.61893" lon="-2.84126">
        <ele>-5.4</ele>
        <time>2021-11-12T14:07:03Z</time>
      </trkpt>
      <trkpt lat="47.61891" lon="-2.8414">
        <ele>-5.2</ele>
        <time>2021-11-12T14:07:05Z</time>
      </trkpt>
      <trkpt lat="47.61891" lon="-2.84146">
        <ele>-5.2</ele>
        <time>2021-11-12T14:07:06Z</time>
      </trkpt>
      <trkpt lat="47.61892" lon="-2.84158">
        <ele>-5</ele>
        <time>2021-11-12T14:07:09Z</time>
      </trkpt>
      <trkpt lat="47.61893" lon="-2.84165">
        <ele>-4.8</ele>
        <time>2021-11-12T14:07:11Z</time>
      </trkpt>
      <trkpt lat="47.61895" lon="-2.84168">
        <ele>-4.8</ele>
        <time>2021-11-12T14:07:12Z</time>
      </trkpt>
      <trkpt lat="47.61896" lon="-2.84171">
        <ele>-4.6</ele>
        <time>2021-11-12T14:07:13Z</time>
      </trkpt>
      <trkpt lat="47.61898" lon="-2.84176">
        <ele>-4.6</ele>
        <time>2021-11-12T14:07:14Z</time>
      </trkpt>
      <trkpt lat="47.61901" lon="-2.84189">
        <ele>-4.2</ele>
        <time>2021-11-12T14:07:17Z</time>
      </trkpt>
      <trkpt lat="47.61901" lon="-2.84193">
        <ele>-4.2</ele>
        <time>2021-11-12T14:07:18Z</time>
      </trkpt>
      <trkpt lat="47.61899" lon="-2.842">
        <ele>-4</ele>
        <time>2021-11-12T14:07:20Z</time>
      </trkpt>
      <trkpt lat="47.61892" lon="-2.8421">
        <ele>-3.8</ele>
        <time>2021-11-12T14:07:24Z</time>
      </trkpt>
      <trkpt lat="47.6189" lon="-2.84214">
        <ele>-3.8</ele>
        <time>2021-11-12T14:07:25Z</time>
      </trkpt>
      <trkpt lat="47.61882" lon="-2.84245">
        <ele>-3.6</ele>
        <time>2021-11-12T14:07:32Z</time>
      </trkpt>
      <trkpt lat="47.61874" lon="-2.84275">
        <ele>-3.6</ele>
        <time>2021-11-12T14:07:39Z</time>
      </trkpt>
      <trkpt lat="47.61866" lon="-2.84295">
        <ele>-3.4</ele>
        <time>2021-11-12T14:07:45Z</time>
      </trkpt>
      <trkpt lat="47.61853" lon="-2.843">
        <ele>-3.4</ele>
        <time>2021-11-12T14:07:50Z</time>
      </trkpt>
      <trkpt lat="47.61839" lon="-2.84302">
        <ele>-3.6</ele>
        <time>2021-11-12T14:07:55Z</time>
      </trkpt>
      <trkpt lat="47.61825" lon="-2.84322">
        <ele>-3.6</ele>
        <time>2021-11-12T14:08:02Z</time>
      </trkpt>
      <trkpt lat="47.61818" lon="-2.84345">
        <ele>-4</ele>
        <time>2021-11-12T14:08:07Z</time>
      </trkpt>
      <trkpt lat="47.61819" lon="-2.84367">
        <ele>-4.4</ele>
        <time>2021-11-12T14:08:12Z</time>
      </trkpt>
      <trkpt lat="47.61821" lon="-2.84381">
        <ele>-4.6</ele>
        <time>2021-11-12T14:08:16Z</time>
      </trkpt>
      <trkpt lat="47.61821" lon="-2.84384">
        <ele>-4.6</ele>
        <time>2021-11-12T14:08:17Z</time>
      </trkpt>
      <trkpt lat="47.61822" lon="-2.84388">
        <ele>-4.8</ele>
        <time>2021-11-12T14:08:18Z</time>
      </trkpt>
      <trkpt lat="47.61826" lon="-2.84397">
        <ele>-5</ele>
        <time>2021-11-12T14:08:21Z</time>
      </trkpt>
      <trkpt lat="47.61828" lon="-2.844">
        <ele>-5</ele>
        <time>2021-11-12T14:08:22Z</time>
      </trkpt>
      <trkpt lat="47.61838" lon="-2.84407">
        <ele>-5.4</ele>
        <time>2021-11-12T14:08:26Z</time>
      </trkpt>
      <trkpt lat="47.61847" lon="-2.84413">
        <ele>-5.6</ele>
        <time>2021-11-12T14:08:30Z</time>
      </trkpt>
      <trkpt lat="47.61854" lon="-2.84416">
        <ele>-5.8</ele>
        <time>2021-11-12T14:08:34Z</time>
      </trkpt>
      <trkpt lat="47.61855" lon="-2.84417">
        <ele>-6.2</ele>
        <time>2021-11-12T14:08:39Z</time>
      </trkpt>
      <trkpt lat="47.61855" lon="-2.84417">
        <ele>-6.6</ele>
        <time>2021-11-12T14:08:44Z</time>
      </trkpt>
      <trkpt lat="47.61855" lon="-2.84418">
        <ele>-6.8</ele>
        <time>2021-11-12T14:08:48Z</time>
      </trkpt>
      <trkpt lat="47.61854" lon="-2.8442">
        <ele>-6.8</ele>
        <time>2021-11-12T14:08:49Z</time>
      </trkpt>
      <trkpt lat="47.61843" lon="-2.84439">
        <ele>-7.2</ele>
        <time>2021-11-12T14:08:54Z</time>
      </trkpt>
      <trkpt lat="47.6183" lon="-2.84469">
        <ele>-7.6</ele>
        <time>2021-11-12T14:09:00Z</time>
      </trkpt>
      <trkpt lat="47.61829" lon="-2.84474">
        <ele>-7.6</ele>
        <time>2021-11-12T14:09:01Z</time>
      </trkpt>
      <trkpt lat="47.61827" lon="-2.84494">
        <ele>-8</ele>
        <time>2021-11-12T14:09:05Z</time>
      </trkpt>
      <trkpt lat="47.61823" lon="-2.84527">
        <ele>-8.2</ele>
        <time>2021-11-12T14:09:11Z</time>
      </trkpt>
      <trkpt lat="47.61811" lon="-2.84548">
        <ele>-8.8</ele>
        <time>2021-11-12T14:09:16Z</time>
      </trkpt>
      <trkpt lat="47.61798" lon="-2.84573">
        <ele>-8.8</ele>
        <time>2021-11-12T14:09:23Z</time>
      </trkpt>
      <trkpt lat="47.61792" lon="-2.84599">
        <ele>-8.8</ele>
        <time>2021-11-12T14:09:29Z</time>
      </trkpt>
      <trkpt lat="47.61783" lon="-2.84633">
        <ele>-9</ele>
        <time>2021-11-12T14:09:36Z</time>
      </trkpt>
      <trkpt lat="47.61782" lon="-2.84649">
        <ele>-8.8</ele>
        <time>2021-11-12T14:09:40Z</time>
      </trkpt>
      <trkpt lat="47.61787" lon="-2.84665">
        <ele>-8.8</ele>
        <time>2021-11-12T14:09:46Z</time>
      </trkpt>
      <trkpt lat="47.61792" lon="-2.84673">
        <ele>-8.8</ele>
        <time>2021-11-12T14:09:50Z</time>
      </trkpt>
      <trkpt lat="47.61793" lon="-2.84673">
        <ele>-8.8</ele>
        <time>2021-11-12T14:09:51Z</time>
      </trkpt>
      <trkpt lat="47.61793" lon="-2.84673">
        <ele>-9</ele>
        <time>2021-11-12T14:09:56Z</time>
      </trkpt>
      <trkpt lat="47.61791" lon="-2.84673">
        <ele>-9</ele>
        <time>2021-11-12T14:10:03Z</time>
      </trkpt>
      <trkpt lat="47.61791" lon="-2.84672">
        <ele>-9</ele>
        <time>2021-11-12T14:10:04Z</time>
      </trkpt>
      <trkpt lat="47.61789" lon="-2.84671">
        <ele>-9</ele>
        <time>2021-11-12T14:10:05Z</time>
      </trkpt>
      <trkpt lat="47.61785" lon="-2.84666">
        <ele>-9.8</ele>
        <time>2021-11-12T14:10:11Z</time>
      </trkpt>
      <trkpt lat="47.61785" lon="-2.84664">
        <ele>-10</ele>
        <time>2021-11-12T14:10:12Z</time>
      </trkpt>
      <trkpt lat="47.61783" lon="-2.84656">
        <ele>-10.8</ele>
        <time>2021-11-12T14:10:19Z</time>
      </trkpt>
      <trkpt lat="47.61784" lon="-2.84656">
        <ele>-10.8</ele>
        <time>2021-11-12T14:10:21Z</time>
      </trkpt>
      <trkpt lat="47.61786" lon="-2.84656">
        <ele>-11</ele>
        <time>2021-11-12T14:10:23Z</time>
      </trkpt>
      <trkpt lat="47.61789" lon="-2.8466">
        <ele>-11.2</ele>
        <time>2021-11-12T14:10:26Z</time>
      </trkpt>
      <trkpt lat="47.6179" lon="-2.84662">
        <ele>-11.4</ele>
        <time>2021-11-12T14:10:28Z</time>
      </trkpt>
      <trkpt lat="47.61791" lon="-2.84665">
        <ele>-12</ele>
        <time>2021-11-12T14:10:30Z</time>
      </trkpt>
      <trkpt lat="47.61794" lon="-2.8467">
        <ele>-12.4</ele>
        <time>2021-11-12T14:10:34Z</time>
      </trkpt>
      <trkpt lat="47.61796" lon="-2.8467">
        <ele>-12.6</ele>
        <time>2021-11-12T14:10:36Z</time>
      </trkpt>
      <trkpt lat="47.61798" lon="-2.84671">
        <ele>-12.6</ele>
        <time>2021-11-12T14:10:39Z</time>
      </trkpt>
      <trkpt lat="47.61803" lon="-2.84672">
        <ele>-12.6</ele>
        <time>2021-11-12T14:10:43Z</time>
      </trkpt>
      <trkpt lat="47.61812" lon="-2.84675">
        <ele>-13</ele>
        <time>2021-11-12T14:10:50Z</time>
      </trkpt>
      <trkpt lat="47.61813" lon="-2.84675">
        <ele>-13</ele>
        <time>2021-11-12T14:10:51Z</time>
      </trkpt>
      <trkpt lat="47.61818" lon="-2.84676">
        <ele>-13</ele>
        <time>2021-11-12T14:10:56Z</time>
      </trkpt>
      <trkpt lat="47.6182" lon="-2.84678">
        <ele>-13</ele>
        <time>2021-11-12T14:11:01Z</time>
      </trkpt>
      <trkpt lat="47.61821" lon="-2.84679">
        <ele>-13</ele>
        <time>2021-11-12T14:11:02Z</time>
      </trkpt>
      <trkpt lat="47.61825" lon="-2.8468">
        <ele>-12.6</ele>
        <time>2021-11-12T14:11:06Z</time>
      </trkpt>
      <trkpt lat="47.61827" lon="-2.84681">
        <ele>-12.6</ele>
        <time>2021-11-12T14:11:08Z</time>
      </trkpt>
      <trkpt lat="47.61833" lon="-2.84686">
        <ele>-12.2</ele>
        <time>2021-11-12T14:11:15Z</time>
      </trkpt>
      <trkpt lat="47.61839" lon="-2.84689">
        <ele>-12.2</ele>
        <time>2021-11-12T14:11:23Z</time>
      </trkpt>
      <trkpt lat="47.61849" lon="-2.84692">
        <ele>-12.4</ele>
        <time>2021-11-12T14:11:32Z</time>
      </trkpt>
      <trkpt lat="47.61852" lon="-2.84694">
        <ele>-11.8</ele>
        <time>2021-11-12T14:11:39Z</time>
      </trkpt>
      <trkpt lat="47.61853" lon="-2.84694">
        <ele>-11.8</ele>
        <time>2021-11-12T14:11:40Z</time>
      </trkpt>
      <trkpt lat="47.61859" lon="-2.84695">
        <ele>-11.6</ele>
        <time>2021-11-12T14:11:49Z</time>
      </trkpt>
      <trkpt lat="47.61863" lon="-2.84695">
        <ele>-11.6</ele>
        <time>2021-11-12T14:11:55Z</time>
      </trkpt>
      <trkpt lat="47.61864" lon="-2.84695">
        <ele>-11.6</ele>
        <time>2021-11-12T14:11:56Z</time>
      </trkpt>
      <trkpt lat="47.61872" lon="-2.84696">
        <ele>-11.2</ele>
        <time>2021-11-12T14:12:04Z</time>
      </trkpt>
      <trkpt lat="47.61873" lon="-2.84696">
        <ele>-11</ele>
        <time>2021-11-12T14:12:05Z</time>
      </trkpt>
      <trkpt lat="47.61876" lon="-2.84694">
        <ele>-10</ele>
        <time>2021-11-12T14:12:10Z</time>
      </trkpt>
      <trkpt lat="47.61877" lon="-2.84694">
        <ele>-9.8</ele>
        <time>2021-11-12T14:12:11Z</time>
      </trkpt>
      <trkpt lat="47.61881" lon="-2.84693">
        <ele>-9.2</ele>
        <time>2021-11-12T14:12:17Z</time>
      </trkpt>
      <trkpt lat="47.61884" lon="-2.84692">
        <ele>-8.8</ele>
        <time>2021-11-12T14:12:23Z</time>
      </trkpt>
      <trkpt lat="47.61886" lon="-2.84693">
        <ele>-8.8</ele>
        <time>2021-11-12T14:12:25Z</time>
      </trkpt>
      <trkpt lat="47.61887" lon="-2.84693">
        <ele>-8.6</ele>
        <time>2021-11-12T14:12:26Z</time>
      </trkpt>
      <trkpt lat="47.61895" lon="-2.84695">
        <ele>-7.8</ele>
        <time>2021-11-12T14:12:34Z</time>
      </trkpt>
      <trkpt lat="47.61897" lon="-2.84695">
        <ele>-8</ele>
        <time>2021-11-12T14:12:35Z</time>
      </trkpt>
      <trkpt lat="47.61903" lon="-2.84691">
        <ele>-7.2</ele>
        <time>2021-11-12T14:12:42Z</time>
      </trkpt>
      <trkpt lat="47.61903" lon="-2.84691">
        <ele>-6.8</ele>
        <time>2021-11-12T14:12:44Z</time>
      </trkpt>
      <trkpt lat="47.61904" lon="-2.84691">
        <ele>-6.6</ele>
        <time>2021-11-12T14:12:46Z</time>
      </trkpt>
      <trkpt lat="47.61909" lon="-2.84689">
        <ele>-5.8</ele>
        <time>2021-11-12T14:12:49Z</time>
      </trkpt>
      <trkpt lat="47.6191" lon="-2.84689">
        <ele>-5.8</ele>
        <time>2021-11-12T14:12:50Z</time>
      </trkpt>
      <trkpt lat="47.6192" lon="-2.84684">
        <ele>-5</ele>
        <time>2021-11-12T14:12:56Z</time>
      </trkpt>
      <trkpt lat="47.61924" lon="-2.84681">
        <ele>-4.6</ele>
        <time>2021-11-12T14:12:58Z</time>
      </trkpt>
      <trkpt lat="47.61936" lon="-2.84677">
        <ele>-3.6</ele>
        <time>2021-11-12T14:13:03Z</time>
      </trkpt>
      <trkpt lat="47.61938" lon="-2.84677">
        <ele>-3.4</ele>
        <time>2021-11-12T14:13:04Z</time>
      </trkpt>
      <trkpt lat="47.61944" lon="-2.84683">
        <ele>-2.8</ele>
        <time>2021-11-12T14:13:07Z</time>
      </trkpt>
      <trkpt lat="47.61948" lon="-2.84692">
        <ele>-2.4</ele>
        <time>2021-11-12T14:13:10Z</time>
      </trkpt>
      <trkpt lat="47.61953" lon="-2.84701">
        <ele>-2.2</ele>
        <time>2021-11-12T14:13:14Z</time>
      </trkpt>
      <trkpt lat="47.61958" lon="-2.84709">
        <ele>-1.2</ele>
        <time>2021-11-12T14:13:19Z</time>
      </trkpt>
      <trkpt lat="47.61959" lon="-2.8471">
        <ele>-1.2</ele>
        <time>2021-11-12T14:13:20Z</time>
      </trkpt>
      <trkpt lat="47.61961" lon="-2.84712">
        <ele>-1</ele>
        <time>2021-11-12T14:13:23Z</time>
      </trkpt>
      <trkpt lat="47.61962" lon="-2.84714">
        <ele>-0.4</ele>
        <time>2021-11-12T14:13:28Z</time>
      </trkpt>
      <trkpt lat="47.61962" lon="-2.84714">
        <ele>-0.4</ele>
        <time>2021-11-12T14:13:29Z</time>
      </trkpt>
      <trkpt lat="47.61962" lon="-2.84714">
        <ele>19.6</ele>
        <time>2021-11-12T14:13:36Z</time>
      </trkpt>
      <trkpt lat="47.61962" lon="-2.84714">
        <ele>0.8</ele>
        <time>2021-11-12T14:13:41Z</time>
      </trkpt>
      <trkpt lat="47.61962" lon="-2.84714">
        <ele>1.8</ele>
        <time>2021-11-12T14:13:51Z</time>
      </trkpt>
      <trkpt lat="47.61962" lon="-2.84714">
        <ele>2.6</ele>
        <time>2021-11-12T14:14:05Z</time>
      </trkpt>
      <trkpt lat="47.61968" lon="-2.84719">
        <ele>2.6</ele>
        <time>2021-11-12T14:14:08Z</time>
      </trkpt>
      <trkpt lat="47.61972" lon="-2.84723">
        <ele>2.6</ele>
        <time>2021-11-12T14:14:10Z</time>
      </trkpt>
      <trkpt lat="47.61977" lon="-2.84727">
        <ele>2.4</ele>
        <time>2021-11-12T14:14:12Z</time>
      </trkpt>
      <trkpt lat="47.61991" lon="-2.84739">
        <ele>2</ele>
        <time>2021-11-12T14:14:16Z</time>
      </trkpt>
      <trkpt lat="47.62005" lon="-2.84753">
        <ele>2</ele>
        <time>2021-11-12T14:14:22Z</time>
      </trkpt>
      <trkpt lat="47.62011" lon="-2.8476">
        <ele>2</ele>
        <time>2021-11-12T14:14:26Z</time>
      </trkpt>
      <trkpt lat="47.62018" lon="-2.84766">
        <ele>2.2</ele>
        <time>2021-11-12T14:14:29Z</time>
      </trkpt>
      <trkpt lat="47.62023" lon="-2.84771">
        <ele>2.2</ele>
        <time>2021-11-12T14:14:31Z</time>
      </trkpt>
      <trkpt lat="47.62025" lon="-2.84773">
        <ele>2.4</ele>
        <time>2021-11-12T14:14:32Z</time>
      </trkpt>
      <trkpt lat="47.62037" lon="-2.84783">
        <ele>2.4</ele>
        <time>2021-11-12T14:14:35Z</time>
      </trkpt>
      <trkpt lat="47.62055" lon="-2.84808">
        <ele>2.6</ele>
        <time>2021-11-12T14:14:39Z</time>
      </trkpt>
      <trkpt lat="47.6206" lon="-2.84815">
        <ele>2.6</ele>
        <time>2021-11-12T14:14:40Z</time>
      </trkpt>
      <trkpt lat="47.62071" lon="-2.84833">
        <ele>2.6</ele>
        <time>2021-11-12T14:14:43Z</time>
      </trkpt>
      <trkpt lat="47.62077" lon="-2.84842">
        <ele>2.6</ele>
        <time>2021-11-12T14:14:45Z</time>
      </trkpt>
      <trkpt lat="47.62088" lon="-2.84863">
        <ele>2.4</ele>
        <time>2021-11-12T14:14:50Z</time>
      </trkpt>
      <trkpt lat="47.62089" lon="-2.84869">
        <ele>2.2</ele>
        <time>2021-11-12T14:14:52Z</time>
      </trkpt>
      <trkpt lat="47.62087" lon="-2.84874">
        <ele>2</ele>
        <time>2021-11-12T14:14:54Z</time>
      </trkpt>
      <trkpt lat="47.62075" lon="-2.8489">
        <ele>1.6</ele>
        <time>2021-11-12T14:14:59Z</time>
      </trkpt>
      <trkpt lat="47.62064" lon="-2.8491">
        <ele>1.4</ele>
        <time>2021-11-12T14:15:04Z</time>
      </trkpt>
      <trkpt lat="47.62054" lon="-2.84932">
        <ele>1</ele>
        <time>2021-11-12T14:15:09Z</time>
      </trkpt>
      <trkpt lat="47.62055" lon="-2.8494">
        <ele>1</ele>
        <time>2021-11-12T14:15:11Z</time>
      </trkpt>
      <trkpt lat="47.62057" lon="-2.84945">
        <ele>1</ele>
        <time>2021-11-12T14:15:12Z</time>
      </trkpt>
      <trkpt lat="47.62062" lon="-2.84959">
        <ele>0.8</ele>
        <time>2021-11-12T14:15:15Z</time>
      </trkpt>
      <trkpt lat="47.62066" lon="-2.84977">
        <ele>0.2</ele>
        <time>2021-11-12T14:15:19Z</time>
      </trkpt>
      <trkpt lat="47.62075" lon="-2.85009">
        <ele>0.2</ele>
        <time>2021-11-12T14:15:25Z</time>
      </trkpt>
      <trkpt lat="47.62075" lon="-2.85033">
        <ele>16.2</ele>
        <time>2021-11-12T14:15:30Z</time>
      </trkpt>
      <trkpt lat="47.62067" lon="-2.85056">
        <ele>16.3</ele>
        <time>2021-11-12T14:15:36Z</time>
      </trkpt>
      <trkpt lat="47.6206" lon="-2.85074">
        <ele>16.2</ele>
        <time>2021-11-12T14:15:42Z</time>
      </trkpt>
      <trkpt lat="47.62055" lon="-2.85099">
        <ele>0.2</ele>
        <time>2021-11-12T14:15:48Z</time>
      </trkpt>
      <trkpt lat="47.62056" lon="-2.85103">
        <ele>0.2</ele>
        <time>2021-11-12T14:15:50Z</time>
      </trkpt>
      <trkpt lat="47.62052" lon="-2.8511">
        <ele>0.4</ele>
        <time>2021-11-12T14:15:52Z</time>
      </trkpt>
      <trkpt lat="47.6205" lon="-2.8511">
        <ele>0.2</ele>
        <time>2021-11-12T14:15:53Z</time>
      </trkpt>
      <trkpt lat="47.62048" lon="-2.85108">
        <ele>0.2</ele>
        <time>2021-11-12T14:15:55Z</time>
      </trkpt>
      <trkpt lat="47.62048" lon="-2.85106">
        <ele>0.2</ele>
        <time>2021-11-12T14:15:56Z</time>
      </trkpt>
      <trkpt lat="47.6205" lon="-2.85104">
        <ele>16.7</ele>
        <time>2021-11-12T14:15:58Z</time>
      </trkpt>
      <trkpt lat="47.62052" lon="-2.85106">
        <ele>17.2</ele>
        <time>2021-11-12T14:16:00Z</time>
      </trkpt>
      <trkpt lat="47.62052" lon="-2.8511">
        <ele>-0.2</ele>
        <time>2021-11-12T14:16:02Z</time>
      </trkpt>
      <trkpt lat="47.62051" lon="-2.85113">
        <ele>-0.2</ele>
        <time>2021-11-12T14:16:03Z</time>
      </trkpt>
      <trkpt lat="47.62051" lon="-2.85116">
        <ele>-0.2</ele>
        <time>2021-11-12T14:16:04Z</time>
      </trkpt>
      <trkpt lat="47.62052" lon="-2.8513">
        <ele>-0.4</ele>
        <time>2021-11-12T14:16:09Z</time>
      </trkpt>
      <trkpt lat="47.62052" lon="-2.85147">
        <ele>-0.8</ele>
        <time>2021-11-12T14:16:15Z</time>
      </trkpt>
      <trkpt lat="47.62053" lon="-2.85153">
        <ele>-0.8</ele>
        <time>2021-11-12T14:16:17Z</time>
      </trkpt>
      <trkpt lat="47.62053" lon="-2.85164">
        <ele>-0.8</ele>
        <time>2021-11-12T14:16:20Z</time>
      </trkpt>
      <trkpt lat="47.62055" lon="-2.85173">
        <ele>-0.4</ele>
        <time>2021-11-12T14:16:25Z</time>
      </trkpt>
      <trkpt lat="47.62054" lon="-2.85179">
        <ele>-0.2</ele>
        <time>2021-11-12T14:16:33Z</time>
      </trkpt>
      <trkpt lat="47.62045" lon="-2.85193">
        <ele>-0.2</ele>
        <time>2021-11-12T14:16:39Z</time>
      </trkpt>
      <trkpt lat="47.62038" lon="-2.8521">
        <ele>-0.2</ele>
        <time>2021-11-12T14:16:44Z</time>
      </trkpt>
      <trkpt lat="47.62027" lon="-2.85238">
        <ele>-0.4</ele>
        <time>2021-11-12T14:16:51Z</time>
      </trkpt>
      <trkpt lat="47.62024" lon="-2.85245">
        <ele>-0.4</ele>
        <time>2021-11-12T14:16:53Z</time>
      </trkpt>
      <trkpt lat="47.62019" lon="-2.85253">
        <ele>-0.4</ele>
        <time>2021-11-12T14:16:56Z</time>
      </trkpt>
      <trkpt lat="47.62007" lon="-2.85272">
        <ele>-0.4</ele>
        <time>2021-11-12T14:17:03Z</time>
      </trkpt>
      <trkpt lat="47.62005" lon="-2.85274">
        <ele>-0.6</ele>
        <time>2021-11-12T14:17:04Z</time>
      </trkpt>
      <trkpt lat="47.62004" lon="-2.85275">
        <ele>-0.6</ele>
        <time>2021-11-12T14:17:05Z</time>
      </trkpt>
      <trkpt lat="47.61998" lon="-2.8528">
        <ele>-1</ele>
        <time>2021-11-12T14:17:09Z</time>
      </trkpt>
      <trkpt lat="47.61996" lon="-2.85281">
        <ele>-1.2</ele>
        <time>2021-11-12T14:17:11Z</time>
      </trkpt>
      <trkpt lat="47.61994" lon="-2.8528">
        <ele>-1.4</ele>
        <time>2021-11-12T14:17:13Z</time>
      </trkpt>
      <trkpt lat="47.61994" lon="-2.8528">
        <ele>-1.4</ele>
        <time>2021-11-12T14:17:14Z</time>
      </trkpt>
      <trkpt lat="47.61994" lon="-2.8528">
        <ele>-1.4</ele>
        <time>2021-11-12T14:17:15Z</time>
      </trkpt>
      <trkpt lat="47.6199" lon="-2.8528">
        <ele>-1.6</ele>
        <time>2021-11-12T14:17:18Z</time>
      </trkpt>
      <trkpt lat="47.61986" lon="-2.85277">
        <ele>-1.8</ele>
        <time>2021-11-12T14:17:21Z</time>
      </trkpt>
      <trkpt lat="47.61981" lon="-2.85273">
        <ele>-2</ele>
        <time>2021-11-12T14:17:25Z</time>
      </trkpt>
      <trkpt lat="47.61977" lon="-2.8527">
        <ele>-2.2</ele>
        <time>2021-11-12T14:17:29Z</time>
      </trkpt>
      <trkpt lat="47.61974" lon="-2.85268">
        <ele>-2.6</ele>
        <time>2021-11-12T14:17:33Z</time>
      </trkpt>
      <trkpt lat="47.61966" lon="-2.85261">
        <ele>-3</ele>
        <time>2021-11-12T14:17:42Z</time>
      </trkpt>
      <trkpt lat="47.61964" lon="-2.8526">
        <ele>-3</ele>
        <time>2021-11-12T14:17:43Z</time>
      </trkpt>
      <trkpt lat="47.61957" lon="-2.85255">
        <ele>-3.2</ele>
        <time>2021-11-12T14:17:46Z</time>
      </trkpt>
      <trkpt lat="47.61951" lon="-2.85249">
        <ele>-3</ele>
        <time>2021-11-12T14:17:49Z</time>
      </trkpt>
      <trkpt lat="47.61951" lon="-2.85248">
        <ele>-3.2</ele>
        <time>2021-11-12T14:17:50Z</time>
      </trkpt>
      <trkpt lat="47.61946" lon="-2.85246">
        <ele>-3.4</ele>
        <time>2021-11-12T14:17:53Z</time>
      </trkpt>
      <trkpt lat="47.61942" lon="-2.85245">
        <ele>-3.6</ele>
        <time>2021-11-12T14:17:55Z</time>
      </trkpt>
      <trkpt lat="47.61939" lon="-2.85246">
        <ele>-3.8</ele>
        <time>2021-11-12T14:17:57Z</time>
      </trkpt>
      <trkpt lat="47.61935" lon="-2.85251">
        <ele>-4.2</ele>
        <time>2021-11-12T14:18:00Z</time>
      </trkpt>
      <trkpt lat="47.61934" lon="-2.85252">
        <ele>-4.4</ele>
        <time>2021-11-12T14:18:01Z</time>
      </trkpt>
      <trkpt lat="47.61933" lon="-2.8526">
        <ele>-4.6</ele>
        <time>2021-11-12T14:18:04Z</time>
      </trkpt>
      <trkpt lat="47.61933" lon="-2.85264">
        <ele>-5.2</ele>
        <time>2021-11-12T14:18:06Z</time>
      </trkpt>
      <trkpt lat="47.61934" lon="-2.8527">
        <ele>-5.6</ele>
        <time>2021-11-12T14:18:08Z</time>
      </trkpt>
      <trkpt lat="47.61932" lon="-2.85291">
        <ele>-6.2</ele>
        <time>2021-11-12T14:18:14Z</time>
      </trkpt>
      <trkpt lat="47.61929" lon="-2.85309">
        <ele>-7.2</ele>
        <time>2021-11-12T14:18:20Z</time>
      </trkpt>
      <trkpt lat="47.61926" lon="-2.85317">
        <ele>-7</ele>
        <time>2021-11-12T14:18:24Z</time>
      </trkpt>
      <trkpt lat="47.61925" lon="-2.85324">
        <ele>-7.4</ele>
        <time>2021-11-12T14:18:27Z</time>
      </trkpt>
      <trkpt lat="47.61925" lon="-2.85336">
        <ele>-7.8</ele>
        <time>2021-11-12T14:18:32Z</time>
      </trkpt>
      <trkpt lat="47.61928" lon="-2.85341">
        <ele>-8.2</ele>
        <time>2021-11-12T14:18:35Z</time>
      </trkpt>
      <trkpt lat="47.61931" lon="-2.85357">
        <ele>-9.2</ele>
        <time>2021-11-12T14:18:42Z</time>
      </trkpt>
      <trkpt lat="47.61931" lon="-2.85359">
        <ele>-9.2</ele>
        <time>2021-11-12T14:18:43Z</time>
      </trkpt>
      <trkpt lat="47.6193" lon="-2.8537">
        <ele>-9.4</ele>
        <time>2021-11-12T14:18:47Z</time>
      </trkpt>
      <trkpt lat="47.61929" lon="-2.85376">
        <ele>-9.6</ele>
        <time>2021-11-12T14:18:49Z</time>
      </trkpt>
      <trkpt lat="47.61925" lon="-2.85386">
        <ele>-10</ele>
        <time>2021-11-12T14:18:53Z</time>
      </trkpt>
      <trkpt lat="47.61924" lon="-2.85388">
        <ele>-10</ele>
        <time>2021-11-12T14:18:54Z</time>
      </trkpt>
      <trkpt lat="47.61924" lon="-2.85388">
        <ele>-10</ele>
        <time>2021-11-12T14:18:56Z</time>
      </trkpt>
      <trkpt lat="47.61922" lon="-2.85392">
        <ele>-10.2</ele>
        <time>2021-11-12T14:19:00Z</time>
      </trkpt>
      <trkpt lat="47.61921" lon="-2.85395">
        <ele>-10.2</ele>
        <time>2021-11-12T14:19:02Z</time>
      </trkpt>
      <trkpt lat="47.61919" lon="-2.85404">
        <ele>-10.2</ele>
        <time>2021-11-12T14:19:07Z</time>
      </trkpt>
      <trkpt lat="47.61919" lon="-2.85408">
        <ele>-10.4</ele>
        <time>2021-11-12T14:19:10Z</time>
      </trkpt>
      <trkpt lat="47.61915" lon="-2.85418">
        <ele>-11</ele>
        <time>2021-11-12T14:19:18Z</time>
      </trkpt>
      <trkpt lat="47.61916" lon="-2.8542">
        <ele>-11.2</ele>
        <time>2021-11-12T14:19:21Z</time>
      </trkpt>
      <trkpt lat="47.61916" lon="-2.8542">
        <ele>-11.4</ele>
        <time>2021-11-12T14:19:26Z</time>
      </trkpt>
      <trkpt lat="47.61916" lon="-2.85423">
        <ele>-11.6</ele>
        <time>2021-11-12T14:19:38Z</time>
      </trkpt>
      <trkpt lat="47.61916" lon="-2.85426">
        <ele>-11.6</ele>
        <time>2021-11-12T14:19:40Z</time>
      </trkpt>
      <trkpt lat="47.61916" lon="-2.8543">
        <ele>-11.6</ele>
        <time>2021-11-12T14:19:44Z</time>
      </trkpt>
      <trkpt lat="47.61916" lon="-2.85433">
        <ele>-11.8</ele>
        <time>2021-11-12T14:19:50Z</time>
      </trkpt>
      <trkpt lat="47.61916" lon="-2.85434">
        <ele>-11.8</ele>
        <time>2021-11-12T14:20:00Z</time>
      </trkpt>
      <trkpt lat="47.61917" lon="-2.8544">
        <ele>-11.4</ele>
        <time>2021-11-12T14:20:06Z</time>
      </trkpt>
      <trkpt lat="47.61917" lon="-2.8544">
        <ele>-11.4</ele>
        <time>2021-11-12T14:20:08Z</time>
      </trkpt>
      <trkpt lat="47.61916" lon="-2.85451">
        <ele>-11.2</ele>
        <time>2021-11-12T14:20:11Z</time>
      </trkpt>
      <trkpt lat="47.61917" lon="-2.85469">
        <ele>-11.4</ele>
        <time>2021-11-12T14:20:16Z</time>
      </trkpt>
      <trkpt lat="47.61919" lon="-2.85472">
        <ele>-11.6</ele>
        <time>2021-11-12T14:20:17Z</time>
      </trkpt>
      <trkpt lat="47.61924" lon="-2.85479">
        <ele>-11.8</ele>
        <time>2021-11-12T14:20:22Z</time>
      </trkpt>
      <trkpt lat="47.61932" lon="-2.85487">
        <ele>-11.8</ele>
        <time>2021-11-12T14:20:28Z</time>
      </trkpt>
      <trkpt lat="47.61937" lon="-2.85487">
        <ele>-11.8</ele>
        <time>2021-11-12T14:20:30Z</time>
      </trkpt>
      <trkpt lat="47.61943" lon="-2.85488">
        <ele>-12</ele>
        <time>2021-11-12T14:20:33Z</time>
      </trkpt>
      <trkpt lat="47.61954" lon="-2.85488">
        <ele>-12.2</ele>
        <time>2021-11-12T14:20:36Z</time>
      </trkpt>
      <trkpt lat="47.61957" lon="-2.85489">
        <ele>-12.2</ele>
        <time>2021-11-12T14:20:37Z</time>
      </trkpt>
      <trkpt lat="47.61963" lon="-2.85491">
        <ele>-12.4</ele>
        <time>2021-11-12T14:20:39Z</time>
      </trkpt>
      <trkpt lat="47.61967" lon="-2.85491">
        <ele>-12.2</ele>
        <time>2021-11-12T14:20:41Z</time>
      </trkpt>
      <trkpt lat="47.61973" lon="-2.85491">
        <ele>-11.8</ele>
        <time>2021-11-12T14:20:48Z</time>
      </trkpt>
      <trkpt lat="47.61973" lon="-2.85491">
        <ele>-11.2</ele>
        <time>2021-11-12T14:20:50Z</time>
      </trkpt>
      <trkpt lat="47.61973" lon="-2.85491">
        <ele>-11</ele>
        <time>2021-11-12T14:20:57Z</time>
      </trkpt>
      <trkpt lat="47.61974" lon="-2.85491">
        <ele>-11.8</ele>
        <time>2021-11-12T14:21:02Z</time>
      </trkpt>
      <trkpt lat="47.61976" lon="-2.85491">
        <ele>-12.2</ele>
        <time>2021-11-12T14:21:04Z</time>
      </trkpt>
      <trkpt lat="47.61978" lon="-2.85491">
        <ele>-12.4</ele>
        <time>2021-11-12T14:21:05Z</time>
      </trkpt>
      <trkpt lat="47.61982" lon="-2.8549">
        <ele>-13.2</ele>
        <time>2021-11-12T14:21:11Z</time>
      </trkpt>
      <trkpt lat="47.61983" lon="-2.8549">
        <ele>-13.4</ele>
        <time>2021-11-12T14:21:12Z</time>
      </trkpt>
      <trkpt lat="47.61984" lon="-2.85489">
        <ele>-14</ele>
        <time>2021-11-12T14:21:18Z</time>
      </trkpt>
      <trkpt lat="47.61984" lon="-2.85489">
        <ele>-14.4</ele>
        <time>2021-11-12T14:21:22Z</time>
      </trkpt>
      <trkpt lat="47.61988" lon="-2.85487">
        <ele>-14.4</ele>
        <time>2021-11-12T14:21:25Z</time>
      </trkpt>
      <trkpt lat="47.6199" lon="-2.85486">
        <ele>-14.6</ele>
        <time>2021-11-12T14:21:26Z</time>
      </trkpt>
      <trkpt lat="47.61998" lon="-2.85485">
        <ele>-14.8</ele>
        <time>2021-11-12T14:21:30Z</time>
      </trkpt>
      <trkpt lat="47.62009" lon="-2.85485">
        <ele>-15</ele>
        <time>2021-11-12T14:21:35Z</time>
      </trkpt>
      <trkpt lat="47.62017" lon="-2.85486">
        <ele>-15.2</ele>
        <time>2021-11-12T14:21:41Z</time>
      </trkpt>
      <trkpt lat="47.6202" lon="-2.85488">
        <ele>-15.2</ele>
        <time>2021-11-12T14:21:46Z</time>
      </trkpt>
      <trkpt lat="47.62024" lon="-2.8549">
        <ele>-15.4</ele>
        <time>2021-11-12T14:21:49Z</time>
      </trkpt>
      <trkpt lat="47.62028" lon="-2.8549">
        <ele>-15.4</ele>
        <time>2021-11-12T14:21:52Z</time>
      </trkpt>
      <trkpt lat="47.6203" lon="-2.85489">
        <ele>-15.4</ele>
        <time>2021-11-12T14:21:55Z</time>
      </trkpt>
      <trkpt lat="47.62037" lon="-2.85486">
        <ele>-15</ele>
        <time>2021-11-12T14:22:02Z</time>
      </trkpt>
      <trkpt lat="47.62044" lon="-2.85486">
        <ele>-14.4</ele>
        <time>2021-11-12T14:22:08Z</time>
      </trkpt>
      <trkpt lat="47.62047" lon="-2.85486">
        <ele>-14.2</ele>
        <time>2021-11-12T14:22:10Z</time>
      </trkpt>
      <trkpt lat="47.62048" lon="-2.85486">
        <ele>-14</ele>
        <time>2021-11-12T14:22:11Z</time>
      </trkpt>
      <trkpt lat="47.62054" lon="-2.85482">
        <ele>-14</ele>
        <time>2021-11-12T14:22:16Z</time>
      </trkpt>
      <trkpt lat="47.62057" lon="-2.85479">
        <ele>-14</ele>
        <time>2021-11-12T14:22:20Z</time>
      </trkpt>
      <trkpt lat="47.62059" lon="-2.85477">
        <ele>-14</ele>
        <time>2021-11-12T14:22:23Z</time>
      </trkpt>
      <trkpt lat="47.62059" lon="-2.85477">
        <ele>-14</ele>
        <time>2021-11-12T14:22:31Z</time>
      </trkpt>
      <trkpt lat="47.62059" lon="-2.85477">
        <ele>-13.8</ele>
        <time>2021-11-12T14:22:36Z</time>
      </trkpt>
      <trkpt lat="47.62063" lon="-2.85473">
        <ele>-13.8</ele>
        <time>2021-11-12T14:22:39Z</time>
      </trkpt>
      <trkpt lat="47.62065" lon="-2.85471">
        <ele>-13.8</ele>
        <time>2021-11-12T14:22:40Z</time>
      </trkpt>
      <trkpt lat="47.6207" lon="-2.85459">
        <ele>-14</ele>
        <time>2021-11-12T14:22:44Z</time>
      </trkpt>
      <trkpt lat="47.62079" lon="-2.85439">
        <ele>-14.4</ele>
        <time>2021-11-12T14:22:50Z</time>
      </trkpt>
      <trkpt lat="47.62087" lon="-2.85415">
        <ele>-14.4</ele>
        <time>2021-11-12T14:22:57Z</time>
      </trkpt>
      <trkpt lat="47.62095" lon="-2.85388">
        <ele>-13.6</ele>
        <time>2021-11-12T14:23:04Z</time>
      </trkpt>
      <trkpt lat="47.62099" lon="-2.85373">
        <ele>-13</ele>
        <time>2021-11-12T14:23:08Z</time>
      </trkpt>
      <trkpt lat="47.621" lon="-2.85369">
        <ele>-13</ele>
        <time>2021-11-12T14:23:09Z</time>
      </trkpt>
      <trkpt lat="47.62112" lon="-2.85343">
        <ele>-12.6</ele>
        <time>2021-11-12T14:23:16Z</time>
      </trkpt>
      <trkpt lat="47.62119" lon="-2.85331">
        <ele>-12.4</ele>
        <time>2021-11-12T14:23:21Z</time>
      </trkpt>
      <trkpt lat="47.6212" lon="-2.85329">
        <ele>-12</ele>
        <time>2021-11-12T14:23:29Z</time>
      </trkpt>
      <trkpt lat="47.6212" lon="-2.85329">
        <ele>-12.6</ele>
        <time>2021-11-12T14:23:36Z</time>
      </trkpt>
      <trkpt lat="47.6212" lon="-2.85329">
        <ele>-12.8</ele>
        <time>2021-11-12T14:23:39Z</time>
      </trkpt>
      <trkpt lat="47.62124" lon="-2.85324">
        <ele>-12.8</ele>
        <time>2021-11-12T14:23:42Z</time>
      </trkpt>
      <trkpt lat="47.62125" lon="-2.85322">
        <ele>-12.8</ele>
        <time>2021-11-12T14:23:43Z</time>
      </trkpt>
      <trkpt lat="47.62129" lon="-2.85316">
        <ele>-13.2</ele>
        <time>2021-11-12T14:23:48Z</time>
      </trkpt>
      <trkpt lat="47.62133" lon="-2.85312">
        <ele>-13.6</ele>
        <time>2021-11-12T14:23:54Z</time>
      </trkpt>
      <trkpt lat="47.62135" lon="-2.85309">
        <ele>-13.6</ele>
        <time>2021-11-12T14:23:56Z</time>
      </trkpt>
      <trkpt lat="47.62136" lon="-2.85307">
        <ele>-13.8</ele>
        <time>2021-11-12T14:23:57Z</time>
      </trkpt>
      <trkpt lat="47.62141" lon="-2.85302">
        <ele>-14.2</ele>
        <time>2021-11-12T14:24:01Z</time>
      </trkpt>
      <trkpt lat="47.62143" lon="-2.85301">
        <ele>-14.4</ele>
        <time>2021-11-12T14:24:02Z</time>
      </trkpt>
      <trkpt lat="47.62151" lon="-2.853">
        <ele>-14.8</ele>
        <time>2021-11-12T14:24:08Z</time>
      </trkpt>
      <trkpt lat="47.62155" lon="-2.853">
        <ele>-15</ele>
        <time>2021-11-12T14:24:11Z</time>
      </trkpt>
      <trkpt lat="47.62158" lon="-2.85298">
        <ele>-15</ele>
        <time>2021-11-12T14:24:14Z</time>
      </trkpt>
      <trkpt lat="47.62158" lon="-2.85298">
        <ele>-15.2</ele>
        <time>2021-11-12T14:24:15Z</time>
      </trkpt>
      <trkpt lat="47.62159" lon="-2.85299">
        <ele>-15.2</ele>
        <time>2021-11-12T14:24:17Z</time>
      </trkpt>
      <trkpt lat="47.62159" lon="-2.853">
        <ele>-15.4</ele>
        <time>2021-11-12T14:24:18Z</time>
      </trkpt>
      <trkpt lat="47.62161" lon="-2.85302">
        <ele>-15.6</ele>
        <time>2021-11-12T14:24:20Z</time>
      </trkpt>
      <trkpt lat="47.62161" lon="-2.85302">
        <ele>-16</ele>
        <time>2021-11-12T14:24:25Z</time>
      </trkpt>
      <trkpt lat="47.62162" lon="-2.85305">
        <ele>-16</ele>
        <time>2021-11-12T14:24:28Z</time>
      </trkpt>
      <trkpt lat="47.62164" lon="-2.85307">
        <ele>-16</ele>
        <time>2021-11-12T14:24:31Z</time>
      </trkpt>
      <trkpt lat="47.62167" lon="-2.85306">
        <ele>-16</ele>
        <time>2021-11-12T14:24:34Z</time>
      </trkpt>
      <trkpt lat="47.62168" lon="-2.85307">
        <ele>-16</ele>
        <time>2021-11-12T14:24:36Z</time>
      </trkpt>
      <trkpt lat="47.62169" lon="-2.85308">
        <ele>-16</ele>
        <time>2021-11-12T14:24:41Z</time>
      </trkpt>
      <trkpt lat="47.62174" lon="-2.85313">
        <ele>-16</ele>
        <time>2021-11-12T14:24:44Z</time>
      </trkpt>
      <trkpt lat="47.62183" lon="-2.85325">
        <ele>-16.2</ele>
        <time>2021-11-12T14:24:50Z</time>
      </trkpt>
      <trkpt lat="47.62184" lon="-2.85327">
        <ele>-16.2</ele>
        <time>2021-11-12T14:24:51Z</time>
      </trkpt>
      <trkpt lat="47.62185" lon="-2.85334">
        <ele>-16</ele>
        <time>2021-11-12T14:24:54Z</time>
      </trkpt>
      <trkpt lat="47.62185" lon="-2.8535">
        <ele>-16</ele>
        <time>2021-11-12T14:25:01Z</time>
      </trkpt>
      <trkpt lat="47.62184" lon="-2.85368">
        <ele>-16</ele>
        <time>2021-11-12T14:25:08Z</time>
      </trkpt>
      <trkpt lat="47.62183" lon="-2.85372">
        <ele>-15.8</ele>
        <time>2021-11-12T14:25:14Z</time>
      </trkpt>
      <trkpt lat="47.62183" lon="-2.85374">
        <ele>-15.8</ele>
        <time>2021-11-12T14:25:15Z</time>
      </trkpt>
      <trkpt lat="47.62182" lon="-2.85393">
        <ele>-16</ele>
        <time>2021-11-12T14:25:22Z</time>
      </trkpt>
      <trkpt lat="47.62182" lon="-2.85414">
        <ele>-16.4</ele>
        <time>2021-11-12T14:25:27Z</time>
      </trkpt>
      <trkpt lat="47.62186" lon="-2.8543">
        <ele>-16.4</ele>
        <time>2021-11-12T14:25:32Z</time>
      </trkpt>
      <trkpt lat="47.62191" lon="-2.85453">
        <ele>-15.8</ele>
        <time>2021-11-12T14:25:39Z</time>
      </trkpt>
      <trkpt lat="47.62198" lon="-2.85482">
        <ele>-15.4</ele>
        <time>2021-11-12T14:25:48Z</time>
      </trkpt>
      <trkpt lat="47.62201" lon="-2.85491">
        <ele>-15.4</ele>
        <time>2021-11-12T14:25:51Z</time>
      </trkpt>
      <trkpt lat="47.62204" lon="-2.85501">
        <ele>-15</ele>
        <time>2021-11-12T14:25:55Z</time>
      </trkpt>
      <trkpt lat="47.62209" lon="-2.85512">
        <ele>-14.8</ele>
        <time>2021-11-12T14:26:00Z</time>
      </trkpt>
      <trkpt lat="47.6221" lon="-2.85512">
        <ele>-14.8</ele>
        <time>2021-11-12T14:26:01Z</time>
      </trkpt>
      <trkpt lat="47.6221" lon="-2.85512">
        <ele>-14.4</ele>
        <time>2021-11-12T14:26:08Z</time>
      </trkpt>
      <trkpt lat="47.6221" lon="-2.85512">
        <ele>-14.4</ele>
        <time>2021-11-12T14:26:10Z</time>
      </trkpt>
      <trkpt lat="47.6221" lon="-2.85512">
        <ele>-13.2</ele>
        <time>2021-11-12T14:26:28Z</time>
      </trkpt>
      <trkpt lat="47.62212" lon="-2.85514">
        <ele>-13.2</ele>
        <time>2021-11-12T14:26:36Z</time>
      </trkpt>
      <trkpt lat="47.62213" lon="-2.85515">
        <ele>-13.4</ele>
        <time>2021-11-12T14:26:37Z</time>
      </trkpt>
      <trkpt lat="47.62215" lon="-2.85516">
        <ele>-13.4</ele>
        <time>2021-11-12T14:26:38Z</time>
      </trkpt>
      <trkpt lat="47.62218" lon="-2.85521">
        <ele>-13.6</ele>
        <time>2021-11-12T14:26:41Z</time>
      </trkpt>
      <trkpt lat="47.62219" lon="-2.85523">
        <ele>-13.6</ele>
        <time>2021-11-12T14:26:42Z</time>
      </trkpt>
      <trkpt lat="47.62227" lon="-2.8554">
        <ele>-14.2</ele>
        <time>2021-11-12T14:26:49Z</time>
      </trkpt>
      <trkpt lat="47.6223" lon="-2.85548">
        <ele>-14.4</ele>
        <time>2021-11-12T14:26:52Z</time>
      </trkpt>
      <trkpt lat="47.62234" lon="-2.85557">
        <ele>-14.6</ele>
        <time>2021-11-12T14:26:55Z</time>
      </trkpt>
      <trkpt lat="47.62239" lon="-2.8557">
        <ele>-14.8</ele>
        <time>2021-11-12T14:27:00Z</time>
      </trkpt>
      <trkpt lat="47.62237" lon="-2.85575">
        <ele>-14.8</ele>
        <time>2021-11-12T14:27:02Z</time>
      </trkpt>
      <trkpt lat="47.6223" lon="-2.85587">
        <ele>-14.2</ele>
        <time>2021-11-12T14:27:07Z</time>
      </trkpt>
      <trkpt lat="47.62231" lon="-2.85589">
        <ele>-14.2</ele>
        <time>2021-11-12T14:27:08Z</time>
      </trkpt>
      <trkpt lat="47.62231" lon="-2.85591">
        <ele>-14</ele>
        <time>2021-11-12T14:27:11Z</time>
      </trkpt>
      <trkpt lat="47.62231" lon="-2.85591">
        <ele>-13.8</ele>
        <time>2021-11-12T14:27:13Z</time>
      </trkpt>
      <trkpt lat="47.62229" lon="-2.85591">
        <ele>-13.4</ele>
        <time>2021-11-12T14:27:22Z</time>
      </trkpt>
      <trkpt lat="47.62229" lon="-2.8559">
        <ele>-13.4</ele>
        <time>2021-11-12T14:27:23Z</time>
      </trkpt>
      <trkpt lat="47.62228" lon="-2.85589">
        <ele>-13.2</ele>
        <time>2021-11-12T14:27:24Z</time>
      </trkpt>
      <trkpt lat="47.62228" lon="-2.85586">
        <ele>-13.2</ele>
        <time>2021-11-12T14:27:26Z</time>
      </trkpt>
      <trkpt lat="47.62231" lon="-2.85582">
        <ele>-13</ele>
        <time>2021-11-12T14:27:29Z</time>
      </trkpt>
      <trkpt lat="47.62236" lon="-2.85578">
        <ele>-13</ele>
        <time>2021-11-12T14:27:32Z</time>
      </trkpt>
      <trkpt lat="47.62238" lon="-2.85575">
        <ele>-13</ele>
        <time>2021-11-12T14:27:34Z</time>
      </trkpt>
      <trkpt lat="47.6225" lon="-2.85567">
        <ele>-13</ele>
        <time>2021-11-12T14:27:40Z</time>
      </trkpt>
      <trkpt lat="47.62269" lon="-2.85558">
        <ele>-13</ele>
        <time>2021-11-12T14:27:48Z</time>
      </trkpt>
      <trkpt lat="47.62295" lon="-2.85546">
        <ele>-13.2</ele>
        <time>2021-11-12T14:27:58Z</time>
      </trkpt>
      <trkpt lat="47.62315" lon="-2.85536">
        <ele>-13.6</ele>
        <time>2021-11-12T14:28:05Z</time>
      </trkpt>
      <trkpt lat="47.62336" lon="-2.85523">
        <ele>-14.2</ele>
        <time>2021-11-12T14:28:12Z</time>
      </trkpt>
      <trkpt lat="47.62348" lon="-2.85517">
        <ele>-14.4</ele>
        <time>2021-11-12T14:28:16Z</time>
      </trkpt>
      <trkpt lat="47.62354" lon="-2.85513">
        <ele>-14.4</ele>
        <time>2021-11-12T14:28:18Z</time>
      </trkpt>
      <trkpt lat="47.62375" lon="-2.85505">
        <ele>-14.2</ele>
        <time>2021-11-12T14:28:26Z</time>
      </trkpt>
      <trkpt lat="47.62377" lon="-2.85505">
        <ele>-14.2</ele>
        <time>2021-11-12T14:28:27Z</time>
      </trkpt>
      <trkpt lat="47.62379" lon="-2.8551">
        <ele>-14.2</ele>
        <time>2021-11-12T14:28:29Z</time>
      </trkpt>
      <trkpt lat="47.62381" lon="-2.85536">
        <ele>-14</ele>
        <time>2021-11-12T14:28:35Z</time>
      </trkpt>
      <trkpt lat="47.62384" lon="-2.85573">
        <ele>-13.4</ele>
        <time>2021-11-12T14:28:43Z</time>
      </trkpt>
      <trkpt lat="47.62385" lon="-2.85577">
        <ele>-13</ele>
        <time>2021-11-12T14:28:44Z</time>
      </trkpt>
      <trkpt lat="47.62386" lon="-2.85608">
        <ele>-12</ele>
        <time>2021-11-12T14:28:51Z</time>
      </trkpt>
      <trkpt lat="47.62387" lon="-2.85622">
        <ele>-11.4</ele>
        <time>2021-11-12T14:28:54Z</time>
      </trkpt>
      <trkpt lat="47.62389" lon="-2.85656">
        <ele>-11</ele>
        <time>2021-11-12T14:29:00Z</time>
      </trkpt>
      <trkpt lat="47.6239" lon="-2.85662">
        <ele>-10.8</ele>
        <time>2021-11-12T14:29:01Z</time>
      </trkpt>
      <trkpt lat="47.62393" lon="-2.85717">
        <ele>-9.6</ele>
        <time>2021-11-12T14:29:10Z</time>
      </trkpt>
      <trkpt lat="47.62394" lon="-2.85723">
        <ele>-9.6</ele>
        <time>2021-11-12T14:29:11Z</time>
      </trkpt>
      <trkpt lat="47.62399" lon="-2.85766">
        <ele>-8.8</ele>
        <time>2021-11-12T14:29:19Z</time>
      </trkpt>
      <trkpt lat="47.624" lon="-2.85776">
        <ele>-8.6</ele>
        <time>2021-11-12T14:29:21Z</time>
      </trkpt>
      <trkpt lat="47.62402" lon="-2.85788">
        <ele>-8.4</ele>
        <time>2021-11-12T14:29:24Z</time>
      </trkpt>
      <trkpt lat="47.62403" lon="-2.85794">
        <ele>-8.2</ele>
        <time>2021-11-12T14:29:27Z</time>
      </trkpt>
      <trkpt lat="47.62401" lon="-2.85795">
        <ele>-8</ele>
        <time>2021-11-12T14:29:29Z</time>
      </trkpt>
      <trkpt lat="47.624" lon="-2.85794">
        <ele>-8</ele>
        <time>2021-11-12T14:29:30Z</time>
      </trkpt>
      <trkpt lat="47.62397" lon="-2.85783">
        <ele>-7.8</ele>
        <time>2021-11-12T14:29:34Z</time>
      </trkpt>
      <trkpt lat="47.62396" lon="-2.8578">
        <ele>-7.8</ele>
        <time>2021-11-12T14:29:35Z</time>
      </trkpt>
      <trkpt lat="47.6239" lon="-2.85783">
        <ele>-7.8</ele>
        <time>2021-11-12T14:29:38Z</time>
      </trkpt>
      <trkpt lat="47.62388" lon="-2.85789">
        <ele>-7.8</ele>
        <time>2021-11-12T14:29:40Z</time>
      </trkpt>
      <trkpt lat="47.62387" lon="-2.85802">
        <ele>-7.6</ele>
        <time>2021-11-12T14:29:43Z</time>
      </trkpt>
      <trkpt lat="47.62386" lon="-2.8582">
        <ele>-7.2</ele>
        <time>2021-11-12T14:29:48Z</time>
      </trkpt>
      <trkpt lat="47.62385" lon="-2.8582">
        <ele>-7.2</ele>
        <time>2021-11-12T14:29:49Z</time>
      </trkpt>
      <trkpt lat="47.62384" lon="-2.85824">
        <ele>-7</ele>
        <time>2021-11-12T14:29:54Z</time>
      </trkpt>
      <trkpt lat="47.62384" lon="-2.85826">
        <ele>-7</ele>
        <time>2021-11-12T14:29:55Z</time>
      </trkpt>
      <trkpt lat="47.62381" lon="-2.85843">
        <ele>-6.8</ele>
        <time>2021-11-12T14:30:00Z</time>
      </trkpt>
      <trkpt lat="47.62382" lon="-2.85857">
        <ele>-6.6</ele>
        <time>2021-11-12T14:30:04Z</time>
      </trkpt>
      <trkpt lat="47.62382" lon="-2.8586">
        <ele>-6.6</ele>
        <time>2021-11-12T14:30:05Z</time>
      </trkpt>
      <trkpt lat="47.62382" lon="-2.85863">
        <ele>-6.6</ele>
        <time>2021-11-12T14:30:06Z</time>
      </trkpt>
      <trkpt lat="47.62384" lon="-2.85885">
        <ele>-6.2</ele>
        <time>2021-11-12T14:30:12Z</time>
      </trkpt>
      <trkpt lat="47.62386" lon="-2.8591">
        <ele>-6</ele>
        <time>2021-11-12T14:30:18Z</time>
      </trkpt>
      <trkpt lat="47.62387" lon="-2.85922">
        <ele>-5.8</ele>
        <time>2021-11-12T14:30:24Z</time>
      </trkpt>
      <trkpt lat="47.62387" lon="-2.85925">
        <ele>-5.8</ele>
        <time>2021-11-12T14:30:30Z</time>
      </trkpt>
      <trkpt lat="47.62388" lon="-2.85927">
        <ele>-5.8</ele>
        <time>2021-11-12T14:30:31Z</time>
      </trkpt>
      <trkpt lat="47.62389" lon="-2.85934">
        <ele>-5.8</ele>
        <time>2021-11-12T14:30:34Z</time>
      </trkpt>
      <trkpt lat="47.62387" lon="-2.85939">
        <ele>-5.8</ele>
        <time>2021-11-12T14:30:36Z</time>
      </trkpt>
      <trkpt lat="47.62373" lon="-2.8595">
        <ele>-5.6</ele>
        <time>2021-11-12T14:30:43Z</time>
      </trkpt>
      <trkpt lat="47.62363" lon="-2.85945">
        <ele>-5.4</ele>
        <time>2021-11-12T14:30:48Z</time>
      </trkpt>
      <trkpt lat="47.6235" lon="-2.85929">
        <ele>-5.2</ele>
        <time>2021-11-12T14:30:55Z</time>
      </trkpt>
      <trkpt lat="47.62337" lon="-2.8592">
        <ele>-5.2</ele>
        <time>2021-11-12T14:31:00Z</time>
      </trkpt>
      <trkpt lat="47.62323" lon="-2.8592">
        <ele>-5.2</ele>
        <time>2021-11-12T14:31:05Z</time>
      </trkpt>
      <trkpt lat="47.62318" lon="-2.85924">
        <ele>-5.2</ele>
        <time>2021-11-12T14:31:09Z</time>
      </trkpt>
      <trkpt lat="47.62318" lon="-2.85924">
        <ele>-5.4</ele>
        <time>2021-11-12T14:31:15Z</time>
      </trkpt>
      <trkpt lat="47.62318" lon="-2.85924">
        <ele>-6.4</ele>
        <time>2021-11-12T14:31:38Z</time>
      </trkpt>
      <trkpt lat="47.62318" lon="-2.85924">
        <ele>-7.4</ele>
        <time>2021-11-12T14:32:04Z</time>
      </trkpt>
      <trkpt lat="47.62318" lon="-2.85924">
        <ele>-8.4</ele>
        <time>2021-11-12T14:32:30Z</time>
      </trkpt>
      <trkpt lat="47.62318" lon="-2.85924">
        <ele>-9.2</ele>
        <time>2021-11-12T14:34:33Z</time>
      </trkpt>
      <trkpt lat="47.62318" lon="-2.85924">
        <ele>-10.2</ele>
        <time>2021-11-12T14:34:59Z</time>
      </trkpt>
      <trkpt lat="47.62319" lon="-2.85924">
        <ele>-11.2</ele>
        <time>2021-11-12T14:35:48Z</time>
      </trkpt>
      <trkpt lat="47.6232" lon="-2.85923">
        <ele>-11.2</ele>
        <time>2021-11-12T14:35:49Z</time>
      </trkpt>
      <trkpt lat="47.62322" lon="-2.85921">
        <ele>-11.4</ele>
        <time>2021-11-12T14:35:51Z</time>
      </trkpt>
      <trkpt lat="47.62329" lon="-2.85919">
        <ele>-11.6</ele>
        <time>2021-11-12T14:35:56Z</time>
      </trkpt>
      <trkpt lat="47.62337" lon="-2.85922">
        <ele>-12.2</ele>
        <time>2021-11-12T14:36:00Z</time>
      </trkpt>
      <trkpt lat="47.62345" lon="-2.85926">
        <ele>-12.4</ele>
        <time>2021-11-12T14:36:04Z</time>
      </trkpt>
      <trkpt lat="47.62355" lon="-2.85936">
        <ele>-12.2</ele>
        <time>2021-11-12T14:36:11Z</time>
      </trkpt>
      <trkpt lat="47.62365" lon="-2.85947">
        <ele>-11.8</ele>
        <time>2021-11-12T14:36:17Z</time>
      </trkpt>
      <trkpt lat="47.62373" lon="-2.85956">
        <ele>-11.4</ele>
        <time>2021-11-12T14:36:22Z</time>
      </trkpt>
      <trkpt lat="47.62382" lon="-2.85974">
        <ele>-11.2</ele>
        <time>2021-11-12T14:36:28Z</time>
      </trkpt>
      <trkpt lat="47.62383" lon="-2.85977">
        <ele>-11</ele>
        <time>2021-11-12T14:36:29Z</time>
      </trkpt>
      <trkpt lat="47.62392" lon="-2.85993">
        <ele>-10.8</ele>
        <time>2021-11-12T14:36:36Z</time>
      </trkpt>
      <trkpt lat="47.62399" lon="-2.86006">
        <ele>-10.8</ele>
        <time>2021-11-12T14:36:41Z</time>
      </trkpt>
      <trkpt lat="47.62397" lon="-2.86026">
        <ele>-10.4</ele>
        <time>2021-11-12T14:36:47Z</time>
      </trkpt>
      <trkpt lat="47.62396" lon="-2.86044">
        <ele>-10</ele>
        <time>2021-11-12T14:36:52Z</time>
      </trkpt>
      <trkpt lat="47.62396" lon="-2.86048">
        <ele>-10</ele>
        <time>2021-11-12T14:36:53Z</time>
      </trkpt>
      <trkpt lat="47.62396" lon="-2.86079">
        <ele>-9.6</ele>
        <time>2021-11-12T14:37:01Z</time>
      </trkpt>
      <trkpt lat="47.62397" lon="-2.86095">
        <ele>-9</ele>
        <time>2021-11-12T14:37:06Z</time>
      </trkpt>
      <trkpt lat="47.62398" lon="-2.86099">
        <ele>-9</ele>
        <time>2021-11-12T14:37:08Z</time>
      </trkpt>
      <trkpt lat="47.62398" lon="-2.86101">
        <ele>-8.6</ele>
        <time>2021-11-12T14:37:13Z</time>
      </trkpt>
      <trkpt lat="47.62398" lon="-2.86101">
        <ele>-8.2</ele>
        <time>2021-11-12T14:37:26Z</time>
      </trkpt>
      <trkpt lat="47.62398" lon="-2.86106">
        <ele>-8.2</ele>
        <time>2021-11-12T14:37:28Z</time>
      </trkpt>
      <trkpt lat="47.62396" lon="-2.86115">
        <ele>-8</ele>
        <time>2021-11-12T14:37:31Z</time>
      </trkpt>
      <trkpt lat="47.62392" lon="-2.86125">
        <ele>-8</ele>
        <time>2021-11-12T14:37:34Z</time>
      </trkpt>
      <trkpt lat="47.62382" lon="-2.86147">
        <ele>-7.8</ele>
        <time>2021-11-12T14:37:40Z</time>
      </trkpt>
      <trkpt lat="47.6237" lon="-2.86173">
        <ele>-7.6</ele>
        <time>2021-11-12T14:37:46Z</time>
      </trkpt>
      <trkpt lat="47.62358" lon="-2.86199">
        <ele>-7.2</ele>
        <time>2021-11-12T14:37:51Z</time>
      </trkpt>
      <trkpt lat="47.62355" lon="-2.86205">
        <ele>-7.2</ele>
        <time>2021-11-12T14:37:52Z</time>
      </trkpt>
      <trkpt lat="47.62351" lon="-2.86218">
        <ele>-7.2</ele>
        <time>2021-11-12T14:37:54Z</time>
      </trkpt>
      <trkpt lat="47.62345" lon="-2.86229">
        <ele>-7</ele>
        <time>2021-11-12T14:37:56Z</time>
      </trkpt>
      <trkpt lat="47.62339" lon="-2.8624">
        <ele>-7</ele>
        <time>2021-11-12T14:37:58Z</time>
      </trkpt>
      <trkpt lat="47.6233" lon="-2.86263">
        <ele>-7</ele>
        <time>2021-11-12T14:38:02Z</time>
      </trkpt>
      <trkpt lat="47.62328" lon="-2.8627">
        <ele>-7</ele>
        <time>2021-11-12T14:38:03Z</time>
      </trkpt>
      <trkpt lat="47.62326" lon="-2.86276">
        <ele>-6.8</ele>
        <time>2021-11-12T14:38:04Z</time>
      </trkpt>
      <trkpt lat="47.62319" lon="-2.86303">
        <ele>-6.8</ele>
        <time>2021-11-12T14:38:08Z</time>
      </trkpt>
      <trkpt lat="47.6231" lon="-2.86331">
        <ele>-6.6</ele>
        <time>2021-11-12T14:38:12Z</time>
      </trkpt>
      <trkpt lat="47.62303" lon="-2.86348">
        <ele>-6.4</ele>
        <time>2021-11-12T14:38:15Z</time>
      </trkpt>
      <trkpt lat="47.62304" lon="-2.86371">
        <ele>-1</ele>
        <time>2021-11-12T14:43:07Z</time>
      </trkpt>
      <trkpt lat="47.62299" lon="-2.86384">
        <ele>-1</ele>
        <time>2021-11-12T14:43:10Z</time>
      </trkpt>
      <trkpt lat="47.62287" lon="-2.8643">
        <ele>-0.8</ele>
        <time>2021-11-12T14:43:19Z</time>
      </trkpt>
      <trkpt lat="47.62277" lon="-2.86464">
        <ele>-0.8</ele>
        <time>2021-11-12T14:43:26Z</time>
      </trkpt>
      <trkpt lat="47.62266" lon="-2.865">
        <ele>-0.6</ele>
        <time>2021-11-12T14:43:33Z</time>
      </trkpt>
      <trkpt lat="47.6225" lon="-2.86554">
        <ele>-0.4</ele>
        <time>2021-11-12T14:43:43Z</time>
      </trkpt>
      <trkpt lat="47.62243" lon="-2.86582">
        <ele>-0.4</ele>
        <time>2021-11-12T14:43:48Z</time>
      </trkpt>
      <trkpt lat="47.62231" lon="-2.86628">
        <ele>-0.2</ele>
        <time>2021-11-12T14:43:56Z</time>
      </trkpt>
      <trkpt lat="47.6222" lon="-2.86668">
        <ele>-0.4</ele>
        <time>2021-11-12T14:44:02Z</time>
      </trkpt>
      <trkpt lat="47.62218" lon="-2.86675">
        <ele>-0.4</ele>
        <time>2021-11-12T14:44:03Z</time>
      </trkpt>
      <trkpt lat="47.62209" lon="-2.86707">
        <ele>10.6</ele>
        <time>2021-11-12T14:44:07Z</time>
      </trkpt>
      <trkpt lat="47.62199" lon="-2.86739">
        <ele>-0.2</ele>
        <time>2021-11-12T14:44:11Z</time>
      </trkpt>
      <trkpt lat="47.62195" lon="-2.86757">
        <ele>-0.2</ele>
        <time>2021-11-12T14:44:13Z</time>
      </trkpt>
      <trkpt lat="47.62191" lon="-2.86774">
        <ele>-0.2</ele>
        <time>2021-11-12T14:44:15Z</time>
      </trkpt>
      <trkpt lat="47.62186" lon="-2.86792">
        <ele>-0.2</ele>
        <time>2021-11-12T14:44:17Z</time>
      </trkpt>
      <trkpt lat="47.62183" lon="-2.868">
        <ele>-0.4</ele>
        <time>2021-11-12T14:44:18Z</time>
      </trkpt>
      <trkpt lat="47.6217" lon="-2.86846">
        <ele>-1</ele>
        <time>2021-11-12T14:44:24Z</time>
      </trkpt>
      <trkpt lat="47.62161" lon="-2.86877">
        <ele>-1.4</ele>
        <time>2021-11-12T14:44:29Z</time>
      </trkpt>
      <trkpt lat="47.62159" lon="-2.86884">
        <ele>-1.8</ele>
        <time>2021-11-12T14:44:31Z</time>
      </trkpt>
      <trkpt lat="47.62157" lon="-2.86893">
        <ele>-2.2</ele>
        <time>2021-11-12T14:44:35Z</time>
      </trkpt>
      <trkpt lat="47.62156" lon="-2.86892">
        <ele>-2.8</ele>
        <time>2021-11-12T14:44:40Z</time>
      </trkpt>
      <trkpt lat="47.62156" lon="-2.86888">
        <ele>-3</ele>
        <time>2021-11-12T14:44:42Z</time>
      </trkpt>
      <trkpt lat="47.62158" lon="-2.86879">
        <ele>-3.2</ele>
        <time>2021-11-12T14:44:45Z</time>
      </trkpt>
      <trkpt lat="47.62159" lon="-2.86873">
        <ele>-3.6</ele>
        <time>2021-11-12T14:44:47Z</time>
      </trkpt>
      <trkpt lat="47.62157" lon="-2.86871">
        <ele>-3.8</ele>
        <time>2021-11-12T14:44:49Z</time>
      </trkpt>
      <trkpt lat="47.62155" lon="-2.86871">
        <ele>-4</ele>
        <time>2021-11-12T14:44:50Z</time>
      </trkpt>
      <trkpt lat="47.62148" lon="-2.86868">
        <ele>-4.4</ele>
        <time>2021-11-12T14:44:53Z</time>
      </trkpt>
      <trkpt lat="47.62146" lon="-2.86868">
        <ele>-4.4</ele>
        <time>2021-11-12T14:44:54Z</time>
      </trkpt>
      <trkpt lat="47.62133" lon="-2.86873">
        <ele>-5.2</ele>
        <time>2021-11-12T14:44:59Z</time>
      </trkpt>
      <trkpt lat="47.62113" lon="-2.86888">
        <ele>-6</ele>
        <time>2021-11-12T14:45:05Z</time>
      </trkpt>
      <trkpt lat="47.62105" lon="-2.86896">
        <ele>-6.2</ele>
        <time>2021-11-12T14:45:08Z</time>
      </trkpt>
      <trkpt lat="47.62095" lon="-2.86905">
        <ele>-6.4</ele>
        <time>2021-11-12T14:45:12Z</time>
      </trkpt>
      <trkpt lat="47.62092" lon="-2.86913">
        <ele>-6.6</ele>
        <time>2021-11-12T14:45:15Z</time>
      </trkpt>
      <trkpt lat="47.62091" lon="-2.86918">
        <ele>-7</ele>
        <time>2021-11-12T14:45:17Z</time>
      </trkpt>
      <trkpt lat="47.62091" lon="-2.86921">
        <ele>-7.2</ele>
        <time>2021-11-12T14:45:18Z</time>
      </trkpt>
      <trkpt lat="47.6209" lon="-2.86923">
        <ele>-7.4</ele>
        <time>2021-11-12T14:45:19Z</time>
      </trkpt>
      <trkpt lat="47.62089" lon="-2.86924">
        <ele>-7.6</ele>
        <time>2021-11-12T14:45:21Z</time>
      </trkpt>
      <trkpt lat="47.62088" lon="-2.86927">
        <ele>-8</ele>
        <time>2021-11-12T14:45:23Z</time>
      </trkpt>
      <trkpt lat="47.62089" lon="-2.86939">
        <ele>-8.2</ele>
        <time>2021-11-12T14:45:26Z</time>
      </trkpt>
      <trkpt lat="47.62089" lon="-2.86943">
        <ele>-8.2</ele>
        <time>2021-11-12T14:45:27Z</time>
      </trkpt>
      <trkpt lat="47.6209" lon="-2.86959">
        <ele>-8.6</ele>
        <time>2021-11-12T14:45:31Z</time>
      </trkpt>
      <trkpt lat="47.6209" lon="-2.86986">
        <ele>-9.2</ele>
        <time>2021-11-12T14:45:38Z</time>
      </trkpt>
      <trkpt lat="47.62087" lon="-2.87014">
        <ele>-10</ele>
        <time>2021-11-12T14:45:45Z</time>
      </trkpt>
      <trkpt lat="47.62084" lon="-2.87027">
        <ele>-10.2</ele>
        <time>2021-11-12T14:45:48Z</time>
      </trkpt>
      <trkpt lat="47.6208" lon="-2.87032">
        <ele>-10.2</ele>
        <time>2021-11-12T14:45:50Z</time>
      </trkpt>
      <trkpt lat="47.62063" lon="-2.87044">
        <ele>-10</ele>
        <time>2021-11-12T14:45:57Z</time>
      </trkpt>
      <trkpt lat="47.62055" lon="-2.87053">
        <ele>-10</ele>
        <time>2021-11-12T14:46:02Z</time>
      </trkpt>
      <trkpt lat="47.62045" lon="-2.8706">
        <ele>-9.4</ele>
        <time>2021-11-12T14:46:08Z</time>
      </trkpt>
      <trkpt lat="47.62029" lon="-2.87054">
        <ele>-9.2</ele>
        <time>2021-11-12T14:46:14Z</time>
      </trkpt>
      <trkpt lat="47.62013" lon="-2.87054">
        <ele>-9.4</ele>
        <time>2021-11-12T14:46:20Z</time>
      </trkpt>
      <trkpt lat="47.62002" lon="-2.87054">
        <ele>-9.6</ele>
        <time>2021-11-12T14:46:25Z</time>
      </trkpt>
      <trkpt lat="47.61985" lon="-2.87052">
        <ele>-9.6</ele>
        <time>2021-11-12T14:46:31Z</time>
      </trkpt>
      <trkpt lat="47.61964" lon="-2.87049">
        <ele>-10</ele>
        <time>2021-11-12T14:46:37Z</time>
      </trkpt>
      <trkpt lat="47.61949" lon="-2.87045">
        <ele>-10.2</ele>
        <time>2021-11-12T14:46:42Z</time>
      </trkpt>
      <trkpt lat="47.6194" lon="-2.87043">
        <ele>-10.2</ele>
        <time>2021-11-12T14:46:45Z</time>
      </trkpt>
      <trkpt lat="47.61924" lon="-2.87036">
        <ele>-10.2</ele>
        <time>2021-11-12T14:46:51Z</time>
      </trkpt>
      <trkpt lat="47.61917" lon="-2.8703">
        <ele>-10.2</ele>
        <time>2021-11-12T14:46:55Z</time>
      </trkpt>
      <trkpt lat="47.619" lon="-2.87023">
        <ele>-10.2</ele>
        <time>2021-11-12T14:47:02Z</time>
      </trkpt>
      <trkpt lat="47.61894" lon="-2.8702">
        <ele>-10.2</ele>
        <time>2021-11-12T14:47:05Z</time>
      </trkpt>
      <trkpt lat="47.6189" lon="-2.87016">
        <ele>-10.2</ele>
        <time>2021-11-12T14:47:07Z</time>
      </trkpt>
      <trkpt lat="47.61887" lon="-2.87014">
        <ele>-10.2</ele>
        <time>2021-11-12T14:47:08Z</time>
      </trkpt>
      <trkpt lat="47.61879" lon="-2.87007">
        <ele>-9.8</ele>
        <time>2021-11-12T14:47:11Z</time>
      </trkpt>
      <trkpt lat="47.61862" lon="-2.86984">
        <ele>-9</ele>
        <time>2021-11-12T14:47:17Z</time>
      </trkpt>
      <trkpt lat="47.61853" lon="-2.86966">
        <ele>-8.6</ele>
        <time>2021-11-12T14:47:22Z</time>
      </trkpt>
      <trkpt lat="47.6184" lon="-2.86936">
        <ele>-8.2</ele>
        <time>2021-11-12T14:47:28Z</time>
      </trkpt>
      <trkpt lat="47.61839" lon="-2.86931">
        <ele>-8</ele>
        <time>2021-11-12T14:47:29Z</time>
      </trkpt>
      <trkpt lat="47.61827" lon="-2.869">
        <ele>-7</ele>
        <time>2021-11-12T14:47:36Z</time>
      </trkpt>
      <trkpt lat="47.61822" lon="-2.86883">
        <ele>-6.6</ele>
        <time>2021-11-12T14:47:41Z</time>
      </trkpt>
      <trkpt lat="47.61816" lon="-2.86868">
        <ele>-6</ele>
        <time>2021-11-12T14:47:45Z</time>
      </trkpt>
      <trkpt lat="47.61814" lon="-2.86864">
        <ele>-5.8</ele>
        <time>2021-11-12T14:47:47Z</time>
      </trkpt>
      <trkpt lat="47.61805" lon="-2.86845">
        <ele>-5.4</ele>
        <time>2021-11-12T14:47:53Z</time>
      </trkpt>
      <trkpt lat="47.61791" lon="-2.86832">
        <ele>-5.2</ele>
        <time>2021-11-12T14:47:59Z</time>
      </trkpt>
      <trkpt lat="47.61779" lon="-2.86823">
        <ele>-5.2</ele>
        <time>2021-11-12T14:48:04Z</time>
      </trkpt>
      <trkpt lat="47.61772" lon="-2.86821">
        <ele>-5</ele>
        <time>2021-11-12T14:48:07Z</time>
      </trkpt>
      <trkpt lat="47.61759" lon="-2.86817">
        <ele>-4.8</ele>
        <time>2021-11-12T14:48:12Z</time>
      </trkpt>
      <trkpt lat="47.61733" lon="-2.86821">
        <ele>-5</ele>
        <time>2021-11-12T14:48:20Z</time>
      </trkpt>
      <trkpt lat="47.6172" lon="-2.86825">
        <ele>-5</ele>
        <time>2021-11-12T14:48:25Z</time>
      </trkpt>
      <trkpt lat="47.61704" lon="-2.86827">
        <ele>-4.6</ele>
        <time>2021-11-12T14:48:31Z</time>
      </trkpt>
      <trkpt lat="47.61688" lon="-2.86817">
        <ele>-4.8</ele>
        <time>2021-11-12T14:48:36Z</time>
      </trkpt>
      <trkpt lat="47.61673" lon="-2.86782">
        <ele>-4.8</ele>
        <time>2021-11-12T14:48:43Z</time>
      </trkpt>
      <trkpt lat="47.6166" lon="-2.86747">
        <ele>-5</ele>
        <time>2021-11-12T14:48:51Z</time>
      </trkpt>
      <trkpt lat="47.6165" lon="-2.86716">
        <ele>-5</ele>
        <time>2021-11-12T14:48:58Z</time>
      </trkpt>
      <trkpt lat="47.6164" lon="-2.8668">
        <ele>-4.6</ele>
        <time>2021-11-12T14:49:06Z</time>
      </trkpt>
      <trkpt lat="47.61637" lon="-2.86654">
        <ele>-4.2</ele>
        <time>2021-11-12T14:49:12Z</time>
      </trkpt>
      <trkpt lat="47.61641" lon="-2.86639">
        <ele>-4</ele>
        <time>2021-11-12T14:49:17Z</time>
      </trkpt>
      <trkpt lat="47.61641" lon="-2.86639">
        <ele>-4</ele>
        <time>2021-11-12T14:49:21Z</time>
      </trkpt>
      <trkpt lat="47.61636" lon="-2.86634">
        <ele>-4.6</ele>
        <time>2021-11-12T14:49:27Z</time>
      </trkpt>
      <trkpt lat="47.61632" lon="-2.86617">
        <ele>-5.6</ele>
        <time>2021-11-12T14:49:32Z</time>
      </trkpt>
      <trkpt lat="47.61631" lon="-2.86609">
        <ele>-6</ele>
        <time>2021-11-12T14:49:34Z</time>
      </trkpt>
      <trkpt lat="47.61627" lon="-2.86595">
        <ele>-6.6</ele>
        <time>2021-11-12T14:49:38Z</time>
      </trkpt>
      <trkpt lat="47.61623" lon="-2.86584">
        <ele>-7</ele>
        <time>2021-11-12T14:49:42Z</time>
      </trkpt>
      <trkpt lat="47.6162" lon="-2.86575">
        <ele>-7</ele>
        <time>2021-11-12T14:49:45Z</time>
      </trkpt>
      <trkpt lat="47.61611" lon="-2.86558">
        <ele>-7.4</ele>
        <time>2021-11-12T14:49:52Z</time>
      </trkpt>
      <trkpt lat="47.61601" lon="-2.86542">
        <ele>-7.4</ele>
        <time>2021-11-12T14:49:58Z</time>
      </trkpt>
      <trkpt lat="47.616" lon="-2.86539">
        <ele>-7.4</ele>
        <time>2021-11-12T14:49:59Z</time>
      </trkpt>
      <trkpt lat="47.61603" lon="-2.86521">
        <ele>-7.4</ele>
        <time>2021-11-12T14:50:04Z</time>
      </trkpt>
      <trkpt lat="47.61614" lon="-2.86507">
        <ele>-7.4</ele>
        <time>2021-11-12T14:50:08Z</time>
      </trkpt>
      <trkpt lat="47.61617" lon="-2.86503">
        <ele>-7.4</ele>
        <time>2021-11-12T14:50:09Z</time>
      </trkpt>
      <trkpt lat="47.61624" lon="-2.86493">
        <ele>-7.4</ele>
        <time>2021-11-12T14:50:11Z</time>
      </trkpt>
      <trkpt lat="47.61627" lon="-2.86488">
        <ele>-7.4</ele>
        <time>2021-11-12T14:50:12Z</time>
      </trkpt>
      <trkpt lat="47.61646" lon="-2.86461">
        <ele>-7.2</ele>
        <time>2021-11-12T14:50:17Z</time>
      </trkpt>
      <trkpt lat="47.61649" lon="-2.86455">
        <ele>-7.2</ele>
        <time>2021-11-12T14:50:18Z</time>
      </trkpt>
      <trkpt lat="47.61671" lon="-2.86413">
        <ele>-7.2</ele>
        <time>2021-11-12T14:50:25Z</time>
      </trkpt>
      <trkpt lat="47.61699" lon="-2.8636">
        <ele>-6.8</ele>
        <time>2021-11-12T14:50:35Z</time>
      </trkpt>
      <trkpt lat="47.6173" lon="-2.8631">
        <ele>-6.2</ele>
        <time>2021-11-12T14:50:44Z</time>
      </trkpt>
      <trkpt lat="47.61737" lon="-2.86298">
        <ele>-6</ele>
        <time>2021-11-12T14:50:46Z</time>
      </trkpt>
      <trkpt lat="47.61742" lon="-2.86285">
        <ele>-6</ele>
        <time>2021-11-12T14:50:48Z</time>
      </trkpt>
      <trkpt lat="47.61744" lon="-2.8628">
        <ele>-6</ele>
        <time>2021-11-12T14:50:49Z</time>
      </trkpt>
      <trkpt lat="47.61745" lon="-2.86273">
        <ele>-6</ele>
        <time>2021-11-12T14:50:50Z</time>
      </trkpt>
      <trkpt lat="47.61748" lon="-2.86247">
        <ele>-5.8</ele>
        <time>2021-11-12T14:50:54Z</time>
      </trkpt>
      <trkpt lat="47.61752" lon="-2.86204">
        <ele>-5.4</ele>
        <time>2021-11-12T14:51:01Z</time>
      </trkpt>
      <trkpt lat="47.61753" lon="-2.86165">
        <ele>-4.8</ele>
        <time>2021-11-12T14:51:07Z</time>
      </trkpt>
      <trkpt lat="47.61754" lon="-2.86154">
        <ele>-4.6</ele>
        <time>2021-11-12T14:51:09Z</time>
      </trkpt>
      <trkpt lat="47.61751" lon="-2.86104">
        <ele>-3.8</ele>
        <time>2021-11-12T14:51:16Z</time>
      </trkpt>
      <trkpt lat="47.61745" lon="-2.86071">
        <ele>-3.6</ele>
        <time>2021-11-12T14:51:22Z</time>
      </trkpt>
      <trkpt lat="47.6174" lon="-2.86047">
        <ele>-3.6</ele>
        <time>2021-11-12T14:51:27Z</time>
      </trkpt>
      <trkpt lat="47.61734" lon="-2.86029">
        <ele>-3.6</ele>
        <time>2021-11-12T14:51:31Z</time>
      </trkpt>
      <trkpt lat="47.61721" lon="-2.86">
        <ele>-3.6</ele>
        <time>2021-11-12T14:51:37Z</time>
      </trkpt>
      <trkpt lat="47.61707" lon="-2.85968">
        <ele>-3.6</ele>
        <time>2021-11-12T14:51:42Z</time>
      </trkpt>
      <trkpt lat="47.61687" lon="-2.85921">
        <ele>-3.8</ele>
        <time>2021-11-12T14:51:49Z</time>
      </trkpt>
      <trkpt lat="47.6167" lon="-2.85876">
        <ele>-4.2</ele>
        <time>2021-11-12T14:51:56Z</time>
      </trkpt>
      <trkpt lat="47.61661" lon="-2.85861">
        <ele>-4.6</ele>
        <time>2021-11-12T14:52:01Z</time>
      </trkpt>
      <trkpt lat="47.61656" lon="-2.85848">
        <ele>-4.6</ele>
        <time>2021-11-12T14:52:05Z</time>
      </trkpt>
      <trkpt lat="47.61662" lon="-2.85829">
        <ele>-4.8</ele>
        <time>2021-11-12T14:52:10Z</time>
      </trkpt>
      <trkpt lat="47.61667" lon="-2.85818">
        <ele>-5</ele>
        <time>2021-11-12T14:52:15Z</time>
      </trkpt>
      <trkpt lat="47.61668" lon="-2.85816">
        <ele>-5</ele>
        <time>2021-11-12T14:52:16Z</time>
      </trkpt>
      <trkpt lat="47.61668" lon="-2.8581">
        <ele>-5.4</ele>
        <time>2021-11-12T14:52:21Z</time>
      </trkpt>
      <trkpt lat="47.61668" lon="-2.8581">
        <ele>-6</ele>
        <time>2021-11-12T14:52:27Z</time>
      </trkpt>
      <trkpt lat="47.61668" lon="-2.8581">
        <ele>-6.8</ele>
        <time>2021-11-12T14:54:13Z</time>
      </trkpt>
      <trkpt lat="47.61668" lon="-2.85805">
        <ele>-7.6</ele>
        <time>2021-11-12T14:54:39Z</time>
      </trkpt>
      <trkpt lat="47.61669" lon="-2.85805">
        <ele>-7.6</ele>
        <time>2021-11-12T14:55:03Z</time>
      </trkpt>
      <trkpt lat="47.61671" lon="-2.85809">
        <ele>-7.8</ele>
        <time>2021-11-12T14:55:06Z</time>
      </trkpt>
      <trkpt lat="47.61671" lon="-2.8581">
        <ele>-7.8</ele>
        <time>2021-11-12T14:55:07Z</time>
      </trkpt>
      <trkpt lat="47.61668" lon="-2.85814">
        <ele>-8.4</ele>
        <time>2021-11-12T14:55:11Z</time>
      </trkpt>
      <trkpt lat="47.61667" lon="-2.85815">
        <ele>-8.6</ele>
        <time>2021-11-12T14:55:12Z</time>
      </trkpt>
      <trkpt lat="47.61663" lon="-2.85825">
        <ele>-9.8</ele>
        <time>2021-11-12T14:55:18Z</time>
      </trkpt>
      <trkpt lat="47.61662" lon="-2.85827">
        <ele>-10</ele>
        <time>2021-11-12T14:55:19Z</time>
      </trkpt>
      <trkpt lat="47.61657" lon="-2.85842">
        <ele>-10.8</ele>
        <time>2021-11-12T14:55:25Z</time>
      </trkpt>
      <trkpt lat="47.61656" lon="-2.85845">
        <ele>-11</ele>
        <time>2021-11-12T14:55:26Z</time>
      </trkpt>
      <trkpt lat="47.61649" lon="-2.85858">
        <ele>-11.2</ele>
        <time>2021-11-12T14:55:30Z</time>
      </trkpt>
      <trkpt lat="47.61637" lon="-2.85882">
        <ele>-11.8</ele>
        <time>2021-11-12T14:55:37Z</time>
      </trkpt>
      <trkpt lat="47.61634" lon="-2.85889">
        <ele>-12</ele>
        <time>2021-11-12T14:55:39Z</time>
      </trkpt>
      <trkpt lat="47.61622" lon="-2.85917">
        <ele>-12.2</ele>
        <time>2021-11-12T14:55:47Z</time>
      </trkpt>
      <trkpt lat="47.61609" lon="-2.85944">
        <ele>-12</ele>
        <time>2021-11-12T14:55:53Z</time>
      </trkpt>
      <trkpt lat="47.61596" lon="-2.85969">
        <ele>-11.8</ele>
        <time>2021-11-12T14:55:58Z</time>
      </trkpt>
      <trkpt lat="47.61578" lon="-2.86001">
        <ele>-11.6</ele>
        <time>2021-11-12T14:56:05Z</time>
      </trkpt>
      <trkpt lat="47.61561" lon="-2.86017">
        <ele>-11.4</ele>
        <time>2021-11-12T14:56:11Z</time>
      </trkpt>
      <trkpt lat="47.6154" lon="-2.8603">
        <ele>-11.2</ele>
        <time>2021-11-12T14:56:17Z</time>
      </trkpt>
      <trkpt lat="47.61516" lon="-2.86038">
        <ele>-11.4</ele>
        <time>2021-11-12T14:56:23Z</time>
      </trkpt>
      <trkpt lat="47.61513" lon="-2.86041">
        <ele>-11.4</ele>
        <time>2021-11-12T14:56:24Z</time>
      </trkpt>
      <trkpt lat="47.61506" lon="-2.86065">
        <ele>-11.4</ele>
        <time>2021-11-12T14:56:29Z</time>
      </trkpt>
      <trkpt lat="47.61502" lon="-2.86091">
        <ele>-11.2</ele>
        <time>2021-11-12T14:56:34Z</time>
      </trkpt>
      <trkpt lat="47.61496" lon="-2.86112">
        <ele>-10.8</ele>
        <time>2021-11-12T14:56:39Z</time>
      </trkpt>
      <trkpt lat="47.61494" lon="-2.86117">
        <ele>-10.8</ele>
        <time>2021-11-12T14:56:40Z</time>
      </trkpt>
      <trkpt lat="47.61481" lon="-2.86145">
        <ele>-10.4</ele>
        <time>2021-11-12T14:56:47Z</time>
      </trkpt>
      <trkpt lat="47.61471" lon="-2.86169">
        <ele>-10.4</ele>
        <time>2021-11-12T14:56:53Z</time>
      </trkpt>
      <trkpt lat="47.61461" lon="-2.86193">
        <ele>-10.6</ele>
        <time>2021-11-12T14:57:00Z</time>
      </trkpt>
      <trkpt lat="47.61457" lon="-2.86192">
        <ele>-10.6</ele>
        <time>2021-11-12T14:57:02Z</time>
      </trkpt>
      <trkpt lat="47.61455" lon="-2.86189">
        <ele>-10.6</ele>
        <time>2021-11-12T14:57:03Z</time>
      </trkpt>
      <trkpt lat="47.61436" lon="-2.86177">
        <ele>-10.2</ele>
        <time>2021-11-12T14:57:09Z</time>
      </trkpt>
      <trkpt lat="47.61414" lon="-2.86176">
        <ele>-9.8</ele>
        <time>2021-11-12T14:57:15Z</time>
      </trkpt>
      <trkpt lat="47.61404" lon="-2.86185">
        <ele>-9.4</ele>
        <time>2021-11-12T14:57:19Z</time>
      </trkpt>
      <trkpt lat="47.61382" lon="-2.86206">
        <ele>-9</ele>
        <time>2021-11-12T14:57:27Z</time>
      </trkpt>
      <trkpt lat="47.61374" lon="-2.86214">
        <ele>-8.6</ele>
        <time>2021-11-12T14:57:30Z</time>
      </trkpt>
      <trkpt lat="47.61363" lon="-2.86225">
        <ele>-8.4</ele>
        <time>2021-11-12T14:57:34Z</time>
      </trkpt>
      <trkpt lat="47.61344" lon="-2.86244">
        <ele>-7.6</ele>
        <time>2021-11-12T14:57:41Z</time>
      </trkpt>
      <trkpt lat="47.61325" lon="-2.86263">
        <ele>-6.8</ele>
        <time>2021-11-12T14:57:48Z</time>
      </trkpt>
      <trkpt lat="47.61316" lon="-2.86271">
        <ele>-6.4</ele>
        <time>2021-11-12T14:57:51Z</time>
      </trkpt>
      <trkpt lat="47.61302" lon="-2.86284">
        <ele>-6</ele>
        <time>2021-11-12T14:57:56Z</time>
      </trkpt>
      <trkpt lat="47.61286" lon="-2.863">
        <ele>-5.8</ele>
        <time>2021-11-12T14:58:02Z</time>
      </trkpt>
      <trkpt lat="47.61278" lon="-2.86308">
        <ele>-5.4</ele>
        <time>2021-11-12T14:58:05Z</time>
      </trkpt>
      <trkpt lat="47.61259" lon="-2.86327">
        <ele>-4.8</ele>
        <time>2021-11-12T14:58:12Z</time>
      </trkpt>
      <trkpt lat="47.61251" lon="-2.86335">
        <ele>-4.4</ele>
        <time>2021-11-12T14:58:15Z</time>
      </trkpt>
      <trkpt lat="47.61233" lon="-2.86355">
        <ele>-3.8</ele>
        <time>2021-11-12T14:58:22Z</time>
      </trkpt>
      <trkpt lat="47.61213" lon="-2.86376">
        <ele>-3.4</ele>
        <time>2021-11-12T14:58:29Z</time>
      </trkpt>
      <trkpt lat="47.61204" lon="-2.86384">
        <ele>-3</ele>
        <time>2021-11-12T14:58:32Z</time>
      </trkpt>
      <trkpt lat="47.61194" lon="-2.86407">
        <ele>-2.6</ele>
        <time>2021-11-12T14:58:38Z</time>
      </trkpt>
      <trkpt lat="47.61199" lon="-2.8642">
        <ele>-2.4</ele>
        <time>2021-11-12T14:58:41Z</time>
      </trkpt>
      <trkpt lat="47.61203" lon="-2.86428">
        <ele>-2.2</ele>
        <time>2021-11-12T14:58:43Z</time>
      </trkpt>
      <trkpt lat="47.61218" lon="-2.8646">
        <ele>-1.8</ele>
        <time>2021-11-12T14:58:50Z</time>
      </trkpt>
      <trkpt lat="47.61233" lon="-2.86492">
        <ele>-1.4</ele>
        <time>2021-11-12T14:58:57Z</time>
      </trkpt>
      <trkpt lat="47.61241" lon="-2.86508">
        <ele>-1.2</ele>
        <time>2021-11-12T14:59:00Z</time>
      </trkpt>
      <trkpt lat="47.61262" lon="-2.86555">
        <ele>-1</ele>
        <time>2021-11-12T14:59:10Z</time>
      </trkpt>
      <trkpt lat="47.61269" lon="-2.86569">
        <ele>-0.6</ele>
        <time>2021-11-12T14:59:15Z</time>
      </trkpt>
      <trkpt lat="47.6127" lon="-2.86571">
        <ele>-0.4</ele>
        <time>2021-11-12T14:59:19Z</time>
      </trkpt>
      <trkpt lat="47.61271" lon="-2.86573">
        <ele>-0.2</ele>
        <time>2021-11-12T14:59:26Z</time>
      </trkpt>
      <trkpt lat="47.61272" lon="-2.8658">
        <ele>-0.2</ele>
        <time>2021-11-12T14:59:29Z</time>
      </trkpt>
      <trkpt lat="47.61272" lon="-2.86584">
        <ele>-0.2</ele>
        <time>2021-11-12T14:59:31Z</time>
      </trkpt>
      <trkpt lat="47.61267" lon="-2.8659">
        <ele>-0.2</ele>
        <time>2021-11-12T14:59:34Z</time>
      </trkpt>
      <trkpt lat="47.61255" lon="-2.86603">
        <ele>-0.2</ele>
        <time>2021-11-12T14:59:40Z</time>
      </trkpt>
      <trkpt lat="47.61242" lon="-2.86615">
        <ele>-0.2</ele>
        <time>2021-11-12T14:59:46Z</time>
      </trkpt>
      <trkpt lat="47.61234" lon="-2.86624">
        <ele>15</ele>
        <time>2021-11-12T14:59:49Z</time>
      </trkpt>
      <trkpt lat="47.61225" lon="-2.86631">
        <ele>0.2</ele>
        <time>2021-11-12T14:59:52Z</time>
      </trkpt>
      <trkpt lat="47.61207" lon="-2.86651">
        <ele>0.4</ele>
        <time>2021-11-12T14:59:59Z</time>
      </trkpt>
      <trkpt lat="47.61183" lon="-2.86673">
        <ele>0.6</ele>
        <time>2021-11-12T15:00:07Z</time>
      </trkpt>
      <trkpt lat="47.6116" lon="-2.86696">
        <ele>1.2</ele>
        <time>2021-11-12T15:00:15Z</time>
      </trkpt>
      <trkpt lat="47.61157" lon="-2.86699">
        <ele>1.2</ele>
        <time>2021-11-12T15:00:16Z</time>
      </trkpt>
      <trkpt lat="47.61135" lon="-2.86721">
        <ele>1.6</ele>
        <time>2021-11-12T15:00:23Z</time>
      </trkpt>
      <trkpt lat="47.61108" lon="-2.86748">
        <ele>1.8</ele>
        <time>2021-11-12T15:00:31Z</time>
      </trkpt>
      <trkpt lat="47.61092" lon="-2.86764">
        <ele>2.2</ele>
        <time>2021-11-12T15:00:36Z</time>
      </trkpt>
      <trkpt lat="47.61081" lon="-2.86775">
        <ele>2.4</ele>
        <time>2021-11-12T15:00:39Z</time>
      </trkpt>
      <trkpt lat="47.61064" lon="-2.86792">
        <ele>2.6</ele>
        <time>2021-11-12T15:00:44Z</time>
      </trkpt>
      <trkpt lat="47.61051" lon="-2.86803">
        <ele>2.6</ele>
        <time>2021-11-12T15:00:47Z</time>
      </trkpt>
      <trkpt lat="47.61025" lon="-2.86829">
        <ele>2.8</ele>
        <time>2021-11-12T15:00:54Z</time>
      </trkpt>
      <trkpt lat="47.61006" lon="-2.86847">
        <ele>3</ele>
        <time>2021-11-12T15:00:59Z</time>
      </trkpt>
      <trkpt lat="47.60998" lon="-2.86855">
        <ele>3</ele>
        <time>2021-11-12T15:01:01Z</time>
      </trkpt>
      <trkpt lat="47.60974" lon="-2.8688">
        <ele>3.2</ele>
        <time>2021-11-12T15:01:07Z</time>
      </trkpt>
      <trkpt lat="47.60971" lon="-2.86883">
        <ele>3.2</ele>
        <time>2021-11-12T15:01:08Z</time>
      </trkpt>
      <trkpt lat="47.60934" lon="-2.86919">
        <ele>3</ele>
        <time>2021-11-12T15:01:16Z</time>
      </trkpt>
      <trkpt lat="47.6089" lon="-2.86962">
        <ele>2.8</ele>
        <time>2021-11-12T15:01:25Z</time>
      </trkpt>
      <trkpt lat="47.60855" lon="-2.86998">
        <ele>2</ele>
        <time>2021-11-12T15:01:33Z</time>
      </trkpt>
      <trkpt lat="47.60837" lon="-2.87016">
        <ele>1.4</ele>
        <time>2021-11-12T15:01:38Z</time>
      </trkpt>
      <trkpt lat="47.60834" lon="-2.87019">
        <ele>1.4</ele>
        <time>2021-11-12T15:01:39Z</time>
      </trkpt>
      <trkpt lat="47.60828" lon="-2.87025">
        <ele>1.2</ele>
        <time>2021-11-12T15:01:41Z</time>
      </trkpt>
      <trkpt lat="47.60821" lon="-2.87037">
        <ele>0.8</ele>
        <time>2021-11-12T15:01:44Z</time>
      </trkpt>
      <trkpt lat="47.60822" lon="-2.87053">
        <ele>0.4</ele>
        <time>2021-11-12T15:01:48Z</time>
      </trkpt>
      <trkpt lat="47.60827" lon="-2.87075">
        <ele>0.2</ele>
        <time>2021-11-12T15:01:54Z</time>
      </trkpt>
      <trkpt lat="47.60827" lon="-2.87079">
        <ele>0.2</ele>
        <time>2021-11-12T15:01:55Z</time>
      </trkpt>
      <trkpt lat="47.60826" lon="-2.87082">
        <ele>0.2</ele>
        <time>2021-11-12T15:01:56Z</time>
      </trkpt>
      <trkpt lat="47.60822" lon="-2.87087">
        <ele>0.2</ele>
        <time>2021-11-12T15:01:58Z</time>
      </trkpt>
      <trkpt lat="47.60805" lon="-2.87102">
        <ele>-0.4</ele>
        <time>2021-11-12T15:02:04Z</time>
      </trkpt>
      <trkpt lat="47.6079" lon="-2.87114">
        <ele>-0.8</ele>
        <time>2021-11-12T15:02:09Z</time>
      </trkpt>
      <trkpt lat="47.60777" lon="-2.87123">
        <ele>-0.8</ele>
        <time>2021-11-12T15:02:13Z</time>
      </trkpt>
      <trkpt lat="47.6075" lon="-2.87145">
        <ele>-0.8</ele>
        <time>2021-11-12T15:02:22Z</time>
      </trkpt>
      <trkpt lat="47.60729" lon="-2.87162">
        <ele>-0.6</ele>
        <time>2021-11-12T15:02:29Z</time>
      </trkpt>
      <trkpt lat="47.60726" lon="-2.87166">
        <ele>-0.6</ele>
        <time>2021-11-12T15:02:30Z</time>
      </trkpt>
      <trkpt lat="47.60703" lon="-2.87185">
        <ele>-0.2</ele>
        <time>2021-11-12T15:02:36Z</time>
      </trkpt>
      <trkpt lat="47.60686" lon="-2.87198">
        <ele>0.2</ele>
        <time>2021-11-12T15:02:41Z</time>
      </trkpt>
      <trkpt lat="47.60678" lon="-2.87204">
        <ele>0.4</ele>
        <time>2021-11-12T15:02:43Z</time>
      </trkpt>
      <trkpt lat="47.60658" lon="-2.87219">
        <ele>0.8</ele>
        <time>2021-11-12T15:02:49Z</time>
      </trkpt>
      <trkpt lat="47.60638" lon="-2.87236">
        <ele>1.4</ele>
        <time>2021-11-12T15:02:56Z</time>
      </trkpt>
      <trkpt lat="47.60635" lon="-2.87239">
        <ele>1.6</ele>
        <time>2021-11-12T15:02:57Z</time>
      </trkpt>
      <trkpt lat="47.60611" lon="-2.87256">
        <ele>2</ele>
        <time>2021-11-12T15:03:04Z</time>
      </trkpt>
      <trkpt lat="47.60596" lon="-2.87271">
        <ele>2.4</ele>
        <time>2021-11-12T15:03:09Z</time>
      </trkpt>
      <trkpt lat="47.60581" lon="-2.87282">
        <ele>3.2</ele>
        <time>2021-11-12T15:03:15Z</time>
      </trkpt>
      <trkpt lat="47.60579" lon="-2.87284">
        <ele>3.4</ele>
        <time>2021-11-12T15:03:18Z</time>
      </trkpt>
      <trkpt lat="47.60579" lon="-2.87284">
        <ele>3.6</ele>
        <time>2021-11-12T15:03:19Z</time>
      </trkpt>
      <trkpt lat="47.60579" lon="-2.87284">
        <ele>4.4</ele>
        <time>2021-11-12T15:03:33Z</time>
      </trkpt>
      <trkpt lat="47.60579" lon="-2.87284">
        <ele>5.4</ele>
        <time>2021-11-12T15:03:46Z</time>
      </trkpt>
      <trkpt lat="47.60579" lon="-2.87284">
        <ele>6.4</ele>
        <time>2021-11-12T15:04:08Z</time>
      </trkpt>
      <trkpt lat="47.60574" lon="-2.8728">
        <ele>6.6</ele>
        <time>2021-11-12T15:04:11Z</time>
      </trkpt>
      <trkpt lat="47.60563" lon="-2.87261">
        <ele>6.8</ele>
        <time>2021-11-12T15:04:16Z</time>
      </trkpt>
      <trkpt lat="47.60551" lon="-2.87234">
        <ele>6.8</ele>
        <time>2021-11-12T15:04:22Z</time>
      </trkpt>
      <trkpt lat="47.60533" lon="-2.87193">
        <ele>6.6</ele>
        <time>2021-11-12T15:04:30Z</time>
      </trkpt>
      <trkpt lat="47.60515" lon="-2.8715">
        <ele>6.2</ele>
        <time>2021-11-12T15:04:37Z</time>
      </trkpt>
      <trkpt lat="47.60491" lon="-2.87094">
        <ele>5.6</ele>
        <time>2021-11-12T15:04:46Z</time>
      </trkpt>
      <trkpt lat="47.60485" lon="-2.87083">
        <ele>5.6</ele>
        <time>2021-11-12T15:04:48Z</time>
      </trkpt>
      <trkpt lat="47.60476" lon="-2.87059">
        <ele>5.6</ele>
        <time>2021-11-12T15:04:52Z</time>
      </trkpt>
      <trkpt lat="47.60473" lon="-2.87052">
        <ele>5.6</ele>
        <time>2021-11-12T15:04:53Z</time>
      </trkpt>
      <trkpt lat="47.60454" lon="-2.87011">
        <ele>6.2</ele>
        <time>2021-11-12T15:05:00Z</time>
      </trkpt>
      <trkpt lat="47.60451" lon="-2.87005">
        <ele>6.2</ele>
        <time>2021-11-12T15:05:01Z</time>
      </trkpt>
      <trkpt lat="47.60426" lon="-2.86943">
        <ele>6.4</ele>
        <time>2021-11-12T15:05:11Z</time>
      </trkpt>
      <trkpt lat="47.60417" lon="-2.86925">
        <ele>6.6</ele>
        <time>2021-11-12T15:05:14Z</time>
      </trkpt>
      <trkpt lat="47.60405" lon="-2.86903">
        <ele>6.6</ele>
        <time>2021-11-12T15:05:18Z</time>
      </trkpt>
      <trkpt lat="47.60397" lon="-2.86885">
        <ele>6.6</ele>
        <time>2021-11-12T15:05:21Z</time>
      </trkpt>
      <trkpt lat="47.6039" lon="-2.86867">
        <ele>6.8</ele>
        <time>2021-11-12T15:05:24Z</time>
      </trkpt>
      <trkpt lat="47.60384" lon="-2.86856">
        <ele>6.8</ele>
        <time>2021-11-12T15:05:26Z</time>
      </trkpt>
      <trkpt lat="47.60377" lon="-2.86839">
        <ele>7</ele>
        <time>2021-11-12T15:05:29Z</time>
      </trkpt>
      <trkpt lat="47.60355" lon="-2.86786">
        <ele>7.6</ele>
        <time>2021-11-12T15:05:38Z</time>
      </trkpt>
      <trkpt lat="47.60333" lon="-2.86735">
        <ele>7.8</ele>
        <time>2021-11-12T15:05:46Z</time>
      </trkpt>
      <trkpt lat="47.6033" lon="-2.86729">
        <ele>7.8</ele>
        <time>2021-11-12T15:05:47Z</time>
      </trkpt>
      <trkpt lat="47.60316" lon="-2.86698">
        <ele>8</ele>
        <time>2021-11-12T15:05:52Z</time>
      </trkpt>
      <trkpt lat="47.60311" lon="-2.86686">
        <ele>8.2</ele>
        <time>2021-11-12T15:05:54Z</time>
      </trkpt>
      <trkpt lat="47.60288" lon="-2.86632">
        <ele>8.4</ele>
        <time>2021-11-12T15:06:03Z</time>
      </trkpt>
      <trkpt lat="47.60285" lon="-2.86626">
        <ele>8.4</ele>
        <time>2021-11-12T15:06:04Z</time>
      </trkpt>
      <trkpt lat="47.60279" lon="-2.86615">
        <ele>8.2</ele>
        <time>2021-11-12T15:06:06Z</time>
      </trkpt>
      <trkpt lat="47.60275" lon="-2.86603">
        <ele>8.2</ele>
        <time>2021-11-12T15:06:08Z</time>
      </trkpt>
      <trkpt lat="47.60273" lon="-2.86598">
        <ele>8.2</ele>
        <time>2021-11-12T15:06:09Z</time>
      </trkpt>
      <trkpt lat="47.60268" lon="-2.86588">
        <ele>8.2</ele>
        <time>2021-11-12T15:06:11Z</time>
      </trkpt>
      <trkpt lat="47.60264" lon="-2.86578">
        <ele>8.4</ele>
        <time>2021-11-12T15:06:13Z</time>
      </trkpt>
      <trkpt lat="47.60259" lon="-2.86567">
        <ele>8.4</ele>
        <time>2021-11-12T15:06:15Z</time>
      </trkpt>
      <trkpt lat="47.60251" lon="-2.86543">
        <ele>8.6</ele>
        <time>2021-11-12T15:06:19Z</time>
      </trkpt>
      <trkpt lat="47.60249" lon="-2.86537">
        <ele>8.6</ele>
        <time>2021-11-12T15:06:20Z</time>
      </trkpt>
      <trkpt lat="47.60246" lon="-2.86524">
        <ele>8.4</ele>
        <time>2021-11-12T15:06:22Z</time>
      </trkpt>
      <trkpt lat="47.60243" lon="-2.86509">
        <ele>8.4</ele>
        <time>2021-11-12T15:06:24Z</time>
      </trkpt>
      <trkpt lat="47.60237" lon="-2.86463">
        <ele>8</ele>
        <time>2021-11-12T15:06:30Z</time>
      </trkpt>
      <trkpt lat="47.60232" lon="-2.8642">
        <ele>8</ele>
        <time>2021-11-12T15:06:35Z</time>
      </trkpt>
      <trkpt lat="47.60225" lon="-2.8636">
        <ele>7.8</ele>
        <time>2021-11-12T15:06:42Z</time>
      </trkpt>
      <trkpt lat="47.60219" lon="-2.86331">
        <ele>7.8</ele>
        <time>2021-11-12T15:06:46Z</time>
      </trkpt>
      <trkpt lat="47.60217" lon="-2.86325">
        <ele>7.6</ele>
        <time>2021-11-12T15:06:47Z</time>
      </trkpt>
      <trkpt lat="47.60215" lon="-2.86318">
        <ele>7.6</ele>
        <time>2021-11-12T15:06:48Z</time>
      </trkpt>
      <trkpt lat="47.60212" lon="-2.86304">
        <ele>7.4</ele>
        <time>2021-11-12T15:06:50Z</time>
      </trkpt>
      <trkpt lat="47.60208" lon="-2.8629">
        <ele>7.4</ele>
        <time>2021-11-12T15:06:52Z</time>
      </trkpt>
      <trkpt lat="47.60202" lon="-2.86275">
        <ele>7.2</ele>
        <time>2021-11-12T15:06:54Z</time>
      </trkpt>
      <trkpt lat="47.60195" lon="-2.8626">
        <ele>7</ele>
        <time>2021-11-12T15:06:56Z</time>
      </trkpt>
      <trkpt lat="47.60192" lon="-2.86253">
        <ele>7</ele>
        <time>2021-11-12T15:06:57Z</time>
      </trkpt>
      <trkpt lat="47.60181" lon="-2.86236">
        <ele>6.6</ele>
        <time>2021-11-12T15:07:00Z</time>
      </trkpt>
      <trkpt lat="47.6018" lon="-2.86221">
        <ele>6.4</ele>
        <time>2021-11-12T15:07:02Z</time>
      </trkpt>
      <trkpt lat="47.60184" lon="-2.86216">
        <ele>6</ele>
        <time>2021-11-12T15:07:03Z</time>
      </trkpt>
      <trkpt lat="47.60188" lon="-2.86212">
        <ele>6</ele>
        <time>2021-11-12T15:07:04Z</time>
      </trkpt>
      <trkpt lat="47.60197" lon="-2.86205">
        <ele>5.8</ele>
        <time>2021-11-12T15:07:06Z</time>
      </trkpt>
      <trkpt lat="47.60212" lon="-2.86184">
        <ele>5.4</ele>
        <time>2021-11-12T15:07:10Z</time>
      </trkpt>
      <trkpt lat="47.6022" lon="-2.86172">
        <ele>5.2</ele>
        <time>2021-11-12T15:07:12Z</time>
      </trkpt>
      <trkpt lat="47.60228" lon="-2.86161">
        <ele>5</ele>
        <time>2021-11-12T15:07:14Z</time>
      </trkpt>
      <trkpt lat="47.60251" lon="-2.86128">
        <ele>4.6</ele>
        <time>2021-11-12T15:07:19Z</time>
      </trkpt>
      <trkpt lat="47.60254" lon="-2.8612">
        <ele>4.6</ele>
        <time>2021-11-12T15:07:20Z</time>
      </trkpt>
      <trkpt lat="47.60257" lon="-2.86112">
        <ele>4.4</ele>
        <time>2021-11-12T15:07:21Z</time>
      </trkpt>
      <trkpt lat="47.6026" lon="-2.86097">
        <ele>3.8</ele>
        <time>2021-11-12T15:07:23Z</time>
      </trkpt>
      <trkpt lat="47.6026" lon="-2.8609">
        <ele>3.6</ele>
        <time>2021-11-12T15:07:24Z</time>
      </trkpt>
      <trkpt lat="47.60259" lon="-2.86083">
        <ele>3.4</ele>
        <time>2021-11-12T15:07:25Z</time>
      </trkpt>
      <trkpt lat="47.6026" lon="-2.86071">
        <ele>3.2</ele>
        <time>2021-11-12T15:07:27Z</time>
      </trkpt>
      <trkpt lat="47.6026" lon="-2.86066">
        <ele>3</ele>
        <time>2021-11-12T15:07:28Z</time>
      </trkpt>
      <trkpt lat="47.60261" lon="-2.8606">
        <ele>2.8</ele>
        <time>2021-11-12T15:07:29Z</time>
      </trkpt>
      <trkpt lat="47.60263" lon="-2.86051">
        <ele>2.6</ele>
        <time>2021-11-12T15:07:31Z</time>
      </trkpt>
      <trkpt lat="47.60266" lon="-2.86043">
        <ele>2.4</ele>
        <time>2021-11-12T15:07:33Z</time>
      </trkpt>
      <trkpt lat="47.60266" lon="-2.86026">
        <ele>2</ele>
        <time>2021-11-12T15:07:37Z</time>
      </trkpt>
      <trkpt lat="47.60266" lon="-2.86023">
        <ele>2</ele>
        <time>2021-11-12T15:07:38Z</time>
      </trkpt>
      <trkpt lat="47.60266" lon="-2.86018">
        <ele>1.6</ele>
        <time>2021-11-12T15:07:40Z</time>
      </trkpt>
      <trkpt lat="47.60266" lon="-2.86017">
        <ele>1.6</ele>
        <time>2021-11-12T15:07:41Z</time>
      </trkpt>
      <trkpt lat="47.60266" lon="-2.86016">
        <ele>1</ele>
        <time>2021-11-12T15:07:47Z</time>
      </trkpt>
      <trkpt lat="47.60266" lon="-2.86016">
        <ele>1</ele>
        <time>2021-11-12T15:07:48Z</time>
      </trkpt>
      <trkpt lat="47.60265" lon="-2.86014">
        <ele>0.6</ele>
        <time>2021-11-12T15:07:56Z</time>
      </trkpt>
      <trkpt lat="47.60266" lon="-2.86014">
        <ele>0.6</ele>
        <time>2021-11-12T15:07:58Z</time>
      </trkpt>
      <trkpt lat="47.60267" lon="-2.86019">
        <ele>0.4</ele>
        <time>2021-11-12T15:08:01Z</time>
      </trkpt>
      <trkpt lat="47.60266" lon="-2.86023">
        <ele>0.2</ele>
        <time>2021-11-12T15:08:03Z</time>
      </trkpt>
      <trkpt lat="47.60265" lon="-2.86024">
        <ele>3</ele>
        <time>2021-11-12T15:08:04Z</time>
      </trkpt>
      <trkpt lat="47.60263" lon="-2.86025">
        <ele>3</ele>
        <time>2021-11-12T15:08:05Z</time>
      </trkpt>
      <trkpt lat="47.60259" lon="-2.86021">
        <ele>-0.6</ele>
        <time>2021-11-12T15:08:08Z</time>
      </trkpt>
      <trkpt lat="47.60257" lon="-2.86017">
        <ele>-0.8</ele>
        <time>2021-11-12T15:08:10Z</time>
      </trkpt>
      <trkpt lat="47.60255" lon="-2.86013">
        <ele>-1</ele>
        <time>2021-11-12T15:08:12Z</time>
      </trkpt>
      <trkpt lat="47.60253" lon="-2.86011">
        <ele>-1.2</ele>
        <time>2021-11-12T15:08:14Z</time>
      </trkpt>
      <trkpt lat="47.6025" lon="-2.86011">
        <ele>-1.2</ele>
        <time>2021-11-12T15:08:16Z</time>
      </trkpt>
      <trkpt lat="47.6025" lon="-2.86011">
        <ele>-1.8</ele>
        <time>2021-11-12T15:08:24Z</time>
      </trkpt>
      <trkpt lat="47.6025" lon="-2.86011">
        <ele>-2</ele>
        <time>2021-11-12T15:08:25Z</time>
      </trkpt>
      <trkpt lat="47.6025" lon="-2.86011">
        <ele>-3</ele>
        <time>2021-11-12T15:08:39Z</time>
      </trkpt>
      <trkpt lat="47.6025" lon="-2.86011">
        <ele>-4</ele>
        <time>2021-11-12T15:08:49Z</time>
      </trkpt>
      <trkpt lat="47.6025" lon="-2.86011">
        <ele>-5</ele>
        <time>2021-11-12T15:09:05Z</time>
      </trkpt>
      <trkpt lat="47.6025" lon="-2.86011">
        <ele>-6</ele>
        <time>2021-11-12T15:09:22Z</time>
      </trkpt>
      <trkpt lat="47.6025" lon="-2.86011">
        <ele>-7</ele>
        <time>2021-11-12T15:09:37Z</time>
      </trkpt>
      <trkpt lat="47.6025" lon="-2.86011">
        <ele>-7.8</ele>
        <time>2021-11-12T15:09:50Z</time>
      </trkpt>
      <trkpt lat="47.6025" lon="-2.86011">
        <ele>-9</ele>
        <time>2021-11-12T15:10:10Z</time>
      </trkpt>
      <trkpt lat="47.6025" lon="-2.86011">
        <ele>-10</ele>
        <time>2021-11-12T15:10:28Z</time>
      </trkpt>
      <trkpt lat="47.6025" lon="-2.86011">
        <ele>-11</ele>
        <time>2021-11-12T15:11:03Z</time>
      </trkpt>
      <trkpt lat="47.6025" lon="-2.86011">
        <ele>-12</ele>
        <time>2021-11-12T15:11:33Z</time>
      </trkpt>
      <trkpt lat="47.6025" lon="-2.86011">
        <ele>-13.2</ele>
        <time>2021-11-12T15:13:22Z</time>
      </trkpt>
      <trkpt lat="47.6025" lon="-2.86011">
        <ele>-13.4</ele>
        <time>2021-11-12T15:20:24Z</time>
      </trkpt>
      <trkpt lat="47.6025" lon="-2.86011">
        <ele>-12.8</ele>
        <time>2021-11-12T15:26:32Z</time>
      </trkpt>
      <trkpt lat="47.60255" lon="-2.86019">
        <ele>-13</ele>
        <time>2021-11-12T15:26:36Z</time>
      </trkpt>
      <trkpt lat="47.6026" lon="-2.86028">
        <ele>-13.2</ele>
        <time>2021-11-12T15:26:39Z</time>
      </trkpt>
      <trkpt lat="47.6026" lon="-2.86035">
        <ele>-13.2</ele>
        <time>2021-11-12T15:26:41Z</time>
      </trkpt>
      <trkpt lat="47.60254" lon="-2.86055">
        <ele>-13.2</ele>
        <time>2021-11-12T15:26:47Z</time>
      </trkpt>
      <trkpt lat="47.60254" lon="-2.86058">
        <ele>-13.2</ele>
        <time>2021-11-12T15:26:48Z</time>
      </trkpt>
      <trkpt lat="47.60257" lon="-2.86063">
        <ele>-13.2</ele>
        <time>2021-11-12T15:26:50Z</time>
      </trkpt>
      <trkpt lat="47.60265" lon="-2.86076">
        <ele>-13</ele>
        <time>2021-11-12T15:26:54Z</time>
      </trkpt>
      <trkpt lat="47.60265" lon="-2.8608">
        <ele>-13</ele>
        <time>2021-11-12T15:26:55Z</time>
      </trkpt>
      <trkpt lat="47.60262" lon="-2.86104">
        <ele>-12.8</ele>
        <time>2021-11-12T15:27:00Z</time>
      </trkpt>
      <trkpt lat="47.60253" lon="-2.86134">
        <ele>-12.6</ele>
        <time>2021-11-12T15:27:06Z</time>
      </trkpt>
      <trkpt lat="47.60251" lon="-2.86138">
        <ele>-12.4</ele>
        <time>2021-11-12T15:27:07Z</time>
      </trkpt>
      <trkpt lat="47.60238" lon="-2.86155">
        <ele>-12.4</ele>
        <time>2021-11-12T15:27:12Z</time>
      </trkpt>
      <trkpt lat="47.60217" lon="-2.86186">
        <ele>-12</ele>
        <time>2021-11-12T15:27:21Z</time>
      </trkpt>
      <trkpt lat="47.602" lon="-2.86211">
        <ele>-11.6</ele>
        <time>2021-11-12T15:27:28Z</time>
      </trkpt>
      <trkpt lat="47.60197" lon="-2.86229">
        <ele>-11.4</ele>
        <time>2021-11-12T15:27:32Z</time>
      </trkpt>
      <trkpt lat="47.60197" lon="-2.86234">
        <ele>-11.4</ele>
        <time>2021-11-12T15:27:33Z</time>
      </trkpt>
      <trkpt lat="47.60199" lon="-2.86257">
        <ele>-11</ele>
        <time>2021-11-12T15:27:38Z</time>
      </trkpt>
      <trkpt lat="47.60208" lon="-2.86282">
        <ele>-10.4</ele>
        <time>2021-11-12T15:27:44Z</time>
      </trkpt>
      <trkpt lat="47.60213" lon="-2.86294">
        <ele>-10.2</ele>
        <time>2021-11-12T15:27:47Z</time>
      </trkpt>
      <trkpt lat="47.60227" lon="-2.86331">
        <ele>-9.4</ele>
        <time>2021-11-12T15:27:56Z</time>
      </trkpt>
      <trkpt lat="47.60232" lon="-2.86339">
        <ele>-8.8</ele>
        <time>2021-11-12T15:27:58Z</time>
      </trkpt>
      <trkpt lat="47.60233" lon="-2.86347">
        <ele>-8.6</ele>
        <time>2021-11-12T15:28:00Z</time>
      </trkpt>
      <trkpt lat="47.60236" lon="-2.86362">
        <ele>-8.4</ele>
        <time>2021-11-12T15:28:03Z</time>
      </trkpt>
      <trkpt lat="47.60239" lon="-2.86384">
        <ele>-7.6</ele>
        <time>2021-11-12T15:28:08Z</time>
      </trkpt>
      <trkpt lat="47.60241" lon="-2.86397">
        <ele>-7.2</ele>
        <time>2021-11-12T15:28:11Z</time>
      </trkpt>
      <trkpt lat="47.60242" lon="-2.86415">
        <ele>-6.6</ele>
        <time>2021-11-12T15:28:15Z</time>
      </trkpt>
      <trkpt lat="47.60245" lon="-2.86435">
        <ele>-6</ele>
        <time>2021-11-12T15:28:19Z</time>
      </trkpt>
      <trkpt lat="47.60245" lon="-2.8645">
        <ele>-5.6</ele>
        <time>2021-11-12T15:28:22Z</time>
      </trkpt>
      <trkpt lat="47.60249" lon="-2.86486">
        <ele>-4.8</ele>
        <time>2021-11-12T15:28:30Z</time>
      </trkpt>
      <trkpt lat="47.60256" lon="-2.86518">
        <ele>-3.8</ele>
        <time>2021-11-12T15:28:37Z</time>
      </trkpt>
      <trkpt lat="47.60257" lon="-2.86523">
        <ele>-3.6</ele>
        <time>2021-11-12T15:28:38Z</time>
      </trkpt>
      <trkpt lat="47.60262" lon="-2.86544">
        <ele>-2.8</ele>
        <time>2021-11-12T15:28:43Z</time>
      </trkpt>
      <trkpt lat="47.60263" lon="-2.86549">
        <ele>-2.6</ele>
        <time>2021-11-12T15:28:44Z</time>
      </trkpt>
      <trkpt lat="47.60274" lon="-2.86574">
        <ele>-1.6</ele>
        <time>2021-11-12T15:28:51Z</time>
      </trkpt>
      <trkpt lat="47.60277" lon="-2.86582">
        <ele>-1.4</ele>
        <time>2021-11-12T15:28:53Z</time>
      </trkpt>
      <trkpt lat="47.6028" lon="-2.86589">
        <ele>-1.2</ele>
        <time>2021-11-12T15:28:55Z</time>
      </trkpt>
      <trkpt lat="47.60285" lon="-2.86596">
        <ele>-1</ele>
        <time>2021-11-12T15:28:57Z</time>
      </trkpt>
      <trkpt lat="47.60293" lon="-2.86618">
        <ele>-0.6</ele>
        <time>2021-11-12T15:29:02Z</time>
      </trkpt>
      <trkpt lat="47.60299" lon="-2.8663">
        <ele>-0.2</ele>
        <time>2021-11-12T15:29:05Z</time>
      </trkpt>
      <trkpt lat="47.60309" lon="-2.86654">
        <ele>0.4</ele>
        <time>2021-11-12T15:29:11Z</time>
      </trkpt>
      <trkpt lat="47.60311" lon="-2.86658">
        <ele>0.6</ele>
        <time>2021-11-12T15:29:12Z</time>
      </trkpt>
      <trkpt lat="47.60325" lon="-2.86691">
        <ele>1.6</ele>
        <time>2021-11-12T15:29:20Z</time>
      </trkpt>
      <trkpt lat="47.60327" lon="-2.86696">
        <ele>1.6</ele>
        <time>2021-11-12T15:29:21Z</time>
      </trkpt>
      <trkpt lat="47.60344" lon="-2.86736">
        <ele>2.6</ele>
        <time>2021-11-12T15:29:30Z</time>
      </trkpt>
      <trkpt lat="47.60346" lon="-2.8674">
        <ele>2.6</ele>
        <time>2021-11-12T15:29:31Z</time>
      </trkpt>
      <trkpt lat="47.60359" lon="-2.86771">
        <ele>3.6</ele>
        <time>2021-11-12T15:29:38Z</time>
      </trkpt>
      <trkpt lat="47.60361" lon="-2.86775">
        <ele>3.8</ele>
        <time>2021-11-12T15:29:39Z</time>
      </trkpt>
      <trkpt lat="47.6037" lon="-2.8679">
        <ele>4.8</ele>
        <time>2021-11-12T15:29:44Z</time>
      </trkpt>
      <trkpt lat="47.60374" lon="-2.86796">
        <ele>5</ele>
        <time>2021-11-12T15:29:46Z</time>
      </trkpt>
      <trkpt lat="47.60375" lon="-2.868">
        <ele>5</ele>
        <time>2021-11-12T15:29:48Z</time>
      </trkpt>
      <trkpt lat="47.60375" lon="-2.868">
        <ele>6</ele>
        <time>2021-11-12T15:29:59Z</time>
      </trkpt>
      <trkpt lat="47.60375" lon="-2.868">
        <ele>6</ele>
        <time>2021-11-12T15:30:00Z</time>
      </trkpt>
      <trkpt lat="47.60375" lon="-2.868">
        <ele>7</ele>
        <time>2021-11-12T15:30:42Z</time>
      </trkpt>
      <trkpt lat="47.60375" lon="-2.868">
        <ele>7</ele>
        <time>2021-11-12T15:30:49Z</time>
      </trkpt>
      <trkpt lat="47.60377" lon="-2.86807">
        <ele>7</ele>
        <time>2021-11-12T15:30:52Z</time>
      </trkpt>
      <trkpt lat="47.60384" lon="-2.86829">
        <ele>7</ele>
        <time>2021-11-12T15:30:58Z</time>
      </trkpt>
      <trkpt lat="47.60395" lon="-2.86854">
        <ele>7</ele>
        <time>2021-11-12T15:31:04Z</time>
      </trkpt>
      <trkpt lat="47.60408" lon="-2.86886">
        <ele>7</ele>
        <time>2021-11-12T15:31:11Z</time>
      </trkpt>
      <trkpt lat="47.60424" lon="-2.86921">
        <ele>7.4</ele>
        <time>2021-11-12T15:31:18Z</time>
      </trkpt>
      <trkpt lat="47.60433" lon="-2.86942">
        <ele>7.8</ele>
        <time>2021-11-12T15:31:22Z</time>
      </trkpt>
      <trkpt lat="47.60437" lon="-2.86953">
        <ele>7.8</ele>
        <time>2021-11-12T15:31:24Z</time>
      </trkpt>
      <trkpt lat="47.60449" lon="-2.86979">
        <ele>8</ele>
        <time>2021-11-12T15:31:29Z</time>
      </trkpt>
      <trkpt lat="47.60451" lon="-2.86983">
        <ele>8.2</ele>
        <time>2021-11-12T15:31:30Z</time>
      </trkpt>
      <trkpt lat="47.60473" lon="-2.87033">
        <ele>8.6</ele>
        <time>2021-11-12T15:31:40Z</time>
      </trkpt>
      <trkpt lat="47.60491" lon="-2.87077">
        <ele>9</ele>
        <time>2021-11-12T15:31:49Z</time>
      </trkpt>
      <trkpt lat="47.60505" lon="-2.87114">
        <ele>9</ele>
        <time>2021-11-12T15:31:57Z</time>
      </trkpt>
      <trkpt lat="47.60515" lon="-2.87137">
        <ele>9</ele>
        <time>2021-11-12T15:32:02Z</time>
      </trkpt>
      <trkpt lat="47.60526" lon="-2.87162">
        <ele>9.2</ele>
        <time>2021-11-12T15:32:07Z</time>
      </trkpt>
      <trkpt lat="47.60544" lon="-2.87205">
        <ele>9.6</ele>
        <time>2021-11-12T15:32:15Z</time>
      </trkpt>
      <trkpt lat="47.60564" lon="-2.87251">
        <ele>9.6</ele>
        <time>2021-11-12T15:32:24Z</time>
      </trkpt>
      <trkpt lat="47.60581" lon="-2.87299">
        <ele>9.6</ele>
        <time>2021-11-12T15:32:33Z</time>
      </trkpt>
      <trkpt lat="47.60596" lon="-2.87349">
        <ele>9.6</ele>
        <time>2021-11-12T15:32:41Z</time>
      </trkpt>
      <trkpt lat="47.60609" lon="-2.87391">
        <ele>9.6</ele>
        <time>2021-11-12T15:32:47Z</time>
      </trkpt>
      <trkpt lat="47.60627" lon="-2.87452">
        <ele>8.6</ele>
        <time>2021-11-12T15:32:55Z</time>
      </trkpt>
      <trkpt lat="47.60638" lon="-2.87484">
        <ele>8.2</ele>
        <time>2021-11-12T15:32:59Z</time>
      </trkpt>
      <trkpt lat="47.60651" lon="-2.8752">
        <ele>7.8</ele>
        <time>2021-11-12T15:33:04Z</time>
      </trkpt>
      <trkpt lat="47.6067" lon="-2.87556">
        <ele>7.6</ele>
        <time>2021-11-12T15:33:10Z</time>
      </trkpt>
      <trkpt lat="47.60691" lon="-2.87581">
        <ele>7.8</ele>
        <time>2021-11-12T15:33:16Z</time>
      </trkpt>
      <trkpt lat="47.60713" lon="-2.87609">
        <ele>8.2</ele>
        <time>2021-11-12T15:33:24Z</time>
      </trkpt>
      <trkpt lat="47.60728" lon="-2.87628">
        <ele>8.2</ele>
        <time>2021-11-12T15:33:30Z</time>
      </trkpt>
      <trkpt lat="47.60748" lon="-2.87654">
        <ele>8.6</ele>
        <time>2021-11-12T15:33:38Z</time>
      </trkpt>
      <trkpt lat="47.60764" lon="-2.87674">
        <ele>9</ele>
        <time>2021-11-12T15:33:44Z</time>
      </trkpt>
      <trkpt lat="47.60775" lon="-2.87687">
        <ele>9.2</ele>
        <time>2021-11-12T15:33:48Z</time>
      </trkpt>
      <trkpt lat="47.60787" lon="-2.87701">
        <ele>9.2</ele>
        <time>2021-11-12T15:33:52Z</time>
      </trkpt>
      <trkpt lat="47.60801" lon="-2.87721">
        <ele>9.6</ele>
        <time>2021-11-12T15:33:57Z</time>
      </trkpt>
      <trkpt lat="47.60807" lon="-2.8773">
        <ele>9.6</ele>
        <time>2021-11-12T15:33:59Z</time>
      </trkpt>
      <trkpt lat="47.60827" lon="-2.87763">
        <ele>10</ele>
        <time>2021-11-12T15:34:07Z</time>
      </trkpt>
      <trkpt lat="47.60843" lon="-2.87802">
        <ele>10.2</ele>
        <time>2021-11-12T15:34:15Z</time>
      </trkpt>
      <trkpt lat="47.60847" lon="-2.87813">
        <ele>10.2</ele>
        <time>2021-11-12T15:34:17Z</time>
      </trkpt>
      <trkpt lat="47.60851" lon="-2.87824">
        <ele>10.4</ele>
        <time>2021-11-12T15:34:19Z</time>
      </trkpt>
      <trkpt lat="47.60856" lon="-2.87836">
        <ele>10.4</ele>
        <time>2021-11-12T15:34:21Z</time>
      </trkpt>
      <trkpt lat="47.60858" lon="-2.87842">
        <ele>10.6</ele>
        <time>2021-11-12T15:34:22Z</time>
      </trkpt>
      <trkpt lat="47.60862" lon="-2.87855">
        <ele>10.6</ele>
        <time>2021-11-12T15:34:24Z</time>
      </trkpt>
      <trkpt lat="47.60864" lon="-2.87861">
        <ele>10.6</ele>
        <time>2021-11-12T15:34:25Z</time>
      </trkpt>
      <trkpt lat="47.60868" lon="-2.87874">
        <ele>10.6</ele>
        <time>2021-11-12T15:34:27Z</time>
      </trkpt>
      <trkpt lat="47.60876" lon="-2.87894">
        <ele>10.6</ele>
        <time>2021-11-12T15:34:30Z</time>
      </trkpt>
      <trkpt lat="47.6088" lon="-2.87908">
        <ele>10.4</ele>
        <time>2021-11-12T15:34:32Z</time>
      </trkpt>
      <trkpt lat="47.60892" lon="-2.87935">
        <ele>10.4</ele>
        <time>2021-11-12T15:34:36Z</time>
      </trkpt>
      <trkpt lat="47.60918" lon="-2.87987">
        <ele>10.8</ele>
        <time>2021-11-12T15:34:44Z</time>
      </trkpt>
      <trkpt lat="47.60952" lon="-2.88041">
        <ele>11</ele>
        <time>2021-11-12T15:34:54Z</time>
      </trkpt>
      <trkpt lat="47.60976" lon="-2.88078">
        <ele>11.2</ele>
        <time>2021-11-12T15:35:01Z</time>
      </trkpt>
      <trkpt lat="47.60979" lon="-2.88083">
        <ele>11.2</ele>
        <time>2021-11-12T15:35:02Z</time>
      </trkpt>
      <trkpt lat="47.60991" lon="-2.88106">
        <ele>11.4</ele>
        <time>2021-11-12T15:35:06Z</time>
      </trkpt>
      <trkpt lat="47.61" lon="-2.88122">
        <ele>11.4</ele>
        <time>2021-11-12T15:35:09Z</time>
      </trkpt>
      <trkpt lat="47.61022" lon="-2.88165">
        <ele>11.6</ele>
        <time>2021-11-12T15:35:17Z</time>
      </trkpt>
      <trkpt lat="47.61042" lon="-2.88208">
        <ele>12</ele>
        <time>2021-11-12T15:35:25Z</time>
      </trkpt>
      <trkpt lat="47.61048" lon="-2.88223">
        <ele>12</ele>
        <time>2021-11-12T15:35:28Z</time>
      </trkpt>
      <trkpt lat="47.61055" lon="-2.88238">
        <ele>12</ele>
        <time>2021-11-12T15:35:31Z</time>
      </trkpt>
      <trkpt lat="47.61072" lon="-2.88276">
        <ele>12.2</ele>
        <time>2021-11-12T15:35:39Z</time>
      </trkpt>
      <trkpt lat="47.61096" lon="-2.88316">
        <ele>12.4</ele>
        <time>2021-11-12T15:35:48Z</time>
      </trkpt>
      <trkpt lat="47.61119" lon="-2.88343">
        <ele>13</ele>
        <time>2021-11-12T15:35:55Z</time>
      </trkpt>
      <trkpt lat="47.61142" lon="-2.88372">
        <ele>13.6</ele>
        <time>2021-11-12T15:36:02Z</time>
      </trkpt>
      <trkpt lat="47.61164" lon="-2.88413">
        <ele>14.2</ele>
        <time>2021-11-12T15:36:10Z</time>
      </trkpt>
      <trkpt lat="47.6118" lon="-2.88452">
        <ele>14.6</ele>
        <time>2021-11-12T15:36:17Z</time>
      </trkpt>
      <trkpt lat="47.61187" lon="-2.88471">
        <ele>15</ele>
        <time>2021-11-12T15:36:20Z</time>
      </trkpt>
      <trkpt lat="47.61205" lon="-2.88516">
        <ele>15.2</ele>
        <time>2021-11-12T15:36:27Z</time>
      </trkpt>
      <trkpt lat="47.61218" lon="-2.88547">
        <ele>15.2</ele>
        <time>2021-11-12T15:36:32Z</time>
      </trkpt>
      <trkpt lat="47.61223" lon="-2.88555">
        <ele>15.2</ele>
        <time>2021-11-12T15:36:34Z</time>
      </trkpt>
      <trkpt lat="47.61233" lon="-2.88564">
        <ele>15.2</ele>
        <time>2021-11-12T15:36:39Z</time>
      </trkpt>
      <trkpt lat="47.61234" lon="-2.88564">
        <ele>15.2</ele>
        <time>2021-11-12T15:36:40Z</time>
      </trkpt>
      <trkpt lat="47.61243" lon="-2.8856">
        <ele>15.2</ele>
        <time>2021-11-12T15:36:43Z</time>
      </trkpt>
      <trkpt lat="47.61255" lon="-2.88548">
        <ele>15.2</ele>
        <time>2021-11-12T15:36:47Z</time>
      </trkpt>
      <trkpt lat="47.6126" lon="-2.88535">
        <ele>15</ele>
        <time>2021-11-12T15:36:49Z</time>
      </trkpt>
      <trkpt lat="47.61262" lon="-2.88523">
        <ele>15</ele>
        <time>2021-11-12T15:36:51Z</time>
      </trkpt>
      <trkpt lat="47.61265" lon="-2.88516">
        <ele>14.8</ele>
        <time>2021-11-12T15:36:52Z</time>
      </trkpt>
      <trkpt lat="47.61275" lon="-2.88493">
        <ele>14.8</ele>
        <time>2021-11-12T15:36:56Z</time>
      </trkpt>
      <trkpt lat="47.61302" lon="-2.88426">
        <ele>14.4</ele>
        <time>2021-11-12T15:37:07Z</time>
      </trkpt>
      <trkpt lat="47.6132" lon="-2.88383">
        <ele>14.4</ele>
        <time>2021-11-12T15:37:15Z</time>
      </trkpt>
      <trkpt lat="47.6134" lon="-2.88342">
        <ele>14.4</ele>
        <time>2021-11-12T15:37:23Z</time>
      </trkpt>
      <trkpt lat="47.61364" lon="-2.88293">
        <ele>14.2</ele>
        <time>2021-11-12T15:37:33Z</time>
      </trkpt>
      <trkpt lat="47.61369" lon="-2.88283">
        <ele>14</ele>
        <time>2021-11-12T15:37:35Z</time>
      </trkpt>
      <trkpt lat="47.61382" lon="-2.88259">
        <ele>14</ele>
        <time>2021-11-12T15:37:40Z</time>
      </trkpt>
      <trkpt lat="47.61411" lon="-2.88208">
        <ele>14.2</ele>
        <time>2021-11-12T15:37:50Z</time>
      </trkpt>
      <trkpt lat="47.61435" lon="-2.88173">
        <ele>14.2</ele>
        <time>2021-11-12T15:37:56Z</time>
      </trkpt>
      <trkpt lat="47.61467" lon="-2.88124">
        <ele>14</ele>
        <time>2021-11-12T15:38:02Z</time>
      </trkpt>
      <trkpt lat="47.61505" lon="-2.88069">
        <ele>14</ele>
        <time>2021-11-12T15:38:08Z</time>
      </trkpt>
      <trkpt lat="47.61531" lon="-2.8803">
        <ele>13.8</ele>
        <time>2021-11-12T15:38:12Z</time>
      </trkpt>
      <trkpt lat="47.61564" lon="-2.87977">
        <ele>13.8</ele>
        <time>2021-11-12T15:38:17Z</time>
      </trkpt>
      <trkpt lat="47.61602" lon="-2.87908">
        <ele>13.4</ele>
        <time>2021-11-12T15:38:23Z</time>
      </trkpt>
      <trkpt lat="47.61614" lon="-2.87884">
        <ele>13.4</ele>
        <time>2021-11-12T15:38:25Z</time>
      </trkpt>
      <trkpt lat="47.61638" lon="-2.87839">
        <ele>13</ele>
        <time>2021-11-12T15:38:29Z</time>
      </trkpt>
      <trkpt lat="47.61662" lon="-2.87795">
        <ele>12.4</ele>
        <time>2021-11-12T15:38:33Z</time>
      </trkpt>
      <trkpt lat="47.6169" lon="-2.87742">
        <ele>12.2</ele>
        <time>2021-11-12T15:38:38Z</time>
      </trkpt>
      <trkpt lat="47.617" lon="-2.87721">
        <ele>11.8</ele>
        <time>2021-11-12T15:38:40Z</time>
      </trkpt>
      <trkpt lat="47.61732" lon="-2.87661">
        <ele>11</ele>
        <time>2021-11-12T15:38:46Z</time>
      </trkpt>
      <trkpt lat="47.61749" lon="-2.87629">
        <ele>10.8</ele>
        <time>2021-11-12T15:38:49Z</time>
      </trkpt>
      <trkpt lat="47.61779" lon="-2.87573">
        <ele>9.8</ele>
        <time>2021-11-12T15:38:54Z</time>
      </trkpt>
      <trkpt lat="47.61795" lon="-2.87543">
        <ele>9.6</ele>
        <time>2021-11-12T15:38:57Z</time>
      </trkpt>
      <trkpt lat="47.61828" lon="-2.87485">
        <ele>8.8</ele>
        <time>2021-11-12T15:39:03Z</time>
      </trkpt>
      <trkpt lat="47.61852" lon="-2.87449">
        <ele>8.8</ele>
        <time>2021-11-12T15:39:08Z</time>
      </trkpt>
      <trkpt lat="47.61874" lon="-2.87414">
        <ele>8.2</ele>
        <time>2021-11-12T15:39:14Z</time>
      </trkpt>
      <trkpt lat="47.61881" lon="-2.87404">
        <ele>8</ele>
        <time>2021-11-12T15:39:16Z</time>
      </trkpt>
      <trkpt lat="47.619" lon="-2.87375">
        <ele>7.6</ele>
        <time>2021-11-12T15:39:22Z</time>
      </trkpt>
      <trkpt lat="47.61929" lon="-2.87332">
        <ele>6.8</ele>
        <time>2021-11-12T15:39:30Z</time>
      </trkpt>
      <trkpt lat="47.61933" lon="-2.87326">
        <ele>6.8</ele>
        <time>2021-11-12T15:39:31Z</time>
      </trkpt>
      <trkpt lat="47.61963" lon="-2.8728">
        <ele>6</ele>
        <time>2021-11-12T15:39:39Z</time>
      </trkpt>
      <trkpt lat="47.61967" lon="-2.87274">
        <ele>6</ele>
        <time>2021-11-12T15:39:40Z</time>
      </trkpt>
      <trkpt lat="47.61994" lon="-2.87232">
        <ele>4.8</ele>
        <time>2021-11-12T15:39:47Z</time>
      </trkpt>
      <trkpt lat="47.62023" lon="-2.87189">
        <ele>3.8</ele>
        <time>2021-11-12T15:39:54Z</time>
      </trkpt>
      <trkpt lat="47.62028" lon="-2.87183">
        <ele>3.8</ele>
        <time>2021-11-12T15:39:55Z</time>
      </trkpt>
      <trkpt lat="47.62059" lon="-2.87136">
        <ele>2.8</ele>
        <time>2021-11-12T15:40:02Z</time>
      </trkpt>
      <trkpt lat="47.62062" lon="-2.87129">
        <ele>2.6</ele>
        <time>2021-11-12T15:40:03Z</time>
      </trkpt>
      <trkpt lat="47.62067" lon="-2.87112">
        <ele>2.2</ele>
        <time>2021-11-12T15:40:05Z</time>
      </trkpt>
      <trkpt lat="47.62073" lon="-2.87097">
        <ele>2</ele>
        <time>2021-11-12T15:40:07Z</time>
      </trkpt>
      <trkpt lat="47.62078" lon="-2.87091">
        <ele>1.8</ele>
        <time>2021-11-12T15:40:08Z</time>
      </trkpt>
      <trkpt lat="47.62084" lon="-2.87088">
        <ele>1.8</ele>
        <time>2021-11-12T15:40:09Z</time>
      </trkpt>
      <trkpt lat="47.6209" lon="-2.87085">
        <ele>1.6</ele>
        <time>2021-11-12T15:40:10Z</time>
      </trkpt>
      <trkpt lat="47.62095" lon="-2.87081">
        <ele>1.4</ele>
        <time>2021-11-12T15:40:11Z</time>
      </trkpt>
      <trkpt lat="47.62098" lon="-2.87076">
        <ele>1.2</ele>
        <time>2021-11-12T15:40:12Z</time>
      </trkpt>
      <trkpt lat="47.621" lon="-2.87071">
        <ele>0.8</ele>
        <time>2021-11-12T15:40:13Z</time>
      </trkpt>
      <trkpt lat="47.6211" lon="-2.87051">
        <ele>0.4</ele>
        <time>2021-11-12T15:40:15Z</time>
      </trkpt>
      <trkpt lat="47.62127" lon="-2.86989">
        <ele>-0.6</ele>
        <time>2021-11-12T15:40:22Z</time>
      </trkpt>
      <trkpt lat="47.62129" lon="-2.86983">
        <ele>-0.6</ele>
        <time>2021-11-12T15:40:23Z</time>
      </trkpt>
      <trkpt lat="47.62143" lon="-2.86937">
        <ele>-1.4</ele>
        <time>2021-11-12T15:40:29Z</time>
      </trkpt>
      <trkpt lat="47.62145" lon="-2.86931">
        <ele>-1.6</ele>
        <time>2021-11-12T15:40:30Z</time>
      </trkpt>
      <trkpt lat="47.6216" lon="-2.86898">
        <ele>-2.2</ele>
        <time>2021-11-12T15:40:35Z</time>
      </trkpt>
      <trkpt lat="47.62175" lon="-2.86865">
        <ele>-2.6</ele>
        <time>2021-11-12T15:40:40Z</time>
      </trkpt>
      <trkpt lat="47.62191" lon="-2.86834">
        <ele>-2.8</ele>
        <time>2021-11-12T15:40:45Z</time>
      </trkpt>
      <trkpt lat="47.6222" lon="-2.86777">
        <ele>-3.2</ele>
        <time>2021-11-12T15:40:55Z</time>
      </trkpt>
      <trkpt lat="47.6224" lon="-2.86739">
        <ele>-3.4</ele>
        <time>2021-11-12T15:41:02Z</time>
      </trkpt>
      <trkpt lat="47.62248" lon="-2.86723">
        <ele>-3.4</ele>
        <time>2021-11-12T15:41:05Z</time>
      </trkpt>
      <trkpt lat="47.62266" lon="-2.86687">
        <ele>-3.8</ele>
        <time>2021-11-12T15:41:12Z</time>
      </trkpt>
      <trkpt lat="47.62287" lon="-2.86646">
        <ele>-3.8</ele>
        <time>2021-11-12T15:41:20Z</time>
      </trkpt>
      <trkpt lat="47.6231" lon="-2.86597">
        <ele>-3.6</ele>
        <time>2021-11-12T15:41:30Z</time>
      </trkpt>
      <trkpt lat="47.62328" lon="-2.86556">
        <ele>-3.4</ele>
        <time>2021-11-12T15:41:38Z</time>
      </trkpt>
      <trkpt lat="47.62347" lon="-2.86512">
        <ele>-3.6</ele>
        <time>2021-11-12T15:41:47Z</time>
      </trkpt>
      <trkpt lat="47.62359" lon="-2.86485">
        <ele>-4</ele>
        <time>2021-11-12T15:41:53Z</time>
      </trkpt>
      <trkpt lat="47.62367" lon="-2.86464">
        <ele>-4</ele>
        <time>2021-11-12T15:41:58Z</time>
      </trkpt>
      <trkpt lat="47.6239" lon="-2.86409">
        <ele>-4</ele>
        <time>2021-11-12T15:42:09Z</time>
      </trkpt>
      <trkpt lat="47.62409" lon="-2.86366">
        <ele>-4</ele>
        <time>2021-11-12T15:42:18Z</time>
      </trkpt>
      <trkpt lat="47.62423" lon="-2.86332">
        <ele>-3.8</ele>
        <time>2021-11-12T15:42:25Z</time>
      </trkpt>
      <trkpt lat="47.62442" lon="-2.8629">
        <ele>-3.8</ele>
        <time>2021-11-12T15:42:33Z</time>
      </trkpt>
      <trkpt lat="47.6246" lon="-2.86245">
        <ele>-3.6</ele>
        <time>2021-11-12T15:42:41Z</time>
      </trkpt>
      <trkpt lat="47.62467" lon="-2.86228">
        <ele>-3.6</ele>
        <time>2021-11-12T15:42:44Z</time>
      </trkpt>
      <trkpt lat="47.62475" lon="-2.86208">
        <ele>-3.4</ele>
        <time>2021-11-12T15:42:48Z</time>
      </trkpt>
      <trkpt lat="47.62492" lon="-2.86165">
        <ele>-3.6</ele>
        <time>2021-11-12T15:42:56Z</time>
      </trkpt>
      <trkpt lat="47.6251" lon="-2.8612">
        <ele>-3.4</ele>
        <time>2021-11-12T15:43:04Z</time>
      </trkpt>
      <trkpt lat="47.62513" lon="-2.86111">
        <ele>-3.4</ele>
        <time>2021-11-12T15:43:06Z</time>
      </trkpt>
      <trkpt lat="47.62516" lon="-2.86092">
        <ele>-3.2</ele>
        <time>2021-11-12T15:43:09Z</time>
      </trkpt>
      <trkpt lat="47.62519" lon="-2.86082">
        <ele>-3.2</ele>
        <time>2021-11-12T15:43:11Z</time>
      </trkpt>
      <trkpt lat="47.62523" lon="-2.86077">
        <ele>-3.2</ele>
        <time>2021-11-12T15:43:12Z</time>
      </trkpt>
      <trkpt lat="47.62531" lon="-2.86071">
        <ele>-3.2</ele>
        <time>2021-11-12T15:43:14Z</time>
      </trkpt>
      <trkpt lat="47.62535" lon="-2.86062">
        <ele>-3.2</ele>
        <time>2021-11-12T15:43:16Z</time>
      </trkpt>
      <trkpt lat="47.62565" lon="-2.85996">
        <ele>-3</ele>
        <time>2021-11-12T15:43:28Z</time>
      </trkpt>
      <trkpt lat="47.62582" lon="-2.85957">
        <ele>-2.8</ele>
        <time>2021-11-12T15:43:35Z</time>
      </trkpt>
      <trkpt lat="47.62595" lon="-2.85928">
        <ele>-2.6</ele>
        <time>2021-11-12T15:43:40Z</time>
      </trkpt>
      <trkpt lat="47.62602" lon="-2.85912">
        <ele>-2.4</ele>
        <time>2021-11-12T15:43:43Z</time>
      </trkpt>
      <trkpt lat="47.62625" lon="-2.85858">
        <ele>-2.2</ele>
        <time>2021-11-12T15:43:52Z</time>
      </trkpt>
      <trkpt lat="47.62651" lon="-2.85799">
        <ele>-1.8</ele>
        <time>2021-11-12T15:44:02Z</time>
      </trkpt>
      <trkpt lat="47.62654" lon="-2.85793">
        <ele>-1.6</ele>
        <time>2021-11-12T15:44:03Z</time>
      </trkpt>
      <trkpt lat="47.6268" lon="-2.85732">
        <ele>-0.8</ele>
        <time>2021-11-12T15:44:13Z</time>
      </trkpt>
      <trkpt lat="47.62697" lon="-2.85691">
        <ele>-0.6</ele>
        <time>2021-11-12T15:44:20Z</time>
      </trkpt>
      <trkpt lat="47.62707" lon="-2.85668">
        <ele>-0.4</ele>
        <time>2021-11-12T15:44:24Z</time>
      </trkpt>
      <trkpt lat="47.62726" lon="-2.85626">
        <ele>-0.2</ele>
        <time>2021-11-12T15:44:31Z</time>
      </trkpt>
      <trkpt lat="47.62746" lon="-2.85576">
        <ele>0.2</ele>
        <time>2021-11-12T15:44:39Z</time>
      </trkpt>
      <trkpt lat="47.62754" lon="-2.85557">
        <ele>0.4</ele>
        <time>2021-11-12T15:44:42Z</time>
      </trkpt>
      <trkpt lat="47.62764" lon="-2.85523">
        <ele>0.8</ele>
        <time>2021-11-12T15:44:47Z</time>
      </trkpt>
      <trkpt lat="47.62778" lon="-2.85459">
        <ele>1.2</ele>
        <time>2021-11-12T15:44:56Z</time>
      </trkpt>
      <trkpt lat="47.62782" lon="-2.85437">
        <ele>1.4</ele>
        <time>2021-11-12T15:44:59Z</time>
      </trkpt>
      <trkpt lat="47.62792" lon="-2.8538">
        <ele>2.2</ele>
        <time>2021-11-12T15:45:07Z</time>
      </trkpt>
      <trkpt lat="47.62798" lon="-2.85348">
        <ele>2.6</ele>
        <time>2021-11-12T15:45:12Z</time>
      </trkpt>
      <trkpt lat="47.62805" lon="-2.85312">
        <ele>3.4</ele>
        <time>2021-11-12T15:45:18Z</time>
      </trkpt>
      <trkpt lat="47.62807" lon="-2.85301">
        <ele>3.6</ele>
        <time>2021-11-12T15:45:20Z</time>
      </trkpt>
      <trkpt lat="47.62813" lon="-2.85273">
        <ele>4</ele>
        <time>2021-11-12T15:45:25Z</time>
      </trkpt>
      <trkpt lat="47.6282" lon="-2.85243">
        <ele>4.4</ele>
        <time>2021-11-12T15:45:31Z</time>
      </trkpt>
      <trkpt lat="47.62823" lon="-2.85231">
        <ele>4.6</ele>
        <time>2021-11-12T15:45:34Z</time>
      </trkpt>
      <trkpt lat="47.62828" lon="-2.85212">
        <ele>4.8</ele>
        <time>2021-11-12T15:45:38Z</time>
      </trkpt>
      <trkpt lat="47.62835" lon="-2.85182">
        <ele>5.4</ele>
        <time>2021-11-12T15:45:45Z</time>
      </trkpt>
      <trkpt lat="47.62845" lon="-2.85147">
        <ele>6.6</ele>
        <time>2021-11-12T15:45:53Z</time>
      </trkpt>
      <trkpt lat="47.62847" lon="-2.85139">
        <ele>6.6</ele>
        <time>2021-11-12T15:45:55Z</time>
      </trkpt>
      <trkpt lat="47.62855" lon="-2.85111">
        <ele>7.4</ele>
        <time>2021-11-12T15:46:03Z</time>
      </trkpt>
      <trkpt lat="47.62856" lon="-2.85107">
        <ele>7.6</ele>
        <time>2021-11-12T15:46:04Z</time>
      </trkpt>
      <trkpt lat="47.62861" lon="-2.85093">
        <ele>8</ele>
        <time>2021-11-12T15:46:09Z</time>
      </trkpt>
      <trkpt lat="47.62867" lon="-2.85078">
        <ele>8.6</ele>
        <time>2021-11-12T15:46:14Z</time>
      </trkpt>
      <trkpt lat="47.62871" lon="-2.85068">
        <ele>8.8</ele>
        <time>2021-11-12T15:46:17Z</time>
      </trkpt>
      <trkpt lat="47.62879" lon="-2.85045">
        <ele>9.4</ele>
        <time>2021-11-12T15:46:24Z</time>
      </trkpt>
      <trkpt lat="47.6288" lon="-2.85042">
        <ele>9.6</ele>
        <time>2021-11-12T15:46:25Z</time>
      </trkpt>
      <trkpt lat="47.62888" lon="-2.85017">
        <ele>10.2</ele>
        <time>2021-11-12T15:46:33Z</time>
      </trkpt>
      <trkpt lat="47.62895" lon="-2.85">
        <ele>10.6</ele>
        <time>2021-11-12T15:46:37Z</time>
      </trkpt>
      <trkpt lat="47.62902" lon="-2.84982">
        <ele>11</ele>
        <time>2021-11-12T15:46:41Z</time>
      </trkpt>
      <trkpt lat="47.62918" lon="-2.84942">
        <ele>11.6</ele>
        <time>2021-11-12T15:46:49Z</time>
      </trkpt>
      <trkpt lat="47.62924" lon="-2.84928">
        <ele>11.8</ele>
        <time>2021-11-12T15:46:52Z</time>
      </trkpt>
      <trkpt lat="47.62947" lon="-2.8488">
        <ele>12.4</ele>
        <time>2021-11-12T15:47:01Z</time>
      </trkpt>
      <trkpt lat="47.62953" lon="-2.84868">
        <ele>12.6</ele>
        <time>2021-11-12T15:47:03Z</time>
      </trkpt>
      <trkpt lat="47.62976" lon="-2.84822">
        <ele>13.2</ele>
        <time>2021-11-12T15:47:10Z</time>
      </trkpt>
      <trkpt lat="47.63007" lon="-2.84755">
        <ele>13.6</ele>
        <time>2021-11-12T15:47:19Z</time>
      </trkpt>
      <trkpt lat="47.63011" lon="-2.84748">
        <ele>13.8</ele>
        <time>2021-11-12T15:47:20Z</time>
      </trkpt>
      <trkpt lat="47.63038" lon="-2.84691">
        <ele>14</ele>
        <time>2021-11-12T15:47:27Z</time>
      </trkpt>
      <trkpt lat="47.63072" lon="-2.8462">
        <ele>14.2</ele>
        <time>2021-11-12T15:47:35Z</time>
      </trkpt>
      <trkpt lat="47.6308" lon="-2.84602">
        <ele>14.2</ele>
        <time>2021-11-12T15:47:37Z</time>
      </trkpt>
      <trkpt lat="47.63111" lon="-2.84535">
        <ele>14.2</ele>
        <time>2021-11-12T15:47:44Z</time>
      </trkpt>
      <trkpt lat="47.63124" lon="-2.84504">
        <ele>14.2</ele>
        <time>2021-11-12T15:47:47Z</time>
      </trkpt>
      <trkpt lat="47.63151" lon="-2.84433">
        <ele>14.2</ele>
        <time>2021-11-12T15:47:54Z</time>
      </trkpt>
      <trkpt lat="47.63162" lon="-2.84403">
        <ele>14.2</ele>
        <time>2021-11-12T15:47:57Z</time>
      </trkpt>
      <trkpt lat="47.63191" lon="-2.84331">
        <ele>14.4</ele>
        <time>2021-11-12T15:48:05Z</time>
      </trkpt>
      <trkpt lat="47.63201" lon="-2.84306">
        <ele>14.4</ele>
        <time>2021-11-12T15:48:08Z</time>
      </trkpt>
      <trkpt lat="47.63207" lon="-2.84293">
        <ele>14.4</ele>
        <time>2021-11-12T15:48:10Z</time>
      </trkpt>
      <trkpt lat="47.6321" lon="-2.84287">
        <ele>14.4</ele>
        <time>2021-11-12T15:48:11Z</time>
      </trkpt>
      <trkpt lat="47.63234" lon="-2.84251">
        <ele>14.8</ele>
        <time>2021-11-12T15:48:18Z</time>
      </trkpt>
      <trkpt lat="47.63238" lon="-2.84247">
        <ele>14.8</ele>
        <time>2021-11-12T15:48:19Z</time>
      </trkpt>
      <trkpt lat="47.63252" lon="-2.84227">
        <ele>15.2</ele>
        <time>2021-11-12T15:48:24Z</time>
      </trkpt>
      <trkpt lat="47.63272" lon="-2.84203">
        <ele>15.6</ele>
        <time>2021-11-12T15:48:31Z</time>
      </trkpt>
      <trkpt lat="47.63291" lon="-2.84182">
        <ele>16</ele>
        <time>2021-11-12T15:48:38Z</time>
      </trkpt>
      <trkpt lat="47.63297" lon="-2.84176">
        <ele>16.2</ele>
        <time>2021-11-12T15:48:40Z</time>
      </trkpt>
      <trkpt lat="47.6332" lon="-2.84148">
        <ele>16.8</ele>
        <time>2021-11-12T15:48:50Z</time>
      </trkpt>
      <trkpt lat="47.63325" lon="-2.84143">
        <ele>17</ele>
        <time>2021-11-12T15:48:52Z</time>
      </trkpt>
      <trkpt lat="47.63338" lon="-2.84128">
        <ele>17.2</ele>
        <time>2021-11-12T15:48:58Z</time>
      </trkpt>
      <trkpt lat="47.6336" lon="-2.84103">
        <ele>18.2</ele>
        <time>2021-11-12T15:49:08Z</time>
      </trkpt>
      <trkpt lat="47.63382" lon="-2.84078">
        <ele>18.8</ele>
        <time>2021-11-12T15:49:18Z</time>
      </trkpt>
      <trkpt lat="47.63398" lon="-2.8406">
        <ele>19</ele>
        <time>2021-11-12T15:49:25Z</time>
      </trkpt>
      <trkpt lat="47.63425" lon="-2.84029">
        <ele>19.2</ele>
        <time>2021-11-12T15:49:37Z</time>
      </trkpt>
      <trkpt lat="47.63427" lon="-2.84026">
        <ele>19.2</ele>
        <time>2021-11-12T15:49:38Z</time>
      </trkpt>
      <trkpt lat="47.63447" lon="-2.84002">
        <ele>19.8</ele>
        <time>2021-11-12T15:49:47Z</time>
      </trkpt>
      <trkpt lat="47.63475" lon="-2.8397">
        <ele>20.2</ele>
        <time>2021-11-12T15:49:59Z</time>
      </trkpt>
      <trkpt lat="47.63477" lon="-2.83967">
        <ele>20.4</ele>
        <time>2021-11-12T15:50:00Z</time>
      </trkpt>
      <trkpt lat="47.63498" lon="-2.83943">
        <ele>20.8</ele>
        <time>2021-11-12T15:50:09Z</time>
      </trkpt>
      <trkpt lat="47.63511" lon="-2.83928">
        <ele>21</ele>
        <time>2021-11-12T15:50:15Z</time>
      </trkpt>
      <trkpt lat="47.63536" lon="-2.83899">
        <ele>21.4</ele>
        <time>2021-11-12T15:50:26Z</time>
      </trkpt>
      <trkpt lat="47.63539" lon="-2.83896">
        <ele>21.4</ele>
        <time>2021-11-12T15:50:27Z</time>
      </trkpt>
      <trkpt lat="47.63567" lon="-2.83864">
        <ele>21.8</ele>
        <time>2021-11-12T15:50:39Z</time>
      </trkpt>
      <trkpt lat="47.63586" lon="-2.83841">
        <ele>22.2</ele>
        <time>2021-11-12T15:50:47Z</time>
      </trkpt>
      <trkpt lat="47.63588" lon="-2.83839">
        <ele>22.2</ele>
        <time>2021-11-12T15:50:48Z</time>
      </trkpt>
      <trkpt lat="47.63609" lon="-2.83811">
        <ele>22.8</ele>
        <time>2021-11-12T15:50:57Z</time>
      </trkpt>
      <trkpt lat="47.63626" lon="-2.83786">
        <ele>23.2</ele>
        <time>2021-11-12T15:51:05Z</time>
      </trkpt>
      <trkpt lat="47.63628" lon="-2.83782">
        <ele>23.2</ele>
        <time>2021-11-12T15:51:06Z</time>
      </trkpt>
      <trkpt lat="47.63649" lon="-2.83742">
        <ele>23.8</ele>
        <time>2021-11-12T15:51:17Z</time>
      </trkpt>
      <trkpt lat="47.63657" lon="-2.83726">
        <ele>24</ele>
        <time>2021-11-12T15:51:21Z</time>
      </trkpt>
      <trkpt lat="47.63663" lon="-2.8371">
        <ele>24.2</ele>
        <time>2021-11-12T15:51:25Z</time>
      </trkpt>
      <trkpt lat="47.63676" lon="-2.83674">
        <ele>24.2</ele>
        <time>2021-11-12T15:51:33Z</time>
      </trkpt>
      <trkpt lat="47.63678" lon="-2.83668">
        <ele>24.2</ele>
        <time>2021-11-12T15:51:35Z</time>
      </trkpt>
      <trkpt lat="47.63678" lon="-2.83662">
        <ele>24.4</ele>
        <time>2021-11-12T15:51:38Z</time>
      </trkpt>
      <trkpt lat="47.63678" lon="-2.83662">
        <ele>25.2</ele>
        <time>2021-11-12T15:52:12Z</time>
      </trkpt>
      <trkpt lat="47.63678" lon="-2.83662">
        <ele>26.2</ele>
        <time>2021-11-12T15:52:31Z</time>
      </trkpt>
      <trkpt lat="47.63678" lon="-2.83662">
        <ele>27</ele>
        <time>2021-11-12T15:52:50Z</time>
      </trkpt>
      <trkpt lat="47.63681" lon="-2.83656">
        <ele>27</ele>
        <time>2021-11-12T15:52:53Z</time>
      </trkpt>
      <trkpt lat="47.63689" lon="-2.83634">
        <ele>27</ele>
        <time>2021-11-12T15:52:59Z</time>
      </trkpt>
      <trkpt lat="47.63699" lon="-2.83595">
        <ele>26.8</ele>
        <time>2021-11-12T15:53:07Z</time>
      </trkpt>
      <trkpt lat="47.63709" lon="-2.83543">
        <ele>26.8</ele>
        <time>2021-11-12T15:53:16Z</time>
      </trkpt>
      <trkpt lat="47.63722" lon="-2.83477">
        <ele>26.8</ele>
        <time>2021-11-12T15:53:27Z</time>
      </trkpt>
      <trkpt lat="47.63731" lon="-2.83429">
        <ele>26.8</ele>
        <time>2021-11-12T15:53:34Z</time>
      </trkpt>
      <trkpt lat="47.63745" lon="-2.83356">
        <ele>27</ele>
        <time>2021-11-12T15:53:45Z</time>
      </trkpt>
      <trkpt lat="47.6376" lon="-2.83279">
        <ele>26.6</ele>
        <time>2021-11-12T15:53:56Z</time>
      </trkpt>
      <trkpt lat="47.63762" lon="-2.83265">
        <ele>26.6</ele>
        <time>2021-11-12T15:53:58Z</time>
      </trkpt>
      <trkpt lat="47.63778" lon="-2.83185">
        <ele>26.8</ele>
        <time>2021-11-12T15:54:09Z</time>
      </trkpt>
      <trkpt lat="47.63786" lon="-2.83137">
        <ele>27</ele>
        <time>2021-11-12T15:54:16Z</time>
      </trkpt>
      <trkpt lat="47.63789" lon="-2.83123">
        <ele>27</ele>
        <time>2021-11-12T15:54:18Z</time>
      </trkpt>
      <trkpt lat="47.63804" lon="-2.8305">
        <ele>27</ele>
        <time>2021-11-12T15:54:28Z</time>
      </trkpt>
      <trkpt lat="47.6382" lon="-2.82972">
        <ele>27.4</ele>
        <time>2021-11-12T15:54:39Z</time>
      </trkpt>
      <trkpt lat="47.63823" lon="-2.8296">
        <ele>27.4</ele>
        <time>2021-11-12T15:54:41Z</time>
      </trkpt>
      <trkpt lat="47.63842" lon="-2.82908">
        <ele>27.8</ele>
        <time>2021-11-12T15:54:49Z</time>
      </trkpt>
      <trkpt lat="47.6385" lon="-2.82889">
        <ele>28</ele>
        <time>2021-11-12T15:54:52Z</time>
      </trkpt>
      <trkpt lat="47.63858" lon="-2.82863">
        <ele>28.2</ele>
        <time>2021-11-12T15:54:57Z</time>
      </trkpt>
      <trkpt lat="47.63862" lon="-2.82841">
        <ele>28.6</ele>
        <time>2021-11-12T15:55:02Z</time>
      </trkpt>
      <trkpt lat="47.6386" lon="-2.82812">
        <ele>28.6</ele>
        <time>2021-11-12T15:55:07Z</time>
      </trkpt>
      <trkpt lat="47.63865" lon="-2.82791">
        <ele>28.6</ele>
        <time>2021-11-12T15:55:11Z</time>
      </trkpt>
      <trkpt lat="47.63883" lon="-2.82776">
        <ele>28.6</ele>
        <time>2021-11-12T15:55:16Z</time>
      </trkpt>
      <trkpt lat="47.63894" lon="-2.82761">
        <ele>28.6</ele>
        <time>2021-11-12T15:55:20Z</time>
      </trkpt>
      <trkpt lat="47.63911" lon="-2.82707">
        <ele>28.6</ele>
        <time>2021-11-12T15:55:30Z</time>
      </trkpt>
      <trkpt lat="47.63913" lon="-2.827">
        <ele>28.6</ele>
        <time>2021-11-12T15:55:33Z</time>
      </trkpt>
      <trkpt lat="47.63913" lon="-2.827">
        <ele>28.6</ele>
        <time>2021-11-12T15:55:34Z</time>
      </trkpt>
      <trkpt lat="47.63913" lon="-2.827">
        <ele>29</ele>
        <time>2021-11-12T15:55:41Z</time>
      </trkpt>
      <trkpt lat="47.63913" lon="-2.827">
        <ele>29</ele>
        <time>2021-11-12T15:55:42Z</time>
      </trkpt>
      <trkpt lat="47.63913" lon="-2.827">
        <ele>30.2</ele>
        <time>2021-11-12T15:56:01Z</time>
      </trkpt>
      <trkpt lat="47.63913" lon="-2.82699">
        <ele>31.2</ele>
        <time>2021-11-12T15:56:08Z</time>
      </trkpt>
      <trkpt lat="47.63913" lon="-2.82699">
        <ele>32</ele>
        <time>2021-11-12T15:56:18Z</time>
      </trkpt>
      <trkpt lat="47.63917" lon="-2.8269">
        <ele>32</ele>
        <time>2021-11-12T15:56:21Z</time>
      </trkpt>
      <trkpt lat="47.63929" lon="-2.82657">
        <ele>31.6</ele>
        <time>2021-11-12T15:56:28Z</time>
      </trkpt>
      <trkpt lat="47.63942" lon="-2.82621">
        <ele>31.8</ele>
        <time>2021-11-12T15:56:35Z</time>
      </trkpt>
      <trkpt lat="47.63964" lon="-2.8256">
        <ele>32.2</ele>
        <time>2021-11-12T15:56:45Z</time>
      </trkpt>
      <trkpt lat="47.63986" lon="-2.82496">
        <ele>33</ele>
        <time>2021-11-12T15:56:54Z</time>
      </trkpt>
      <trkpt lat="47.63992" lon="-2.82481">
        <ele>33</ele>
        <time>2021-11-12T15:56:56Z</time>
      </trkpt>
      <trkpt lat="47.64016" lon="-2.82414">
        <ele>33.2</ele>
        <time>2021-11-12T15:57:04Z</time>
      </trkpt>
      <trkpt lat="47.64043" lon="-2.8234">
        <ele>33.4</ele>
        <time>2021-11-12T15:57:12Z</time>
      </trkpt>
      <trkpt lat="47.64046" lon="-2.82331">
        <ele>33.4</ele>
        <time>2021-11-12T15:57:13Z</time>
      </trkpt>
      <trkpt lat="47.64075" lon="-2.82255">
        <ele>33.6</ele>
        <time>2021-11-12T15:57:21Z</time>
      </trkpt>
      <trkpt lat="47.64082" lon="-2.82238">
        <ele>33.6</ele>
        <time>2021-11-12T15:57:23Z</time>
      </trkpt>
      <trkpt lat="47.64111" lon="-2.82159">
        <ele>34</ele>
        <time>2021-11-12T15:57:31Z</time>
      </trkpt>
      <trkpt lat="47.64122" lon="-2.82131">
        <ele>34</ele>
        <time>2021-11-12T15:57:34Z</time>
      </trkpt>
      <trkpt lat="47.64151" lon="-2.82056">
        <ele>34</ele>
        <time>2021-11-12T15:57:42Z</time>
      </trkpt>
      <trkpt lat="47.64154" lon="-2.82047">
        <ele>34</ele>
        <time>2021-11-12T15:57:43Z</time>
      </trkpt>
      <trkpt lat="47.64182" lon="-2.81973">
        <ele>34.2</ele>
        <time>2021-11-12T15:57:51Z</time>
      </trkpt>
      <trkpt lat="47.64185" lon="-2.81963">
        <ele>34.2</ele>
        <time>2021-11-12T15:57:52Z</time>
      </trkpt>
      <trkpt lat="47.64211" lon="-2.81886">
        <ele>34.2</ele>
        <time>2021-11-12T15:58:00Z</time>
      </trkpt>
      <trkpt lat="47.64214" lon="-2.81876">
        <ele>34.2</ele>
        <time>2021-11-12T15:58:01Z</time>
      </trkpt>
      <trkpt lat="47.6424" lon="-2.81801">
        <ele>34</ele>
        <time>2021-11-12T15:58:09Z</time>
      </trkpt>
      <trkpt lat="47.64243" lon="-2.81791">
        <ele>34</ele>
        <time>2021-11-12T15:58:10Z</time>
      </trkpt>
      <trkpt lat="47.64268" lon="-2.81717">
        <ele>34.2</ele>
        <time>2021-11-12T15:58:18Z</time>
      </trkpt>
      <trkpt lat="47.64271" lon="-2.81708">
        <ele>34</ele>
        <time>2021-11-12T15:58:19Z</time>
      </trkpt>
      <trkpt lat="47.64298" lon="-2.81633">
        <ele>34</ele>
        <time>2021-11-12T15:58:27Z</time>
      </trkpt>
      <trkpt lat="47.64303" lon="-2.81619">
        <ele>34</ele>
        <time>2021-11-12T15:58:29Z</time>
      </trkpt>
      <trkpt lat="47.64305" lon="-2.81611">
        <ele>34</ele>
        <time>2021-11-12T15:58:30Z</time>
      </trkpt>
      <trkpt lat="47.64309" lon="-2.81595">
        <ele>34</ele>
        <time>2021-11-12T15:58:32Z</time>
      </trkpt>
      <trkpt lat="47.64312" lon="-2.81588">
        <ele>33.8</ele>
        <time>2021-11-12T15:58:33Z</time>
      </trkpt>
      <trkpt lat="47.64329" lon="-2.81544">
        <ele>33.4</ele>
        <time>2021-11-12T15:58:40Z</time>
      </trkpt>
      <trkpt lat="47.64331" lon="-2.81537">
        <ele>33.4</ele>
        <time>2021-11-12T15:58:41Z</time>
      </trkpt>
      <trkpt lat="47.64332" lon="-2.8153">
        <ele>33.2</ele>
        <time>2021-11-12T15:58:42Z</time>
      </trkpt>
      <trkpt lat="47.6433" lon="-2.81518">
        <ele>33.2</ele>
        <time>2021-11-12T15:58:44Z</time>
      </trkpt>
      <trkpt lat="47.64328" lon="-2.81507">
        <ele>33</ele>
        <time>2021-11-12T15:58:46Z</time>
      </trkpt>
      <trkpt lat="47.64328" lon="-2.81501">
        <ele>32.8</ele>
        <time>2021-11-12T15:58:47Z</time>
      </trkpt>
      <trkpt lat="47.6433" lon="-2.81496">
        <ele>32.8</ele>
        <time>2021-11-12T15:58:48Z</time>
      </trkpt>
      <trkpt lat="47.64335" lon="-2.81486">
        <ele>32.6</ele>
        <time>2021-11-12T15:58:50Z</time>
      </trkpt>
      <trkpt lat="47.64338" lon="-2.81482">
        <ele>32.6</ele>
        <time>2021-11-12T15:58:51Z</time>
      </trkpt>
      <trkpt lat="47.64346" lon="-2.81476">
        <ele>32.4</ele>
        <time>2021-11-12T15:58:53Z</time>
      </trkpt>
      <trkpt lat="47.64354" lon="-2.8147">
        <ele>32.2</ele>
        <time>2021-11-12T15:58:55Z</time>
      </trkpt>
      <trkpt lat="47.64357" lon="-2.81466">
        <ele>32</ele>
        <time>2021-11-12T15:58:56Z</time>
      </trkpt>
      <trkpt lat="47.6436" lon="-2.8146">
        <ele>31.8</ele>
        <time>2021-11-12T15:58:57Z</time>
      </trkpt>
      <trkpt lat="47.64369" lon="-2.81438">
        <ele>31.4</ele>
        <time>2021-11-12T15:59:01Z</time>
      </trkpt>
      <trkpt lat="47.6439" lon="-2.81386">
        <ele>31</ele>
        <time>2021-11-12T15:59:09Z</time>
      </trkpt>
      <trkpt lat="47.64406" lon="-2.81347">
        <ele>30.6</ele>
        <time>2021-11-12T15:59:14Z</time>
      </trkpt>
      <trkpt lat="47.64421" lon="-2.81313">
        <ele>30.4</ele>
        <time>2021-11-12T15:59:18Z</time>
      </trkpt>
      <trkpt lat="47.64432" lon="-2.81286">
        <ele>30.2</ele>
        <time>2021-11-12T15:59:21Z</time>
      </trkpt>
      <trkpt lat="47.64462" lon="-2.81215">
        <ele>29.6</ele>
        <time>2021-11-12T15:59:29Z</time>
      </trkpt>
      <trkpt lat="47.64465" lon="-2.81207">
        <ele>29.4</ele>
        <time>2021-11-12T15:59:30Z</time>
      </trkpt>
      <trkpt lat="47.64469" lon="-2.81198">
        <ele>29.4</ele>
        <time>2021-11-12T15:59:31Z</time>
      </trkpt>
      <trkpt lat="47.64489" lon="-2.81145">
        <ele>28.8</ele>
        <time>2021-11-12T15:59:37Z</time>
      </trkpt>
      <trkpt lat="47.64512" lon="-2.81085">
        <ele>28.6</ele>
        <time>2021-11-12T15:59:44Z</time>
      </trkpt>
      <trkpt lat="47.64519" lon="-2.81056">
        <ele>28.4</ele>
        <time>2021-11-12T15:59:47Z</time>
      </trkpt>
      <trkpt lat="47.64535" lon="-2.80993">
        <ele>28</ele>
        <time>2021-11-12T15:59:54Z</time>
      </trkpt>
      <trkpt lat="47.64543" lon="-2.80968">
        <ele>27.8</ele>
        <time>2021-11-12T15:59:57Z</time>
      </trkpt>
      <trkpt lat="47.64553" lon="-2.80947">
        <ele>27.6</ele>
        <time>2021-11-12T16:00:00Z</time>
      </trkpt>
      <trkpt lat="47.64556" lon="-2.8094">
        <ele>27.4</ele>
        <time>2021-11-12T16:00:01Z</time>
      </trkpt>
      <trkpt lat="47.64572" lon="-2.8091">
        <ele>27</ele>
        <time>2021-11-12T16:00:06Z</time>
      </trkpt>
      <trkpt lat="47.64575" lon="-2.80905">
        <ele>27</ele>
        <time>2021-11-12T16:00:07Z</time>
      </trkpt>
      <trkpt lat="47.64578" lon="-2.8089">
        <ele>26.8</ele>
        <time>2021-11-12T16:00:10Z</time>
      </trkpt>
      <trkpt lat="47.64572" lon="-2.80869">
        <ele>26.6</ele>
        <time>2021-11-12T16:00:14Z</time>
      </trkpt>
      <trkpt lat="47.64571" lon="-2.80863">
        <ele>26.4</ele>
        <time>2021-11-12T16:00:15Z</time>
      </trkpt>
      <trkpt lat="47.6457" lon="-2.80844">
        <ele>26</ele>
        <time>2021-11-12T16:00:18Z</time>
      </trkpt>
      <trkpt lat="47.64571" lon="-2.80838">
        <ele>25.8</ele>
        <time>2021-11-12T16:00:19Z</time>
      </trkpt>
      <trkpt lat="47.64572" lon="-2.80832">
        <ele>25.8</ele>
        <time>2021-11-12T16:00:20Z</time>
      </trkpt>
      <trkpt lat="47.64577" lon="-2.80822">
        <ele>25.4</ele>
        <time>2021-11-12T16:00:22Z</time>
      </trkpt>
      <trkpt lat="47.6458" lon="-2.80818">
        <ele>25.4</ele>
        <time>2021-11-12T16:00:23Z</time>
      </trkpt>
      <trkpt lat="47.64588" lon="-2.80812">
        <ele>25.2</ele>
        <time>2021-11-12T16:00:25Z</time>
      </trkpt>
      <trkpt lat="47.64596" lon="-2.8081">
        <ele>25</ele>
        <time>2021-11-12T16:00:27Z</time>
      </trkpt>
      <trkpt lat="47.646" lon="-2.8081">
        <ele>25</ele>
        <time>2021-11-12T16:00:28Z</time>
      </trkpt>
      <trkpt lat="47.64605" lon="-2.8081">
        <ele>25</ele>
        <time>2021-11-12T16:00:29Z</time>
      </trkpt>
      <trkpt lat="47.64613" lon="-2.80807">
        <ele>24.8</ele>
        <time>2021-11-12T16:00:31Z</time>
      </trkpt>
      <trkpt lat="47.64617" lon="-2.80804">
        <ele>24.8</ele>
        <time>2021-11-12T16:00:32Z</time>
      </trkpt>
      <trkpt lat="47.6462" lon="-2.808">
        <ele>24.6</ele>
        <time>2021-11-12T16:00:33Z</time>
      </trkpt>
      <trkpt lat="47.64632" lon="-2.80779">
        <ele>23.8</ele>
        <time>2021-11-12T16:00:37Z</time>
      </trkpt>
      <trkpt lat="47.64639" lon="-2.80762">
        <ele>23.6</ele>
        <time>2021-11-12T16:00:40Z</time>
      </trkpt>
      <trkpt lat="47.64641" lon="-2.80756">
        <ele>23.6</ele>
        <time>2021-11-12T16:00:41Z</time>
      </trkpt>
      <trkpt lat="47.64643" lon="-2.8075">
        <ele>23.6</ele>
        <time>2021-11-12T16:00:42Z</time>
      </trkpt>
      <trkpt lat="47.6466" lon="-2.80691">
        <ele>23.2</ele>
        <time>2021-11-12T16:00:51Z</time>
      </trkpt>
      <trkpt lat="47.64664" lon="-2.80678">
        <ele>23</ele>
        <time>2021-11-12T16:00:53Z</time>
      </trkpt>
      <trkpt lat="47.64674" lon="-2.80644">
        <ele>23</ele>
        <time>2021-11-12T16:00:58Z</time>
      </trkpt>
      <trkpt lat="47.64681" lon="-2.80624">
        <ele>23</ele>
        <time>2021-11-12T16:01:01Z</time>
      </trkpt>
      <trkpt lat="47.64687" lon="-2.80604">
        <ele>23</ele>
        <time>2021-11-12T16:01:04Z</time>
      </trkpt>
      <trkpt lat="47.64705" lon="-2.80541">
        <ele>23.6</ele>
        <time>2021-11-12T16:01:12Z</time>
      </trkpt>
      <trkpt lat="47.64721" lon="-2.80486">
        <ele>22.8</ele>
        <time>2021-11-12T16:01:18Z</time>
      </trkpt>
      <trkpt lat="47.64733" lon="-2.80449">
        <ele>22.8</ele>
        <time>2021-11-12T16:01:22Z</time>
      </trkpt>
      <trkpt lat="47.64744" lon="-2.8041">
        <ele>22.6</ele>
        <time>2021-11-12T16:01:26Z</time>
      </trkpt>
      <trkpt lat="47.64769" lon="-2.80327">
        <ele>21.8</ele>
        <time>2021-11-12T16:01:34Z</time>
      </trkpt>
      <trkpt lat="47.64772" lon="-2.80316">
        <ele>21.6</ele>
        <time>2021-11-12T16:01:35Z</time>
      </trkpt>
      <trkpt lat="47.6479" lon="-2.80254">
        <ele>21.2</ele>
        <time>2021-11-12T16:01:40Z</time>
      </trkpt>
      <trkpt lat="47.64808" lon="-2.80194">
        <ele>20.6</ele>
        <time>2021-11-12T16:01:45Z</time>
      </trkpt>
      <trkpt lat="47.64812" lon="-2.80181">
        <ele>20.4</ele>
        <time>2021-11-12T16:01:46Z</time>
      </trkpt>
      <trkpt lat="47.64834" lon="-2.80105">
        <ele>19.6</ele>
        <time>2021-11-12T16:01:52Z</time>
      </trkpt>
      <trkpt lat="47.64854" lon="-2.80041">
        <ele>18.4</ele>
        <time>2021-11-12T16:01:57Z</time>
      </trkpt>
      <trkpt lat="47.64865" lon="-2.80002">
        <ele>18</ele>
        <time>2021-11-12T16:02:00Z</time>
      </trkpt>
      <trkpt lat="47.64879" lon="-2.79955">
        <ele>17.2</ele>
        <time>2021-11-12T16:02:04Z</time>
      </trkpt>
      <trkpt lat="47.64882" lon="-2.79945">
        <ele>17.2</ele>
        <time>2021-11-12T16:02:05Z</time>
      </trkpt>
      <trkpt lat="47.64886" lon="-2.79927">
        <ele>17</ele>
        <time>2021-11-12T16:02:07Z</time>
      </trkpt>
      <trkpt lat="47.6489" lon="-2.79909">
        <ele>16.6</ele>
        <time>2021-11-12T16:02:09Z</time>
      </trkpt>
      <trkpt lat="47.64891" lon="-2.79904">
        <ele>16.4</ele>
        <time>2021-11-12T16:02:10Z</time>
      </trkpt>
      <trkpt lat="47.64892" lon="-2.79897">
        <ele>16.2</ele>
        <time>2021-11-12T16:02:11Z</time>
      </trkpt>
      <trkpt lat="47.64892" lon="-2.79887">
        <ele>15.8</ele>
        <time>2021-11-12T16:02:13Z</time>
      </trkpt>
      <trkpt lat="47.64892" lon="-2.79871">
        <ele>15.2</ele>
        <time>2021-11-12T16:02:16Z</time>
      </trkpt>
      <trkpt lat="47.64894" lon="-2.7986">
        <ele>14.8</ele>
        <time>2021-11-12T16:02:18Z</time>
      </trkpt>
      <trkpt lat="47.649" lon="-2.79847">
        <ele>14.2</ele>
        <time>2021-11-12T16:02:21Z</time>
      </trkpt>
      <trkpt lat="47.64907" lon="-2.79835">
        <ele>13.6</ele>
        <time>2021-11-12T16:02:24Z</time>
      </trkpt>
      <trkpt lat="47.64912" lon="-2.79811">
        <ele>13.2</ele>
        <time>2021-11-12T16:02:28Z</time>
      </trkpt>
      <trkpt lat="47.64913" lon="-2.79805">
        <ele>12.8</ele>
        <time>2021-11-12T16:02:29Z</time>
      </trkpt>
      <trkpt lat="47.6492" lon="-2.79762">
        <ele>12</ele>
        <time>2021-11-12T16:02:36Z</time>
      </trkpt>
      <trkpt lat="47.64921" lon="-2.79756">
        <ele>12</ele>
        <time>2021-11-12T16:02:37Z</time>
      </trkpt>
      <trkpt lat="47.64924" lon="-2.79737">
        <ele>11.4</ele>
        <time>2021-11-12T16:02:41Z</time>
      </trkpt>
      <trkpt lat="47.64925" lon="-2.79729">
        <ele>11</ele>
        <time>2021-11-12T16:02:43Z</time>
      </trkpt>
      <trkpt lat="47.64928" lon="-2.79711">
        <ele>10.2</ele>
        <time>2021-11-12T16:02:48Z</time>
      </trkpt>
      <trkpt lat="47.64928" lon="-2.79708">
        <ele>10</ele>
        <time>2021-11-12T16:02:49Z</time>
      </trkpt>
      <trkpt lat="47.6493" lon="-2.79693">
        <ele>9.6</ele>
        <time>2021-11-12T16:02:54Z</time>
      </trkpt>
      <trkpt lat="47.64932" lon="-2.79677">
        <ele>9</ele>
        <time>2021-11-12T16:03:00Z</time>
      </trkpt>
      <trkpt lat="47.64932" lon="-2.79674">
        <ele>9</ele>
        <time>2021-11-12T16:03:01Z</time>
      </trkpt>
      <trkpt lat="47.64935" lon="-2.79661">
        <ele>8.8</ele>
        <time>2021-11-12T16:03:05Z</time>
      </trkpt>
      <trkpt lat="47.64939" lon="-2.79641">
        <ele>8.6</ele>
        <time>2021-11-12T16:03:11Z</time>
      </trkpt>
      <trkpt lat="47.64943" lon="-2.7962">
        <ele>8.2</ele>
        <time>2021-11-12T16:03:18Z</time>
      </trkpt>
      <trkpt lat="47.64943" lon="-2.79617">
        <ele>8.2</ele>
        <time>2021-11-12T16:03:19Z</time>
      </trkpt>
      <trkpt lat="47.64948" lon="-2.79598">
        <ele>8.2</ele>
        <time>2021-11-12T16:03:25Z</time>
      </trkpt>
      <trkpt lat="47.6495" lon="-2.79587">
        <ele>8.2</ele>
        <time>2021-11-12T16:03:29Z</time>
      </trkpt>
      <trkpt lat="47.64951" lon="-2.79581">
        <ele>8.2</ele>
        <time>2021-11-12T16:03:31Z</time>
      </trkpt>
      <trkpt lat="47.64956" lon="-2.79563">
        <ele>8</ele>
        <time>2021-11-12T16:03:38Z</time>
      </trkpt>
      <trkpt lat="47.64963" lon="-2.79542">
        <ele>7.6</ele>
        <time>2021-11-12T16:03:46Z</time>
      </trkpt>
      <trkpt lat="47.64968" lon="-2.79525">
        <ele>7.4</ele>
        <time>2021-11-12T16:03:52Z</time>
      </trkpt>
      <trkpt lat="47.64973" lon="-2.79508">
        <ele>7.2</ele>
        <time>2021-11-12T16:03:58Z</time>
      </trkpt>
      <trkpt lat="47.64973" lon="-2.79505">
        <ele>7.2</ele>
        <time>2021-11-12T16:03:59Z</time>
      </trkpt>
      <trkpt lat="47.64977" lon="-2.7949">
        <ele>6.8</ele>
        <time>2021-11-12T16:04:04Z</time>
      </trkpt>
      <trkpt lat="47.64983" lon="-2.7947">
        <ele>6.6</ele>
        <time>2021-11-12T16:04:11Z</time>
      </trkpt>
      <trkpt lat="47.64989" lon="-2.7945">
        <ele>6.4</ele>
        <time>2021-11-12T16:04:18Z</time>
      </trkpt>
      <trkpt lat="47.64997" lon="-2.79425">
        <ele>6.4</ele>
        <time>2021-11-12T16:04:27Z</time>
      </trkpt>
      <trkpt lat="47.65004" lon="-2.79402">
        <ele>6.6</ele>
        <time>2021-11-12T16:04:35Z</time>
      </trkpt>
      <trkpt lat="47.65009" lon="-2.79384">
        <ele>6.8</ele>
        <time>2021-11-12T16:04:42Z</time>
      </trkpt>
      <trkpt lat="47.65016" lon="-2.7936">
        <ele>6.6</ele>
        <time>2021-11-12T16:04:49Z</time>
      </trkpt>
      <trkpt lat="47.65027" lon="-2.79323">
        <ele>6.6</ele>
        <time>2021-11-12T16:04:57Z</time>
      </trkpt>
      <trkpt lat="47.65031" lon="-2.79312">
        <ele>6.6</ele>
        <time>2021-11-12T16:04:59Z</time>
      </trkpt>
      <trkpt lat="47.65037" lon="-2.79294">
        <ele>6.6</ele>
        <time>2021-11-12T16:05:02Z</time>
      </trkpt>
      <trkpt lat="47.65045" lon="-2.79267">
        <ele>6.6</ele>
        <time>2021-11-12T16:05:06Z</time>
      </trkpt>
      <trkpt lat="47.65049" lon="-2.79253">
        <ele>6.6</ele>
        <time>2021-11-12T16:05:08Z</time>
      </trkpt>
      <trkpt lat="47.65067" lon="-2.79191">
        <ele>6.6</ele>
        <time>2021-11-12T16:05:16Z</time>
      </trkpt>
      <trkpt lat="47.65085" lon="-2.7913">
        <ele>6.2</ele>
        <time>2021-11-12T16:05:23Z</time>
      </trkpt>
      <trkpt lat="47.6509" lon="-2.79113">
        <ele>6</ele>
        <time>2021-11-12T16:05:25Z</time>
      </trkpt>
      <trkpt lat="47.65103" lon="-2.7907">
        <ele>6</ele>
        <time>2021-11-12T16:05:30Z</time>
      </trkpt>
      <trkpt lat="47.65121" lon="-2.79006">
        <ele>6</ele>
        <time>2021-11-12T16:05:38Z</time>
      </trkpt>
      <trkpt lat="47.65134" lon="-2.78958">
        <ele>6.2</ele>
        <time>2021-11-12T16:05:45Z</time>
      </trkpt>
      <trkpt lat="47.65147" lon="-2.78908">
        <ele>6.4</ele>
        <time>2021-11-12T16:05:53Z</time>
      </trkpt>
      <trkpt lat="47.65157" lon="-2.78864">
        <ele>6.4</ele>
        <time>2021-11-12T16:06:01Z</time>
      </trkpt>
      <trkpt lat="47.65171" lon="-2.78818">
        <ele>6.4</ele>
        <time>2021-11-12T16:06:10Z</time>
      </trkpt>
      <trkpt lat="47.65182" lon="-2.78782">
        <ele>6.4</ele>
        <time>2021-11-12T16:06:17Z</time>
      </trkpt>
      <trkpt lat="47.65195" lon="-2.78741">
        <ele>6.4</ele>
        <time>2021-11-12T16:06:25Z</time>
      </trkpt>
      <trkpt lat="47.65211" lon="-2.78696">
        <ele>6.6</ele>
        <time>2021-11-12T16:06:34Z</time>
      </trkpt>
      <trkpt lat="47.65223" lon="-2.78658">
        <ele>6.4</ele>
        <time>2021-11-12T16:06:42Z</time>
      </trkpt>
      <trkpt lat="47.65237" lon="-2.78605">
        <ele>6.8</ele>
        <time>2021-11-12T16:06:53Z</time>
      </trkpt>
      <trkpt lat="47.65247" lon="-2.78566">
        <ele>6.8</ele>
        <time>2021-11-12T16:07:01Z</time>
      </trkpt>
      <trkpt lat="47.65255" lon="-2.78536">
        <ele>7</ele>
        <time>2021-11-12T16:07:07Z</time>
      </trkpt>
      <trkpt lat="47.65257" lon="-2.78531">
        <ele>7.2</ele>
        <time>2021-11-12T16:07:08Z</time>
      </trkpt>
      <trkpt lat="47.65268" lon="-2.78483">
        <ele>7.2</ele>
        <time>2021-11-12T16:07:17Z</time>
      </trkpt>
      <trkpt lat="47.65278" lon="-2.78438">
        <ele>7.2</ele>
        <time>2021-11-12T16:07:25Z</time>
      </trkpt>
      <trkpt lat="47.65286" lon="-2.78406">
        <ele>7.4</ele>
        <time>2021-11-12T16:07:31Z</time>
      </trkpt>
      <trkpt lat="47.65284" lon="-2.78385">
        <ele>7.4</ele>
        <time>2021-11-12T16:07:36Z</time>
      </trkpt>
      <trkpt lat="47.65284" lon="-2.78384">
        <ele>7.4</ele>
        <time>2021-11-12T16:07:39Z</time>
      </trkpt>
      <trkpt lat="47.65284" lon="-2.78384">
        <ele>7.2</ele>
        <time>2021-11-12T16:07:51Z</time>
      </trkpt>
      <trkpt lat="47.65284" lon="-2.78384">
        <ele>7.6</ele>
        <time>2021-11-12T16:08:00Z</time>
      </trkpt>
      <trkpt lat="47.6528" lon="-2.78376">
        <ele>7.6</ele>
        <time>2021-11-12T16:08:03Z</time>
      </trkpt>
      <trkpt lat="47.65276" lon="-2.78368">
        <ele>7.8</ele>
        <time>2021-11-12T16:08:07Z</time>
      </trkpt>
      <trkpt lat="47.65275" lon="-2.78366">
        <ele>8</ele>
        <time>2021-11-12T16:08:08Z</time>
      </trkpt>
      <trkpt lat="47.65274" lon="-2.78366">
        <ele>8</ele>
        <time>2021-11-12T16:08:09Z</time>
      </trkpt>
      <trkpt lat="47.65271" lon="-2.78368">
        <ele>8</ele>
        <time>2021-11-12T16:08:12Z</time>
      </trkpt>
      <trkpt lat="47.65269" lon="-2.78368">
        <ele>8</ele>
        <time>2021-11-12T16:08:14Z</time>
      </trkpt>
      <trkpt lat="47.65261" lon="-2.78366">
        <ele>8</ele>
        <time>2021-11-12T16:08:17Z</time>
      </trkpt>
      <trkpt lat="47.65237" lon="-2.78362">
        <ele>8</ele>
        <time>2021-11-12T16:08:23Z</time>
      </trkpt>
      <trkpt lat="47.6521" lon="-2.78363">
        <ele>8.4</ele>
        <time>2021-11-12T16:08:29Z</time>
      </trkpt>
      <trkpt lat="47.65196" lon="-2.78362">
        <ele>8.6</ele>
        <time>2021-11-12T16:08:32Z</time>
      </trkpt>
      <trkpt lat="47.65186" lon="-2.78358">
        <ele>8.6</ele>
        <time>2021-11-12T16:08:34Z</time>
      </trkpt>
      <trkpt lat="47.65177" lon="-2.78355">
        <ele>8.8</ele>
        <time>2021-11-12T16:08:36Z</time>
      </trkpt>
      <trkpt lat="47.65173" lon="-2.78353">
        <ele>8.8</ele>
        <time>2021-11-12T16:08:37Z</time>
      </trkpt>
      <trkpt lat="47.65155" lon="-2.78348">
        <ele>8.8</ele>
        <time>2021-11-12T16:08:41Z</time>
      </trkpt>
      <trkpt lat="47.6515" lon="-2.78349">
        <ele>8.8</ele>
        <time>2021-11-12T16:08:42Z</time>
      </trkpt>
      <trkpt lat="47.65145" lon="-2.7835">
        <ele>8.8</ele>
        <time>2021-11-12T16:08:43Z</time>
      </trkpt>
      <trkpt lat="47.65131" lon="-2.78353">
        <ele>9.2</ele>
        <time>2021-11-12T16:08:47Z</time>
      </trkpt>
      <trkpt lat="47.65114" lon="-2.78354">
        <ele>9.2</ele>
        <time>2021-11-12T16:08:52Z</time>
      </trkpt>
      <trkpt lat="47.65088" lon="-2.78348">
        <ele>9.4</ele>
        <time>2021-11-12T16:08:58Z</time>
      </trkpt>
      <trkpt lat="47.65052" lon="-2.78338">
        <ele>9.8</ele>
        <time>2021-11-12T16:09:06Z</time>
      </trkpt>
      <trkpt lat="47.65043" lon="-2.78336">
        <ele>10</ele>
        <time>2021-11-12T16:09:08Z</time>
      </trkpt>
      <trkpt lat="47.6501" lon="-2.78325">
        <ele>10</ele>
        <time>2021-11-12T16:09:15Z</time>
      </trkpt>
      <trkpt lat="47.64971" lon="-2.78306">
        <ele>9.8</ele>
        <time>2021-11-12T16:09:23Z</time>
      </trkpt>
      <trkpt lat="47.64943" lon="-2.78295">
        <ele>9.4</ele>
        <time>2021-11-12T16:09:28Z</time>
      </trkpt>
      <trkpt lat="47.64919" lon="-2.78285">
        <ele>9.8</ele>
        <time>2021-11-12T16:09:32Z</time>
      </trkpt>
      <trkpt lat="47.64907" lon="-2.7828">
        <ele>9.8</ele>
        <time>2021-11-12T16:09:34Z</time>
      </trkpt>
      <trkpt lat="47.64865" lon="-2.78261">
        <ele>9.2</ele>
        <time>2021-11-12T16:09:41Z</time>
      </trkpt>
      <trkpt lat="47.64859" lon="-2.78258">
        <ele>9.2</ele>
        <time>2021-11-12T16:09:42Z</time>
      </trkpt>
      <trkpt lat="47.64828" lon="-2.78242">
        <ele>9.2</ele>
        <time>2021-11-12T16:09:47Z</time>
      </trkpt>
      <trkpt lat="47.64793" lon="-2.78223">
        <ele>9</ele>
        <time>2021-11-12T16:09:53Z</time>
      </trkpt>
      <trkpt lat="47.64789" lon="-2.78221">
        <ele>9</ele>
        <time>2021-11-12T16:09:54Z</time>
      </trkpt>
      <trkpt lat="47.64783" lon="-2.78213">
        <ele>9</ele>
        <time>2021-11-12T16:09:56Z</time>
      </trkpt>
      <trkpt lat="47.64782" lon="-2.78209">
        <ele>8.8</ele>
        <time>2021-11-12T16:09:57Z</time>
      </trkpt>
      <trkpt lat="47.64787" lon="-2.78185">
        <ele>8.8</ele>
        <time>2021-11-12T16:10:01Z</time>
      </trkpt>
      <trkpt lat="47.64792" lon="-2.78166">
        <ele>8.8</ele>
        <time>2021-11-12T16:10:05Z</time>
      </trkpt>
      <trkpt lat="47.64791" lon="-2.78162">
        <ele>8.8</ele>
        <time>2021-11-12T16:10:06Z</time>
      </trkpt>
      <trkpt lat="47.64781" lon="-2.78158">
        <ele>8.6</ele>
        <time>2021-11-12T16:10:09Z</time>
      </trkpt>
      <trkpt lat="47.64762" lon="-2.78145">
        <ele>8.4</ele>
        <time>2021-11-12T16:10:14Z</time>
      </trkpt>
      <trkpt lat="47.64735" lon="-2.78127">
        <ele>7.8</ele>
        <time>2021-11-12T16:10:20Z</time>
      </trkpt>
      <trkpt lat="47.6473" lon="-2.78123">
        <ele>7.8</ele>
        <time>2021-11-12T16:10:21Z</time>
      </trkpt>
      <trkpt lat="47.64697" lon="-2.78094">
        <ele>7.2</ele>
        <time>2021-11-12T16:10:28Z</time>
      </trkpt>
      <trkpt lat="47.64685" lon="-2.78081">
        <ele>7</ele>
        <time>2021-11-12T16:10:31Z</time>
      </trkpt>
      <trkpt lat="47.64665" lon="-2.7806">
        <ele>6.4</ele>
        <time>2021-11-12T16:10:36Z</time>
      </trkpt>
      <trkpt lat="47.64659" lon="-2.78047">
        <ele>6</ele>
        <time>2021-11-12T16:10:39Z</time>
      </trkpt>
      <trkpt lat="47.64657" lon="-2.78043">
        <ele>6</ele>
        <time>2021-11-12T16:10:40Z</time>
      </trkpt>
      <trkpt lat="47.64646" lon="-2.78031">
        <ele>5.8</ele>
        <time>2021-11-12T16:10:44Z</time>
      </trkpt>
      <trkpt lat="47.64633" lon="-2.78019">
        <ele>5.4</ele>
        <time>2021-11-12T16:10:50Z</time>
      </trkpt>
      <trkpt lat="47.64632" lon="-2.78019">
        <ele>5</ele>
        <time>2021-11-12T16:10:54Z</time>
      </trkpt>
      <trkpt lat="47.64632" lon="-2.78019">
        <ele>5</ele>
        <time>2021-11-12T16:10:57Z</time>
      </trkpt>
      <trkpt lat="47.64632" lon="-2.78019">
        <ele>4.2</ele>
        <time>2021-11-12T16:11:07Z</time>
      </trkpt>
      <trkpt lat="47.64632" lon="-2.78019">
        <ele>3</ele>
        <time>2021-11-12T16:11:20Z</time>
      </trkpt>
      <trkpt lat="47.64633" lon="-2.78018">
        <ele>2.6</ele>
        <time>2021-11-12T16:11:26Z</time>
      </trkpt>
      <trkpt lat="47.64633" lon="-2.78018">
        <ele>2.4</ele>
        <time>2021-11-12T16:11:30Z</time>
      </trkpt>
      <trkpt lat="47.64639" lon="-2.78024">
        <ele>2.2</ele>
        <time>2021-11-12T16:11:34Z</time>
      </trkpt>
      <trkpt lat="47.64646" lon="-2.78032">
        <ele>2</ele>
        <time>2021-11-12T16:11:37Z</time>
      </trkpt>
      <trkpt lat="47.6465" lon="-2.78034">
        <ele>1.8</ele>
        <time>2021-11-12T16:11:38Z</time>
      </trkpt>
      <trkpt lat="47.6466" lon="-2.78049">
        <ele>1.4</ele>
        <time>2021-11-12T16:11:44Z</time>
      </trkpt>
      <trkpt lat="47.64657" lon="-2.78054">
        <ele>1.2</ele>
        <time>2021-11-12T16:11:47Z</time>
      </trkpt>
      <trkpt lat="47.64656" lon="-2.78053">
        <ele>1.2</ele>
        <time>2021-11-12T16:11:48Z</time>
      </trkpt>
      <trkpt lat="47.64644" lon="-2.78042">
        <ele>1.2</ele>
        <time>2021-11-12T16:11:54Z</time>
      </trkpt>
      <trkpt lat="47.64633" lon="-2.7803">
        <ele>1.2</ele>
        <time>2021-11-12T16:12:00Z</time>
      </trkpt>
      <trkpt lat="47.64632" lon="-2.78028">
        <ele>1.2</ele>
        <time>2021-11-12T16:12:01Z</time>
      </trkpt>
      <trkpt lat="47.64632" lon="-2.78027">
        <ele>1</ele>
        <time>2021-11-12T16:12:02Z</time>
      </trkpt>
      <trkpt lat="47.64629" lon="-2.78017">
        <ele>1</ele>
        <time>2021-11-12T16:12:05Z</time>
      </trkpt>
      <trkpt lat="47.64625" lon="-2.78012">
        <ele>1</ele>
        <time>2021-11-12T16:12:07Z</time>
      </trkpt>
      <trkpt lat="47.64618" lon="-2.78005">
        <ele>0.8</ele>
        <time>2021-11-12T16:12:10Z</time>
      </trkpt>
      <trkpt lat="47.64598" lon="-2.77983">
        <ele>0.8</ele>
        <time>2021-11-12T16:12:19Z</time>
      </trkpt>
      <trkpt lat="47.64579" lon="-2.77961">
        <ele>0.8</ele>
        <time>2021-11-12T16:12:26Z</time>
      </trkpt>
      <trkpt lat="47.6456" lon="-2.77938">
        <ele>0.8</ele>
        <time>2021-11-12T16:12:33Z</time>
      </trkpt>
      <trkpt lat="47.64533" lon="-2.77907">
        <ele>1.4</ele>
        <time>2021-11-12T16:12:43Z</time>
      </trkpt>
      <trkpt lat="47.64514" lon="-2.77888">
        <ele>2</ele>
        <time>2021-11-12T16:12:50Z</time>
      </trkpt>
      <trkpt lat="47.64508" lon="-2.77882">
        <ele>2</ele>
        <time>2021-11-12T16:12:52Z</time>
      </trkpt>
      <trkpt lat="47.64487" lon="-2.77859">
        <ele>2.6</ele>
        <time>2021-11-12T16:12:59Z</time>
      </trkpt>
      <trkpt lat="47.64464" lon="-2.77834">
        <ele>3</ele>
        <time>2021-11-12T16:13:07Z</time>
      </trkpt>
      <trkpt lat="47.64458" lon="-2.77828">
        <ele>3</ele>
        <time>2021-11-12T16:13:09Z</time>
      </trkpt>
      <trkpt lat="47.64437" lon="-2.77807">
        <ele>3.4</ele>
        <time>2021-11-12T16:13:16Z</time>
      </trkpt>
      <trkpt lat="47.64417" lon="-2.77785">
        <ele>4</ele>
        <time>2021-11-12T16:13:24Z</time>
      </trkpt>
      <trkpt lat="47.64414" lon="-2.77782">
        <ele>4</ele>
        <time>2021-11-12T16:13:25Z</time>
      </trkpt>
      <trkpt lat="47.64398" lon="-2.77763">
        <ele>4.8</ele>
        <time>2021-11-12T16:13:31Z</time>
      </trkpt>
      <trkpt lat="47.64392" lon="-2.77757">
        <ele>5</ele>
        <time>2021-11-12T16:13:33Z</time>
      </trkpt>
      <trkpt lat="47.64382" lon="-2.77745">
        <ele>5.6</ele>
        <time>2021-11-12T16:13:37Z</time>
      </trkpt>
      <trkpt lat="47.64362" lon="-2.77724">
        <ele>6.2</ele>
        <time>2021-11-12T16:13:44Z</time>
      </trkpt>
      <trkpt lat="47.64342" lon="-2.77701">
        <ele>6.8</ele>
        <time>2021-11-12T16:13:51Z</time>
      </trkpt>
      <trkpt lat="47.64318" lon="-2.77669">
        <ele>7</ele>
        <time>2021-11-12T16:13:59Z</time>
      </trkpt>
      <trkpt lat="47.64311" lon="-2.77662">
        <ele>7.2</ele>
        <time>2021-11-12T16:14:02Z</time>
      </trkpt>
      <trkpt lat="47.64309" lon="-2.77659">
        <ele>7.2</ele>
        <time>2021-11-12T16:14:03Z</time>
      </trkpt>
      <trkpt lat="47.64289" lon="-2.77642">
        <ele>7.6</ele>
        <time>2021-11-12T16:14:09Z</time>
      </trkpt>
      <trkpt lat="47.64272" lon="-2.77627">
        <ele>8.2</ele>
        <time>2021-11-12T16:14:14Z</time>
      </trkpt>
      <trkpt lat="47.64263" lon="-2.77617">
        <ele>8.4</ele>
        <time>2021-11-12T16:14:17Z</time>
      </trkpt>
      <trkpt lat="47.64236" lon="-2.77585">
        <ele>8.8</ele>
        <time>2021-11-12T16:14:28Z</time>
      </trkpt>
      <trkpt lat="47.64222" lon="-2.77562">
        <ele>9.2</ele>
        <time>2021-11-12T16:14:35Z</time>
      </trkpt>
      <trkpt lat="47.64219" lon="-2.77555">
        <ele>9.4</ele>
        <time>2021-11-12T16:14:37Z</time>
      </trkpt>
      <trkpt lat="47.64207" lon="-2.7753">
        <ele>9.6</ele>
        <time>2021-11-12T16:14:44Z</time>
      </trkpt>
      <trkpt lat="47.64199" lon="-2.77509">
        <ele>10</ele>
        <time>2021-11-12T16:14:51Z</time>
      </trkpt>
      <trkpt lat="47.64192" lon="-2.77487">
        <ele>10</ele>
        <time>2021-11-12T16:14:58Z</time>
      </trkpt>
      <trkpt lat="47.64185" lon="-2.77455">
        <ele>9.8</ele>
        <time>2021-11-12T16:15:06Z</time>
      </trkpt>
      <trkpt lat="47.64182" lon="-2.77435">
        <ele>9.8</ele>
        <time>2021-11-12T16:15:12Z</time>
      </trkpt>
      <trkpt lat="47.64178" lon="-2.77401">
        <ele>10.2</ele>
        <time>2021-11-12T16:15:20Z</time>
      </trkpt>
      <trkpt lat="47.64174" lon="-2.77363">
        <ele>10</ele>
        <time>2021-11-12T16:15:28Z</time>
      </trkpt>
      <trkpt lat="47.64171" lon="-2.77329">
        <ele>10</ele>
        <time>2021-11-12T16:15:35Z</time>
      </trkpt>
      <trkpt lat="47.64167" lon="-2.77298">
        <ele>10</ele>
        <time>2021-11-12T16:15:41Z</time>
      </trkpt>
      <trkpt lat="47.64163" lon="-2.77264">
        <ele>9.8</ele>
        <time>2021-11-12T16:15:48Z</time>
      </trkpt>
      <trkpt lat="47.6416" lon="-2.77227">
        <ele>9.6</ele>
        <time>2021-11-12T16:15:54Z</time>
      </trkpt>
      <trkpt lat="47.64156" lon="-2.77194">
        <ele>9.4</ele>
        <time>2021-11-12T16:15:59Z</time>
      </trkpt>
      <trkpt lat="47.64154" lon="-2.77182">
        <ele>9.2</ele>
        <time>2021-11-12T16:16:01Z</time>
      </trkpt>
      <trkpt lat="47.64152" lon="-2.77171">
        <ele>9.2</ele>
        <time>2021-11-12T16:16:03Z</time>
      </trkpt>
      <trkpt lat="47.6415" lon="-2.77155">
        <ele>9</ele>
        <time>2021-11-12T16:16:07Z</time>
      </trkpt>
      <trkpt lat="47.64149" lon="-2.77152">
        <ele>9</ele>
        <time>2021-11-12T16:16:11Z</time>
      </trkpt>
      <trkpt lat="47.64148" lon="-2.77152">
        <ele>9</ele>
        <time>2021-11-12T16:16:12Z</time>
      </trkpt>
      <trkpt lat="47.6414" lon="-2.77155">
        <ele>9.2</ele>
        <time>2021-11-12T16:16:17Z</time>
      </trkpt>
      <trkpt lat="47.64138" lon="-2.77154">
        <ele>9</ele>
        <time>2021-11-12T16:16:18Z</time>
      </trkpt>
      <trkpt lat="47.64135" lon="-2.77149">
        <ele>9</ele>
        <time>2021-11-12T16:16:20Z</time>
      </trkpt>
      <trkpt lat="47.64135" lon="-2.77146">
        <ele>9</ele>
        <time>2021-11-12T16:16:21Z</time>
      </trkpt>
      <trkpt lat="47.64125" lon="-2.7713">
        <ele>8.6</ele>
        <time>2021-11-12T16:16:25Z</time>
      </trkpt>
      <trkpt lat="47.64119" lon="-2.77113">
        <ele>8.4</ele>
        <time>2021-11-12T16:16:28Z</time>
      </trkpt>
      <trkpt lat="47.64119" lon="-2.77107">
        <ele>8.4</ele>
        <time>2021-11-12T16:16:29Z</time>
      </trkpt>
      <trkpt lat="47.64118" lon="-2.77082">
        <ele>8.2</ele>
        <time>2021-11-12T16:16:33Z</time>
      </trkpt>
      <trkpt lat="47.64116" lon="-2.77077">
        <ele>8</ele>
        <time>2021-11-12T16:16:34Z</time>
      </trkpt>
      <trkpt lat="47.64113" lon="-2.77072">
        <ele>7.8</ele>
        <time>2021-11-12T16:16:35Z</time>
      </trkpt>
      <trkpt lat="47.64099" lon="-2.77053">
        <ele>7.6</ele>
        <time>2021-11-12T16:16:39Z</time>
      </trkpt>
      <trkpt lat="47.6409" lon="-2.77044">
        <ele>7.4</ele>
        <time>2021-11-12T16:16:41Z</time>
      </trkpt>
      <trkpt lat="47.64072" lon="-2.77023">
        <ele>6.8</ele>
        <time>2021-11-12T16:16:46Z</time>
      </trkpt>
      <trkpt lat="47.64047" lon="-2.76996">
        <ele>6.4</ele>
        <time>2021-11-12T16:16:52Z</time>
      </trkpt>
      <trkpt lat="47.64043" lon="-2.76991">
        <ele>6.4</ele>
        <time>2021-11-12T16:16:53Z</time>
      </trkpt>
      <trkpt lat="47.64018" lon="-2.76966">
        <ele>5.8</ele>
        <time>2021-11-12T16:16:59Z</time>
      </trkpt>
      <trkpt lat="47.64005" lon="-2.7696">
        <ele>5.4</ele>
        <time>2021-11-12T16:17:03Z</time>
      </trkpt>
      <trkpt lat="47.63994" lon="-2.7696">
        <ele>5.2</ele>
        <time>2021-11-12T16:17:06Z</time>
      </trkpt>
      <trkpt lat="47.63991" lon="-2.76957">
        <ele>5.2</ele>
        <time>2021-11-12T16:17:07Z</time>
      </trkpt>
      <trkpt lat="47.63989" lon="-2.76953">
        <ele>5.2</ele>
        <time>2021-11-12T16:17:08Z</time>
      </trkpt>
      <trkpt lat="47.63985" lon="-2.76941">
        <ele>5</ele>
        <time>2021-11-12T16:17:11Z</time>
      </trkpt>
      <trkpt lat="47.63976" lon="-2.76924">
        <ele>4.8</ele>
        <time>2021-11-12T16:17:15Z</time>
      </trkpt>
      <trkpt lat="47.63963" lon="-2.76905">
        <ele>4.6</ele>
        <time>2021-11-12T16:17:19Z</time>
      </trkpt>
      <trkpt lat="47.6396" lon="-2.76902">
        <ele>4.6</ele>
        <time>2021-11-12T16:17:20Z</time>
      </trkpt>
      <trkpt lat="47.63933" lon="-2.76873">
        <ele>4</ele>
        <time>2021-11-12T16:17:26Z</time>
      </trkpt>
      <trkpt lat="47.63906" lon="-2.76841">
        <ele>3.4</ele>
        <time>2021-11-12T16:17:32Z</time>
      </trkpt>
      <trkpt lat="47.63897" lon="-2.76831">
        <ele>3.2</ele>
        <time>2021-11-12T16:17:34Z</time>
      </trkpt>
      <trkpt lat="47.63892" lon="-2.76824">
        <ele>3</ele>
        <time>2021-11-12T16:17:35Z</time>
      </trkpt>
      <trkpt lat="47.63879" lon="-2.76799">
        <ele>2.4</ele>
        <time>2021-11-12T16:17:39Z</time>
      </trkpt>
      <trkpt lat="47.63876" lon="-2.76793">
        <ele>2.2</ele>
        <time>2021-11-12T16:17:40Z</time>
      </trkpt>
      <trkpt lat="47.63867" lon="-2.76786">
        <ele>1.8</ele>
        <time>2021-11-12T16:17:43Z</time>
      </trkpt>
      <trkpt lat="47.63862" lon="-2.76783">
        <ele>1.6</ele>
        <time>2021-11-12T16:17:44Z</time>
      </trkpt>
      <trkpt lat="47.63854" lon="-2.76776">
        <ele>1.4</ele>
        <time>2021-11-12T16:17:46Z</time>
      </trkpt>
      <trkpt lat="47.63852" lon="-2.76772">
        <ele>1.4</ele>
        <time>2021-11-12T16:17:47Z</time>
      </trkpt>
      <trkpt lat="47.6385" lon="-2.76766">
        <ele>1.2</ele>
        <time>2021-11-12T16:17:48Z</time>
      </trkpt>
      <trkpt lat="47.63848" lon="-2.76751">
        <ele>1</ele>
        <time>2021-11-12T16:17:50Z</time>
      </trkpt>
      <trkpt lat="47.63851" lon="-2.76737">
        <ele>0.8</ele>
        <time>2021-11-12T16:17:52Z</time>
      </trkpt>
      <trkpt lat="47.63856" lon="-2.76727">
        <ele>0.6</ele>
        <time>2021-11-12T16:17:54Z</time>
      </trkpt>
      <trkpt lat="47.63866" lon="-2.76719">
        <ele>0.4</ele>
        <time>2021-11-12T16:17:57Z</time>
      </trkpt>
      <trkpt lat="47.6387" lon="-2.76713">
        <ele>0.4</ele>
        <time>2021-11-12T16:17:58Z</time>
      </trkpt>
      <trkpt lat="47.63873" lon="-2.76702">
        <ele>0.2</ele>
        <time>2021-11-12T16:18:00Z</time>
      </trkpt>
      <trkpt lat="47.63878" lon="-2.76682">
        <ele>4.8</ele>
        <time>2021-11-12T16:18:03Z</time>
      </trkpt>
      <trkpt lat="47.63878" lon="-2.76677">
        <ele>4.9</ele>
        <time>2021-11-12T16:18:04Z</time>
      </trkpt>
      <trkpt lat="47.63881" lon="-2.76615">
        <ele>5.1</ele>
        <time>2021-11-12T16:18:14Z</time>
      </trkpt>
      <trkpt lat="47.63883" lon="-2.76561">
        <ele>-0.2</ele>
        <time>2021-11-12T16:18:24Z</time>
      </trkpt>
      <trkpt lat="47.63882" lon="-2.76546">
        <ele>-0.6</ele>
        <time>2021-11-12T16:18:28Z</time>
      </trkpt>
      <trkpt lat="47.63881" lon="-2.76535">
        <ele>-0.8</ele>
        <time>2021-11-12T16:18:31Z</time>
      </trkpt>
      <trkpt lat="47.63879" lon="-2.76522">
        <ele>-1</ele>
        <time>2021-11-12T16:18:34Z</time>
      </trkpt>
      <trkpt lat="47.63877" lon="-2.76518">
        <ele>-1.2</ele>
        <time>2021-11-12T16:18:36Z</time>
      </trkpt>
      <trkpt lat="47.63877" lon="-2.76517">
        <ele>-1.4</ele>
        <time>2021-11-12T16:18:37Z</time>
      </trkpt>
      <trkpt lat="47.63876" lon="-2.76517">
        <ele>-1.6</ele>
        <time>2021-11-12T16:18:38Z</time>
      </trkpt>
      <trkpt lat="47.63874" lon="-2.76515">
        <ele>-2</ele>
        <time>2021-11-12T16:18:40Z</time>
      </trkpt>
      <trkpt lat="47.63873" lon="-2.76513">
        <ele>-2</ele>
        <time>2021-11-12T16:18:41Z</time>
      </trkpt>
      <trkpt lat="47.63868" lon="-2.76502">
        <ele>-2.2</ele>
        <time>2021-11-12T16:18:44Z</time>
      </trkpt>
      <trkpt lat="47.63859" lon="-2.76485">
        <ele>-2.6</ele>
        <time>2021-11-12T16:18:48Z</time>
      </trkpt>
      <trkpt lat="47.63857" lon="-2.7648">
        <ele>-2.8</ele>
        <time>2021-11-12T16:18:49Z</time>
      </trkpt>
      <trkpt lat="47.63856" lon="-2.76456">
        <ele>-3.2</ele>
        <time>2021-11-12T16:18:53Z</time>
      </trkpt>
      <trkpt lat="47.63866" lon="-2.76433">
        <ele>-3.4</ele>
        <time>2021-11-12T16:18:58Z</time>
      </trkpt>
      <trkpt lat="47.63872" lon="-2.76427">
        <ele>-3.8</ele>
        <time>2021-11-12T16:19:01Z</time>
      </trkpt>
      <trkpt lat="47.63873" lon="-2.76426">
        <ele>-4</ele>
        <time>2021-11-12T16:19:03Z</time>
      </trkpt>
      <trkpt lat="47.63882" lon="-2.76426">
        <ele>-4.2</ele>
        <time>2021-11-12T16:19:08Z</time>
      </trkpt>
      <trkpt lat="47.63898" lon="-2.76427">
        <ele>-4.6</ele>
        <time>2021-11-12T16:19:13Z</time>
      </trkpt>
      <trkpt lat="47.63905" lon="-2.76428">
        <ele>-4.8</ele>
        <time>2021-11-12T16:19:15Z</time>
      </trkpt>
      <trkpt lat="47.63909" lon="-2.76427">
        <ele>-5</ele>
        <time>2021-11-12T16:19:16Z</time>
      </trkpt>
      <trkpt lat="47.63915" lon="-2.76423">
        <ele>-5.2</ele>
        <time>2021-11-12T16:19:18Z</time>
      </trkpt>
      <trkpt lat="47.6393" lon="-2.76404">
        <ele>-5.6</ele>
        <time>2021-11-12T16:19:23Z</time>
      </trkpt>
      <trkpt lat="47.63933" lon="-2.764">
        <ele>-5.8</ele>
        <time>2021-11-12T16:19:24Z</time>
      </trkpt>
      <trkpt lat="47.63947" lon="-2.76379">
        <ele>-6.2</ele>
        <time>2021-11-12T16:19:29Z</time>
      </trkpt>
      <trkpt lat="47.63963" lon="-2.76356">
        <ele>-6.6</ele>
        <time>2021-11-12T16:19:34Z</time>
      </trkpt>
      <trkpt lat="47.63971" lon="-2.76341">
        <ele>-6.8</ele>
        <time>2021-11-12T16:19:37Z</time>
      </trkpt>
      <trkpt lat="47.63977" lon="-2.76331">
        <ele>-6.8</ele>
        <time>2021-11-12T16:19:39Z</time>
      </trkpt>
      <trkpt lat="47.63982" lon="-2.76321">
        <ele>-7</ele>
        <time>2021-11-12T16:19:41Z</time>
      </trkpt>
      <trkpt lat="47.63984" lon="-2.76315">
        <ele>-7.2</ele>
        <time>2021-11-12T16:19:42Z</time>
      </trkpt>
      <trkpt lat="47.63994" lon="-2.76292">
        <ele>-7.4</ele>
        <time>2021-11-12T16:19:46Z</time>
      </trkpt>
      <trkpt lat="47.63999" lon="-2.76278">
        <ele>-7.6</ele>
        <time>2021-11-12T16:19:49Z</time>
      </trkpt>
      <trkpt lat="47.64004" lon="-2.76263">
        <ele>-7.8</ele>
        <time>2021-11-12T16:19:52Z</time>
      </trkpt>
      <trkpt lat="47.64004" lon="-2.7626">
        <ele>-7.8</ele>
        <time>2021-11-12T16:19:53Z</time>
      </trkpt>
      <trkpt lat="47.64" lon="-2.76244">
        <ele>-7.8</ele>
        <time>2021-11-12T16:19:58Z</time>
      </trkpt>
      <trkpt lat="47.64" lon="-2.76242">
        <ele>-7.8</ele>
        <time>2021-11-12T16:19:59Z</time>
      </trkpt>
      <trkpt lat="47.64002" lon="-2.76227">
        <ele>-8</ele>
        <time>2021-11-12T16:20:04Z</time>
      </trkpt>
      <trkpt lat="47.64008" lon="-2.76198">
        <ele>-8.2</ele>
        <time>2021-11-12T16:20:10Z</time>
      </trkpt>
      <trkpt lat="47.64014" lon="-2.7618">
        <ele>-8.2</ele>
        <time>2021-11-12T16:20:14Z</time>
      </trkpt>
      <trkpt lat="47.64031" lon="-2.7617">
        <ele>-8.6</ele>
        <time>2021-11-12T16:20:19Z</time>
      </trkpt>
      <trkpt lat="47.64054" lon="-2.76163">
        <ele>-8.6</ele>
        <time>2021-11-12T16:20:26Z</time>
      </trkpt>
      <trkpt lat="47.64075" lon="-2.76157">
        <ele>-8.4</ele>
        <time>2021-11-12T16:20:32Z</time>
      </trkpt>
      <trkpt lat="47.64087" lon="-2.76155">
        <ele>-8.4</ele>
        <time>2021-11-12T16:20:36Z</time>
      </trkpt>
      <trkpt lat="47.64085" lon="-2.76143">
        <ele>-8.4</ele>
        <time>2021-11-12T16:20:39Z</time>
      </trkpt>
      <trkpt lat="47.6408" lon="-2.76117">
        <ele>-8.4</ele>
        <time>2021-11-12T16:20:44Z</time>
      </trkpt>
      <trkpt lat="47.64074" lon="-2.76087">
        <ele>-8</ele>
        <time>2021-11-12T16:20:50Z</time>
      </trkpt>
      <trkpt lat="47.64068" lon="-2.76042">
        <ele>-7.8</ele>
        <time>2021-11-12T16:20:58Z</time>
      </trkpt>
      <trkpt lat="47.64064" lon="-2.76022">
        <ele>-7.8</ele>
        <time>2021-11-12T16:21:02Z</time>
      </trkpt>
      <trkpt lat="47.64064" lon="-2.76012">
        <ele>-7.8</ele>
        <time>2021-11-12T16:21:04Z</time>
      </trkpt>
      <trkpt lat="47.64066" lon="-2.7601">
        <ele>-7.8</ele>
        <time>2021-11-12T16:21:05Z</time>
      </trkpt>
      <trkpt lat="47.64071" lon="-2.76011">
        <ele>-7.8</ele>
        <time>2021-11-12T16:21:07Z</time>
      </trkpt>
      <trkpt lat="47.64074" lon="-2.76015">
        <ele>-7.8</ele>
        <time>2021-11-12T16:21:08Z</time>
      </trkpt>
      <trkpt lat="47.64078" lon="-2.76018">
        <ele>-7.6</ele>
        <time>2021-11-12T16:21:09Z</time>
      </trkpt>
      <trkpt lat="47.64086" lon="-2.76021">
        <ele>-7.4</ele>
        <time>2021-11-12T16:21:11Z</time>
      </trkpt>
      <trkpt lat="47.64091" lon="-2.76022">
        <ele>-7.4</ele>
        <time>2021-11-12T16:21:12Z</time>
      </trkpt>
      <trkpt lat="47.641" lon="-2.76023">
        <ele>-7.4</ele>
        <time>2021-11-12T16:21:14Z</time>
      </trkpt>
      <trkpt lat="47.64124" lon="-2.76021">
        <ele>-7</ele>
        <time>2021-11-12T16:21:19Z</time>
      </trkpt>
      <trkpt lat="47.64134" lon="-2.7602">
        <ele>-7</ele>
        <time>2021-11-12T16:21:21Z</time>
      </trkpt>
      <trkpt lat="47.64148" lon="-2.76017">
        <ele>-7</ele>
        <time>2021-11-12T16:21:24Z</time>
      </trkpt>
      <trkpt lat="47.64157" lon="-2.76014">
        <ele>-7</ele>
        <time>2021-11-12T16:21:26Z</time>
      </trkpt>
      <trkpt lat="47.64166" lon="-2.76011">
        <ele>-6.8</ele>
        <time>2021-11-12T16:21:28Z</time>
      </trkpt>
      <trkpt lat="47.64171" lon="-2.76011">
        <ele>-6.8</ele>
        <time>2021-11-12T16:21:29Z</time>
      </trkpt>
      <trkpt lat="47.64176" lon="-2.7601">
        <ele>-6.8</ele>
        <time>2021-11-12T16:21:30Z</time>
      </trkpt>
      <trkpt lat="47.64188" lon="-2.76009">
        <ele>-6.6</ele>
        <time>2021-11-12T16:21:33Z</time>
      </trkpt>
      <trkpt lat="47.64224" lon="-2.76007">
        <ele>-6.6</ele>
        <time>2021-11-12T16:21:41Z</time>
      </trkpt>
      <trkpt lat="47.64253" lon="-2.76006">
        <ele>-6.6</ele>
        <time>2021-11-12T16:21:47Z</time>
      </trkpt>
      <trkpt lat="47.64257" lon="-2.76005">
        <ele>-6.6</ele>
        <time>2021-11-12T16:21:48Z</time>
      </trkpt>
      <trkpt lat="47.64294" lon="-2.7599">
        <ele>-5.6</ele>
        <time>2021-11-12T16:21:56Z</time>
      </trkpt>
      <trkpt lat="47.64299" lon="-2.75988">
        <ele>-5.6</ele>
        <time>2021-11-12T16:21:57Z</time>
      </trkpt>
      <trkpt lat="47.64307" lon="-2.75984">
        <ele>-5.6</ele>
        <time>2021-11-12T16:21:59Z</time>
      </trkpt>
      <trkpt lat="47.64316" lon="-2.75979">
        <ele>-5.6</ele>
        <time>2021-11-12T16:22:01Z</time>
      </trkpt>
      <trkpt lat="47.64335" lon="-2.75968">
        <ele>-5.6</ele>
        <time>2021-11-12T16:22:06Z</time>
      </trkpt>
      <trkpt lat="47.64343" lon="-2.75964">
        <ele>-5.6</ele>
        <time>2021-11-12T16:22:08Z</time>
      </trkpt>
      <trkpt lat="47.64369" lon="-2.75951">
        <ele>-5.2</ele>
        <time>2021-11-12T16:22:15Z</time>
      </trkpt>
      <trkpt lat="47.64391" lon="-2.75943">
        <ele>-5</ele>
        <time>2021-11-12T16:22:21Z</time>
      </trkpt>
      <trkpt lat="47.64414" lon="-2.75926">
        <ele>-5.2</ele>
        <time>2021-11-12T16:22:28Z</time>
      </trkpt>
      <trkpt lat="47.64426" lon="-2.75916">
        <ele>-5.4</ele>
        <time>2021-11-12T16:22:33Z</time>
      </trkpt>
      <trkpt lat="47.64442" lon="-2.75919">
        <ele>-5.8</ele>
        <time>2021-11-12T16:22:38Z</time>
      </trkpt>
      <trkpt lat="47.64464" lon="-2.75911">
        <ele>-6</ele>
        <time>2021-11-12T16:22:44Z</time>
      </trkpt>
      <trkpt lat="47.64488" lon="-2.75897">
        <ele>-6</ele>
        <time>2021-11-12T16:22:51Z</time>
      </trkpt>
      <trkpt lat="47.64529" lon="-2.75876">
        <ele>-5.8</ele>
        <time>2021-11-12T16:23:02Z</time>
      </trkpt>
      <trkpt lat="47.64552" lon="-2.75864">
        <ele>-5.8</ele>
        <time>2021-11-12T16:23:08Z</time>
      </trkpt>
      <trkpt lat="47.64582" lon="-2.75848">
        <ele>-5.8</ele>
        <time>2021-11-12T16:23:17Z</time>
      </trkpt>
      <trkpt lat="47.64604" lon="-2.75835">
        <ele>-5.6</ele>
        <time>2021-11-12T16:23:24Z</time>
      </trkpt>
      <trkpt lat="47.64629" lon="-2.75818">
        <ele>-5.8</ele>
        <time>2021-11-12T16:23:31Z</time>
      </trkpt>
      <trkpt lat="47.64653" lon="-2.75793">
        <ele>-6</ele>
        <time>2021-11-12T16:23:38Z</time>
      </trkpt>
      <trkpt lat="47.64657" lon="-2.7579">
        <ele>-6</ele>
        <time>2021-11-12T16:23:39Z</time>
      </trkpt>
      <trkpt lat="47.64683" lon="-2.75768">
        <ele>-6</ele>
        <time>2021-11-12T16:23:46Z</time>
      </trkpt>
      <trkpt lat="47.64688" lon="-2.75765">
        <ele>-6</ele>
        <time>2021-11-12T16:23:47Z</time>
      </trkpt>
      <trkpt lat="47.6472" lon="-2.75754">
        <ele>-6.4</ele>
        <time>2021-11-12T16:23:55Z</time>
      </trkpt>
      <trkpt lat="47.64728" lon="-2.75753">
        <ele>-6.4</ele>
        <time>2021-11-12T16:23:57Z</time>
      </trkpt>
      <trkpt lat="47.64739" lon="-2.7575">
        <ele>-6.6</ele>
        <time>2021-11-12T16:24:00Z</time>
      </trkpt>
      <trkpt lat="47.64742" lon="-2.75749">
        <ele>-6.6</ele>
        <time>2021-11-12T16:24:01Z</time>
      </trkpt>
      <trkpt lat="47.64756" lon="-2.75746">
        <ele>-7</ele>
        <time>2021-11-12T16:24:06Z</time>
      </trkpt>
      <trkpt lat="47.64774" lon="-2.75744">
        <ele>-7</ele>
        <time>2021-11-12T16:24:13Z</time>
      </trkpt>
      <trkpt lat="47.64791" lon="-2.75744">
        <ele>-7.2</ele>
        <time>2021-11-12T16:24:18Z</time>
      </trkpt>
      <trkpt lat="47.6482" lon="-2.75745">
        <ele>-7.4</ele>
        <time>2021-11-12T16:24:26Z</time>
      </trkpt>
      <trkpt lat="47.64853" lon="-2.75747">
        <ele>-7.6</ele>
        <time>2021-11-12T16:24:34Z</time>
      </trkpt>
      <trkpt lat="47.64865" lon="-2.75747">
        <ele>-7.8</ele>
        <time>2021-11-12T16:24:37Z</time>
      </trkpt>
      <trkpt lat="47.64874" lon="-2.75747">
        <ele>-8</ele>
        <time>2021-11-12T16:24:39Z</time>
      </trkpt>
      <trkpt lat="47.64903" lon="-2.7575">
        <ele>-8.2</ele>
        <time>2021-11-12T16:24:46Z</time>
      </trkpt>
      <trkpt lat="47.64931" lon="-2.75751">
        <ele>-8.4</ele>
        <time>2021-11-12T16:24:53Z</time>
      </trkpt>
      <trkpt lat="47.64962" lon="-2.75753">
        <ele>-8.6</ele>
        <time>2021-11-12T16:25:01Z</time>
      </trkpt>
      <trkpt lat="47.64966" lon="-2.75752">
        <ele>-8.6</ele>
        <time>2021-11-12T16:25:02Z</time>
      </trkpt>
      <trkpt lat="47.64985" lon="-2.75752">
        <ele>-8.6</ele>
        <time>2021-11-12T16:25:07Z</time>
      </trkpt>
      <trkpt lat="47.64997" lon="-2.75754">
        <ele>-8.6</ele>
        <time>2021-11-12T16:25:11Z</time>
      </trkpt>
      <trkpt lat="47.6502" lon="-2.75755">
        <ele>-8.8</ele>
        <time>2021-11-12T16:25:18Z</time>
      </trkpt>
      <trkpt lat="47.65043" lon="-2.75757">
        <ele>-9</ele>
        <time>2021-11-12T16:25:25Z</time>
      </trkpt>
      <trkpt lat="47.65067" lon="-2.75756">
        <ele>-9.2</ele>
        <time>2021-11-12T16:25:32Z</time>
      </trkpt>
      <trkpt lat="47.65081" lon="-2.75758">
        <ele>-9.4</ele>
        <time>2021-11-12T16:25:37Z</time>
      </trkpt>
      <trkpt lat="47.65083" lon="-2.75756">
        <ele>-9.4</ele>
        <time>2021-11-12T16:25:38Z</time>
      </trkpt>
      <trkpt lat="47.65086" lon="-2.7575">
        <ele>-9.4</ele>
        <time>2021-11-12T16:25:40Z</time>
      </trkpt>
      <trkpt lat="47.65088" lon="-2.75723">
        <ele>-9.6</ele>
        <time>2021-11-12T16:25:47Z</time>
      </trkpt>
      <trkpt lat="47.65089" lon="-2.75716">
        <ele>-9.6</ele>
        <time>2021-11-12T16:25:51Z</time>
      </trkpt>
      <trkpt lat="47.6509" lon="-2.75715">
        <ele>-9.6</ele>
        <time>2021-11-12T16:25:52Z</time>
      </trkpt>
      <trkpt lat="47.65095" lon="-2.75714">
        <ele>-9.6</ele>
        <time>2021-11-12T16:25:55Z</time>
      </trkpt>
      <trkpt lat="47.65101" lon="-2.75715">
        <ele>-9.6</ele>
        <time>2021-11-12T16:25:58Z</time>
      </trkpt>
      <trkpt lat="47.65106" lon="-2.75717">
        <ele>-9.6</ele>
        <time>2021-11-12T16:26:00Z</time>
      </trkpt>
      <trkpt lat="47.65118" lon="-2.75715">
        <ele>-9.8</ele>
        <time>2021-11-12T16:26:05Z</time>
      </trkpt>
      <trkpt lat="47.65123" lon="-2.75712">
        <ele>-10</ele>
        <time>2021-11-12T16:26:07Z</time>
      </trkpt>
      <trkpt lat="47.65126" lon="-2.75715">
        <ele>-10</ele>
        <time>2021-11-12T16:26:09Z</time>
      </trkpt>
      <trkpt lat="47.65127" lon="-2.75719">
        <ele>-10</ele>
        <time>2021-11-12T16:26:10Z</time>
      </trkpt>
      <trkpt lat="47.65126" lon="-2.75729">
        <ele>-10.2</ele>
        <time>2021-11-12T16:26:13Z</time>
      </trkpt>
      <trkpt lat="47.65127" lon="-2.75756">
        <ele>-10.4</ele>
        <time>2021-11-12T16:26:19Z</time>
      </trkpt>
      <trkpt lat="47.65128" lon="-2.75758">
        <ele>-10.4</ele>
        <time>2021-11-12T16:26:20Z</time>
      </trkpt>
      <trkpt lat="47.6513" lon="-2.7576">
        <ele>-10.4</ele>
        <time>2021-11-12T16:26:21Z</time>
      </trkpt>
      <trkpt lat="47.65139" lon="-2.75762">
        <ele>-10.6</ele>
        <time>2021-11-12T16:26:24Z</time>
      </trkpt>
      <trkpt lat="47.65161" lon="-2.75762">
        <ele>-10.6</ele>
        <time>2021-11-12T16:26:31Z</time>
      </trkpt>
      <trkpt lat="47.65164" lon="-2.75762">
        <ele>-10.8</ele>
        <time>2021-11-12T16:26:32Z</time>
      </trkpt>
      <trkpt lat="47.65175" lon="-2.75763">
        <ele>-10.8</ele>
        <time>2021-11-12T16:26:36Z</time>
      </trkpt>
      <trkpt lat="47.65194" lon="-2.75764">
        <ele>-11.2</ele>
        <time>2021-11-12T16:26:43Z</time>
      </trkpt>
      <trkpt lat="47.65211" lon="-2.75766">
        <ele>-11.4</ele>
        <time>2021-11-12T16:26:50Z</time>
      </trkpt>
      <trkpt lat="47.65231" lon="-2.75766">
        <ele>-11.6</ele>
        <time>2021-11-12T16:26:57Z</time>
      </trkpt>
      <trkpt lat="47.65255" lon="-2.75768">
        <ele>-11.6</ele>
        <time>2021-11-12T16:27:06Z</time>
      </trkpt>
      <trkpt lat="47.65275" lon="-2.75768">
        <ele>-11.8</ele>
        <time>2021-11-12T16:27:13Z</time>
      </trkpt>
      <trkpt lat="47.65296" lon="-2.75774">
        <ele>-11.6</ele>
        <time>2021-11-12T16:27:21Z</time>
      </trkpt>
      <trkpt lat="47.65311" lon="-2.75773">
        <ele>-11.8</ele>
        <time>2021-11-12T16:27:26Z</time>
      </trkpt>
      <trkpt lat="47.65313" lon="-2.75773">
        <ele>-11.8</ele>
        <time>2021-11-12T16:27:27Z</time>
      </trkpt>
      <trkpt lat="47.65322" lon="-2.75771">
        <ele>-12</ele>
        <time>2021-11-12T16:27:32Z</time>
      </trkpt>
      <trkpt lat="47.65324" lon="-2.75771">
        <ele>-12</ele>
        <time>2021-11-12T16:27:33Z</time>
      </trkpt>
      <trkpt lat="47.65344" lon="-2.75774">
        <ele>-12</ele>
        <time>2021-11-12T16:27:39Z</time>
      </trkpt>
      <trkpt lat="47.6537" lon="-2.75776">
        <ele>-12</ele>
        <time>2021-11-12T16:27:47Z</time>
      </trkpt>
      <trkpt lat="47.65395" lon="-2.75778">
        <ele>-12.2</ele>
        <time>2021-11-12T16:27:55Z</time>
      </trkpt>
      <trkpt lat="47.65405" lon="-2.75784">
        <ele>-12.2</ele>
        <time>2021-11-12T16:28:00Z</time>
      </trkpt>
      <trkpt lat="47.65406" lon="-2.75785">
        <ele>-12.2</ele>
        <time>2021-11-12T16:28:04Z</time>
      </trkpt>
      <trkpt lat="47.65406" lon="-2.75785">
        <ele>-12.2</ele>
        <time>2021-11-12T16:28:20Z</time>
      </trkpt>
      <trkpt lat="47.65406" lon="-2.7578">
        <ele>-12.2</ele>
        <time>2021-11-12T16:28:23Z</time>
      </trkpt>
      <trkpt lat="47.65407" lon="-2.75778">
        <ele>-12.2</ele>
        <time>2021-11-12T16:28:25Z</time>
      </trkpt>
      <trkpt lat="47.65407" lon="-2.75778">
        <ele>-12.2</ele>
        <time>2021-11-12T16:28:31Z</time>
      </trkpt>
      <trkpt lat="47.65417" lon="-2.75773">
        <ele>-12</ele>
        <time>2021-11-12T16:28:35Z</time>
      </trkpt>
      <trkpt lat="47.65424" lon="-2.75757">
        <ele>-12</ele>
        <time>2021-11-12T16:28:40Z</time>
      </trkpt>
      <trkpt lat="47.65434" lon="-2.75737">
        <ele>-12.2</ele>
        <time>2021-11-12T16:28:46Z</time>
      </trkpt>
      <trkpt lat="47.65436" lon="-2.75734">
        <ele>-12.2</ele>
        <time>2021-11-12T16:28:47Z</time>
      </trkpt>
      <trkpt lat="47.65444" lon="-2.75721">
        <ele>-12.2</ele>
        <time>2021-11-12T16:28:52Z</time>
      </trkpt>
      <trkpt lat="47.65447" lon="-2.75717">
        <ele>-12.2</ele>
        <time>2021-11-12T16:28:54Z</time>
      </trkpt>
      <trkpt lat="47.65449" lon="-2.75712">
        <ele>-12</ele>
        <time>2021-11-12T16:28:56Z</time>
      </trkpt>
      <trkpt lat="47.65465" lon="-2.75717">
        <ele>-12.4</ele>
        <time>2021-11-12T16:29:00Z</time>
      </trkpt>
      <trkpt lat="47.65473" lon="-2.75719">
        <ele>-12.2</ele>
        <time>2021-11-12T16:29:01Z</time>
      </trkpt>
      <trkpt lat="47.65475" lon="-2.75715">
        <ele>-12.2</ele>
        <time>2021-11-12T16:29:03Z</time>
      </trkpt>
      <trkpt lat="47.65471" lon="-2.7571">
        <ele>-12.2</ele>
        <time>2021-11-12T16:29:04Z</time>
      </trkpt>
      <trkpt lat="47.65474" lon="-2.75691">
        <ele>-12.2</ele>
        <time>2021-11-12T16:29:08Z</time>
      </trkpt>
      <trkpt lat="47.65472" lon="-2.7567">
        <ele>-11.8</ele>
        <time>2021-11-12T16:29:13Z</time>
      </trkpt>
      <trkpt lat="47.6548" lon="-2.75652">
        <ele>-11.8</ele>
        <time>2021-11-12T16:29:18Z</time>
      </trkpt>
      <trkpt lat="47.65481" lon="-2.7565">
        <ele>-11.6</ele>
        <time>2021-11-12T16:29:19Z</time>
      </trkpt>
      <trkpt lat="47.65489" lon="-2.75632">
        <ele>-11.2</ele>
        <time>2021-11-12T16:29:24Z</time>
      </trkpt>
      <trkpt lat="47.655" lon="-2.75624">
        <ele>-11.2</ele>
        <time>2021-11-12T16:29:27Z</time>
      </trkpt>
      <trkpt lat="47.655" lon="-2.75615">
        <ele>-11.2</ele>
        <time>2021-11-12T16:29:29Z</time>
      </trkpt>
      <trkpt lat="47.65504" lon="-2.7559">
        <ele>-10.6</ele>
        <time>2021-11-12T16:29:34Z</time>
      </trkpt>
      <trkpt lat="47.65521" lon="-2.75562">
        <ele>-10.4</ele>
        <time>2021-11-12T16:29:41Z</time>
      </trkpt>
      <trkpt lat="47.65528" lon="-2.75552">
        <ele>-10.4</ele>
        <time>2021-11-12T16:29:43Z</time>
      </trkpt>
      <trkpt lat="47.65536" lon="-2.75537">
        <ele>-10.2</ele>
        <time>2021-11-12T16:29:46Z</time>
      </trkpt>
      <trkpt lat="47.65539" lon="-2.75532">
        <ele>-10.2</ele>
        <time>2021-11-12T16:29:47Z</time>
      </trkpt>
      <trkpt lat="47.65542" lon="-2.75527">
        <ele>-10.2</ele>
        <time>2021-11-12T16:29:48Z</time>
      </trkpt>
      <trkpt lat="47.6555" lon="-2.75516">
        <ele>-10.2</ele>
        <time>2021-11-12T16:29:51Z</time>
      </trkpt>
      <trkpt lat="47.65561" lon="-2.75509">
        <ele>-10</ele>
        <time>2021-11-12T16:29:54Z</time>
      </trkpt>
      <trkpt lat="47.65569" lon="-2.75507">
        <ele>-9.8</ele>
        <time>2021-11-12T16:29:56Z</time>
      </trkpt>
      <trkpt lat="47.65602" lon="-2.75498">
        <ele>-9.6</ele>
        <time>2021-11-12T16:30:03Z</time>
      </trkpt>
      <trkpt lat="47.65607" lon="-2.75498">
        <ele>-9.4</ele>
        <time>2021-11-12T16:30:04Z</time>
      </trkpt>
      <trkpt lat="47.65617" lon="-2.75498">
        <ele>-9.2</ele>
        <time>2021-11-12T16:30:06Z</time>
      </trkpt>
      <trkpt lat="47.65624" lon="-2.75498">
        <ele>-9.2</ele>
        <time>2021-11-12T16:30:07Z</time>
      </trkpt>
      <trkpt lat="47.65628" lon="-2.75499">
        <ele>-9.2</ele>
        <time>2021-11-12T16:30:08Z</time>
      </trkpt>
      <trkpt lat="47.65658" lon="-2.755">
        <ele>-9</ele>
        <time>2021-11-12T16:30:14Z</time>
      </trkpt>
      <trkpt lat="47.65695" lon="-2.75497">
        <ele>-9</ele>
        <time>2021-11-12T16:30:21Z</time>
      </trkpt>
      <trkpt lat="47.65743" lon="-2.75488">
        <ele>-8.6</ele>
        <time>2021-11-12T16:30:30Z</time>
      </trkpt>
      <trkpt lat="47.65758" lon="-2.75486">
        <ele>-8.4</ele>
        <time>2021-11-12T16:30:33Z</time>
      </trkpt>
      <trkpt lat="47.65779" lon="-2.75485">
        <ele>-8.2</ele>
        <time>2021-11-12T16:30:37Z</time>
      </trkpt>
      <trkpt lat="47.65816" lon="-2.75484">
        <ele>-7.8</ele>
        <time>2021-11-12T16:30:45Z</time>
      </trkpt>
      <trkpt lat="47.6582" lon="-2.75483">
        <ele>-7.8</ele>
        <time>2021-11-12T16:30:46Z</time>
      </trkpt>
      <trkpt lat="47.65825" lon="-2.75476">
        <ele>-7.6</ele>
        <time>2021-11-12T16:30:48Z</time>
      </trkpt>
      <trkpt lat="47.65832" lon="-2.75441">
        <ele>-7.2</ele>
        <time>2021-11-12T16:30:54Z</time>
      </trkpt>
      <trkpt lat="47.6584" lon="-2.75385">
        <ele>-6.6</ele>
        <time>2021-11-12T16:31:04Z</time>
      </trkpt>
      <trkpt lat="47.65842" lon="-2.75361">
        <ele>-6.2</ele>
        <time>2021-11-12T16:31:08Z</time>
      </trkpt>
      <trkpt lat="47.65846" lon="-2.75325">
        <ele>-5.6</ele>
        <time>2021-11-12T16:31:14Z</time>
      </trkpt>
      <trkpt lat="47.65846" lon="-2.75312">
        <ele>-5.6</ele>
        <time>2021-11-12T16:31:16Z</time>
      </trkpt>
      <trkpt lat="47.65843" lon="-2.753">
        <ele>-5.4</ele>
        <time>2021-11-12T16:31:18Z</time>
      </trkpt>
      <trkpt lat="47.65841" lon="-2.75295">
        <ele>-5.4</ele>
        <time>2021-11-12T16:31:19Z</time>
      </trkpt>
      <trkpt lat="47.65837" lon="-2.75284">
        <ele>-5.2</ele>
        <time>2021-11-12T16:31:21Z</time>
      </trkpt>
      <trkpt lat="47.65835" lon="-2.7528">
        <ele>-5.2</ele>
        <time>2021-11-12T16:31:22Z</time>
      </trkpt>
      <trkpt lat="47.65828" lon="-2.75259">
        <ele>-5.2</ele>
        <time>2021-11-12T16:31:26Z</time>
      </trkpt>
      <trkpt lat="47.65822" lon="-2.75238">
        <ele>-4.8</ele>
        <time>2021-11-12T16:31:30Z</time>
      </trkpt>
      <trkpt lat="47.65811" lon="-2.75197">
        <ele>-4.6</ele>
        <time>2021-11-12T16:31:36Z</time>
      </trkpt>
      <trkpt lat="47.65807" lon="-2.75175">
        <ele>-4.4</ele>
        <time>2021-11-12T16:31:39Z</time>
      </trkpt>
      <trkpt lat="47.65808" lon="-2.75162">
        <ele>-4.4</ele>
        <time>2021-11-12T16:31:41Z</time>
      </trkpt>
      <trkpt lat="47.6581" lon="-2.75148">
        <ele>-4.4</ele>
        <time>2021-11-12T16:31:43Z</time>
      </trkpt>
      <trkpt lat="47.65814" lon="-2.75115">
        <ele>-4.2</ele>
        <time>2021-11-12T16:31:47Z</time>
      </trkpt>
      <trkpt lat="47.65816" lon="-2.75089">
        <ele>-4</ele>
        <time>2021-11-12T16:31:50Z</time>
      </trkpt>
      <trkpt lat="47.65829" lon="-2.75029">
        <ele>-3.8</ele>
        <time>2021-11-12T16:31:57Z</time>
      </trkpt>
      <trkpt lat="47.65832" lon="-2.75016">
        <ele>-3.8</ele>
        <time>2021-11-12T16:31:59Z</time>
      </trkpt>
      <trkpt lat="47.65833" lon="-2.75007">
        <ele>-3.8</ele>
        <time>2021-11-12T16:32:01Z</time>
      </trkpt>
      <trkpt lat="47.65835" lon="-2.75001">
        <ele>-3.8</ele>
        <time>2021-11-12T16:32:05Z</time>
      </trkpt>
      <trkpt lat="47.65836" lon="-2.75001">
        <ele>-3.8</ele>
        <time>2021-11-12T16:32:06Z</time>
      </trkpt>
      <trkpt lat="47.65843" lon="-2.74997">
        <ele>-3.6</ele>
        <time>2021-11-12T16:32:10Z</time>
      </trkpt>
      <trkpt lat="47.65856" lon="-2.74986">
        <ele>-3.4</ele>
        <time>2021-11-12T16:32:15Z</time>
      </trkpt>
      <trkpt lat="47.65868" lon="-2.74983">
        <ele>-3.4</ele>
        <time>2021-11-12T16:32:20Z</time>
      </trkpt>
      <trkpt lat="47.65873" lon="-2.74989">
        <ele>-3.4</ele>
        <time>2021-11-12T16:32:23Z</time>
      </trkpt>
      <trkpt lat="47.65879" lon="-2.74998">
        <ele>-3.2</ele>
        <time>2021-11-12T16:32:26Z</time>
      </trkpt>
      <trkpt lat="47.65892" lon="-2.75021">
        <ele>-2.8</ele>
        <time>2021-11-12T16:32:35Z</time>
      </trkpt>
      <trkpt lat="47.65897" lon="-2.75031">
        <ele>-2.8</ele>
        <time>2021-11-12T16:32:40Z</time>
      </trkpt>
      <trkpt lat="47.65908" lon="-2.75044">
        <ele>-2.6</ele>
        <time>2021-11-12T16:32:46Z</time>
      </trkpt>
      <trkpt lat="47.6591" lon="-2.75045">
        <ele>-2.6</ele>
        <time>2021-11-12T16:32:47Z</time>
      </trkpt>
      <trkpt lat="47.65914" lon="-2.75049">
        <ele>-2.4</ele>
        <time>2021-11-12T16:32:50Z</time>
      </trkpt>
      <trkpt lat="47.65919" lon="-2.75059">
        <ele>-2</ele>
        <time>2021-11-12T16:32:54Z</time>
      </trkpt>
      <trkpt lat="47.65921" lon="-2.75065">
        <ele>-1.8</ele>
        <time>2021-11-12T16:32:56Z</time>
      </trkpt>
      <trkpt lat="47.65921" lon="-2.75085">
        <ele>-1.8</ele>
        <time>2021-11-12T16:33:00Z</time>
      </trkpt>
      <trkpt lat="47.65921" lon="-2.75103">
        <ele>-1.6</ele>
        <time>2021-11-12T16:33:06Z</time>
      </trkpt>
      <trkpt lat="47.6592" lon="-2.75104">
        <ele>-1.6</ele>
        <time>2021-11-12T16:33:07Z</time>
      </trkpt>
      <trkpt lat="47.65919" lon="-2.75109">
        <ele>-1.4</ele>
        <time>2021-11-12T16:33:10Z</time>
      </trkpt>
      <trkpt lat="47.6592" lon="-2.75111">
        <ele>-1.2</ele>
        <time>2021-11-12T16:33:11Z</time>
      </trkpt>
      <trkpt lat="47.65921" lon="-2.75112">
        <ele>-1.2</ele>
        <time>2021-11-12T16:33:12Z</time>
      </trkpt>
      <trkpt lat="47.65921" lon="-2.75116">
        <ele>-1.2</ele>
        <time>2021-11-12T16:33:13Z</time>
      </trkpt>
      <trkpt lat="47.65923" lon="-2.75125">
        <ele>-1</ele>
        <time>2021-11-12T16:33:16Z</time>
      </trkpt>
      <trkpt lat="47.65924" lon="-2.75142">
        <ele>-0.8</ele>
        <time>2021-11-12T16:33:22Z</time>
      </trkpt>
      <trkpt lat="47.65927" lon="-2.75151">
        <ele>-0.6</ele>
        <time>2021-11-12T16:33:26Z</time>
      </trkpt>
      <trkpt lat="47.65927" lon="-2.75152">
        <ele>-0.6</ele>
        <time>2021-11-12T16:33:27Z</time>
      </trkpt>
      <trkpt lat="47.65927" lon="-2.75152">
        <ele>-0.4</ele>
        <time>2021-11-12T16:33:32Z</time>
      </trkpt>
    </trkseg>
  </trk>
</gpx>